<?xml version="1.0" encoding="UTF-8" standalone="no" ?>
<gpx xmlns="http://www.topografix.com/GPX/1/1" xmlns:xsi="http://www.w3.org/2001/XMLSchema-instance" xsi:schemaLocation="http://www.topografix.com/GPX/1/1 http://www.topografix.com/GPX/1/1/gpx.xsd" version="1.1" creator="VisuGPX - https://www.visugpx.com">
  <metadata>
    <name>CHARAVINES_n_18_50 1500</name>
    <desc><![CDATA[Grand tour de Charavines-50km-1240m]]></desc>
  </metadata>
  <trk>
    <name><![CDATA[CHARAVINES_n_18_50 1500]]></name>
    <trkseg>
      <trkpt lat="45.43318" lon="5.51625">
        <ele>495.8</ele>
        <time>2017-12-30T16:04:42Z</time>
      </trkpt>
      <trkpt lat="45.43309" lon="5.51707">
        <ele>495.4</ele>
        <time>2017-12-30T16:05:15Z</time>
      </trkpt>
      <trkpt lat="45.43309" lon="5.51707">
        <ele>495.4</ele>
        <time>2017-12-30T16:05:15Z</time>
      </trkpt>
      <trkpt lat="45.43245" lon="5.51707">
        <ele>496.5</ele>
        <time>2017-12-30T16:05:51Z</time>
      </trkpt>
      <trkpt lat="45.43245" lon="5.51707">
        <ele>496.5</ele>
        <time>2017-12-30T16:05:51Z</time>
      </trkpt>
      <trkpt lat="45.43026" lon="5.51621">
        <ele>496.8</ele>
        <time>2017-12-30T16:08:01Z</time>
      </trkpt>
      <trkpt lat="45.43026" lon="5.51621">
        <ele>496.8</ele>
        <time>2017-12-30T16:08:01Z</time>
      </trkpt>
      <trkpt lat="45.42963" lon="5.51612">
        <ele>496.6</ele>
        <time>2017-12-30T16:08:38Z</time>
      </trkpt>
      <trkpt lat="45.42963" lon="5.51612">
        <ele>496.6</ele>
        <time>2017-12-30T16:08:38Z</time>
      </trkpt>
      <trkpt lat="45.4291" lon="5.51636">
        <ele>495.9</ele>
        <time>2017-12-30T16:09:09Z</time>
      </trkpt>
      <trkpt lat="45.4291" lon="5.51636">
        <ele>495.9</ele>
        <time>2017-12-30T16:09:09Z</time>
      </trkpt>
      <trkpt lat="45.42838" lon="5.51722">
        <ele>495.4</ele>
        <time>2017-12-30T16:10:03Z</time>
      </trkpt>
      <trkpt lat="45.42838" lon="5.51722">
        <ele>495.4</ele>
        <time>2017-12-30T16:10:03Z</time>
      </trkpt>
      <trkpt lat="45.42815" lon="5.51805">
        <ele>498.1</ele>
        <time>2017-12-30T16:10:39Z</time>
      </trkpt>
      <trkpt lat="45.42815" lon="5.51805">
        <ele>498.1</ele>
        <time>2017-12-30T16:10:39Z</time>
      </trkpt>
      <trkpt lat="45.42778" lon="5.51902">
        <ele>499.6</ele>
        <time>2017-12-30T16:11:23Z</time>
      </trkpt>
      <trkpt lat="45.42778" lon="5.51902">
        <ele>499.6</ele>
        <time>2017-12-30T16:11:23Z</time>
      </trkpt>
      <trkpt lat="45.42727" lon="5.51943">
        <ele>498</ele>
        <time>2017-12-30T16:11:57Z</time>
      </trkpt>
      <trkpt lat="45.42727" lon="5.51943">
        <ele>498</ele>
        <time>2017-12-30T16:11:57Z</time>
      </trkpt>
      <trkpt lat="45.42675" lon="5.51945">
        <ele>494.6</ele>
        <time>2017-12-30T16:12:26Z</time>
      </trkpt>
      <trkpt lat="45.42675" lon="5.51945">
        <ele>494.6</ele>
        <time>2017-12-30T16:12:26Z</time>
      </trkpt>
      <trkpt lat="45.42641" lon="5.51924">
        <ele>493.2</ele>
        <time>2017-12-30T16:12:48Z</time>
      </trkpt>
      <trkpt lat="45.42641" lon="5.51924">
        <ele>493.2</ele>
        <time>2017-12-30T16:12:48Z</time>
      </trkpt>
      <trkpt lat="45.42657" lon="5.51812">
        <ele>498.1</ele>
        <time>2017-12-30T16:13:33Z</time>
      </trkpt>
      <trkpt lat="45.42657" lon="5.51812">
        <ele>498.1</ele>
        <time>2017-12-30T16:13:33Z</time>
      </trkpt>
      <trkpt lat="45.42593" lon="5.51507">
        <ele>504.6</ele>
        <time>2017-12-30T16:15:41Z</time>
      </trkpt>
      <trkpt lat="45.42593" lon="5.51507">
        <ele>504.6</ele>
        <time>2017-12-30T16:15:41Z</time>
      </trkpt>
      <trkpt lat="45.42537" lon="5.51319">
        <ele>506.2</ele>
        <time>2017-12-30T16:17:03Z</time>
      </trkpt>
      <trkpt lat="45.42537" lon="5.51319">
        <ele>506.2</ele>
        <time>2017-12-30T16:17:03Z</time>
      </trkpt>
      <trkpt lat="45.42489" lon="5.51155">
        <ele>537.5</ele>
        <time>2017-12-30T16:18:15Z</time>
      </trkpt>
      <trkpt lat="45.42489" lon="5.51155">
        <ele>537.5</ele>
        <time>2017-12-30T16:18:15Z</time>
      </trkpt>
      <trkpt lat="45.42447" lon="5.51172">
        <ele>526.4</ele>
        <time>2017-12-30T16:18:39Z</time>
      </trkpt>
      <trkpt lat="45.42447" lon="5.51172">
        <ele>526.4</ele>
        <time>2017-12-30T16:18:39Z</time>
      </trkpt>
      <trkpt lat="45.42427" lon="5.51126">
        <ele>529</ele>
        <time>2017-12-30T16:19:01Z</time>
      </trkpt>
      <trkpt lat="45.42427" lon="5.51126">
        <ele>529</ele>
        <time>2017-12-30T16:19:01Z</time>
      </trkpt>
      <trkpt lat="45.42433" lon="5.51087">
        <ele>535.9</ele>
        <time>2017-12-30T16:19:17Z</time>
      </trkpt>
      <trkpt lat="45.42433" lon="5.51087">
        <ele>535.9</ele>
        <time>2017-12-30T16:19:17Z</time>
      </trkpt>
      <trkpt lat="45.42459" lon="5.51048">
        <ele>543.3</ele>
        <time>2017-12-30T16:19:39Z</time>
      </trkpt>
      <trkpt lat="45.42459" lon="5.51048">
        <ele>543.3</ele>
        <time>2017-12-30T16:19:39Z</time>
      </trkpt>
      <trkpt lat="45.42492" lon="5.50943">
        <ele>542.2</ele>
        <time>2017-12-30T16:20:25Z</time>
      </trkpt>
      <trkpt lat="45.42492" lon="5.50943">
        <ele>542.2</ele>
        <time>2017-12-30T16:20:25Z</time>
      </trkpt>
      <trkpt lat="45.42546" lon="5.5084">
        <ele>547.6</ele>
        <time>2017-12-30T16:21:17Z</time>
      </trkpt>
      <trkpt lat="45.42546" lon="5.5084">
        <ele>547.6</ele>
        <time>2017-12-30T16:21:17Z</time>
      </trkpt>
      <trkpt lat="45.42567" lon="5.5073">
        <ele>545.3</ele>
        <time>2017-12-30T16:22:02Z</time>
      </trkpt>
      <trkpt lat="45.42567" lon="5.5073">
        <ele>545.3</ele>
        <time>2017-12-30T16:22:02Z</time>
      </trkpt>
      <trkpt lat="45.42558" lon="5.50683">
        <ele>551.3</ele>
        <time>2017-12-30T16:22:22Z</time>
      </trkpt>
      <trkpt lat="45.42558" lon="5.50683">
        <ele>551.3</ele>
        <time>2017-12-30T16:22:22Z</time>
      </trkpt>
      <trkpt lat="45.42579" lon="5.50625">
        <ele>549.6</ele>
        <time>2017-12-30T16:22:48Z</time>
      </trkpt>
      <trkpt lat="45.42579" lon="5.50625">
        <ele>549.6</ele>
        <time>2017-12-30T16:22:48Z</time>
      </trkpt>
      <trkpt lat="45.42568" lon="5.50582">
        <ele>558.3</ele>
        <time>2017-12-30T16:23:06Z</time>
      </trkpt>
      <trkpt lat="45.42568" lon="5.50582">
        <ele>558.3</ele>
        <time>2017-12-30T16:23:06Z</time>
      </trkpt>
      <trkpt lat="45.42591" lon="5.50497">
        <ele>562.6</ele>
        <time>2017-12-30T16:23:43Z</time>
      </trkpt>
      <trkpt lat="45.42591" lon="5.50497">
        <ele>562.6</ele>
        <time>2017-12-30T16:23:43Z</time>
      </trkpt>
      <trkpt lat="45.42559" lon="5.5046">
        <ele>570.9</ele>
        <time>2017-12-30T16:24:07Z</time>
      </trkpt>
      <trkpt lat="45.42559" lon="5.5046">
        <ele>570.9</ele>
        <time>2017-12-30T16:24:07Z</time>
      </trkpt>
      <trkpt lat="45.42525" lon="5.50331">
        <ele>578.1</ele>
        <time>2017-12-30T16:25:02Z</time>
      </trkpt>
      <trkpt lat="45.42525" lon="5.50331">
        <ele>578.1</ele>
        <time>2017-12-30T16:25:02Z</time>
      </trkpt>
      <trkpt lat="45.42496" lon="5.50265">
        <ele>584.5</ele>
        <time>2017-12-30T16:25:33Z</time>
      </trkpt>
      <trkpt lat="45.42496" lon="5.50265">
        <ele>584.5</ele>
        <time>2017-12-30T16:25:33Z</time>
      </trkpt>
      <trkpt lat="45.42483" lon="5.50115">
        <ele>590.5</ele>
        <time>2017-12-30T16:26:34Z</time>
      </trkpt>
      <trkpt lat="45.42483" lon="5.50115">
        <ele>590.5</ele>
        <time>2017-12-30T16:26:34Z</time>
      </trkpt>
      <trkpt lat="45.42419" lon="5.50203">
        <ele>595.7</ele>
        <time>2017-12-30T16:27:25Z</time>
      </trkpt>
      <trkpt lat="45.42419" lon="5.50203">
        <ele>595.7</ele>
        <time>2017-12-30T16:27:25Z</time>
      </trkpt>
      <trkpt lat="45.42364" lon="5.5031">
        <ele>601.7</ele>
        <time>2017-12-30T16:28:18Z</time>
      </trkpt>
      <trkpt lat="45.42364" lon="5.5031">
        <ele>601.7</ele>
        <time>2017-12-30T16:28:18Z</time>
      </trkpt>
      <trkpt lat="45.42222" lon="5.50351">
        <ele>614.1</ele>
        <time>2017-12-30T16:29:41Z</time>
      </trkpt>
      <trkpt lat="45.42222" lon="5.50351">
        <ele>614.1</ele>
        <time>2017-12-30T16:29:41Z</time>
      </trkpt>
      <trkpt lat="45.42245" lon="5.50499">
        <ele>614.2</ele>
        <time>2017-12-30T16:30:42Z</time>
      </trkpt>
      <trkpt lat="45.42245" lon="5.50499">
        <ele>614.2</ele>
        <time>2017-12-30T16:30:42Z</time>
      </trkpt>
      <trkpt lat="45.42228" lon="5.50661">
        <ele>616.4</ele>
        <time>2017-12-30T16:31:47Z</time>
      </trkpt>
      <trkpt lat="45.42228" lon="5.50661">
        <ele>616.4</ele>
        <time>2017-12-30T16:31:47Z</time>
      </trkpt>
      <trkpt lat="45.4221" lon="5.50745">
        <ele>617.4</ele>
        <time>2017-12-30T16:32:23Z</time>
      </trkpt>
      <trkpt lat="45.4221" lon="5.50745">
        <ele>617.4</ele>
        <time>2017-12-30T16:32:23Z</time>
      </trkpt>
      <trkpt lat="45.42162" lon="5.50818">
        <ele>617.5</ele>
        <time>2017-12-30T16:33:03Z</time>
      </trkpt>
      <trkpt lat="45.42162" lon="5.50818">
        <ele>617.5</ele>
        <time>2017-12-30T16:33:03Z</time>
      </trkpt>
      <trkpt lat="45.42123" lon="5.5084">
        <ele>621.6</ele>
        <time>2017-12-30T16:33:27Z</time>
      </trkpt>
      <trkpt lat="45.42123" lon="5.5084">
        <ele>621.6</ele>
        <time>2017-12-30T16:33:27Z</time>
      </trkpt>
      <trkpt lat="45.42087" lon="5.50801">
        <ele>627.3</ele>
        <time>2017-12-30T16:33:53Z</time>
      </trkpt>
      <trkpt lat="45.42087" lon="5.50801">
        <ele>627.3</ele>
        <time>2017-12-30T16:33:53Z</time>
      </trkpt>
      <trkpt lat="45.41999" lon="5.50823">
        <ele>642.4</ele>
        <time>2017-12-30T16:34:44Z</time>
      </trkpt>
      <trkpt lat="45.41999" lon="5.50823">
        <ele>642.4</ele>
        <time>2017-12-30T16:34:44Z</time>
      </trkpt>
      <trkpt lat="45.41984" lon="5.50951">
        <ele>642.2</ele>
        <time>2017-12-30T16:35:36Z</time>
      </trkpt>
      <trkpt lat="45.41984" lon="5.50951">
        <ele>642.2</ele>
        <time>2017-12-30T16:35:36Z</time>
      </trkpt>
      <trkpt lat="45.41948" lon="5.50985">
        <ele>646.7</ele>
        <time>2017-12-30T16:36:00Z</time>
      </trkpt>
      <trkpt lat="45.41948" lon="5.50985">
        <ele>646.7</ele>
        <time>2017-12-30T16:36:00Z</time>
      </trkpt>
      <trkpt lat="45.4193" lon="5.51063">
        <ele>640.1</ele>
        <time>2017-12-30T16:36:33Z</time>
      </trkpt>
      <trkpt lat="45.4193" lon="5.51063">
        <ele>640.1</ele>
        <time>2017-12-30T16:36:33Z</time>
      </trkpt>
      <trkpt lat="45.41888" lon="5.51106">
        <ele>653.5</ele>
        <time>2017-12-30T16:37:03Z</time>
      </trkpt>
      <trkpt lat="45.41888" lon="5.51106">
        <ele>653.5</ele>
        <time>2017-12-30T16:37:03Z</time>
      </trkpt>
      <trkpt lat="45.41857" lon="5.5113">
        <ele>667</ele>
        <time>2017-12-30T16:37:23Z</time>
      </trkpt>
      <trkpt lat="45.41857" lon="5.5113">
        <ele>667</ele>
        <time>2017-12-30T16:37:23Z</time>
      </trkpt>
      <trkpt lat="45.41906" lon="5.51226">
        <ele>649</ele>
        <time>2017-12-30T16:38:11Z</time>
      </trkpt>
      <trkpt lat="45.41906" lon="5.51226">
        <ele>649</ele>
        <time>2017-12-30T16:38:11Z</time>
      </trkpt>
      <trkpt lat="45.41897" lon="5.51265">
        <ele>649.2</ele>
        <time>2017-12-30T16:38:27Z</time>
      </trkpt>
      <trkpt lat="45.41897" lon="5.51265">
        <ele>649.2</ele>
        <time>2017-12-30T16:38:27Z</time>
      </trkpt>
      <trkpt lat="45.41728" lon="5.51471">
        <ele>661.3</ele>
        <time>2017-12-30T16:40:34Z</time>
      </trkpt>
      <trkpt lat="45.41728" lon="5.51471">
        <ele>661.3</ele>
        <time>2017-12-30T16:40:34Z</time>
      </trkpt>
      <trkpt lat="45.41611" lon="5.51471">
        <ele>699.3</ele>
        <time>2017-12-30T16:41:41Z</time>
      </trkpt>
      <trkpt lat="45.41611" lon="5.51471">
        <ele>699.3</ele>
        <time>2017-12-30T16:41:41Z</time>
      </trkpt>
      <trkpt lat="45.41466" lon="5.51381">
        <ele>726.9</ele>
        <time>2017-12-30T16:43:12Z</time>
      </trkpt>
      <trkpt lat="45.41466" lon="5.51381">
        <ele>726.9</ele>
        <time>2017-12-30T16:43:12Z</time>
      </trkpt>
      <trkpt lat="45.41465" lon="5.51461">
        <ele>703.1</ele>
        <time>2017-12-30T16:43:44Z</time>
      </trkpt>
      <trkpt lat="45.41465" lon="5.51461">
        <ele>703.1</ele>
        <time>2017-12-30T16:43:44Z</time>
      </trkpt>
      <trkpt lat="45.41529" lon="5.51715">
        <ele>673.7</ele>
        <time>2017-12-30T16:45:32Z</time>
      </trkpt>
      <trkpt lat="45.41529" lon="5.51715">
        <ele>673.7</ele>
        <time>2017-12-30T16:45:32Z</time>
      </trkpt>
      <trkpt lat="45.41532" lon="5.51836">
        <ele>674.7</ele>
        <time>2017-12-30T16:46:21Z</time>
      </trkpt>
      <trkpt lat="45.41532" lon="5.51836">
        <ele>674.7</ele>
        <time>2017-12-30T16:46:21Z</time>
      </trkpt>
      <trkpt lat="45.41458" lon="5.52064">
        <ele>662.5</ele>
        <time>2017-12-30T16:48:02Z</time>
      </trkpt>
      <trkpt lat="45.41458" lon="5.52064">
        <ele>662.5</ele>
        <time>2017-12-30T16:48:02Z</time>
      </trkpt>
      <trkpt lat="45.41379" lon="5.52102">
        <ele>670.7</ele>
        <time>2017-12-30T16:48:49Z</time>
      </trkpt>
      <trkpt lat="45.41379" lon="5.52102">
        <ele>670.7</ele>
        <time>2017-12-30T16:48:49Z</time>
      </trkpt>
      <trkpt lat="45.41309" lon="5.52076">
        <ele>676.2</ele>
        <time>2017-12-30T16:49:31Z</time>
      </trkpt>
      <trkpt lat="45.41309" lon="5.52076">
        <ele>676.2</ele>
        <time>2017-12-30T16:49:31Z</time>
      </trkpt>
      <trkpt lat="45.41147" lon="5.51973">
        <ele>663.9</ele>
        <time>2017-12-30T16:51:12Z</time>
      </trkpt>
      <trkpt lat="45.41147" lon="5.51973">
        <ele>663.9</ele>
        <time>2017-12-30T16:51:12Z</time>
      </trkpt>
      <trkpt lat="45.41056" lon="5.51939">
        <ele>644.4</ele>
        <time>2017-12-30T16:52:06Z</time>
      </trkpt>
      <trkpt lat="45.41056" lon="5.51939">
        <ele>644.4</ele>
        <time>2017-12-30T16:52:06Z</time>
      </trkpt>
      <trkpt lat="45.41005" lon="5.5198">
        <ele>624.1</ele>
        <time>2017-12-30T16:52:40Z</time>
      </trkpt>
      <trkpt lat="45.41005" lon="5.5198">
        <ele>624.1</ele>
        <time>2017-12-30T16:52:40Z</time>
      </trkpt>
      <trkpt lat="45.40927" lon="5.5211">
        <ele>601</ele>
        <time>2017-12-30T16:53:48Z</time>
      </trkpt>
      <trkpt lat="45.40927" lon="5.5211">
        <ele>601</ele>
        <time>2017-12-30T16:53:48Z</time>
      </trkpt>
      <trkpt lat="45.40915" lon="5.52385">
        <ele>563.7</ele>
        <time>2017-12-30T16:55:39Z</time>
      </trkpt>
      <trkpt lat="45.40915" lon="5.52385">
        <ele>563.7</ele>
        <time>2017-12-30T16:55:39Z</time>
      </trkpt>
      <trkpt lat="45.40872" lon="5.52445">
        <ele>545.5</ele>
        <time>2017-12-30T16:56:13Z</time>
      </trkpt>
      <trkpt lat="45.40872" lon="5.52445">
        <ele>545.5</ele>
        <time>2017-12-30T16:56:13Z</time>
      </trkpt>
      <trkpt lat="45.40827" lon="5.52466">
        <ele>535.6</ele>
        <time>2017-12-30T16:56:40Z</time>
      </trkpt>
      <trkpt lat="45.40827" lon="5.52466">
        <ele>535.6</ele>
        <time>2017-12-30T16:56:40Z</time>
      </trkpt>
      <trkpt lat="45.40616" lon="5.52346">
        <ele>548.9</ele>
        <time>2017-12-30T16:58:50Z</time>
      </trkpt>
      <trkpt lat="45.40616" lon="5.52346">
        <ele>548.9</ele>
        <time>2017-12-30T16:58:50Z</time>
      </trkpt>
      <trkpt lat="45.40571" lon="5.52269">
        <ele>554.3</ele>
        <time>2017-12-30T16:59:30Z</time>
      </trkpt>
      <trkpt lat="45.40571" lon="5.52269">
        <ele>554.3</ele>
        <time>2017-12-30T16:59:30Z</time>
      </trkpt>
      <trkpt lat="45.40538" lon="5.52346">
        <ele>525.2</ele>
        <time>2017-12-30T17:00:07Z</time>
      </trkpt>
      <trkpt lat="45.40538" lon="5.52346">
        <ele>525.2</ele>
        <time>2017-12-30T17:00:07Z</time>
      </trkpt>
      <trkpt lat="45.40502" lon="5.52389">
        <ele>515.3</ele>
        <time>2017-12-30T17:00:34Z</time>
      </trkpt>
      <trkpt lat="45.40502" lon="5.52389">
        <ele>515.3</ele>
        <time>2017-12-30T17:00:34Z</time>
      </trkpt>
      <trkpt lat="45.40643" lon="5.52557">
        <ele>517.8</ele>
        <time>2017-12-30T17:02:19Z</time>
      </trkpt>
      <trkpt lat="45.40643" lon="5.52557">
        <ele>517.8</ele>
        <time>2017-12-30T17:02:19Z</time>
      </trkpt>
      <trkpt lat="45.40765" lon="5.52808">
        <ele>523.1</ele>
        <time>2017-12-30T17:04:21Z</time>
      </trkpt>
      <trkpt lat="45.40765" lon="5.52808">
        <ele>523.1</ele>
        <time>2017-12-30T17:04:21Z</time>
      </trkpt>
      <trkpt lat="45.40823" lon="5.52919">
        <ele>521</ele>
        <time>2017-12-30T17:05:17Z</time>
      </trkpt>
      <trkpt lat="45.40823" lon="5.52919">
        <ele>521</ele>
        <time>2017-12-30T17:05:17Z</time>
      </trkpt>
      <trkpt lat="45.40696" lon="5.53001">
        <ele>510.3</ele>
        <time>2017-12-30T17:06:36Z</time>
      </trkpt>
      <trkpt lat="45.40696" lon="5.53001">
        <ele>510.3</ele>
        <time>2017-12-30T17:06:36Z</time>
      </trkpt>
      <trkpt lat="45.40496" lon="5.5317">
        <ele>462</ele>
        <time>2017-12-30T17:08:49Z</time>
      </trkpt>
      <trkpt lat="45.40496" lon="5.5317">
        <ele>462</ele>
        <time>2017-12-30T17:08:49Z</time>
      </trkpt>
      <trkpt lat="45.40422" lon="5.53209">
        <ele>461.7</ele>
        <time>2017-12-30T17:09:35Z</time>
      </trkpt>
      <trkpt lat="45.40422" lon="5.53209">
        <ele>461.7</ele>
        <time>2017-12-30T17:09:35Z</time>
      </trkpt>
      <trkpt lat="45.40333" lon="5.53277">
        <ele>454.1</ele>
        <time>2017-12-30T17:10:32Z</time>
      </trkpt>
      <trkpt lat="45.40333" lon="5.53277">
        <ele>454.1</ele>
        <time>2017-12-30T17:10:32Z</time>
      </trkpt>
      <trkpt lat="45.40241" lon="5.53295">
        <ele>461.1</ele>
        <time>2017-12-30T17:11:25Z</time>
      </trkpt>
      <trkpt lat="45.40241" lon="5.53295">
        <ele>461.1</ele>
        <time>2017-12-30T17:11:25Z</time>
      </trkpt>
      <trkpt lat="45.40175" lon="5.53314">
        <ele>461.6</ele>
        <time>2017-12-30T17:12:04Z</time>
      </trkpt>
      <trkpt lat="45.40175" lon="5.53314">
        <ele>461.6</ele>
        <time>2017-12-30T17:12:04Z</time>
      </trkpt>
      <trkpt lat="45.40008" lon="5.53297">
        <ele>466.9</ele>
        <time>2017-12-30T17:13:40Z</time>
      </trkpt>
      <trkpt lat="45.40008" lon="5.53297">
        <ele>466.9</ele>
        <time>2017-12-30T17:13:40Z</time>
      </trkpt>
      <trkpt lat="45.39963" lon="5.5332">
        <ele>459.9</ele>
        <time>2017-12-30T17:14:07Z</time>
      </trkpt>
      <trkpt lat="45.39963" lon="5.5332">
        <ele>459.9</ele>
        <time>2017-12-30T17:14:07Z</time>
      </trkpt>
      <trkpt lat="45.39878" lon="5.53363">
        <ele>455.9</ele>
        <time>2017-12-30T17:14:59Z</time>
      </trkpt>
      <trkpt lat="45.39878" lon="5.53363">
        <ele>455.9</ele>
        <time>2017-12-30T17:14:59Z</time>
      </trkpt>
      <trkpt lat="45.39863" lon="5.53376">
        <ele>454.9</ele>
        <time>2017-12-30T17:15:09Z</time>
      </trkpt>
      <trkpt lat="45.39863" lon="5.53376">
        <ele>454.9</ele>
        <time>2017-12-30T17:15:09Z</time>
      </trkpt>
      <trkpt lat="45.39849" lon="5.53382">
        <ele>454.7</ele>
        <time>2017-12-30T17:15:17Z</time>
      </trkpt>
      <trkpt lat="45.39849" lon="5.53382">
        <ele>454.7</ele>
        <time>2017-12-30T17:15:17Z</time>
      </trkpt>
      <trkpt lat="45.39834" lon="5.5337">
        <ele>458.1</ele>
        <time>2017-12-30T17:15:27Z</time>
      </trkpt>
      <trkpt lat="45.39834" lon="5.5337">
        <ele>458.1</ele>
        <time>2017-12-30T17:15:27Z</time>
      </trkpt>
      <trkpt lat="45.39822" lon="5.5337">
        <ele>458</ele>
        <time>2017-12-30T17:15:34Z</time>
      </trkpt>
      <trkpt lat="45.39822" lon="5.5337">
        <ele>458</ele>
        <time>2017-12-30T17:15:34Z</time>
      </trkpt>
      <trkpt lat="45.39825" lon="5.53416">
        <ele>448.1</ele>
        <time>2017-12-30T17:15:52Z</time>
      </trkpt>
      <trkpt lat="45.39825" lon="5.53416">
        <ele>448.1</ele>
        <time>2017-12-30T17:15:52Z</time>
      </trkpt>
      <trkpt lat="45.39823" lon="5.53497">
        <ele>456.5</ele>
        <time>2017-12-30T17:16:25Z</time>
      </trkpt>
      <trkpt lat="45.39823" lon="5.53497">
        <ele>456.5</ele>
        <time>2017-12-30T17:16:25Z</time>
      </trkpt>
      <trkpt lat="45.39813" lon="5.53578">
        <ele>474.3</ele>
        <time>2017-12-30T17:16:58Z</time>
      </trkpt>
      <trkpt lat="45.39813" lon="5.53578">
        <ele>474.3</ele>
        <time>2017-12-30T17:16:58Z</time>
      </trkpt>
      <trkpt lat="45.39798" lon="5.53663">
        <ele>480.8</ele>
        <time>2017-12-30T17:17:33Z</time>
      </trkpt>
      <trkpt lat="45.39798" lon="5.53663">
        <ele>480.8</ele>
        <time>2017-12-30T17:17:33Z</time>
      </trkpt>
      <trkpt lat="45.39797" lon="5.53736">
        <ele>481.2</ele>
        <time>2017-12-30T17:18:02Z</time>
      </trkpt>
      <trkpt lat="45.39797" lon="5.53736">
        <ele>481.2</ele>
        <time>2017-12-30T17:18:02Z</time>
      </trkpt>
      <trkpt lat="45.39815" lon="5.53791">
        <ele>479.9</ele>
        <time>2017-12-30T17:18:27Z</time>
      </trkpt>
      <trkpt lat="45.39815" lon="5.53791">
        <ele>479.9</ele>
        <time>2017-12-30T17:18:27Z</time>
      </trkpt>
      <trkpt lat="45.39847" lon="5.5383">
        <ele>479.4</ele>
        <time>2017-12-30T17:18:51Z</time>
      </trkpt>
      <trkpt lat="45.39847" lon="5.5383">
        <ele>479.4</ele>
        <time>2017-12-30T17:18:51Z</time>
      </trkpt>
      <trkpt lat="45.39851" lon="5.53833">
        <ele>479.5</ele>
        <time>2017-12-30T17:18:53Z</time>
      </trkpt>
      <trkpt lat="45.39856" lon="5.53836">
        <ele>479.6</ele>
        <time>2017-12-30T17:18:56Z</time>
      </trkpt>
      <trkpt lat="45.3986" lon="5.53838">
        <ele>479.7</ele>
        <time>2017-12-30T17:18:59Z</time>
      </trkpt>
      <trkpt lat="45.39865" lon="5.53841">
        <ele>479.8</ele>
        <time>2017-12-30T17:19:02Z</time>
      </trkpt>
      <trkpt lat="45.3987" lon="5.53843">
        <ele>480.1</ele>
        <time>2017-12-30T17:19:05Z</time>
      </trkpt>
      <trkpt lat="45.39875" lon="5.53846">
        <ele>480.2</ele>
        <time>2017-12-30T17:19:08Z</time>
      </trkpt>
      <trkpt lat="45.3988" lon="5.53848">
        <ele>480.5</ele>
        <time>2017-12-30T17:19:11Z</time>
      </trkpt>
      <trkpt lat="45.39884" lon="5.53851">
        <ele>480.5</ele>
        <time>2017-12-30T17:19:14Z</time>
      </trkpt>
      <trkpt lat="45.39889" lon="5.53853">
        <ele>480.8</ele>
        <time>2017-12-30T17:19:17Z</time>
      </trkpt>
      <trkpt lat="45.39894" lon="5.53855">
        <ele>481.1</ele>
        <time>2017-12-30T17:19:20Z</time>
      </trkpt>
      <trkpt lat="45.39898" lon="5.53857">
        <ele>481.3</ele>
        <time>2017-12-30T17:19:22Z</time>
      </trkpt>
      <trkpt lat="45.39903" lon="5.53859">
        <ele>481.6</ele>
        <time>2017-12-30T17:19:25Z</time>
      </trkpt>
      <trkpt lat="45.39907" lon="5.53861">
        <ele>481.8</ele>
        <time>2017-12-30T17:19:27Z</time>
      </trkpt>
      <trkpt lat="45.39912" lon="5.53864">
        <ele>481.9</ele>
        <time>2017-12-30T17:19:31Z</time>
      </trkpt>
      <trkpt lat="45.39917" lon="5.53866">
        <ele>482.3</ele>
        <time>2017-12-30T17:19:33Z</time>
      </trkpt>
      <trkpt lat="45.39922" lon="5.53868">
        <ele>482.9</ele>
        <time>2017-12-30T17:19:36Z</time>
      </trkpt>
      <trkpt lat="45.39927" lon="5.53871">
        <ele>483.4</ele>
        <time>2017-12-30T17:19:40Z</time>
      </trkpt>
      <trkpt lat="45.39932" lon="5.53874">
        <ele>484</ele>
        <time>2017-12-30T17:19:43Z</time>
      </trkpt>
      <trkpt lat="45.39937" lon="5.53877">
        <ele>484.6</ele>
        <time>2017-12-30T17:19:46Z</time>
      </trkpt>
      <trkpt lat="45.39941" lon="5.53881">
        <ele>484.9</ele>
        <time>2017-12-30T17:19:49Z</time>
      </trkpt>
      <trkpt lat="45.39946" lon="5.53884">
        <ele>485.6</ele>
        <time>2017-12-30T17:19:52Z</time>
      </trkpt>
      <trkpt lat="45.3995" lon="5.53888">
        <ele>486</ele>
        <time>2017-12-30T17:19:54Z</time>
      </trkpt>
      <trkpt lat="45.39955" lon="5.53892">
        <ele>486.8</ele>
        <time>2017-12-30T17:19:58Z</time>
      </trkpt>
      <trkpt lat="45.39959" lon="5.53896">
        <ele>487.4</ele>
        <time>2017-12-30T17:20:01Z</time>
      </trkpt>
      <trkpt lat="45.39963" lon="5.539">
        <ele>488</ele>
        <time>2017-12-30T17:20:03Z</time>
      </trkpt>
      <trkpt lat="45.39969" lon="5.53908">
        <ele>488.8</ele>
        <time>2017-12-30T17:20:08Z</time>
      </trkpt>
      <trkpt lat="45.39974" lon="5.53915">
        <ele>489.7</ele>
        <time>2017-12-30T17:20:12Z</time>
      </trkpt>
      <trkpt lat="45.39981" lon="5.53919">
        <ele>491.4</ele>
        <time>2017-12-30T17:20:16Z</time>
      </trkpt>
      <trkpt lat="45.39988" lon="5.53921">
        <ele>493.2</ele>
        <time>2017-12-30T17:20:20Z</time>
      </trkpt>
      <trkpt lat="45.39992" lon="5.53924">
        <ele>494</ele>
        <time>2017-12-30T17:20:23Z</time>
      </trkpt>
      <trkpt lat="45.39996" lon="5.53928">
        <ele>494.7</ele>
        <time>2017-12-30T17:20:26Z</time>
      </trkpt>
      <trkpt lat="45.4" lon="5.53932">
        <ele>495.4</ele>
        <time>2017-12-30T17:20:29Z</time>
      </trkpt>
      <trkpt lat="45.40003" lon="5.53937">
        <ele>495.1</ele>
        <time>2017-12-30T17:20:31Z</time>
      </trkpt>
      <trkpt lat="45.40007" lon="5.53942">
        <ele>495</ele>
        <time>2017-12-30T17:20:34Z</time>
      </trkpt>
      <trkpt lat="45.4001" lon="5.53947">
        <ele>494.8</ele>
        <time>2017-12-30T17:20:37Z</time>
      </trkpt>
      <trkpt lat="45.40014" lon="5.53952">
        <ele>494.7</ele>
        <time>2017-12-30T17:20:40Z</time>
      </trkpt>
      <trkpt lat="45.40018" lon="5.53957">
        <ele>494.7</ele>
        <time>2017-12-30T17:20:43Z</time>
      </trkpt>
      <trkpt lat="45.40022" lon="5.53962">
        <ele>494.8</ele>
        <time>2017-12-30T17:20:46Z</time>
      </trkpt>
      <trkpt lat="45.40026" lon="5.53967">
        <ele>494.9</ele>
        <time>2017-12-30T17:20:49Z</time>
      </trkpt>
      <trkpt lat="45.40029" lon="5.53972">
        <ele>494.9</ele>
        <time>2017-12-30T17:20:52Z</time>
      </trkpt>
      <trkpt lat="45.40032" lon="5.53977">
        <ele>494.9</ele>
        <time>2017-12-30T17:20:54Z</time>
      </trkpt>
      <trkpt lat="45.40036" lon="5.53982">
        <ele>495.2</ele>
        <time>2017-12-30T17:20:57Z</time>
      </trkpt>
      <trkpt lat="45.40039" lon="5.53987">
        <ele>495.3</ele>
        <time>2017-12-30T17:21:00Z</time>
      </trkpt>
      <trkpt lat="45.40043" lon="5.53992">
        <ele>495.7</ele>
        <time>2017-12-30T17:21:03Z</time>
      </trkpt>
      <trkpt lat="45.40046" lon="5.53997">
        <ele>495.9</ele>
        <time>2017-12-30T17:21:06Z</time>
      </trkpt>
      <trkpt lat="45.40049" lon="5.54002">
        <ele>496.2</ele>
        <time>2017-12-30T17:21:08Z</time>
      </trkpt>
      <trkpt lat="45.40052" lon="5.54007">
        <ele>496.5</ele>
        <time>2017-12-30T17:21:11Z</time>
      </trkpt>
      <trkpt lat="45.40056" lon="5.54018">
        <ele>496.9</ele>
        <time>2017-12-30T17:21:16Z</time>
      </trkpt>
      <trkpt lat="45.4006" lon="5.54029">
        <ele>497.5</ele>
        <time>2017-12-30T17:21:21Z</time>
      </trkpt>
      <trkpt lat="45.40062" lon="5.54034">
        <ele>497.8</ele>
        <time>2017-12-30T17:21:23Z</time>
      </trkpt>
      <trkpt lat="45.40067" lon="5.54045">
        <ele>498.8</ele>
        <time>2017-12-30T17:21:29Z</time>
      </trkpt>
      <trkpt lat="45.40073" lon="5.54054">
        <ele>500.1</ele>
        <time>2017-12-30T17:21:34Z</time>
      </trkpt>
      <trkpt lat="45.40078" lon="5.54064">
        <ele>501.4</ele>
        <time>2017-12-30T17:21:38Z</time>
      </trkpt>
      <trkpt lat="45.40083" lon="5.54074">
        <ele>502.8</ele>
        <time>2017-12-30T17:21:43Z</time>
      </trkpt>
      <trkpt lat="45.40085" lon="5.5408">
        <ele>503.3</ele>
        <time>2017-12-30T17:21:46Z</time>
      </trkpt>
      <trkpt lat="45.40091" lon="5.54097">
        <ele>503</ele>
        <time>2017-12-30T17:21:54Z</time>
      </trkpt>
      <trkpt lat="45.40094" lon="5.54102">
        <ele>503.1</ele>
        <time>2017-12-30T17:21:56Z</time>
      </trkpt>
      <trkpt lat="45.40096" lon="5.54108">
        <ele>502.8</ele>
        <time>2017-12-30T17:21:59Z</time>
      </trkpt>
      <trkpt lat="45.401" lon="5.5412">
        <ele>502.3</ele>
        <time>2017-12-30T17:22:04Z</time>
      </trkpt>
      <trkpt lat="45.40103" lon="5.54125">
        <ele>502.4</ele>
        <time>2017-12-30T17:22:07Z</time>
      </trkpt>
      <trkpt lat="45.40106" lon="5.5413">
        <ele>502.6</ele>
        <time>2017-12-30T17:22:10Z</time>
      </trkpt>
      <trkpt lat="45.40109" lon="5.54136">
        <ele>502.6</ele>
        <time>2017-12-30T17:22:13Z</time>
      </trkpt>
      <trkpt lat="45.40111" lon="5.54143">
        <ele>502.4</ele>
        <time>2017-12-30T17:22:16Z</time>
      </trkpt>
      <trkpt lat="45.40114" lon="5.54149">
        <ele>502.5</ele>
        <time>2017-12-30T17:22:19Z</time>
      </trkpt>
      <trkpt lat="45.40117" lon="5.54156">
        <ele>502.5</ele>
        <time>2017-12-30T17:22:22Z</time>
      </trkpt>
      <trkpt lat="45.4012" lon="5.54162">
        <ele>502.7</ele>
        <time>2017-12-30T17:22:25Z</time>
      </trkpt>
      <trkpt lat="45.40124" lon="5.54169">
        <ele>503</ele>
        <time>2017-12-30T17:22:28Z</time>
      </trkpt>
      <trkpt lat="45.40127" lon="5.54175">
        <ele>503.1</ele>
        <time>2017-12-30T17:22:31Z</time>
      </trkpt>
      <trkpt lat="45.4013" lon="5.54182">
        <ele>503.1</ele>
        <time>2017-12-30T17:22:35Z</time>
      </trkpt>
      <trkpt lat="45.40133" lon="5.5419">
        <ele>503</ele>
        <time>2017-12-30T17:22:38Z</time>
      </trkpt>
      <trkpt lat="45.40136" lon="5.54196">
        <ele>503.1</ele>
        <time>2017-12-30T17:22:41Z</time>
      </trkpt>
      <trkpt lat="45.40139" lon="5.54203">
        <ele>503.1</ele>
        <time>2017-12-30T17:22:45Z</time>
      </trkpt>
      <trkpt lat="45.40142" lon="5.5421">
        <ele>503.1</ele>
        <time>2017-12-30T17:22:48Z</time>
      </trkpt>
      <trkpt lat="45.40145" lon="5.54217">
        <ele>503.1</ele>
        <time>2017-12-30T17:22:51Z</time>
      </trkpt>
      <trkpt lat="45.40147" lon="5.54224">
        <ele>502.8</ele>
        <time>2017-12-30T17:22:54Z</time>
      </trkpt>
      <trkpt lat="45.40149" lon="5.54232">
        <ele>502.4</ele>
        <time>2017-12-30T17:22:58Z</time>
      </trkpt>
      <trkpt lat="45.40152" lon="5.54239">
        <ele>502.4</ele>
        <time>2017-12-30T17:23:01Z</time>
      </trkpt>
      <trkpt lat="45.40154" lon="5.54247">
        <ele>501.9</ele>
        <time>2017-12-30T17:23:04Z</time>
      </trkpt>
      <trkpt lat="45.40157" lon="5.54255">
        <ele>502.2</ele>
        <time>2017-12-30T17:23:08Z</time>
      </trkpt>
      <trkpt lat="45.40159" lon="5.54262">
        <ele>502.4</ele>
        <time>2017-12-30T17:23:11Z</time>
      </trkpt>
      <trkpt lat="45.4016" lon="5.5427">
        <ele>502.4</ele>
        <time>2017-12-30T17:23:14Z</time>
      </trkpt>
      <trkpt lat="45.40162" lon="5.54278">
        <ele>502.6</ele>
        <time>2017-12-30T17:23:18Z</time>
      </trkpt>
      <trkpt lat="45.40164" lon="5.54286">
        <ele>502.9</ele>
        <time>2017-12-30T17:23:21Z</time>
      </trkpt>
      <trkpt lat="45.40166" lon="5.54295">
        <ele>503.2</ele>
        <time>2017-12-30T17:23:25Z</time>
      </trkpt>
      <trkpt lat="45.40168" lon="5.54304">
        <ele>503.2</ele>
        <time>2017-12-30T17:23:29Z</time>
      </trkpt>
      <trkpt lat="45.40171" lon="5.54313">
        <ele>503.3</ele>
        <time>2017-12-30T17:23:33Z</time>
      </trkpt>
      <trkpt lat="45.40174" lon="5.54321">
        <ele>503.3</ele>
        <time>2017-12-30T17:23:36Z</time>
      </trkpt>
      <trkpt lat="45.40175" lon="5.5433">
        <ele>503.1</ele>
        <time>2017-12-30T17:23:40Z</time>
      </trkpt>
      <trkpt lat="45.40177" lon="5.54339">
        <ele>502.2</ele>
        <time>2017-12-30T17:23:44Z</time>
      </trkpt>
      <trkpt lat="45.40178" lon="5.54347">
        <ele>500.9</ele>
        <time>2017-12-30T17:23:47Z</time>
      </trkpt>
      <trkpt lat="45.4018" lon="5.54355">
        <ele>499.7</ele>
        <time>2017-12-30T17:23:50Z</time>
      </trkpt>
      <trkpt lat="45.40183" lon="5.54363">
        <ele>498.7</ele>
        <time>2017-12-30T17:23:54Z</time>
      </trkpt>
      <trkpt lat="45.40185" lon="5.54371">
        <ele>497.5</ele>
        <time>2017-12-30T17:23:57Z</time>
      </trkpt>
      <trkpt lat="45.40187" lon="5.54378">
        <ele>496.5</ele>
        <time>2017-12-30T17:24:00Z</time>
      </trkpt>
      <trkpt lat="45.4019" lon="5.54386">
        <ele>495.5</ele>
        <time>2017-12-30T17:24:04Z</time>
      </trkpt>
      <trkpt lat="45.40193" lon="5.54393">
        <ele>494.6</ele>
        <time>2017-12-30T17:24:07Z</time>
      </trkpt>
      <trkpt lat="45.40196" lon="5.544">
        <ele>493.8</ele>
        <time>2017-12-30T17:24:11Z</time>
      </trkpt>
      <trkpt lat="45.402" lon="5.54406">
        <ele>493.3</ele>
        <time>2017-12-30T17:24:14Z</time>
      </trkpt>
      <trkpt lat="45.40204" lon="5.54412">
        <ele>492.8</ele>
        <time>2017-12-30T17:24:17Z</time>
      </trkpt>
      <trkpt lat="45.40209" lon="5.54417">
        <ele>492.6</ele>
        <time>2017-12-30T17:24:21Z</time>
      </trkpt>
      <trkpt lat="45.40213" lon="5.54423">
        <ele>491.8</ele>
        <time>2017-12-30T17:24:24Z</time>
      </trkpt>
      <trkpt lat="45.40218" lon="5.54429">
        <ele>491.2</ele>
        <time>2017-12-30T17:24:28Z</time>
      </trkpt>
      <trkpt lat="45.40222" lon="5.54435">
        <ele>490.4</ele>
        <time>2017-12-30T17:24:31Z</time>
      </trkpt>
      <trkpt lat="45.40226" lon="5.54441">
        <ele>489.7</ele>
        <time>2017-12-30T17:24:35Z</time>
      </trkpt>
      <trkpt lat="45.40229" lon="5.54446">
        <ele>489.1</ele>
        <time>2017-12-30T17:24:37Z</time>
      </trkpt>
      <trkpt lat="45.40233" lon="5.54451">
        <ele>488.6</ele>
        <time>2017-12-30T17:24:40Z</time>
      </trkpt>
      <trkpt lat="45.40237" lon="5.54456">
        <ele>488.1</ele>
        <time>2017-12-30T17:24:43Z</time>
      </trkpt>
      <trkpt lat="45.40242" lon="5.54461">
        <ele>487.9</ele>
        <time>2017-12-30T17:24:47Z</time>
      </trkpt>
      <trkpt lat="45.40246" lon="5.54466">
        <ele>487.4</ele>
        <time>2017-12-30T17:24:50Z</time>
      </trkpt>
      <trkpt lat="45.40251" lon="5.54471">
        <ele>487.2</ele>
        <time>2017-12-30T17:24:53Z</time>
      </trkpt>
      <trkpt lat="45.40255" lon="5.54477">
        <ele>486.8</ele>
        <time>2017-12-30T17:24:57Z</time>
      </trkpt>
      <trkpt lat="45.4026" lon="5.54481">
        <ele>487</ele>
        <time>2017-12-30T17:25:00Z</time>
      </trkpt>
      <trkpt lat="45.40265" lon="5.54485">
        <ele>487.3</ele>
        <time>2017-12-30T17:25:03Z</time>
      </trkpt>
      <trkpt lat="45.40269" lon="5.54489">
        <ele>487.4</ele>
        <time>2017-12-30T17:25:06Z</time>
      </trkpt>
      <trkpt lat="45.40273" lon="5.54492">
        <ele>487.7</ele>
        <time>2017-12-30T17:25:09Z</time>
      </trkpt>
      <trkpt lat="45.40278" lon="5.54496">
        <ele>488.2</ele>
        <time>2017-12-30T17:25:12Z</time>
      </trkpt>
      <trkpt lat="45.40282" lon="5.545">
        <ele>488.4</ele>
        <time>2017-12-30T17:25:15Z</time>
      </trkpt>
      <trkpt lat="45.40287" lon="5.54502">
        <ele>489.3</ele>
        <time>2017-12-30T17:25:18Z</time>
      </trkpt>
      <trkpt lat="45.40295" lon="5.54506">
        <ele>490.5</ele>
        <time>2017-12-30T17:25:22Z</time>
      </trkpt>
      <trkpt lat="45.40299" lon="5.54509">
        <ele>491</ele>
        <time>2017-12-30T17:25:25Z</time>
      </trkpt>
      <trkpt lat="45.40307" lon="5.54515">
        <ele>491.8</ele>
        <time>2017-12-30T17:25:30Z</time>
      </trkpt>
      <trkpt lat="45.40313" lon="5.54523">
        <ele>491.9</ele>
        <time>2017-12-30T17:25:35Z</time>
      </trkpt>
      <trkpt lat="45.40319" lon="5.54532">
        <ele>491.6</ele>
        <time>2017-12-30T17:25:40Z</time>
      </trkpt>
      <trkpt lat="45.40324" lon="5.54541">
        <ele>491</ele>
        <time>2017-12-30T17:25:44Z</time>
      </trkpt>
      <trkpt lat="45.40326" lon="5.54551">
        <ele>489.7</ele>
        <time>2017-12-30T17:25:49Z</time>
      </trkpt>
      <trkpt lat="45.4033" lon="5.54562">
        <ele>488.4</ele>
        <time>2017-12-30T17:25:54Z</time>
      </trkpt>
      <trkpt lat="45.40332" lon="5.54573">
        <ele>486.8</ele>
        <time>2017-12-30T17:25:58Z</time>
      </trkpt>
      <trkpt lat="45.40335" lon="5.54584">
        <ele>484.9</ele>
        <time>2017-12-30T17:26:03Z</time>
      </trkpt>
      <trkpt lat="45.40338" lon="5.54596">
        <ele>483.8</ele>
        <time>2017-12-30T17:26:08Z</time>
      </trkpt>
      <trkpt lat="45.4034" lon="5.54608">
        <ele>482.7</ele>
        <time>2017-12-30T17:26:13Z</time>
      </trkpt>
      <trkpt lat="45.40341" lon="5.54615">
        <ele>482</ele>
        <time>2017-12-30T17:26:16Z</time>
      </trkpt>
      <trkpt lat="45.40343" lon="5.54621">
        <ele>481.5</ele>
        <time>2017-12-30T17:26:19Z</time>
      </trkpt>
      <trkpt lat="45.40345" lon="5.54626">
        <ele>481.1</ele>
        <time>2017-12-30T17:26:21Z</time>
      </trkpt>
      <trkpt lat="45.40348" lon="5.54631">
        <ele>480.7</ele>
        <time>2017-12-30T17:26:23Z</time>
      </trkpt>
      <trkpt lat="45.40353" lon="5.54635">
        <ele>480.5</ele>
        <time>2017-12-30T17:26:27Z</time>
      </trkpt>
      <trkpt lat="45.40357" lon="5.54637">
        <ele>480.4</ele>
        <time>2017-12-30T17:26:29Z</time>
      </trkpt>
      <trkpt lat="45.40362" lon="5.54638">
        <ele>480.5</ele>
        <time>2017-12-30T17:26:32Z</time>
      </trkpt>
      <trkpt lat="45.40367" lon="5.54638">
        <ele>480.6</ele>
        <time>2017-12-30T17:26:35Z</time>
      </trkpt>
      <trkpt lat="45.40376" lon="5.54636">
        <ele>480.9</ele>
        <time>2017-12-30T17:26:40Z</time>
      </trkpt>
      <trkpt lat="45.40383" lon="5.54633">
        <ele>481.2</ele>
        <time>2017-12-30T17:26:44Z</time>
      </trkpt>
      <trkpt lat="45.40392" lon="5.54632">
        <ele>481.4</ele>
        <time>2017-12-30T17:26:49Z</time>
      </trkpt>
      <trkpt lat="45.40401" lon="5.54632">
        <ele>481.6</ele>
        <time>2017-12-30T17:26:55Z</time>
      </trkpt>
      <trkpt lat="45.40409" lon="5.54632">
        <ele>481.7</ele>
        <time>2017-12-30T17:26:59Z</time>
      </trkpt>
      <trkpt lat="45.40418" lon="5.54634">
        <ele>481.8</ele>
        <time>2017-12-30T17:27:04Z</time>
      </trkpt>
      <trkpt lat="45.40425" lon="5.54632">
        <ele>482</ele>
        <time>2017-12-30T17:27:08Z</time>
      </trkpt>
      <trkpt lat="45.40433" lon="5.5463">
        <ele>482.2</ele>
        <time>2017-12-30T17:27:13Z</time>
      </trkpt>
      <trkpt lat="45.40442" lon="5.54627">
        <ele>482.4</ele>
        <time>2017-12-30T17:27:18Z</time>
      </trkpt>
      <trkpt lat="45.4045" lon="5.54622">
        <ele>482.7</ele>
        <time>2017-12-30T17:27:23Z</time>
      </trkpt>
      <trkpt lat="45.40457" lon="5.54617">
        <ele>482.9</ele>
        <time>2017-12-30T17:27:28Z</time>
      </trkpt>
      <trkpt lat="45.40466" lon="5.54613">
        <ele>483.1</ele>
        <time>2017-12-30T17:27:33Z</time>
      </trkpt>
      <trkpt lat="45.4047" lon="5.54611">
        <ele>483.2</ele>
        <time>2017-12-30T17:27:36Z</time>
      </trkpt>
      <trkpt lat="45.40478" lon="5.54608">
        <ele>483.4</ele>
        <time>2017-12-30T17:27:40Z</time>
      </trkpt>
      <trkpt lat="45.40486" lon="5.54605">
        <ele>483.5</ele>
        <time>2017-12-30T17:27:45Z</time>
      </trkpt>
      <trkpt lat="45.40493" lon="5.54602">
        <ele>483.7</ele>
        <time>2017-12-30T17:27:49Z</time>
      </trkpt>
      <trkpt lat="45.40499" lon="5.54601">
        <ele>483.8</ele>
        <time>2017-12-30T17:27:53Z</time>
      </trkpt>
      <trkpt lat="45.40506" lon="5.54603">
        <ele>483.8</ele>
        <time>2017-12-30T17:27:57Z</time>
      </trkpt>
      <trkpt lat="45.40512" lon="5.54605">
        <ele>483.8</ele>
        <time>2017-12-30T17:28:00Z</time>
      </trkpt>
      <trkpt lat="45.4052" lon="5.54608">
        <ele>483.8</ele>
        <time>2017-12-30T17:28:05Z</time>
      </trkpt>
      <trkpt lat="45.40528" lon="5.54602">
        <ele>483.9</ele>
        <time>2017-12-30T17:28:10Z</time>
      </trkpt>
      <trkpt lat="45.40534" lon="5.54595">
        <ele>483.9</ele>
        <time>2017-12-30T17:28:15Z</time>
      </trkpt>
      <trkpt lat="45.40541" lon="5.54588">
        <ele>484</ele>
        <time>2017-12-30T17:28:20Z</time>
      </trkpt>
      <trkpt lat="45.40548" lon="5.54582">
        <ele>484</ele>
        <time>2017-12-30T17:28:24Z</time>
      </trkpt>
      <trkpt lat="45.40555" lon="5.54575">
        <ele>484.1</ele>
        <time>2017-12-30T17:28:29Z</time>
      </trkpt>
      <trkpt lat="45.40561" lon="5.54568">
        <ele>484.2</ele>
        <time>2017-12-30T17:28:34Z</time>
      </trkpt>
      <trkpt lat="45.40565" lon="5.54564">
        <ele>484.2</ele>
        <time>2017-12-30T17:28:36Z</time>
      </trkpt>
      <trkpt lat="45.40568" lon="5.54559">
        <ele>484.2</ele>
        <time>2017-12-30T17:28:39Z</time>
      </trkpt>
      <trkpt lat="45.40571" lon="5.54554">
        <ele>484.2</ele>
        <time>2017-12-30T17:28:42Z</time>
      </trkpt>
      <trkpt lat="45.40574" lon="5.54549">
        <ele>484.1</ele>
        <time>2017-12-30T17:28:44Z</time>
      </trkpt>
      <trkpt lat="45.40578" lon="5.54544">
        <ele>484.1</ele>
        <time>2017-12-30T17:28:47Z</time>
      </trkpt>
      <trkpt lat="45.40581" lon="5.5454">
        <ele>484</ele>
        <time>2017-12-30T17:28:50Z</time>
      </trkpt>
      <trkpt lat="45.40585" lon="5.54535">
        <ele>484.1</ele>
        <time>2017-12-30T17:28:53Z</time>
      </trkpt>
      <trkpt lat="45.40588" lon="5.54531">
        <ele>484.2</ele>
        <time>2017-12-30T17:28:55Z</time>
      </trkpt>
      <trkpt lat="45.40592" lon="5.54526">
        <ele>484.4</ele>
        <time>2017-12-30T17:28:58Z</time>
      </trkpt>
      <trkpt lat="45.40596" lon="5.54521">
        <ele>484.7</ele>
        <time>2017-12-30T17:29:01Z</time>
      </trkpt>
      <trkpt lat="45.406" lon="5.54517">
        <ele>484.9</ele>
        <time>2017-12-30T17:29:04Z</time>
      </trkpt>
      <trkpt lat="45.40604" lon="5.54513">
        <ele>485.1</ele>
        <time>2017-12-30T17:29:07Z</time>
      </trkpt>
      <trkpt lat="45.40608" lon="5.54509">
        <ele>485.4</ele>
        <time>2017-12-30T17:29:10Z</time>
      </trkpt>
      <trkpt lat="45.40612" lon="5.54506">
        <ele>485.7</ele>
        <time>2017-12-30T17:29:12Z</time>
      </trkpt>
      <trkpt lat="45.40616" lon="5.54503">
        <ele>485.9</ele>
        <time>2017-12-30T17:29:15Z</time>
      </trkpt>
      <trkpt lat="45.4062" lon="5.545">
        <ele>486.2</ele>
        <time>2017-12-30T17:29:17Z</time>
      </trkpt>
      <trkpt lat="45.40624" lon="5.54497">
        <ele>486.7</ele>
        <time>2017-12-30T17:29:20Z</time>
      </trkpt>
      <trkpt lat="45.40628" lon="5.54494">
        <ele>487.1</ele>
        <time>2017-12-30T17:29:23Z</time>
      </trkpt>
      <trkpt lat="45.40633" lon="5.54491">
        <ele>487.6</ele>
        <time>2017-12-30T17:29:26Z</time>
      </trkpt>
      <trkpt lat="45.40637" lon="5.54489">
        <ele>487.9</ele>
        <time>2017-12-30T17:29:28Z</time>
      </trkpt>
      <trkpt lat="45.40642" lon="5.54486">
        <ele>488.3</ele>
        <time>2017-12-30T17:29:31Z</time>
      </trkpt>
      <trkpt lat="45.40647" lon="5.54483">
        <ele>488.7</ele>
        <time>2017-12-30T17:29:34Z</time>
      </trkpt>
      <trkpt lat="45.40651" lon="5.54481">
        <ele>489</ele>
        <time>2017-12-30T17:29:37Z</time>
      </trkpt>
      <trkpt lat="45.40656" lon="5.54478">
        <ele>489.3</ele>
        <time>2017-12-30T17:29:40Z</time>
      </trkpt>
      <trkpt lat="45.40661" lon="5.54476">
        <ele>489.6</ele>
        <time>2017-12-30T17:29:43Z</time>
      </trkpt>
      <trkpt lat="45.40665" lon="5.54474">
        <ele>489.9</ele>
        <time>2017-12-30T17:29:45Z</time>
      </trkpt>
      <trkpt lat="45.4067" lon="5.54471">
        <ele>490.1</ele>
        <time>2017-12-30T17:29:48Z</time>
      </trkpt>
      <trkpt lat="45.40675" lon="5.54469">
        <ele>490.3</ele>
        <time>2017-12-30T17:29:51Z</time>
      </trkpt>
      <trkpt lat="45.4068" lon="5.54467">
        <ele>490.5</ele>
        <time>2017-12-30T17:29:54Z</time>
      </trkpt>
      <trkpt lat="45.40684" lon="5.54465">
        <ele>490.7</ele>
        <time>2017-12-30T17:29:57Z</time>
      </trkpt>
      <trkpt lat="45.40689" lon="5.54462">
        <ele>490.9</ele>
        <time>2017-12-30T17:30:00Z</time>
      </trkpt>
      <trkpt lat="45.40694" lon="5.5446">
        <ele>491.1</ele>
        <time>2017-12-30T17:30:03Z</time>
      </trkpt>
      <trkpt lat="45.40699" lon="5.54458">
        <ele>491.3</ele>
        <time>2017-12-30T17:30:06Z</time>
      </trkpt>
      <trkpt lat="45.40703" lon="5.54456">
        <ele>491.5</ele>
        <time>2017-12-30T17:30:08Z</time>
      </trkpt>
      <trkpt lat="45.40712" lon="5.54452">
        <ele>491.8</ele>
        <time>2017-12-30T17:30:13Z</time>
      </trkpt>
      <trkpt lat="45.4072" lon="5.54447">
        <ele>492.2</ele>
        <time>2017-12-30T17:30:18Z</time>
      </trkpt>
      <trkpt lat="45.40724" lon="5.54445">
        <ele>492.4</ele>
        <time>2017-12-30T17:30:21Z</time>
      </trkpt>
      <trkpt lat="45.40729" lon="5.54442">
        <ele>492.6</ele>
        <time>2017-12-30T17:30:24Z</time>
      </trkpt>
      <trkpt lat="45.40733" lon="5.5444">
        <ele>492.8</ele>
        <time>2017-12-30T17:30:26Z</time>
      </trkpt>
      <trkpt lat="45.40738" lon="5.54438">
        <ele>493</ele>
        <time>2017-12-30T17:30:29Z</time>
      </trkpt>
      <trkpt lat="45.40743" lon="5.54435">
        <ele>493.2</ele>
        <time>2017-12-30T17:30:33Z</time>
      </trkpt>
      <trkpt lat="45.40747" lon="5.54433">
        <ele>493.4</ele>
        <time>2017-12-30T17:30:35Z</time>
      </trkpt>
      <trkpt lat="45.40752" lon="5.54431">
        <ele>493.5</ele>
        <time>2017-12-30T17:30:38Z</time>
      </trkpt>
      <trkpt lat="45.40756" lon="5.54429">
        <ele>493.5</ele>
        <time>2017-12-30T17:30:40Z</time>
      </trkpt>
      <trkpt lat="45.40761" lon="5.54427">
        <ele>493.6</ele>
        <time>2017-12-30T17:30:43Z</time>
      </trkpt>
      <trkpt lat="45.40766" lon="5.54425">
        <ele>493.6</ele>
        <time>2017-12-30T17:30:46Z</time>
      </trkpt>
      <trkpt lat="45.4077" lon="5.54423">
        <ele>493.6</ele>
        <time>2017-12-30T17:30:49Z</time>
      </trkpt>
      <trkpt lat="45.40775" lon="5.5442">
        <ele>493.6</ele>
        <time>2017-12-30T17:30:52Z</time>
      </trkpt>
      <trkpt lat="45.4078" lon="5.54418">
        <ele>493.6</ele>
        <time>2017-12-30T17:30:55Z</time>
      </trkpt>
      <trkpt lat="45.40784" lon="5.54416">
        <ele>493.8</ele>
        <time>2017-12-30T17:30:57Z</time>
      </trkpt>
      <trkpt lat="45.40789" lon="5.54414">
        <ele>494.1</ele>
        <time>2017-12-30T17:31:00Z</time>
      </trkpt>
      <trkpt lat="45.40793" lon="5.54412">
        <ele>494.4</ele>
        <time>2017-12-30T17:31:03Z</time>
      </trkpt>
      <trkpt lat="45.40798" lon="5.5441">
        <ele>494.7</ele>
        <time>2017-12-30T17:31:06Z</time>
      </trkpt>
      <trkpt lat="45.40802" lon="5.54408">
        <ele>494.9</ele>
        <time>2017-12-30T17:31:08Z</time>
      </trkpt>
      <trkpt lat="45.40807" lon="5.54406">
        <ele>495.1</ele>
        <time>2017-12-30T17:31:11Z</time>
      </trkpt>
      <trkpt lat="45.40811" lon="5.54404">
        <ele>495.3</ele>
        <time>2017-12-30T17:31:13Z</time>
      </trkpt>
      <trkpt lat="45.40816" lon="5.54402">
        <ele>495.5</ele>
        <time>2017-12-30T17:31:16Z</time>
      </trkpt>
      <trkpt lat="45.40821" lon="5.544">
        <ele>495.6</ele>
        <time>2017-12-30T17:31:19Z</time>
      </trkpt>
      <trkpt lat="45.40826" lon="5.54398">
        <ele>495.8</ele>
        <time>2017-12-30T17:31:22Z</time>
      </trkpt>
      <trkpt lat="45.4083" lon="5.54396">
        <ele>495.9</ele>
        <time>2017-12-30T17:31:25Z</time>
      </trkpt>
      <trkpt lat="45.40835" lon="5.54394">
        <ele>496</ele>
        <time>2017-12-30T17:31:28Z</time>
      </trkpt>
      <trkpt lat="45.4084" lon="5.54393">
        <ele>496</ele>
        <time>2017-12-30T17:31:31Z</time>
      </trkpt>
      <trkpt lat="45.40844" lon="5.54391">
        <ele>496.2</ele>
        <time>2017-12-30T17:31:33Z</time>
      </trkpt>
      <trkpt lat="45.40849" lon="5.54389">
        <ele>496.3</ele>
        <time>2017-12-30T17:31:36Z</time>
      </trkpt>
      <trkpt lat="45.40854" lon="5.54387">
        <ele>496.4</ele>
        <time>2017-12-30T17:31:39Z</time>
      </trkpt>
      <trkpt lat="45.40854" lon="5.54387">
        <ele>496.4</ele>
        <time>2017-12-30T17:31:39Z</time>
      </trkpt>
      <trkpt lat="45.40972" lon="5.54282">
        <ele>504.7</ele>
        <time>2017-12-30T17:32:58Z</time>
      </trkpt>
      <trkpt lat="45.40972" lon="5.54282">
        <ele>504.7</ele>
        <time>2017-12-30T17:32:58Z</time>
      </trkpt>
      <trkpt lat="45.41113" lon="5.54153">
        <ele>525</ele>
        <time>2017-12-30T17:34:34Z</time>
      </trkpt>
      <trkpt lat="45.41113" lon="5.54153">
        <ele>525</ele>
        <time>2017-12-30T17:34:34Z</time>
      </trkpt>
      <trkpt lat="45.41186" lon="5.5417">
        <ele>523.9</ele>
        <time>2017-12-30T17:35:17Z</time>
      </trkpt>
      <trkpt lat="45.41186" lon="5.5417">
        <ele>523.9</ele>
        <time>2017-12-30T17:35:17Z</time>
      </trkpt>
      <trkpt lat="45.41339" lon="5.54123">
        <ele>543.1</ele>
        <time>2017-12-30T17:36:46Z</time>
      </trkpt>
      <trkpt lat="45.41339" lon="5.54123">
        <ele>543.1</ele>
        <time>2017-12-30T17:36:46Z</time>
      </trkpt>
      <trkpt lat="45.41425" lon="5.54189">
        <ele>540.1</ele>
        <time>2017-12-30T17:37:42Z</time>
      </trkpt>
      <trkpt lat="45.41425" lon="5.54189">
        <ele>540.1</ele>
        <time>2017-12-30T17:37:42Z</time>
      </trkpt>
      <trkpt lat="45.41496" lon="5.54196">
        <ele>543.7</ele>
        <time>2017-12-30T17:38:23Z</time>
      </trkpt>
      <trkpt lat="45.41496" lon="5.54196">
        <ele>543.7</ele>
        <time>2017-12-30T17:38:23Z</time>
      </trkpt>
      <trkpt lat="45.41541" lon="5.54217">
        <ele>543.7</ele>
        <time>2017-12-30T17:38:50Z</time>
      </trkpt>
      <trkpt lat="45.41541" lon="5.54217">
        <ele>543.7</ele>
        <time>2017-12-30T17:38:50Z</time>
      </trkpt>
      <trkpt lat="45.41538" lon="5.54247">
        <ele>541.6</ele>
        <time>2017-12-30T17:39:02Z</time>
      </trkpt>
      <trkpt lat="45.41538" lon="5.54247">
        <ele>541.6</ele>
        <time>2017-12-30T17:39:02Z</time>
      </trkpt>
      <trkpt lat="45.41573" lon="5.54258">
        <ele>541.3</ele>
        <time>2017-12-30T17:39:22Z</time>
      </trkpt>
      <trkpt lat="45.41573" lon="5.54258">
        <ele>541.3</ele>
        <time>2017-12-30T17:39:22Z</time>
      </trkpt>
      <trkpt lat="45.41621" lon="5.54271">
        <ele>541</ele>
        <time>2017-12-30T17:39:50Z</time>
      </trkpt>
      <trkpt lat="45.41621" lon="5.54271">
        <ele>541</ele>
        <time>2017-12-30T17:39:50Z</time>
      </trkpt>
      <trkpt lat="45.41696" lon="5.54267">
        <ele>546.8</ele>
        <time>2017-12-30T17:40:33Z</time>
      </trkpt>
      <trkpt lat="45.41696" lon="5.54267">
        <ele>546.8</ele>
        <time>2017-12-30T17:40:33Z</time>
      </trkpt>
      <trkpt lat="45.41753" lon="5.54307">
        <ele>549.7</ele>
        <time>2017-12-30T17:41:10Z</time>
      </trkpt>
      <trkpt lat="45.41753" lon="5.54307">
        <ele>549.7</ele>
        <time>2017-12-30T17:41:10Z</time>
      </trkpt>
      <trkpt lat="45.41799" lon="5.5434">
        <ele>555.2</ele>
        <time>2017-12-30T17:41:39Z</time>
      </trkpt>
      <trkpt lat="45.41799" lon="5.5434">
        <ele>555.2</ele>
        <time>2017-12-30T17:41:39Z</time>
      </trkpt>
      <trkpt lat="45.41818" lon="5.54325">
        <ele>558.6</ele>
        <time>2017-12-30T17:41:51Z</time>
      </trkpt>
      <trkpt lat="45.41818" lon="5.54325">
        <ele>558.6</ele>
        <time>2017-12-30T17:41:51Z</time>
      </trkpt>
      <trkpt lat="45.41855" lon="5.5427">
        <ele>564.6</ele>
        <time>2017-12-30T17:42:22Z</time>
      </trkpt>
      <trkpt lat="45.41855" lon="5.5427">
        <ele>564.6</ele>
        <time>2017-12-30T17:42:22Z</time>
      </trkpt>
      <trkpt lat="45.41912" lon="5.54247">
        <ele>573.2</ele>
        <time>2017-12-30T17:42:56Z</time>
      </trkpt>
      <trkpt lat="45.41912" lon="5.54247">
        <ele>573.2</ele>
        <time>2017-12-30T17:42:56Z</time>
      </trkpt>
      <trkpt lat="45.4208" lon="5.54037">
        <ele>571.6</ele>
        <time>2017-12-30T17:45:04Z</time>
      </trkpt>
      <trkpt lat="45.4208" lon="5.54037">
        <ele>571.6</ele>
        <time>2017-12-30T17:45:04Z</time>
      </trkpt>
      <trkpt lat="45.42123" lon="5.54041">
        <ele>574.1</ele>
        <time>2017-12-30T17:45:28Z</time>
      </trkpt>
      <trkpt lat="45.42123" lon="5.54041">
        <ele>574.1</ele>
        <time>2017-12-30T17:45:28Z</time>
      </trkpt>
      <trkpt lat="45.42162" lon="5.54016">
        <ele>574.3</ele>
        <time>2017-12-30T17:45:53Z</time>
      </trkpt>
      <trkpt lat="45.42162" lon="5.54016">
        <ele>574.3</ele>
        <time>2017-12-30T17:45:53Z</time>
      </trkpt>
      <trkpt lat="45.42186" lon="5.5396">
        <ele>573.3</ele>
        <time>2017-12-30T17:46:19Z</time>
      </trkpt>
      <trkpt lat="45.42186" lon="5.5396">
        <ele>573.3</ele>
        <time>2017-12-30T17:46:19Z</time>
      </trkpt>
      <trkpt lat="45.42249" lon="5.53957">
        <ele>584.1</ele>
        <time>2017-12-30T17:46:55Z</time>
      </trkpt>
      <trkpt lat="45.42249" lon="5.53957">
        <ele>584.1</ele>
        <time>2017-12-30T17:46:55Z</time>
      </trkpt>
      <trkpt lat="45.42343" lon="5.54144">
        <ele>581.2</ele>
        <time>2017-12-30T17:48:28Z</time>
      </trkpt>
      <trkpt lat="45.42343" lon="5.54144">
        <ele>581.2</ele>
        <time>2017-12-30T17:48:28Z</time>
      </trkpt>
      <trkpt lat="45.42415" lon="5.54247">
        <ele>584.2</ele>
        <time>2017-12-30T17:49:26Z</time>
      </trkpt>
      <trkpt lat="45.42415" lon="5.54247">
        <ele>584.2</ele>
        <time>2017-12-30T17:49:26Z</time>
      </trkpt>
      <trkpt lat="45.42517" lon="5.54329">
        <ele>593.1</ele>
        <time>2017-12-30T17:50:33Z</time>
      </trkpt>
      <trkpt lat="45.42517" lon="5.54329">
        <ele>593.1</ele>
        <time>2017-12-30T17:50:33Z</time>
      </trkpt>
      <trkpt lat="45.42611" lon="5.5435">
        <ele>603.7</ele>
        <time>2017-12-30T17:51:27Z</time>
      </trkpt>
      <trkpt lat="45.42611" lon="5.5435">
        <ele>603.7</ele>
        <time>2017-12-30T17:51:27Z</time>
      </trkpt>
      <trkpt lat="45.42665" lon="5.54385">
        <ele>610.3</ele>
        <time>2017-12-30T17:52:01Z</time>
      </trkpt>
      <trkpt lat="45.42665" lon="5.54385">
        <ele>610.3</ele>
        <time>2017-12-30T17:52:01Z</time>
      </trkpt>
      <trkpt lat="45.42752" lon="5.54402">
        <ele>618.4</ele>
        <time>2017-12-30T17:52:51Z</time>
      </trkpt>
      <trkpt lat="45.42752" lon="5.54402">
        <ele>618.4</ele>
        <time>2017-12-30T17:52:51Z</time>
      </trkpt>
      <trkpt lat="45.42858" lon="5.54415">
        <ele>637.3</ele>
        <time>2017-12-30T17:53:52Z</time>
      </trkpt>
      <trkpt lat="45.42858" lon="5.54415">
        <ele>637.3</ele>
        <time>2017-12-30T17:53:52Z</time>
      </trkpt>
      <trkpt lat="45.42938" lon="5.54373">
        <ele>645.3</ele>
        <time>2017-12-30T17:54:41Z</time>
      </trkpt>
      <trkpt lat="45.42938" lon="5.54373">
        <ele>645.3</ele>
        <time>2017-12-30T17:54:41Z</time>
      </trkpt>
      <trkpt lat="45.43083" lon="5.54325">
        <ele>666.5</ele>
        <time>2017-12-30T17:56:06Z</time>
      </trkpt>
      <trkpt lat="45.43083" lon="5.54325">
        <ele>666.5</ele>
        <time>2017-12-30T17:56:06Z</time>
      </trkpt>
      <trkpt lat="45.43204" lon="5.54235">
        <ele>683</ele>
        <time>2017-12-30T17:57:24Z</time>
      </trkpt>
      <trkpt lat="45.43204" lon="5.54235">
        <ele>683</ele>
        <time>2017-12-30T17:57:24Z</time>
      </trkpt>
      <trkpt lat="45.43288" lon="5.54157">
        <ele>687.3</ele>
        <time>2017-12-30T17:58:22Z</time>
      </trkpt>
      <trkpt lat="45.43288" lon="5.54157">
        <ele>687.3</ele>
        <time>2017-12-30T17:58:22Z</time>
      </trkpt>
      <trkpt lat="45.43376" lon="5.54132">
        <ele>708.1</ele>
        <time>2017-12-30T17:59:13Z</time>
      </trkpt>
      <trkpt lat="45.43376" lon="5.54132">
        <ele>708.1</ele>
        <time>2017-12-30T17:59:13Z</time>
      </trkpt>
      <trkpt lat="45.43457" lon="5.54157">
        <ele>715.8</ele>
        <time>2017-12-30T18:00:00Z</time>
      </trkpt>
      <trkpt lat="45.43457" lon="5.54157">
        <ele>715.8</ele>
        <time>2017-12-30T18:00:00Z</time>
      </trkpt>
      <trkpt lat="45.43523" lon="5.54179">
        <ele>721.8</ele>
        <time>2017-12-30T18:00:39Z</time>
      </trkpt>
      <trkpt lat="45.43523" lon="5.54179">
        <ele>721.8</ele>
        <time>2017-12-30T18:00:39Z</time>
      </trkpt>
      <trkpt lat="45.43641" lon="5.5423">
        <ele>711.5</ele>
        <time>2017-12-30T18:01:49Z</time>
      </trkpt>
      <trkpt lat="45.43641" lon="5.5423">
        <ele>711.5</ele>
        <time>2017-12-30T18:01:49Z</time>
      </trkpt>
      <trkpt lat="45.43743" lon="5.54239">
        <ele>715.6</ele>
        <time>2017-12-30T18:02:48Z</time>
      </trkpt>
      <trkpt lat="45.43743" lon="5.54239">
        <ele>715.6</ele>
        <time>2017-12-30T18:02:48Z</time>
      </trkpt>
      <trkpt lat="45.43794" lon="5.54217">
        <ele>721</ele>
        <time>2017-12-30T18:03:18Z</time>
      </trkpt>
      <trkpt lat="45.43794" lon="5.54217">
        <ele>721</ele>
        <time>2017-12-30T18:03:18Z</time>
      </trkpt>
      <trkpt lat="45.43898" lon="5.54131">
        <ele>708</ele>
        <time>2017-12-30T18:04:27Z</time>
      </trkpt>
      <trkpt lat="45.43898" lon="5.54131">
        <ele>708</ele>
        <time>2017-12-30T18:04:27Z</time>
      </trkpt>
      <trkpt lat="45.43918" lon="5.54149">
        <ele>706</ele>
        <time>2017-12-30T18:04:41Z</time>
      </trkpt>
      <trkpt lat="45.43918" lon="5.54149">
        <ele>706</ele>
        <time>2017-12-30T18:04:41Z</time>
      </trkpt>
      <trkpt lat="45.43912" lon="5.54273">
        <ele>711.7</ele>
        <time>2017-12-30T18:05:31Z</time>
      </trkpt>
      <trkpt lat="45.43912" lon="5.54273">
        <ele>711.7</ele>
        <time>2017-12-30T18:05:31Z</time>
      </trkpt>
      <trkpt lat="45.43932" lon="5.54373">
        <ele>707.1</ele>
        <time>2017-12-30T18:06:12Z</time>
      </trkpt>
      <trkpt lat="45.43932" lon="5.54373">
        <ele>707.1</ele>
        <time>2017-12-30T18:06:12Z</time>
      </trkpt>
      <trkpt lat="45.4393" lon="5.54595">
        <ele>692.3</ele>
        <time>2017-12-30T18:07:41Z</time>
      </trkpt>
      <trkpt lat="45.4393" lon="5.54595">
        <ele>692.3</ele>
        <time>2017-12-30T18:07:41Z</time>
      </trkpt>
      <trkpt lat="45.43948" lon="5.54698">
        <ele>685.7</ele>
        <time>2017-12-30T18:08:24Z</time>
      </trkpt>
      <trkpt lat="45.43948" lon="5.54698">
        <ele>685.7</ele>
        <time>2017-12-30T18:08:24Z</time>
      </trkpt>
      <trkpt lat="45.43954" lon="5.54861">
        <ele>679.1</ele>
        <time>2017-12-30T18:09:29Z</time>
      </trkpt>
      <trkpt lat="45.43954" lon="5.54861">
        <ele>679.1</ele>
        <time>2017-12-30T18:09:29Z</time>
      </trkpt>
      <trkpt lat="45.44005" lon="5.54943">
        <ele>666.9</ele>
        <time>2017-12-30T18:10:13Z</time>
      </trkpt>
      <trkpt lat="45.44005" lon="5.54943">
        <ele>666.9</ele>
        <time>2017-12-30T18:10:13Z</time>
      </trkpt>
      <trkpt lat="45.44056" lon="5.54978">
        <ele>658.2</ele>
        <time>2017-12-30T18:10:46Z</time>
      </trkpt>
      <trkpt lat="45.44056" lon="5.54978">
        <ele>658.2</ele>
        <time>2017-12-30T18:10:46Z</time>
      </trkpt>
      <trkpt lat="45.44066" lon="5.54983">
        <ele>656.4</ele>
        <time>2017-12-30T18:10:52Z</time>
      </trkpt>
      <trkpt lat="45.44077" lon="5.54989">
        <ele>654.4</ele>
        <time>2017-12-30T18:10:59Z</time>
      </trkpt>
      <trkpt lat="45.44087" lon="5.54996">
        <ele>652.8</ele>
        <time>2017-12-30T18:11:05Z</time>
      </trkpt>
      <trkpt lat="45.44097" lon="5.55004">
        <ele>651.7</ele>
        <time>2017-12-30T18:11:12Z</time>
      </trkpt>
      <trkpt lat="45.44108" lon="5.55013">
        <ele>650.5</ele>
        <time>2017-12-30T18:11:19Z</time>
      </trkpt>
      <trkpt lat="45.44117" lon="5.55022">
        <ele>649.3</ele>
        <time>2017-12-30T18:11:25Z</time>
      </trkpt>
      <trkpt lat="45.44126" lon="5.55029">
        <ele>648.2</ele>
        <time>2017-12-30T18:11:31Z</time>
      </trkpt>
      <trkpt lat="45.44136" lon="5.55037">
        <ele>646.9</ele>
        <time>2017-12-30T18:11:37Z</time>
      </trkpt>
      <trkpt lat="45.44145" lon="5.55046">
        <ele>645.5</ele>
        <time>2017-12-30T18:11:44Z</time>
      </trkpt>
      <trkpt lat="45.44154" lon="5.55056">
        <ele>644</ele>
        <time>2017-12-30T18:11:50Z</time>
      </trkpt>
      <trkpt lat="45.44164" lon="5.55066">
        <ele>642.4</ele>
        <time>2017-12-30T18:11:57Z</time>
      </trkpt>
      <trkpt lat="45.44172" lon="5.55075">
        <ele>641.3</ele>
        <time>2017-12-30T18:12:03Z</time>
      </trkpt>
      <trkpt lat="45.44179" lon="5.55085">
        <ele>640.3</ele>
        <time>2017-12-30T18:12:09Z</time>
      </trkpt>
      <trkpt lat="45.44185" lon="5.55094">
        <ele>639.5</ele>
        <time>2017-12-30T18:12:14Z</time>
      </trkpt>
      <trkpt lat="45.4419" lon="5.55103">
        <ele>638.8</ele>
        <time>2017-12-30T18:12:18Z</time>
      </trkpt>
      <trkpt lat="45.44195" lon="5.55111">
        <ele>638</ele>
        <time>2017-12-30T18:12:23Z</time>
      </trkpt>
      <trkpt lat="45.44199" lon="5.55118">
        <ele>637.3</ele>
        <time>2017-12-30T18:12:26Z</time>
      </trkpt>
      <trkpt lat="45.44203" lon="5.55124">
        <ele>636.7</ele>
        <time>2017-12-30T18:12:30Z</time>
      </trkpt>
      <trkpt lat="45.44208" lon="5.55128">
        <ele>636.1</ele>
        <time>2017-12-30T18:12:33Z</time>
      </trkpt>
      <trkpt lat="45.44212" lon="5.5513">
        <ele>635.7</ele>
        <time>2017-12-30T18:12:35Z</time>
      </trkpt>
      <trkpt lat="45.44218" lon="5.55129">
        <ele>635.4</ele>
        <time>2017-12-30T18:12:39Z</time>
      </trkpt>
      <trkpt lat="45.44221" lon="5.55126">
        <ele>635.4</ele>
        <time>2017-12-30T18:12:41Z</time>
      </trkpt>
      <trkpt lat="45.44227" lon="5.55121">
        <ele>635.3</ele>
        <time>2017-12-30T18:12:45Z</time>
      </trkpt>
      <trkpt lat="45.44233" lon="5.55115">
        <ele>635.4</ele>
        <time>2017-12-30T18:12:49Z</time>
      </trkpt>
      <trkpt lat="45.4424" lon="5.55108">
        <ele>635.5</ele>
        <time>2017-12-30T18:12:54Z</time>
      </trkpt>
      <trkpt lat="45.44248" lon="5.551">
        <ele>635.7</ele>
        <time>2017-12-30T18:12:59Z</time>
      </trkpt>
      <trkpt lat="45.44256" lon="5.55093">
        <ele>636.1</ele>
        <time>2017-12-30T18:13:05Z</time>
      </trkpt>
      <trkpt lat="45.44265" lon="5.55086">
        <ele>636.5</ele>
        <time>2017-12-30T18:13:11Z</time>
      </trkpt>
      <trkpt lat="45.44273" lon="5.5508">
        <ele>636.7</ele>
        <time>2017-12-30T18:13:16Z</time>
      </trkpt>
      <trkpt lat="45.44282" lon="5.55074">
        <ele>636.8</ele>
        <time>2017-12-30T18:13:22Z</time>
      </trkpt>
      <trkpt lat="45.44291" lon="5.5507">
        <ele>636.8</ele>
        <time>2017-12-30T18:13:27Z</time>
      </trkpt>
      <trkpt lat="45.443" lon="5.55068">
        <ele>636.7</ele>
        <time>2017-12-30T18:13:32Z</time>
      </trkpt>
      <trkpt lat="45.44308" lon="5.55068">
        <ele>636.5</ele>
        <time>2017-12-30T18:13:37Z</time>
      </trkpt>
      <trkpt lat="45.44316" lon="5.55067">
        <ele>636.3</ele>
        <time>2017-12-30T18:13:41Z</time>
      </trkpt>
      <trkpt lat="45.44324" lon="5.55065">
        <ele>636.2</ele>
        <time>2017-12-30T18:13:46Z</time>
      </trkpt>
      <trkpt lat="45.44329" lon="5.55062">
        <ele>636.2</ele>
        <time>2017-12-30T18:13:49Z</time>
      </trkpt>
      <trkpt lat="45.44333" lon="5.55058">
        <ele>636.2</ele>
        <time>2017-12-30T18:13:52Z</time>
      </trkpt>
      <trkpt lat="45.44335" lon="5.55053">
        <ele>636.4</ele>
        <time>2017-12-30T18:13:54Z</time>
      </trkpt>
      <trkpt lat="45.44338" lon="5.55047">
        <ele>636.6</ele>
        <time>2017-12-30T18:13:57Z</time>
      </trkpt>
      <trkpt lat="45.44341" lon="5.55042">
        <ele>636.7</ele>
        <time>2017-12-30T18:14:00Z</time>
      </trkpt>
      <trkpt lat="45.44346" lon="5.55031">
        <ele>636.9</ele>
        <time>2017-12-30T18:14:05Z</time>
      </trkpt>
      <trkpt lat="45.44351" lon="5.55022">
        <ele>637.1</ele>
        <time>2017-12-30T18:14:10Z</time>
      </trkpt>
      <trkpt lat="45.44355" lon="5.55017">
        <ele>637.1</ele>
        <time>2017-12-30T18:14:13Z</time>
      </trkpt>
      <trkpt lat="45.44358" lon="5.55013">
        <ele>637</ele>
        <time>2017-12-30T18:14:15Z</time>
      </trkpt>
      <trkpt lat="45.44362" lon="5.55009">
        <ele>637</ele>
        <time>2017-12-30T18:14:18Z</time>
      </trkpt>
      <trkpt lat="45.44367" lon="5.55007">
        <ele>636.8</ele>
        <time>2017-12-30T18:14:21Z</time>
      </trkpt>
      <trkpt lat="45.44372" lon="5.55005">
        <ele>636.5</ele>
        <time>2017-12-30T18:14:24Z</time>
      </trkpt>
      <trkpt lat="45.44377" lon="5.55005">
        <ele>636.2</ele>
        <time>2017-12-30T18:14:27Z</time>
      </trkpt>
      <trkpt lat="45.44382" lon="5.55005">
        <ele>636</ele>
        <time>2017-12-30T18:14:29Z</time>
      </trkpt>
      <trkpt lat="45.44387" lon="5.55007">
        <ele>635.6</ele>
        <time>2017-12-30T18:14:32Z</time>
      </trkpt>
      <trkpt lat="45.44392" lon="5.5501">
        <ele>635.3</ele>
        <time>2017-12-30T18:14:36Z</time>
      </trkpt>
      <trkpt lat="45.44397" lon="5.55013">
        <ele>634.9</ele>
        <time>2017-12-30T18:14:39Z</time>
      </trkpt>
      <trkpt lat="45.44401" lon="5.55016">
        <ele>634.6</ele>
        <time>2017-12-30T18:14:41Z</time>
      </trkpt>
      <trkpt lat="45.44406" lon="5.55021">
        <ele>634.3</ele>
        <time>2017-12-30T18:14:45Z</time>
      </trkpt>
      <trkpt lat="45.4441" lon="5.55026">
        <ele>634</ele>
        <time>2017-12-30T18:14:48Z</time>
      </trkpt>
      <trkpt lat="45.44414" lon="5.55032">
        <ele>633.7</ele>
        <time>2017-12-30T18:14:51Z</time>
      </trkpt>
      <trkpt lat="45.44418" lon="5.55038">
        <ele>633.4</ele>
        <time>2017-12-30T18:14:54Z</time>
      </trkpt>
      <trkpt lat="45.44422" lon="5.55044">
        <ele>633</ele>
        <time>2017-12-30T18:14:58Z</time>
      </trkpt>
      <trkpt lat="45.44426" lon="5.5505">
        <ele>632.5</ele>
        <time>2017-12-30T18:15:01Z</time>
      </trkpt>
      <trkpt lat="45.4443" lon="5.55055">
        <ele>632.1</ele>
        <time>2017-12-30T18:15:04Z</time>
      </trkpt>
      <trkpt lat="45.44434" lon="5.55061">
        <ele>631.7</ele>
        <time>2017-12-30T18:15:07Z</time>
      </trkpt>
      <trkpt lat="45.44438" lon="5.55067">
        <ele>631.2</ele>
        <time>2017-12-30T18:15:11Z</time>
      </trkpt>
      <trkpt lat="45.44442" lon="5.55073">
        <ele>630.7</ele>
        <time>2017-12-30T18:15:14Z</time>
      </trkpt>
      <trkpt lat="45.44446" lon="5.55079">
        <ele>630.3</ele>
        <time>2017-12-30T18:15:17Z</time>
      </trkpt>
      <trkpt lat="45.4445" lon="5.55086">
        <ele>629.7</ele>
        <time>2017-12-30T18:15:21Z</time>
      </trkpt>
      <trkpt lat="45.44454" lon="5.55093">
        <ele>629.1</ele>
        <time>2017-12-30T18:15:25Z</time>
      </trkpt>
      <trkpt lat="45.44457" lon="5.551">
        <ele>628.6</ele>
        <time>2017-12-30T18:15:28Z</time>
      </trkpt>
      <trkpt lat="45.44461" lon="5.55107">
        <ele>628</ele>
        <time>2017-12-30T18:15:32Z</time>
      </trkpt>
      <trkpt lat="45.44465" lon="5.55115">
        <ele>627.4</ele>
        <time>2017-12-30T18:15:35Z</time>
      </trkpt>
      <trkpt lat="45.44468" lon="5.55123">
        <ele>626.9</ele>
        <time>2017-12-30T18:15:39Z</time>
      </trkpt>
      <trkpt lat="45.44472" lon="5.55132">
        <ele>626.3</ele>
        <time>2017-12-30T18:15:43Z</time>
      </trkpt>
      <trkpt lat="45.44475" lon="5.55141">
        <ele>625.8</ele>
        <time>2017-12-30T18:15:47Z</time>
      </trkpt>
      <trkpt lat="45.44478" lon="5.5515">
        <ele>625.3</ele>
        <time>2017-12-30T18:15:51Z</time>
      </trkpt>
      <trkpt lat="45.44482" lon="5.55159">
        <ele>624.7</ele>
        <time>2017-12-30T18:15:56Z</time>
      </trkpt>
      <trkpt lat="45.44486" lon="5.55168">
        <ele>624.1</ele>
        <time>2017-12-30T18:16:00Z</time>
      </trkpt>
      <trkpt lat="45.44491" lon="5.55178">
        <ele>623.3</ele>
        <time>2017-12-30T18:16:05Z</time>
      </trkpt>
      <trkpt lat="45.44496" lon="5.55187">
        <ele>622.6</ele>
        <time>2017-12-30T18:16:09Z</time>
      </trkpt>
      <trkpt lat="45.44502" lon="5.55195">
        <ele>621.7</ele>
        <time>2017-12-30T18:16:14Z</time>
      </trkpt>
      <trkpt lat="45.44509" lon="5.55203">
        <ele>620.4</ele>
        <time>2017-12-30T18:16:19Z</time>
      </trkpt>
      <trkpt lat="45.44516" lon="5.55209">
        <ele>619.1</ele>
        <time>2017-12-30T18:16:24Z</time>
      </trkpt>
      <trkpt lat="45.44524" lon="5.55215">
        <ele>617.6</ele>
        <time>2017-12-30T18:16:29Z</time>
      </trkpt>
      <trkpt lat="45.44533" lon="5.55218">
        <ele>616.1</ele>
        <time>2017-12-30T18:16:34Z</time>
      </trkpt>
      <trkpt lat="45.44542" lon="5.55219">
        <ele>614.6</ele>
        <time>2017-12-30T18:16:40Z</time>
      </trkpt>
      <trkpt lat="45.4455" lon="5.55218">
        <ele>613.5</ele>
        <time>2017-12-30T18:16:44Z</time>
      </trkpt>
      <trkpt lat="45.44559" lon="5.55215">
        <ele>612.3</ele>
        <time>2017-12-30T18:16:49Z</time>
      </trkpt>
      <trkpt lat="45.44567" lon="5.55211">
        <ele>611.3</ele>
        <time>2017-12-30T18:16:54Z</time>
      </trkpt>
      <trkpt lat="45.44575" lon="5.55205">
        <ele>610.5</ele>
        <time>2017-12-30T18:16:59Z</time>
      </trkpt>
      <trkpt lat="45.44583" lon="5.55199">
        <ele>609.7</ele>
        <time>2017-12-30T18:17:05Z</time>
      </trkpt>
      <trkpt lat="45.4459" lon="5.55191">
        <ele>609.6</ele>
        <time>2017-12-30T18:17:10Z</time>
      </trkpt>
      <trkpt lat="45.44598" lon="5.55182">
        <ele>609.4</ele>
        <time>2017-12-30T18:17:16Z</time>
      </trkpt>
      <trkpt lat="45.44604" lon="5.55172">
        <ele>609.5</ele>
        <time>2017-12-30T18:17:21Z</time>
      </trkpt>
      <trkpt lat="45.44611" lon="5.55162">
        <ele>609.2</ele>
        <time>2017-12-30T18:17:27Z</time>
      </trkpt>
      <trkpt lat="45.44619" lon="5.55153">
        <ele>608.7</ele>
        <time>2017-12-30T18:17:32Z</time>
      </trkpt>
      <trkpt lat="45.44627" lon="5.55144">
        <ele>608.1</ele>
        <time>2017-12-30T18:17:38Z</time>
      </trkpt>
      <trkpt lat="45.44637" lon="5.55139">
        <ele>607.1</ele>
        <time>2017-12-30T18:17:44Z</time>
      </trkpt>
      <trkpt lat="45.44647" lon="5.55138">
        <ele>606</ele>
        <time>2017-12-30T18:17:50Z</time>
      </trkpt>
      <trkpt lat="45.44656" lon="5.55139">
        <ele>604.9</ele>
        <time>2017-12-30T18:17:55Z</time>
      </trkpt>
      <trkpt lat="45.44665" lon="5.5514">
        <ele>603.8</ele>
        <time>2017-12-30T18:18:00Z</time>
      </trkpt>
      <trkpt lat="45.44674" lon="5.55138">
        <ele>603.2</ele>
        <time>2017-12-30T18:18:06Z</time>
      </trkpt>
      <trkpt lat="45.44682" lon="5.55133">
        <ele>602.7</ele>
        <time>2017-12-30T18:18:11Z</time>
      </trkpt>
      <trkpt lat="45.4469" lon="5.55126">
        <ele>602.3</ele>
        <time>2017-12-30T18:18:16Z</time>
      </trkpt>
      <trkpt lat="45.44698" lon="5.55119">
        <ele>601.8</ele>
        <time>2017-12-30T18:18:21Z</time>
      </trkpt>
      <trkpt lat="45.44706" lon="5.55112">
        <ele>601.3</ele>
        <time>2017-12-30T18:18:27Z</time>
      </trkpt>
      <trkpt lat="45.44714" lon="5.55106">
        <ele>600.8</ele>
        <time>2017-12-30T18:18:32Z</time>
      </trkpt>
      <trkpt lat="45.44723" lon="5.55102">
        <ele>600.1</ele>
        <time>2017-12-30T18:18:37Z</time>
      </trkpt>
      <trkpt lat="45.44732" lon="5.55099">
        <ele>599.4</ele>
        <time>2017-12-30T18:18:42Z</time>
      </trkpt>
      <trkpt lat="45.4474" lon="5.55094">
        <ele>598.8</ele>
        <time>2017-12-30T18:18:47Z</time>
      </trkpt>
      <trkpt lat="45.44749" lon="5.55086">
        <ele>598.1</ele>
        <time>2017-12-30T18:18:54Z</time>
      </trkpt>
      <trkpt lat="45.44757" lon="5.55075">
        <ele>597.9</ele>
        <time>2017-12-30T18:19:00Z</time>
      </trkpt>
      <trkpt lat="45.44764" lon="5.55064">
        <ele>597.7</ele>
        <time>2017-12-30T18:19:06Z</time>
      </trkpt>
      <trkpt lat="45.44771" lon="5.55053">
        <ele>597.5</ele>
        <time>2017-12-30T18:19:12Z</time>
      </trkpt>
      <trkpt lat="45.44779" lon="5.55043">
        <ele>597.3</ele>
        <time>2017-12-30T18:19:18Z</time>
      </trkpt>
      <trkpt lat="45.44788" lon="5.55034">
        <ele>597.1</ele>
        <time>2017-12-30T18:19:24Z</time>
      </trkpt>
      <trkpt lat="45.44796" lon="5.55025">
        <ele>596.9</ele>
        <time>2017-12-30T18:19:30Z</time>
      </trkpt>
      <trkpt lat="45.44805" lon="5.55017">
        <ele>596.7</ele>
        <time>2017-12-30T18:19:36Z</time>
      </trkpt>
      <trkpt lat="45.44814" lon="5.55009">
        <ele>596.4</ele>
        <time>2017-12-30T18:19:42Z</time>
      </trkpt>
      <trkpt lat="45.44823" lon="5.55004">
        <ele>596.2</ele>
        <time>2017-12-30T18:19:48Z</time>
      </trkpt>
      <trkpt lat="45.44832" lon="5.55001">
        <ele>596</ele>
        <time>2017-12-30T18:19:53Z</time>
      </trkpt>
      <trkpt lat="45.44842" lon="5.55001">
        <ele>596.1</ele>
        <time>2017-12-30T18:19:59Z</time>
      </trkpt>
      <trkpt lat="45.44851" lon="5.55001">
        <ele>596.2</ele>
        <time>2017-12-30T18:20:04Z</time>
      </trkpt>
      <trkpt lat="45.44861" lon="5.55003">
        <ele>596.5</ele>
        <time>2017-12-30T18:20:10Z</time>
      </trkpt>
      <trkpt lat="45.4487" lon="5.55006">
        <ele>596.8</ele>
        <time>2017-12-30T18:20:15Z</time>
      </trkpt>
      <trkpt lat="45.44879" lon="5.5501">
        <ele>597.3</ele>
        <time>2017-12-30T18:20:20Z</time>
      </trkpt>
      <trkpt lat="45.44888" lon="5.55013">
        <ele>597.7</ele>
        <time>2017-12-30T18:20:26Z</time>
      </trkpt>
      <trkpt lat="45.44896" lon="5.55016">
        <ele>598.2</ele>
        <time>2017-12-30T18:20:30Z</time>
      </trkpt>
      <trkpt lat="45.44903" lon="5.55019">
        <ele>598.8</ele>
        <time>2017-12-30T18:20:34Z</time>
      </trkpt>
      <trkpt lat="45.44909" lon="5.55021">
        <ele>599.2</ele>
        <time>2017-12-30T18:20:38Z</time>
      </trkpt>
      <trkpt lat="45.44914" lon="5.55023">
        <ele>599.6</ele>
        <time>2017-12-30T18:20:41Z</time>
      </trkpt>
      <trkpt lat="45.44921" lon="5.55027">
        <ele>600.6</ele>
        <time>2017-12-30T18:20:45Z</time>
      </trkpt>
      <trkpt lat="45.44923" lon="5.55039">
        <ele>602.4</ele>
        <time>2017-12-30T18:20:50Z</time>
      </trkpt>
      <trkpt lat="45.44921" lon="5.55051">
        <ele>603.6</ele>
        <time>2017-12-30T18:20:55Z</time>
      </trkpt>
      <trkpt lat="45.4492" lon="5.55058">
        <ele>604.4</ele>
        <time>2017-12-30T18:20:58Z</time>
      </trkpt>
      <trkpt lat="45.44918" lon="5.55064">
        <ele>604.8</ele>
        <time>2017-12-30T18:21:01Z</time>
      </trkpt>
      <trkpt lat="45.44917" lon="5.55071">
        <ele>605.5</ele>
        <time>2017-12-30T18:21:04Z</time>
      </trkpt>
      <trkpt lat="45.44916" lon="5.55077">
        <ele>606.1</ele>
        <time>2017-12-30T18:21:06Z</time>
      </trkpt>
      <trkpt lat="45.44914" lon="5.55084">
        <ele>606.8</ele>
        <time>2017-12-30T18:21:09Z</time>
      </trkpt>
      <trkpt lat="45.44913" lon="5.55091">
        <ele>607.5</ele>
        <time>2017-12-30T18:21:12Z</time>
      </trkpt>
      <trkpt lat="45.44912" lon="5.55097">
        <ele>608</ele>
        <time>2017-12-30T18:21:14Z</time>
      </trkpt>
      <trkpt lat="45.44911" lon="5.55103">
        <ele>608.6</ele>
        <time>2017-12-30T18:21:17Z</time>
      </trkpt>
      <trkpt lat="45.44909" lon="5.5511">
        <ele>609.2</ele>
        <time>2017-12-30T18:21:20Z</time>
      </trkpt>
      <trkpt lat="45.44908" lon="5.55116">
        <ele>609.7</ele>
        <time>2017-12-30T18:21:22Z</time>
      </trkpt>
      <trkpt lat="45.44906" lon="5.55122">
        <ele>610.1</ele>
        <time>2017-12-30T18:21:25Z</time>
      </trkpt>
      <trkpt lat="45.44903" lon="5.55134">
        <ele>611</ele>
        <time>2017-12-30T18:21:30Z</time>
      </trkpt>
      <trkpt lat="45.449" lon="5.55145">
        <ele>611.7</ele>
        <time>2017-12-30T18:21:35Z</time>
      </trkpt>
      <trkpt lat="45.44898" lon="5.55156">
        <ele>612.5</ele>
        <time>2017-12-30T18:21:39Z</time>
      </trkpt>
      <trkpt lat="45.44896" lon="5.55163">
        <ele>612.9</ele>
        <time>2017-12-30T18:21:42Z</time>
      </trkpt>
      <trkpt lat="45.44894" lon="5.5517">
        <ele>613.1</ele>
        <time>2017-12-30T18:21:45Z</time>
      </trkpt>
      <trkpt lat="45.44892" lon="5.55176">
        <ele>613.2</ele>
        <time>2017-12-30T18:21:48Z</time>
      </trkpt>
      <trkpt lat="45.44889" lon="5.55182">
        <ele>613</ele>
        <time>2017-12-30T18:21:51Z</time>
      </trkpt>
      <trkpt lat="45.44886" lon="5.55188">
        <ele>612.8</ele>
        <time>2017-12-30T18:21:54Z</time>
      </trkpt>
      <trkpt lat="45.44883" lon="5.552">
        <ele>612.9</ele>
        <time>2017-12-30T18:21:59Z</time>
      </trkpt>
      <trkpt lat="45.44883" lon="5.55206">
        <ele>613.3</ele>
        <time>2017-12-30T18:22:02Z</time>
      </trkpt>
      <trkpt lat="45.44885" lon="5.55213">
        <ele>614.1</ele>
        <time>2017-12-30T18:22:05Z</time>
      </trkpt>
      <trkpt lat="45.44887" lon="5.55219">
        <ele>614.9</ele>
        <time>2017-12-30T18:22:07Z</time>
      </trkpt>
      <trkpt lat="45.4489" lon="5.55224">
        <ele>615.9</ele>
        <time>2017-12-30T18:22:10Z</time>
      </trkpt>
      <trkpt lat="45.44893" lon="5.5523">
        <ele>617</ele>
        <time>2017-12-30T18:22:13Z</time>
      </trkpt>
      <trkpt lat="45.44897" lon="5.55235">
        <ele>618.2</ele>
        <time>2017-12-30T18:22:16Z</time>
      </trkpt>
      <trkpt lat="45.449" lon="5.5524">
        <ele>619.3</ele>
        <time>2017-12-30T18:22:19Z</time>
      </trkpt>
      <trkpt lat="45.44904" lon="5.55245">
        <ele>620.6</ele>
        <time>2017-12-30T18:22:22Z</time>
      </trkpt>
      <trkpt lat="45.44908" lon="5.55249">
        <ele>621.8</ele>
        <time>2017-12-30T18:22:24Z</time>
      </trkpt>
      <trkpt lat="45.44911" lon="5.55255">
        <ele>622.6</ele>
        <time>2017-12-30T18:22:27Z</time>
      </trkpt>
      <trkpt lat="45.44916" lon="5.55265">
        <ele>623.7</ele>
        <time>2017-12-30T18:22:32Z</time>
      </trkpt>
      <trkpt lat="45.4492" lon="5.55275">
        <ele>624.2</ele>
        <time>2017-12-30T18:22:37Z</time>
      </trkpt>
      <trkpt lat="45.44923" lon="5.55286">
        <ele>624.5</ele>
        <time>2017-12-30T18:22:42Z</time>
      </trkpt>
      <trkpt lat="45.44924" lon="5.55292">
        <ele>624.6</ele>
        <time>2017-12-30T18:22:44Z</time>
      </trkpt>
      <trkpt lat="45.44925" lon="5.55299">
        <ele>624.7</ele>
        <time>2017-12-30T18:22:47Z</time>
      </trkpt>
      <trkpt lat="45.44925" lon="5.55306">
        <ele>624.6</ele>
        <time>2017-12-30T18:22:50Z</time>
      </trkpt>
      <trkpt lat="45.44925" lon="5.55318">
        <ele>624.5</ele>
        <time>2017-12-30T18:22:55Z</time>
      </trkpt>
      <trkpt lat="45.44926" lon="5.55328">
        <ele>624.6</ele>
        <time>2017-12-30T18:22:59Z</time>
      </trkpt>
      <trkpt lat="45.44926" lon="5.55337">
        <ele>624.4</ele>
        <time>2017-12-30T18:23:02Z</time>
      </trkpt>
      <trkpt lat="45.44927" lon="5.55349">
        <ele>623.9</ele>
        <time>2017-12-30T18:23:07Z</time>
      </trkpt>
      <trkpt lat="45.44928" lon="5.55357">
        <ele>623.6</ele>
        <time>2017-12-30T18:23:10Z</time>
      </trkpt>
      <trkpt lat="45.44929" lon="5.55366">
        <ele>623.3</ele>
        <time>2017-12-30T18:23:14Z</time>
      </trkpt>
      <trkpt lat="45.4493" lon="5.55378">
        <ele>622.9</ele>
        <time>2017-12-30T18:23:19Z</time>
      </trkpt>
      <trkpt lat="45.4493" lon="5.55386">
        <ele>622.4</ele>
        <time>2017-12-30T18:23:22Z</time>
      </trkpt>
      <trkpt lat="45.44928" lon="5.55394">
        <ele>621.6</ele>
        <time>2017-12-30T18:23:25Z</time>
      </trkpt>
      <trkpt lat="45.44926" lon="5.55404">
        <ele>620.7</ele>
        <time>2017-12-30T18:23:30Z</time>
      </trkpt>
      <trkpt lat="45.44922" lon="5.55414">
        <ele>619.3</ele>
        <time>2017-12-30T18:23:34Z</time>
      </trkpt>
      <trkpt lat="45.44919" lon="5.55426">
        <ele>618.1</ele>
        <time>2017-12-30T18:23:39Z</time>
      </trkpt>
      <trkpt lat="45.44917" lon="5.55438">
        <ele>617.1</ele>
        <time>2017-12-30T18:23:44Z</time>
      </trkpt>
      <trkpt lat="45.44916" lon="5.55452">
        <ele>616.2</ele>
        <time>2017-12-30T18:23:50Z</time>
      </trkpt>
      <trkpt lat="45.44918" lon="5.55466">
        <ele>616</ele>
        <time>2017-12-30T18:23:56Z</time>
      </trkpt>
      <trkpt lat="45.44922" lon="5.5548">
        <ele>616.3</ele>
        <time>2017-12-30T18:24:02Z</time>
      </trkpt>
      <trkpt lat="45.44927" lon="5.55493">
        <ele>616.9</ele>
        <time>2017-12-30T18:24:08Z</time>
      </trkpt>
      <trkpt lat="45.44932" lon="5.55506">
        <ele>617.7</ele>
        <time>2017-12-30T18:24:14Z</time>
      </trkpt>
      <trkpt lat="45.44937" lon="5.55519">
        <ele>618.7</ele>
        <time>2017-12-30T18:24:20Z</time>
      </trkpt>
      <trkpt lat="45.4494" lon="5.55533">
        <ele>619.3</ele>
        <time>2017-12-30T18:24:25Z</time>
      </trkpt>
      <trkpt lat="45.44942" lon="5.55546">
        <ele>619.7</ele>
        <time>2017-12-30T18:24:31Z</time>
      </trkpt>
      <trkpt lat="45.44942" lon="5.55561">
        <ele>619.5</ele>
        <time>2017-12-30T18:24:37Z</time>
      </trkpt>
      <trkpt lat="45.4494" lon="5.55576">
        <ele>618.6</ele>
        <time>2017-12-30T18:24:43Z</time>
      </trkpt>
      <trkpt lat="45.44938" lon="5.55591">
        <ele>616.9</ele>
        <time>2017-12-30T18:24:49Z</time>
      </trkpt>
      <trkpt lat="45.44936" lon="5.55605">
        <ele>614.4</ele>
        <time>2017-12-30T18:24:55Z</time>
      </trkpt>
      <trkpt lat="45.44934" lon="5.5562">
        <ele>611.9</ele>
        <time>2017-12-30T18:25:01Z</time>
      </trkpt>
      <trkpt lat="45.44935" lon="5.55635">
        <ele>610.5</ele>
        <time>2017-12-30T18:25:07Z</time>
      </trkpt>
      <trkpt lat="45.44938" lon="5.55648">
        <ele>610</ele>
        <time>2017-12-30T18:25:12Z</time>
      </trkpt>
      <trkpt lat="45.44941" lon="5.55661">
        <ele>609.5</ele>
        <time>2017-12-30T18:25:18Z</time>
      </trkpt>
      <trkpt lat="45.44945" lon="5.55672">
        <ele>609.5</ele>
        <time>2017-12-30T18:25:23Z</time>
      </trkpt>
      <trkpt lat="45.44949" lon="5.5568">
        <ele>609.7</ele>
        <time>2017-12-30T18:25:27Z</time>
      </trkpt>
      <trkpt lat="45.44953" lon="5.55688">
        <ele>609.9</ele>
        <time>2017-12-30T18:25:31Z</time>
      </trkpt>
      <trkpt lat="45.44958" lon="5.55695">
        <ele>610.4</ele>
        <time>2017-12-30T18:25:35Z</time>
      </trkpt>
      <trkpt lat="45.44962" lon="5.55702">
        <ele>610.5</ele>
        <time>2017-12-30T18:25:38Z</time>
      </trkpt>
      <trkpt lat="45.44967" lon="5.55709">
        <ele>610.9</ele>
        <time>2017-12-30T18:25:42Z</time>
      </trkpt>
      <trkpt lat="45.44971" lon="5.55717">
        <ele>610.7</ele>
        <time>2017-12-30T18:25:46Z</time>
      </trkpt>
      <trkpt lat="45.44976" lon="5.55724">
        <ele>610.9</ele>
        <time>2017-12-30T18:25:50Z</time>
      </trkpt>
      <trkpt lat="45.4498" lon="5.5573">
        <ele>610.9</ele>
        <time>2017-12-30T18:25:54Z</time>
      </trkpt>
      <trkpt lat="45.44984" lon="5.55736">
        <ele>610.8</ele>
        <time>2017-12-30T18:25:57Z</time>
      </trkpt>
      <trkpt lat="45.44989" lon="5.55743">
        <ele>610.8</ele>
        <time>2017-12-30T18:26:01Z</time>
      </trkpt>
      <trkpt lat="45.44993" lon="5.55749">
        <ele>610.6</ele>
        <time>2017-12-30T18:26:04Z</time>
      </trkpt>
      <trkpt lat="45.44997" lon="5.55755">
        <ele>610.5</ele>
        <time>2017-12-30T18:26:08Z</time>
      </trkpt>
      <trkpt lat="45.45" lon="5.55761">
        <ele>610.1</ele>
        <time>2017-12-30T18:26:11Z</time>
      </trkpt>
      <trkpt lat="45.45004" lon="5.55767">
        <ele>610.1</ele>
        <time>2017-12-30T18:26:14Z</time>
      </trkpt>
      <trkpt lat="45.45007" lon="5.55773">
        <ele>609.7</ele>
        <time>2017-12-30T18:26:17Z</time>
      </trkpt>
      <trkpt lat="45.4501" lon="5.5578">
        <ele>609.2</ele>
        <time>2017-12-30T18:26:20Z</time>
      </trkpt>
      <trkpt lat="45.45013" lon="5.55787">
        <ele>608.7</ele>
        <time>2017-12-30T18:26:23Z</time>
      </trkpt>
      <trkpt lat="45.45015" lon="5.55794">
        <ele>608</ele>
        <time>2017-12-30T18:26:27Z</time>
      </trkpt>
      <trkpt lat="45.45018" lon="5.558">
        <ele>607.6</ele>
        <time>2017-12-30T18:26:29Z</time>
      </trkpt>
      <trkpt lat="45.45021" lon="5.55807">
        <ele>607.1</ele>
        <time>2017-12-30T18:26:33Z</time>
      </trkpt>
      <trkpt lat="45.45025" lon="5.55812">
        <ele>607.2</ele>
        <time>2017-12-30T18:26:36Z</time>
      </trkpt>
      <trkpt lat="45.45031" lon="5.55817">
        <ele>607.9</ele>
        <time>2017-12-30T18:26:40Z</time>
      </trkpt>
      <trkpt lat="45.45038" lon="5.5582">
        <ele>609.1</ele>
        <time>2017-12-30T18:26:44Z</time>
      </trkpt>
      <trkpt lat="45.45045" lon="5.55824">
        <ele>610.1</ele>
        <time>2017-12-30T18:26:48Z</time>
      </trkpt>
      <trkpt lat="45.45053" lon="5.55828">
        <ele>611.4</ele>
        <time>2017-12-30T18:26:53Z</time>
      </trkpt>
      <trkpt lat="45.4506" lon="5.55835">
        <ele>612</ele>
        <time>2017-12-30T18:26:58Z</time>
      </trkpt>
      <trkpt lat="45.45066" lon="5.55841">
        <ele>612.9</ele>
        <time>2017-12-30T18:27:02Z</time>
      </trkpt>
      <trkpt lat="45.45071" lon="5.55847">
        <ele>613.5</ele>
        <time>2017-12-30T18:27:06Z</time>
      </trkpt>
      <trkpt lat="45.45076" lon="5.55854">
        <ele>613.9</ele>
        <time>2017-12-30T18:27:10Z</time>
      </trkpt>
      <trkpt lat="45.4508" lon="5.55859">
        <ele>614.2</ele>
        <time>2017-12-30T18:27:13Z</time>
      </trkpt>
      <trkpt lat="45.45086" lon="5.55867">
        <ele>614.5</ele>
        <time>2017-12-30T18:27:18Z</time>
      </trkpt>
      <trkpt lat="45.45094" lon="5.55873">
        <ele>615.2</ele>
        <time>2017-12-30T18:27:23Z</time>
      </trkpt>
      <trkpt lat="45.45094" lon="5.55873">
        <ele>615.2</ele>
        <time>2017-12-30T18:27:23Z</time>
      </trkpt>
      <trkpt lat="45.451" lon="5.55876">
        <ele>616</ele>
        <time>2017-12-30T18:27:26Z</time>
      </trkpt>
      <trkpt lat="45.45105" lon="5.55882">
        <ele>616.2</ele>
        <time>2017-12-30T18:27:30Z</time>
      </trkpt>
      <trkpt lat="45.4511" lon="5.55891">
        <ele>616.1</ele>
        <time>2017-12-30T18:27:35Z</time>
      </trkpt>
      <trkpt lat="45.45114" lon="5.559">
        <ele>615.8</ele>
        <time>2017-12-30T18:27:39Z</time>
      </trkpt>
      <trkpt lat="45.45116" lon="5.55903">
        <ele>615.9</ele>
        <time>2017-12-30T18:27:41Z</time>
      </trkpt>
      <trkpt lat="45.45124" lon="5.55917">
        <ele>615.8</ele>
        <time>2017-12-30T18:27:48Z</time>
      </trkpt>
      <trkpt lat="45.4513" lon="5.55924">
        <ele>617.1</ele>
        <time>2017-12-30T18:27:52Z</time>
      </trkpt>
      <trkpt lat="45.45136" lon="5.55933">
        <ele>618.4</ele>
        <time>2017-12-30T18:27:57Z</time>
      </trkpt>
      <trkpt lat="45.45143" lon="5.55939">
        <ele>619.8</ele>
        <time>2017-12-30T18:28:02Z</time>
      </trkpt>
      <trkpt lat="45.45149" lon="5.55942">
        <ele>620.9</ele>
        <time>2017-12-30T18:28:06Z</time>
      </trkpt>
      <trkpt lat="45.45157" lon="5.55944">
        <ele>622.3</ele>
        <time>2017-12-30T18:28:10Z</time>
      </trkpt>
      <trkpt lat="45.45165" lon="5.55946">
        <ele>623.7</ele>
        <time>2017-12-30T18:28:15Z</time>
      </trkpt>
      <trkpt lat="45.45172" lon="5.55946">
        <ele>625.1</ele>
        <time>2017-12-30T18:28:19Z</time>
      </trkpt>
      <trkpt lat="45.4518" lon="5.55945">
        <ele>626.7</ele>
        <time>2017-12-30T18:28:24Z</time>
      </trkpt>
      <trkpt lat="45.45187" lon="5.55944">
        <ele>628.2</ele>
        <time>2017-12-30T18:28:28Z</time>
      </trkpt>
      <trkpt lat="45.45195" lon="5.55942">
        <ele>629.8</ele>
        <time>2017-12-30T18:28:32Z</time>
      </trkpt>
      <trkpt lat="45.45204" lon="5.55938">
        <ele>631.7</ele>
        <time>2017-12-30T18:28:38Z</time>
      </trkpt>
      <trkpt lat="45.45211" lon="5.55937">
        <ele>633.2</ele>
        <time>2017-12-30T18:28:42Z</time>
      </trkpt>
      <trkpt lat="45.45217" lon="5.55935">
        <ele>634.5</ele>
        <time>2017-12-30T18:28:45Z</time>
      </trkpt>
      <trkpt lat="45.45225" lon="5.55934">
        <ele>636.2</ele>
        <time>2017-12-30T18:28:50Z</time>
      </trkpt>
      <trkpt lat="45.45233" lon="5.55936">
        <ele>637.8</ele>
        <time>2017-12-30T18:28:54Z</time>
      </trkpt>
      <trkpt lat="45.45239" lon="5.55939">
        <ele>639</ele>
        <time>2017-12-30T18:28:58Z</time>
      </trkpt>
      <trkpt lat="45.45241" lon="5.55941">
        <ele>639.3</ele>
        <time>2017-12-30T18:28:59Z</time>
      </trkpt>
      <trkpt lat="45.45251" lon="5.55954">
        <ele>641</ele>
        <time>2017-12-30T18:29:07Z</time>
      </trkpt>
      <trkpt lat="45.45256" lon="5.55964">
        <ele>641.9</ele>
        <time>2017-12-30T18:29:12Z</time>
      </trkpt>
      <trkpt lat="45.45261" lon="5.55974">
        <ele>642.9</ele>
        <time>2017-12-30T18:29:17Z</time>
      </trkpt>
      <trkpt lat="45.45264" lon="5.55985">
        <ele>643.5</ele>
        <time>2017-12-30T18:29:22Z</time>
      </trkpt>
      <trkpt lat="45.45266" lon="5.55997">
        <ele>643.7</ele>
        <time>2017-12-30T18:29:27Z</time>
      </trkpt>
      <trkpt lat="45.45269" lon="5.56007">
        <ele>644.4</ele>
        <time>2017-12-30T18:29:31Z</time>
      </trkpt>
      <trkpt lat="45.4527" lon="5.56018">
        <ele>644.4</ele>
        <time>2017-12-30T18:29:36Z</time>
      </trkpt>
      <trkpt lat="45.4527" lon="5.56028">
        <ele>644.2</ele>
        <time>2017-12-30T18:29:40Z</time>
      </trkpt>
      <trkpt lat="45.45271" lon="5.56039">
        <ele>644.3</ele>
        <time>2017-12-30T18:29:44Z</time>
      </trkpt>
      <trkpt lat="45.4527" lon="5.5605">
        <ele>643.8</ele>
        <time>2017-12-30T18:29:48Z</time>
      </trkpt>
      <trkpt lat="45.45269" lon="5.56059">
        <ele>643.3</ele>
        <time>2017-12-30T18:29:52Z</time>
      </trkpt>
      <trkpt lat="45.45267" lon="5.5607">
        <ele>642.6</ele>
        <time>2017-12-30T18:29:57Z</time>
      </trkpt>
      <trkpt lat="45.45267" lon="5.56082">
        <ele>642.3</ele>
        <time>2017-12-30T18:30:01Z</time>
      </trkpt>
      <trkpt lat="45.45267" lon="5.56093">
        <ele>642.4</ele>
        <time>2017-12-30T18:30:06Z</time>
      </trkpt>
      <trkpt lat="45.45267" lon="5.56104">
        <ele>642.6</ele>
        <time>2017-12-30T18:30:10Z</time>
      </trkpt>
      <trkpt lat="45.45268" lon="5.56113">
        <ele>643</ele>
        <time>2017-12-30T18:30:14Z</time>
      </trkpt>
      <trkpt lat="45.4527" lon="5.56123">
        <ele>643.6</ele>
        <time>2017-12-30T18:30:18Z</time>
      </trkpt>
      <trkpt lat="45.45273" lon="5.56135">
        <ele>644.4</ele>
        <time>2017-12-30T18:30:23Z</time>
      </trkpt>
      <trkpt lat="45.45275" lon="5.56139">
        <ele>644.8</ele>
        <time>2017-12-30T18:30:25Z</time>
      </trkpt>
      <trkpt lat="45.45284" lon="5.56148">
        <ele>646.9</ele>
        <time>2017-12-30T18:30:32Z</time>
      </trkpt>
      <trkpt lat="45.45291" lon="5.56153">
        <ele>648.4</ele>
        <time>2017-12-30T18:30:36Z</time>
      </trkpt>
      <trkpt lat="45.45297" lon="5.56159">
        <ele>649.6</ele>
        <time>2017-12-30T18:30:40Z</time>
      </trkpt>
      <trkpt lat="45.45301" lon="5.56169">
        <ele>650.3</ele>
        <time>2017-12-30T18:30:45Z</time>
      </trkpt>
      <trkpt lat="45.45304" lon="5.56178">
        <ele>650.1</ele>
        <time>2017-12-30T18:30:49Z</time>
      </trkpt>
      <trkpt lat="45.45307" lon="5.56187">
        <ele>650</ele>
        <time>2017-12-30T18:30:53Z</time>
      </trkpt>
      <trkpt lat="45.45312" lon="5.56192">
        <ele>650.5</ele>
        <time>2017-12-30T18:30:56Z</time>
      </trkpt>
      <trkpt lat="45.45319" lon="5.562">
        <ele>651.1</ele>
        <time>2017-12-30T18:31:01Z</time>
      </trkpt>
      <trkpt lat="45.45327" lon="5.56205">
        <ele>652.2</ele>
        <time>2017-12-30T18:31:06Z</time>
      </trkpt>
      <trkpt lat="45.45334" lon="5.56209">
        <ele>653.1</ele>
        <time>2017-12-30T18:31:11Z</time>
      </trkpt>
      <trkpt lat="45.45341" lon="5.56212">
        <ele>654.3</ele>
        <time>2017-12-30T18:31:15Z</time>
      </trkpt>
      <trkpt lat="45.45348" lon="5.56213">
        <ele>655.7</ele>
        <time>2017-12-30T18:31:19Z</time>
      </trkpt>
      <trkpt lat="45.45355" lon="5.56213">
        <ele>657.2</ele>
        <time>2017-12-30T18:31:23Z</time>
      </trkpt>
      <trkpt lat="45.45364" lon="5.56213">
        <ele>659</ele>
        <time>2017-12-30T18:31:28Z</time>
      </trkpt>
      <trkpt lat="45.45373" lon="5.56214">
        <ele>660.8</ele>
        <time>2017-12-30T18:31:33Z</time>
      </trkpt>
      <trkpt lat="45.45379" lon="5.56214">
        <ele>662.1</ele>
        <time>2017-12-30T18:31:37Z</time>
      </trkpt>
      <trkpt lat="45.45386" lon="5.56213">
        <ele>663.6</ele>
        <time>2017-12-30T18:31:41Z</time>
      </trkpt>
      <trkpt lat="45.45394" lon="5.56211">
        <ele>665.5</ele>
        <time>2017-12-30T18:31:45Z</time>
      </trkpt>
      <trkpt lat="45.45402" lon="5.56211">
        <ele>667.2</ele>
        <time>2017-12-30T18:31:50Z</time>
      </trkpt>
      <trkpt lat="45.45404" lon="5.56213">
        <ele>667.4</ele>
        <time>2017-12-30T18:31:51Z</time>
      </trkpt>
      <trkpt lat="45.45414" lon="5.56221">
        <ele>668.6</ele>
        <time>2017-12-30T18:31:58Z</time>
      </trkpt>
      <trkpt lat="45.4542" lon="5.56227">
        <ele>668.8</ele>
        <time>2017-12-30T18:32:02Z</time>
      </trkpt>
      <trkpt lat="45.45424" lon="5.56235">
        <ele>668.2</ele>
        <time>2017-12-30T18:32:06Z</time>
      </trkpt>
      <trkpt lat="45.45429" lon="5.56245">
        <ele>667.6</ele>
        <time>2017-12-30T18:32:11Z</time>
      </trkpt>
      <trkpt lat="45.45436" lon="5.56251">
        <ele>667.6</ele>
        <time>2017-12-30T18:32:16Z</time>
      </trkpt>
      <trkpt lat="45.45442" lon="5.56254">
        <ele>667.8</ele>
        <time>2017-12-30T18:32:19Z</time>
      </trkpt>
      <trkpt lat="45.45449" lon="5.56258">
        <ele>668</ele>
        <time>2017-12-30T18:32:24Z</time>
      </trkpt>
      <trkpt lat="45.45458" lon="5.5626">
        <ele>668.7</ele>
        <time>2017-12-30T18:32:29Z</time>
      </trkpt>
      <trkpt lat="45.45464" lon="5.56263">
        <ele>669</ele>
        <time>2017-12-30T18:32:32Z</time>
      </trkpt>
      <trkpt lat="45.45473" lon="5.56267">
        <ele>669.6</ele>
        <time>2017-12-30T18:32:38Z</time>
      </trkpt>
      <trkpt lat="45.45479" lon="5.5627">
        <ele>670.1</ele>
        <time>2017-12-30T18:32:41Z</time>
      </trkpt>
      <trkpt lat="45.45486" lon="5.56273">
        <ele>670.7</ele>
        <time>2017-12-30T18:32:46Z</time>
      </trkpt>
      <trkpt lat="45.45493" lon="5.56276">
        <ele>671.3</ele>
        <time>2017-12-30T18:32:50Z</time>
      </trkpt>
      <trkpt lat="45.455" lon="5.56279">
        <ele>672</ele>
        <time>2017-12-30T18:32:54Z</time>
      </trkpt>
      <trkpt lat="45.45507" lon="5.56285">
        <ele>671.5</ele>
        <time>2017-12-30T18:32:59Z</time>
      </trkpt>
      <trkpt lat="45.45514" lon="5.5629">
        <ele>671</ele>
        <time>2017-12-30T18:33:03Z</time>
      </trkpt>
      <trkpt lat="45.45516" lon="5.56299">
        <ele>670.6</ele>
        <time>2017-12-30T18:33:07Z</time>
      </trkpt>
      <trkpt lat="45.45522" lon="5.56308">
        <ele>670</ele>
        <time>2017-12-30T18:33:12Z</time>
      </trkpt>
      <trkpt lat="45.45526" lon="5.56315">
        <ele>669.5</ele>
        <time>2017-12-30T18:33:15Z</time>
      </trkpt>
      <trkpt lat="45.45529" lon="5.56317">
        <ele>669.3</ele>
        <time>2017-12-30T18:33:17Z</time>
      </trkpt>
      <trkpt lat="45.45538" lon="5.56324">
        <ele>668.6</ele>
        <time>2017-12-30T18:33:23Z</time>
      </trkpt>
      <trkpt lat="45.45546" lon="5.56328">
        <ele>668</ele>
        <time>2017-12-30T18:33:28Z</time>
      </trkpt>
      <trkpt lat="45.45554" lon="5.56333">
        <ele>667.4</ele>
        <time>2017-12-30T18:33:33Z</time>
      </trkpt>
      <trkpt lat="45.4556" lon="5.56337">
        <ele>666.6</ele>
        <time>2017-12-30T18:33:37Z</time>
      </trkpt>
      <trkpt lat="45.45568" lon="5.56342">
        <ele>665.5</ele>
        <time>2017-12-30T18:33:42Z</time>
      </trkpt>
      <trkpt lat="45.45574" lon="5.56346">
        <ele>664.6</ele>
        <time>2017-12-30T18:33:46Z</time>
      </trkpt>
      <trkpt lat="45.45581" lon="5.56352">
        <ele>663.5</ele>
        <time>2017-12-30T18:33:50Z</time>
      </trkpt>
      <trkpt lat="45.45589" lon="5.56356">
        <ele>662.4</ele>
        <time>2017-12-30T18:33:55Z</time>
      </trkpt>
      <trkpt lat="45.45592" lon="5.56359">
        <ele>661.9</ele>
        <time>2017-12-30T18:33:57Z</time>
      </trkpt>
      <trkpt lat="45.45597" lon="5.56361">
        <ele>661.3</ele>
        <time>2017-12-30T18:34:00Z</time>
      </trkpt>
      <trkpt lat="45.45602" lon="5.56363">
        <ele>660.8</ele>
        <time>2017-12-30T18:34:03Z</time>
      </trkpt>
      <trkpt lat="45.45608" lon="5.56366">
        <ele>660.1</ele>
        <time>2017-12-30T18:34:07Z</time>
      </trkpt>
      <trkpt lat="45.45615" lon="5.56368">
        <ele>659.5</ele>
        <time>2017-12-30T18:34:11Z</time>
      </trkpt>
      <trkpt lat="45.45621" lon="5.5637">
        <ele>659</ele>
        <time>2017-12-30T18:34:14Z</time>
      </trkpt>
      <trkpt lat="45.45628" lon="5.56372">
        <ele>658.5</ele>
        <time>2017-12-30T18:34:19Z</time>
      </trkpt>
      <trkpt lat="45.45635" lon="5.56375">
        <ele>657.9</ele>
        <time>2017-12-30T18:34:23Z</time>
      </trkpt>
      <trkpt lat="45.45643" lon="5.56377">
        <ele>657.4</ele>
        <time>2017-12-30T18:34:27Z</time>
      </trkpt>
      <trkpt lat="45.45649" lon="5.5638">
        <ele>656.9</ele>
        <time>2017-12-30T18:34:31Z</time>
      </trkpt>
      <trkpt lat="45.45655" lon="5.56382">
        <ele>656.5</ele>
        <time>2017-12-30T18:34:34Z</time>
      </trkpt>
      <trkpt lat="45.45662" lon="5.56385">
        <ele>656.1</ele>
        <time>2017-12-30T18:34:39Z</time>
      </trkpt>
      <trkpt lat="45.45669" lon="5.56388">
        <ele>655.8</ele>
        <time>2017-12-30T18:34:43Z</time>
      </trkpt>
      <trkpt lat="45.45676" lon="5.5639">
        <ele>655.9</ele>
        <time>2017-12-30T18:34:47Z</time>
      </trkpt>
      <trkpt lat="45.45683" lon="5.56393">
        <ele>655.9</ele>
        <time>2017-12-30T18:34:51Z</time>
      </trkpt>
      <trkpt lat="45.4569" lon="5.56396">
        <ele>655.9</ele>
        <time>2017-12-30T18:34:55Z</time>
      </trkpt>
      <trkpt lat="45.45697" lon="5.56399">
        <ele>655.9</ele>
        <time>2017-12-30T18:34:59Z</time>
      </trkpt>
      <trkpt lat="45.45704" lon="5.56402">
        <ele>656</ele>
        <time>2017-12-30T18:35:04Z</time>
      </trkpt>
      <trkpt lat="45.4571" lon="5.56406">
        <ele>656</ele>
        <time>2017-12-30T18:35:07Z</time>
      </trkpt>
      <trkpt lat="45.45716" lon="5.56409">
        <ele>656.1</ele>
        <time>2017-12-30T18:35:11Z</time>
      </trkpt>
      <trkpt lat="45.45723" lon="5.56412">
        <ele>656.2</ele>
        <time>2017-12-30T18:35:15Z</time>
      </trkpt>
      <trkpt lat="45.45729" lon="5.56415">
        <ele>656.3</ele>
        <time>2017-12-30T18:35:19Z</time>
      </trkpt>
      <trkpt lat="45.45736" lon="5.56417">
        <ele>656.5</ele>
        <time>2017-12-30T18:35:23Z</time>
      </trkpt>
      <trkpt lat="45.45743" lon="5.56418">
        <ele>656.7</ele>
        <time>2017-12-30T18:35:27Z</time>
      </trkpt>
      <trkpt lat="45.4575" lon="5.56416">
        <ele>657</ele>
        <time>2017-12-30T18:35:31Z</time>
      </trkpt>
      <trkpt lat="45.45757" lon="5.56414">
        <ele>657.5</ele>
        <time>2017-12-30T18:35:35Z</time>
      </trkpt>
      <trkpt lat="45.45764" lon="5.5641">
        <ele>658</ele>
        <time>2017-12-30T18:35:39Z</time>
      </trkpt>
      <trkpt lat="45.4577" lon="5.56406">
        <ele>658.4</ele>
        <time>2017-12-30T18:35:43Z</time>
      </trkpt>
      <trkpt lat="45.45776" lon="5.56401">
        <ele>658.8</ele>
        <time>2017-12-30T18:35:47Z</time>
      </trkpt>
      <trkpt lat="45.4578" lon="5.56395">
        <ele>659</ele>
        <time>2017-12-30T18:35:51Z</time>
      </trkpt>
      <trkpt lat="45.45785" lon="5.56389">
        <ele>659.4</ele>
        <time>2017-12-30T18:35:54Z</time>
      </trkpt>
      <trkpt lat="45.45789" lon="5.56378">
        <ele>659.6</ele>
        <time>2017-12-30T18:35:59Z</time>
      </trkpt>
      <trkpt lat="45.45794" lon="5.56371">
        <ele>659.9</ele>
        <time>2017-12-30T18:36:03Z</time>
      </trkpt>
      <trkpt lat="45.45803" lon="5.56367">
        <ele>660.2</ele>
        <time>2017-12-30T18:36:09Z</time>
      </trkpt>
      <trkpt lat="45.45809" lon="5.56365">
        <ele>660.5</ele>
        <time>2017-12-30T18:36:12Z</time>
      </trkpt>
      <trkpt lat="45.45817" lon="5.56364">
        <ele>660.8</ele>
        <time>2017-12-30T18:36:17Z</time>
      </trkpt>
      <trkpt lat="45.45823" lon="5.56363">
        <ele>661</ele>
        <time>2017-12-30T18:36:20Z</time>
      </trkpt>
      <trkpt lat="45.4583" lon="5.56362">
        <ele>661.2</ele>
        <time>2017-12-30T18:36:24Z</time>
      </trkpt>
      <trkpt lat="45.45836" lon="5.56362">
        <ele>661.2</ele>
        <time>2017-12-30T18:36:28Z</time>
      </trkpt>
      <trkpt lat="45.45843" lon="5.56361">
        <ele>660.8</ele>
        <time>2017-12-30T18:36:32Z</time>
      </trkpt>
      <trkpt lat="45.45849" lon="5.5636">
        <ele>660.5</ele>
        <time>2017-12-30T18:36:35Z</time>
      </trkpt>
      <trkpt lat="45.45856" lon="5.56359">
        <ele>660.1</ele>
        <time>2017-12-30T18:36:39Z</time>
      </trkpt>
      <trkpt lat="45.45863" lon="5.56359">
        <ele>659.7</ele>
        <time>2017-12-30T18:36:43Z</time>
      </trkpt>
      <trkpt lat="45.45871" lon="5.56359">
        <ele>659.3</ele>
        <time>2017-12-30T18:36:48Z</time>
      </trkpt>
      <trkpt lat="45.45879" lon="5.56359">
        <ele>658.8</ele>
        <time>2017-12-30T18:36:52Z</time>
      </trkpt>
      <trkpt lat="45.45884" lon="5.56359">
        <ele>658.6</ele>
        <time>2017-12-30T18:36:55Z</time>
      </trkpt>
      <trkpt lat="45.45888" lon="5.56358">
        <ele>658.3</ele>
        <time>2017-12-30T18:36:58Z</time>
      </trkpt>
      <trkpt lat="45.459" lon="5.56353">
        <ele>657.3</ele>
        <time>2017-12-30T18:37:05Z</time>
      </trkpt>
      <trkpt lat="45.45908" lon="5.56348">
        <ele>656.6</ele>
        <time>2017-12-30T18:37:10Z</time>
      </trkpt>
      <trkpt lat="45.45916" lon="5.56343">
        <ele>655.7</ele>
        <time>2017-12-30T18:37:15Z</time>
      </trkpt>
      <trkpt lat="45.45921" lon="5.5634">
        <ele>654.8</ele>
        <time>2017-12-30T18:37:18Z</time>
      </trkpt>
      <trkpt lat="45.45929" lon="5.56343">
        <ele>653.9</ele>
        <time>2017-12-30T18:37:22Z</time>
      </trkpt>
      <trkpt lat="45.45934" lon="5.56353">
        <ele>654</ele>
        <time>2017-12-30T18:37:27Z</time>
      </trkpt>
      <trkpt lat="45.45936" lon="5.5636">
        <ele>654.2</ele>
        <time>2017-12-30T18:37:30Z</time>
      </trkpt>
      <trkpt lat="45.45938" lon="5.56366">
        <ele>654.4</ele>
        <time>2017-12-30T18:37:33Z</time>
      </trkpt>
      <trkpt lat="45.4594" lon="5.56373">
        <ele>654.7</ele>
        <time>2017-12-30T18:37:36Z</time>
      </trkpt>
      <trkpt lat="45.45943" lon="5.56379">
        <ele>654.8</ele>
        <time>2017-12-30T18:37:39Z</time>
      </trkpt>
      <trkpt lat="45.45945" lon="5.56385">
        <ele>655</ele>
        <time>2017-12-30T18:37:42Z</time>
      </trkpt>
      <trkpt lat="45.45947" lon="5.56391">
        <ele>655.2</ele>
        <time>2017-12-30T18:37:44Z</time>
      </trkpt>
      <trkpt lat="45.45949" lon="5.56397">
        <ele>655.5</ele>
        <time>2017-12-30T18:37:47Z</time>
      </trkpt>
      <trkpt lat="45.45951" lon="5.56403">
        <ele>655.7</ele>
        <time>2017-12-30T18:37:50Z</time>
      </trkpt>
      <trkpt lat="45.45954" lon="5.56408">
        <ele>655.8</ele>
        <time>2017-12-30T18:37:52Z</time>
      </trkpt>
      <trkpt lat="45.45958" lon="5.56419">
        <ele>656.2</ele>
        <time>2017-12-30T18:37:57Z</time>
      </trkpt>
      <trkpt lat="45.45963" lon="5.56429">
        <ele>656.3</ele>
        <time>2017-12-30T18:38:02Z</time>
      </trkpt>
      <trkpt lat="45.45967" lon="5.5644">
        <ele>656.7</ele>
        <time>2017-12-30T18:38:07Z</time>
      </trkpt>
      <trkpt lat="45.45971" lon="5.56451">
        <ele>657</ele>
        <time>2017-12-30T18:38:12Z</time>
      </trkpt>
      <trkpt lat="45.45974" lon="5.56462">
        <ele>657.5</ele>
        <time>2017-12-30T18:38:17Z</time>
      </trkpt>
      <trkpt lat="45.45978" lon="5.56473">
        <ele>658</ele>
        <time>2017-12-30T18:38:22Z</time>
      </trkpt>
      <trkpt lat="45.45982" lon="5.56483">
        <ele>658.3</ele>
        <time>2017-12-30T18:38:27Z</time>
      </trkpt>
      <trkpt lat="45.45985" lon="5.56493">
        <ele>658.8</ele>
        <time>2017-12-30T18:38:31Z</time>
      </trkpt>
      <trkpt lat="45.45987" lon="5.56503">
        <ele>659.4</ele>
        <time>2017-12-30T18:38:35Z</time>
      </trkpt>
      <trkpt lat="45.45989" lon="5.56513">
        <ele>660</ele>
        <time>2017-12-30T18:38:39Z</time>
      </trkpt>
      <trkpt lat="45.45995" lon="5.56519">
        <ele>660</ele>
        <time>2017-12-30T18:38:43Z</time>
      </trkpt>
      <trkpt lat="45.46002" lon="5.5652">
        <ele>659.3</ele>
        <time>2017-12-30T18:38:47Z</time>
      </trkpt>
      <trkpt lat="45.4601" lon="5.56519">
        <ele>658</ele>
        <time>2017-12-30T18:38:52Z</time>
      </trkpt>
      <trkpt lat="45.46015" lon="5.56519">
        <ele>657.2</ele>
        <time>2017-12-30T18:38:55Z</time>
      </trkpt>
      <trkpt lat="45.4602" lon="5.56519">
        <ele>656.4</ele>
        <time>2017-12-30T18:38:58Z</time>
      </trkpt>
      <trkpt lat="45.46025" lon="5.5652">
        <ele>655.7</ele>
        <time>2017-12-30T18:39:01Z</time>
      </trkpt>
      <trkpt lat="45.4603" lon="5.56521">
        <ele>655</ele>
        <time>2017-12-30T18:39:04Z</time>
      </trkpt>
      <trkpt lat="45.46036" lon="5.56523">
        <ele>654.3</ele>
        <time>2017-12-30T18:39:07Z</time>
      </trkpt>
      <trkpt lat="45.46042" lon="5.56525">
        <ele>653.5</ele>
        <time>2017-12-30T18:39:11Z</time>
      </trkpt>
      <trkpt lat="45.46048" lon="5.56527">
        <ele>652.7</ele>
        <time>2017-12-30T18:39:14Z</time>
      </trkpt>
      <trkpt lat="45.46054" lon="5.56529">
        <ele>652</ele>
        <time>2017-12-30T18:39:18Z</time>
      </trkpt>
      <trkpt lat="45.4606" lon="5.56532">
        <ele>651.3</ele>
        <time>2017-12-30T18:39:21Z</time>
      </trkpt>
      <trkpt lat="45.46066" lon="5.56534">
        <ele>650.5</ele>
        <time>2017-12-30T18:39:25Z</time>
      </trkpt>
      <trkpt lat="45.46073" lon="5.56537">
        <ele>649.7</ele>
        <time>2017-12-30T18:39:29Z</time>
      </trkpt>
      <trkpt lat="45.46079" lon="5.5654">
        <ele>649</ele>
        <time>2017-12-30T18:39:33Z</time>
      </trkpt>
      <trkpt lat="45.46085" lon="5.56545">
        <ele>648.3</ele>
        <time>2017-12-30T18:39:37Z</time>
      </trkpt>
      <trkpt lat="45.46091" lon="5.56549">
        <ele>647.3</ele>
        <time>2017-12-30T18:39:40Z</time>
      </trkpt>
      <trkpt lat="45.46097" lon="5.56554">
        <ele>646.4</ele>
        <time>2017-12-30T18:39:44Z</time>
      </trkpt>
      <trkpt lat="45.46102" lon="5.56558">
        <ele>645.6</ele>
        <time>2017-12-30T18:39:48Z</time>
      </trkpt>
      <trkpt lat="45.46107" lon="5.56563">
        <ele>645</ele>
        <time>2017-12-30T18:39:51Z</time>
      </trkpt>
      <trkpt lat="45.46113" lon="5.56568">
        <ele>644.1</ele>
        <time>2017-12-30T18:39:55Z</time>
      </trkpt>
      <trkpt lat="45.46118" lon="5.56574">
        <ele>643.6</ele>
        <time>2017-12-30T18:39:59Z</time>
      </trkpt>
      <trkpt lat="45.46124" lon="5.56579">
        <ele>642.7</ele>
        <time>2017-12-30T18:40:03Z</time>
      </trkpt>
      <trkpt lat="45.46129" lon="5.56585">
        <ele>642.2</ele>
        <time>2017-12-30T18:40:07Z</time>
      </trkpt>
      <trkpt lat="45.46136" lon="5.56591">
        <ele>641.3</ele>
        <time>2017-12-30T18:40:11Z</time>
      </trkpt>
      <trkpt lat="45.46142" lon="5.56596">
        <ele>640.5</ele>
        <time>2017-12-30T18:40:15Z</time>
      </trkpt>
      <trkpt lat="45.4615" lon="5.56601">
        <ele>639.4</ele>
        <time>2017-12-30T18:40:20Z</time>
      </trkpt>
      <trkpt lat="45.46157" lon="5.56606">
        <ele>638.4</ele>
        <time>2017-12-30T18:40:25Z</time>
      </trkpt>
      <trkpt lat="45.46165" lon="5.56611">
        <ele>637.3</ele>
        <time>2017-12-30T18:40:30Z</time>
      </trkpt>
      <trkpt lat="45.46174" lon="5.56615">
        <ele>636.6</ele>
        <time>2017-12-30T18:40:35Z</time>
      </trkpt>
      <trkpt lat="45.46183" lon="5.56618">
        <ele>635.9</ele>
        <time>2017-12-30T18:40:40Z</time>
      </trkpt>
      <trkpt lat="45.46191" lon="5.56621">
        <ele>635.4</ele>
        <time>2017-12-30T18:40:45Z</time>
      </trkpt>
      <trkpt lat="45.46201" lon="5.56625">
        <ele>634.7</ele>
        <time>2017-12-30T18:40:51Z</time>
      </trkpt>
      <trkpt lat="45.4621" lon="5.56629">
        <ele>634.2</ele>
        <time>2017-12-30T18:40:56Z</time>
      </trkpt>
      <trkpt lat="45.46219" lon="5.56633">
        <ele>633.7</ele>
        <time>2017-12-30T18:41:02Z</time>
      </trkpt>
      <trkpt lat="45.46228" lon="5.56638">
        <ele>633.2</ele>
        <time>2017-12-30T18:41:07Z</time>
      </trkpt>
      <trkpt lat="45.46236" lon="5.56644">
        <ele>633</ele>
        <time>2017-12-30T18:41:12Z</time>
      </trkpt>
      <trkpt lat="45.46243" lon="5.56649">
        <ele>632.8</ele>
        <time>2017-12-30T18:41:17Z</time>
      </trkpt>
      <trkpt lat="45.46252" lon="5.56653">
        <ele>632.2</ele>
        <time>2017-12-30T18:41:22Z</time>
      </trkpt>
      <trkpt lat="45.46259" lon="5.56657">
        <ele>631.7</ele>
        <time>2017-12-30T18:41:27Z</time>
      </trkpt>
      <trkpt lat="45.46265" lon="5.56661">
        <ele>631.4</ele>
        <time>2017-12-30T18:41:30Z</time>
      </trkpt>
      <trkpt lat="45.46272" lon="5.56665">
        <ele>630.9</ele>
        <time>2017-12-30T18:41:35Z</time>
      </trkpt>
      <trkpt lat="45.46279" lon="5.56669">
        <ele>630.3</ele>
        <time>2017-12-30T18:41:39Z</time>
      </trkpt>
      <trkpt lat="45.46284" lon="5.56675">
        <ele>630.2</ele>
        <time>2017-12-30T18:41:43Z</time>
      </trkpt>
      <trkpt lat="45.46288" lon="5.56681">
        <ele>630.2</ele>
        <time>2017-12-30T18:41:46Z</time>
      </trkpt>
      <trkpt lat="45.46294" lon="5.56687">
        <ele>630</ele>
        <time>2017-12-30T18:41:50Z</time>
      </trkpt>
      <trkpt lat="45.463" lon="5.56694">
        <ele>629.8</ele>
        <time>2017-12-30T18:41:55Z</time>
      </trkpt>
      <trkpt lat="45.46303" lon="5.56701">
        <ele>630</ele>
        <time>2017-12-30T18:41:58Z</time>
      </trkpt>
      <trkpt lat="45.46307" lon="5.56707">
        <ele>630</ele>
        <time>2017-12-30T18:42:01Z</time>
      </trkpt>
      <trkpt lat="45.46311" lon="5.56713">
        <ele>629.9</ele>
        <time>2017-12-30T18:42:05Z</time>
      </trkpt>
      <trkpt lat="45.46315" lon="5.56718">
        <ele>629.8</ele>
        <time>2017-12-30T18:42:08Z</time>
      </trkpt>
      <trkpt lat="45.4632" lon="5.56722">
        <ele>629.5</ele>
        <time>2017-12-30T18:42:11Z</time>
      </trkpt>
      <trkpt lat="45.46324" lon="5.56726">
        <ele>629.2</ele>
        <time>2017-12-30T18:42:14Z</time>
      </trkpt>
      <trkpt lat="45.46328" lon="5.5673">
        <ele>629</ele>
        <time>2017-12-30T18:42:17Z</time>
      </trkpt>
      <trkpt lat="45.46336" lon="5.56737">
        <ele>628.6</ele>
        <time>2017-12-30T18:42:22Z</time>
      </trkpt>
      <trkpt lat="45.4634" lon="5.56741">
        <ele>628.5</ele>
        <time>2017-12-30T18:42:25Z</time>
      </trkpt>
      <trkpt lat="45.46344" lon="5.56745">
        <ele>628.4</ele>
        <time>2017-12-30T18:42:28Z</time>
      </trkpt>
      <trkpt lat="45.46349" lon="5.56749">
        <ele>628.2</ele>
        <time>2017-12-30T18:42:31Z</time>
      </trkpt>
      <trkpt lat="45.46353" lon="5.56753">
        <ele>628.1</ele>
        <time>2017-12-30T18:42:34Z</time>
      </trkpt>
      <trkpt lat="45.4636" lon="5.56758">
        <ele>627.7</ele>
        <time>2017-12-30T18:42:38Z</time>
      </trkpt>
      <trkpt lat="45.46365" lon="5.56765">
        <ele>627.6</ele>
        <time>2017-12-30T18:42:42Z</time>
      </trkpt>
      <trkpt lat="45.46371" lon="5.56774">
        <ele>627.4</ele>
        <time>2017-12-30T18:42:47Z</time>
      </trkpt>
      <trkpt lat="45.46374" lon="5.56778">
        <ele>627.3</ele>
        <time>2017-12-30T18:42:49Z</time>
      </trkpt>
      <trkpt lat="45.46377" lon="5.56784">
        <ele>627.2</ele>
        <time>2017-12-30T18:42:52Z</time>
      </trkpt>
      <trkpt lat="45.46381" lon="5.56789">
        <ele>627</ele>
        <time>2017-12-30T18:42:55Z</time>
      </trkpt>
      <trkpt lat="45.46385" lon="5.56794">
        <ele>626.6</ele>
        <time>2017-12-30T18:42:58Z</time>
      </trkpt>
      <trkpt lat="45.4639" lon="5.56798">
        <ele>626.1</ele>
        <time>2017-12-30T18:43:02Z</time>
      </trkpt>
      <trkpt lat="45.4639" lon="5.56798">
        <ele>626.1</ele>
        <time>2017-12-30T18:43:02Z</time>
      </trkpt>
      <trkpt lat="45.4641" lon="5.56827">
        <ele>624</ele>
        <time>2017-12-30T18:43:18Z</time>
      </trkpt>
      <trkpt lat="45.4641" lon="5.56827">
        <ele>624</ele>
        <time>2017-12-30T18:43:18Z</time>
      </trkpt>
      <trkpt lat="45.46516" lon="5.56754">
        <ele>608.3</ele>
        <time>2017-12-30T18:44:25Z</time>
      </trkpt>
      <trkpt lat="45.46516" lon="5.56754">
        <ele>608.3</ele>
        <time>2017-12-30T18:44:25Z</time>
      </trkpt>
      <trkpt lat="45.46543" lon="5.56749">
        <ele>601.5</ele>
        <time>2017-12-30T18:44:41Z</time>
      </trkpt>
      <trkpt lat="45.46543" lon="5.56749">
        <ele>601.5</ele>
        <time>2017-12-30T18:44:41Z</time>
      </trkpt>
      <trkpt lat="45.46591" lon="5.56818">
        <ele>597.9</ele>
        <time>2017-12-30T18:45:20Z</time>
      </trkpt>
      <trkpt lat="45.46591" lon="5.56818">
        <ele>597.9</ele>
        <time>2017-12-30T18:45:20Z</time>
      </trkpt>
      <trkpt lat="45.4666" lon="5.56827">
        <ele>586.3</ele>
        <time>2017-12-30T18:46:00Z</time>
      </trkpt>
      <trkpt lat="45.4666" lon="5.56827">
        <ele>586.3</ele>
        <time>2017-12-30T18:46:00Z</time>
      </trkpt>
      <trkpt lat="45.46705" lon="5.56912">
        <ele>586.1</ele>
        <time>2017-12-30T18:46:42Z</time>
      </trkpt>
      <trkpt lat="45.46705" lon="5.56912">
        <ele>586.1</ele>
        <time>2017-12-30T18:46:42Z</time>
      </trkpt>
      <trkpt lat="45.46723" lon="5.56964">
        <ele>586.3</ele>
        <time>2017-12-30T18:47:05Z</time>
      </trkpt>
      <trkpt lat="45.46723" lon="5.56964">
        <ele>586.3</ele>
        <time>2017-12-30T18:47:05Z</time>
      </trkpt>
      <trkpt lat="45.46763" lon="5.56981">
        <ele>581.1</ele>
        <time>2017-12-30T18:47:29Z</time>
      </trkpt>
      <trkpt lat="45.46763" lon="5.56981">
        <ele>581.1</ele>
        <time>2017-12-30T18:47:29Z</time>
      </trkpt>
      <trkpt lat="45.46772" lon="5.56947">
        <ele>578.3</ele>
        <time>2017-12-30T18:47:44Z</time>
      </trkpt>
      <trkpt lat="45.46772" lon="5.56947">
        <ele>578.3</ele>
        <time>2017-12-30T18:47:44Z</time>
      </trkpt>
      <trkpt lat="45.46856" lon="5.56925">
        <ele>565.9</ele>
        <time>2017-12-30T18:48:33Z</time>
      </trkpt>
      <trkpt lat="45.46856" lon="5.56925">
        <ele>565.9</ele>
        <time>2017-12-30T18:48:33Z</time>
      </trkpt>
      <trkpt lat="45.46982" lon="5.56942">
        <ele>544.6</ele>
        <time>2017-12-30T18:49:45Z</time>
      </trkpt>
      <trkpt lat="45.46982" lon="5.56942">
        <ele>544.6</ele>
        <time>2017-12-30T18:49:45Z</time>
      </trkpt>
      <trkpt lat="45.47015" lon="5.56947">
        <ele>538.7</ele>
        <time>2017-12-30T18:50:04Z</time>
      </trkpt>
      <trkpt lat="45.47015" lon="5.56947">
        <ele>538.7</ele>
        <time>2017-12-30T18:50:04Z</time>
      </trkpt>
      <trkpt lat="45.47067" lon="5.56985">
        <ele>532</ele>
        <time>2017-12-30T18:50:38Z</time>
      </trkpt>
      <trkpt lat="45.47067" lon="5.56985">
        <ele>532</ele>
        <time>2017-12-30T18:50:38Z</time>
      </trkpt>
      <trkpt lat="45.47211" lon="5.57028">
        <ele>523.8</ele>
        <time>2017-12-30T18:52:02Z</time>
      </trkpt>
      <trkpt lat="45.47211" lon="5.57028">
        <ele>523.8</ele>
        <time>2017-12-30T18:52:02Z</time>
      </trkpt>
      <trkpt lat="45.4725" lon="5.57054">
        <ele>524.6</ele>
        <time>2017-12-30T18:52:26Z</time>
      </trkpt>
      <trkpt lat="45.4725" lon="5.57054">
        <ele>524.6</ele>
        <time>2017-12-30T18:52:26Z</time>
      </trkpt>
      <trkpt lat="45.47328" lon="5.57045">
        <ele>522.3</ele>
        <time>2017-12-30T18:53:11Z</time>
      </trkpt>
      <trkpt lat="45.47328" lon="5.57045">
        <ele>522.3</ele>
        <time>2017-12-30T18:53:11Z</time>
      </trkpt>
      <trkpt lat="45.47286" lon="5.56938">
        <ele>515.1</ele>
        <time>2017-12-30T18:54:00Z</time>
      </trkpt>
      <trkpt lat="45.47286" lon="5.56938">
        <ele>515.1</ele>
        <time>2017-12-30T18:54:00Z</time>
      </trkpt>
      <trkpt lat="45.47292" lon="5.56809">
        <ele>509.7</ele>
        <time>2017-12-30T18:54:52Z</time>
      </trkpt>
      <trkpt lat="45.47292" lon="5.56809">
        <ele>509.7</ele>
        <time>2017-12-30T18:54:52Z</time>
      </trkpt>
      <trkpt lat="45.47404" lon="5.56698">
        <ele>502.9</ele>
        <time>2017-12-30T18:56:10Z</time>
      </trkpt>
      <trkpt lat="45.47404" lon="5.56698">
        <ele>502.9</ele>
        <time>2017-12-30T18:56:10Z</time>
      </trkpt>
      <trkpt lat="45.47399" lon="5.56636">
        <ele>501.8</ele>
        <time>2017-12-30T18:56:35Z</time>
      </trkpt>
      <trkpt lat="45.47399" lon="5.56636">
        <ele>501.8</ele>
        <time>2017-12-30T18:56:35Z</time>
      </trkpt>
      <trkpt lat="45.47076" lon="5.56479">
        <ele>500.3</ele>
        <time>2017-12-30T18:59:50Z</time>
      </trkpt>
      <trkpt lat="45.47076" lon="5.56479">
        <ele>500.3</ele>
        <time>2017-12-30T18:59:50Z</time>
      </trkpt>
      <trkpt lat="45.47212" lon="5.56423">
        <ele>498.7</ele>
        <time>2017-12-30T19:01:11Z</time>
      </trkpt>
      <trkpt lat="45.47212" lon="5.56423">
        <ele>498.7</ele>
        <time>2017-12-30T19:01:11Z</time>
      </trkpt>
      <trkpt lat="45.47218" lon="5.56418">
        <ele>498.6</ele>
        <time>2017-12-30T19:01:15Z</time>
      </trkpt>
      <trkpt lat="45.47224" lon="5.56413">
        <ele>498.6</ele>
        <time>2017-12-30T19:01:19Z</time>
      </trkpt>
      <trkpt lat="45.47229" lon="5.56408">
        <ele>498.5</ele>
        <time>2017-12-30T19:01:23Z</time>
      </trkpt>
      <trkpt lat="45.47235" lon="5.56403">
        <ele>498.5</ele>
        <time>2017-12-30T19:01:27Z</time>
      </trkpt>
      <trkpt lat="45.4724" lon="5.56398">
        <ele>498.4</ele>
        <time>2017-12-30T19:01:30Z</time>
      </trkpt>
      <trkpt lat="45.47245" lon="5.56393">
        <ele>498.3</ele>
        <time>2017-12-30T19:01:34Z</time>
      </trkpt>
      <trkpt lat="45.4725" lon="5.56388">
        <ele>498.3</ele>
        <time>2017-12-30T19:01:37Z</time>
      </trkpt>
      <trkpt lat="45.47256" lon="5.56384">
        <ele>498.2</ele>
        <time>2017-12-30T19:01:41Z</time>
      </trkpt>
      <trkpt lat="45.47261" lon="5.5638">
        <ele>498.2</ele>
        <time>2017-12-30T19:01:44Z</time>
      </trkpt>
      <trkpt lat="45.47266" lon="5.56375">
        <ele>498.1</ele>
        <time>2017-12-30T19:01:48Z</time>
      </trkpt>
      <trkpt lat="45.47271" lon="5.56371">
        <ele>498</ele>
        <time>2017-12-30T19:01:51Z</time>
      </trkpt>
      <trkpt lat="45.47275" lon="5.56366">
        <ele>498</ele>
        <time>2017-12-30T19:01:54Z</time>
      </trkpt>
      <trkpt lat="45.47281" lon="5.56362">
        <ele>497.9</ele>
        <time>2017-12-30T19:01:58Z</time>
      </trkpt>
      <trkpt lat="45.47286" lon="5.56358">
        <ele>497.9</ele>
        <time>2017-12-30T19:02:01Z</time>
      </trkpt>
      <trkpt lat="45.47291" lon="5.56353">
        <ele>497.8</ele>
        <time>2017-12-30T19:02:04Z</time>
      </trkpt>
      <trkpt lat="45.47296" lon="5.56348">
        <ele>497.8</ele>
        <time>2017-12-30T19:02:08Z</time>
      </trkpt>
      <trkpt lat="45.47301" lon="5.56344">
        <ele>497.8</ele>
        <time>2017-12-30T19:02:11Z</time>
      </trkpt>
      <trkpt lat="45.47306" lon="5.56339">
        <ele>497.8</ele>
        <time>2017-12-30T19:02:15Z</time>
      </trkpt>
      <trkpt lat="45.47311" lon="5.56335">
        <ele>497.8</ele>
        <time>2017-12-30T19:02:18Z</time>
      </trkpt>
      <trkpt lat="45.47316" lon="5.5633">
        <ele>497.8</ele>
        <time>2017-12-30T19:02:22Z</time>
      </trkpt>
      <trkpt lat="45.47321" lon="5.56326">
        <ele>497.9</ele>
        <time>2017-12-30T19:02:25Z</time>
      </trkpt>
      <trkpt lat="45.47326" lon="5.56321">
        <ele>498.1</ele>
        <time>2017-12-30T19:02:28Z</time>
      </trkpt>
      <trkpt lat="45.47331" lon="5.56317">
        <ele>498.2</ele>
        <time>2017-12-30T19:02:32Z</time>
      </trkpt>
      <trkpt lat="45.47336" lon="5.56313">
        <ele>498.3</ele>
        <time>2017-12-30T19:02:35Z</time>
      </trkpt>
      <trkpt lat="45.47341" lon="5.56308">
        <ele>498.4</ele>
        <time>2017-12-30T19:02:38Z</time>
      </trkpt>
      <trkpt lat="45.47346" lon="5.56304">
        <ele>498.5</ele>
        <time>2017-12-30T19:02:42Z</time>
      </trkpt>
      <trkpt lat="45.47351" lon="5.563">
        <ele>498.5</ele>
        <time>2017-12-30T19:02:45Z</time>
      </trkpt>
      <trkpt lat="45.47356" lon="5.56295">
        <ele>498.6</ele>
        <time>2017-12-30T19:02:48Z</time>
      </trkpt>
      <trkpt lat="45.47361" lon="5.5629">
        <ele>498.7</ele>
        <time>2017-12-30T19:02:52Z</time>
      </trkpt>
      <trkpt lat="45.47366" lon="5.56285">
        <ele>498.7</ele>
        <time>2017-12-30T19:02:55Z</time>
      </trkpt>
      <trkpt lat="45.4737" lon="5.5628">
        <ele>498.8</ele>
        <time>2017-12-30T19:02:58Z</time>
      </trkpt>
      <trkpt lat="45.47375" lon="5.56274">
        <ele>498.9</ele>
        <time>2017-12-30T19:03:02Z</time>
      </trkpt>
      <trkpt lat="45.47379" lon="5.56268">
        <ele>498.9</ele>
        <time>2017-12-30T19:03:05Z</time>
      </trkpt>
      <trkpt lat="45.47383" lon="5.56261">
        <ele>498.9</ele>
        <time>2017-12-30T19:03:09Z</time>
      </trkpt>
      <trkpt lat="45.47386" lon="5.56255">
        <ele>499</ele>
        <time>2017-12-30T19:03:12Z</time>
      </trkpt>
      <trkpt lat="45.4739" lon="5.56249">
        <ele>499</ele>
        <time>2017-12-30T19:03:15Z</time>
      </trkpt>
      <trkpt lat="45.47394" lon="5.56243">
        <ele>498.9</ele>
        <time>2017-12-30T19:03:19Z</time>
      </trkpt>
      <trkpt lat="45.47399" lon="5.56239">
        <ele>498.9</ele>
        <time>2017-12-30T19:03:22Z</time>
      </trkpt>
      <trkpt lat="45.47403" lon="5.56234">
        <ele>498.8</ele>
        <time>2017-12-30T19:03:25Z</time>
      </trkpt>
      <trkpt lat="45.47408" lon="5.56229">
        <ele>498.8</ele>
        <time>2017-12-30T19:03:28Z</time>
      </trkpt>
      <trkpt lat="45.47412" lon="5.56225">
        <ele>498.7</ele>
        <time>2017-12-30T19:03:31Z</time>
      </trkpt>
      <trkpt lat="45.47417" lon="5.56221">
        <ele>498.6</ele>
        <time>2017-12-30T19:03:35Z</time>
      </trkpt>
      <trkpt lat="45.47422" lon="5.56217">
        <ele>498.6</ele>
        <time>2017-12-30T19:03:38Z</time>
      </trkpt>
      <trkpt lat="45.47427" lon="5.56213">
        <ele>498.6</ele>
        <time>2017-12-30T19:03:41Z</time>
      </trkpt>
      <trkpt lat="45.47431" lon="5.5621">
        <ele>498.5</ele>
        <time>2017-12-30T19:03:44Z</time>
      </trkpt>
      <trkpt lat="45.47435" lon="5.56206">
        <ele>498.5</ele>
        <time>2017-12-30T19:03:46Z</time>
      </trkpt>
      <trkpt lat="45.47439" lon="5.56202">
        <ele>498.4</ele>
        <time>2017-12-30T19:03:49Z</time>
      </trkpt>
      <trkpt lat="45.47442" lon="5.56196">
        <ele>498.3</ele>
        <time>2017-12-30T19:03:52Z</time>
      </trkpt>
      <trkpt lat="45.47444" lon="5.5619">
        <ele>498.3</ele>
        <time>2017-12-30T19:03:55Z</time>
      </trkpt>
      <trkpt lat="45.47445" lon="5.56182">
        <ele>498.2</ele>
        <time>2017-12-30T19:03:58Z</time>
      </trkpt>
      <trkpt lat="45.47444" lon="5.56174">
        <ele>498.1</ele>
        <time>2017-12-30T19:04:01Z</time>
      </trkpt>
      <trkpt lat="45.47443" lon="5.56166">
        <ele>498</ele>
        <time>2017-12-30T19:04:05Z</time>
      </trkpt>
      <trkpt lat="45.4744" lon="5.56157">
        <ele>498</ele>
        <time>2017-12-30T19:04:09Z</time>
      </trkpt>
      <trkpt lat="45.47438" lon="5.56149">
        <ele>498</ele>
        <time>2017-12-30T19:04:12Z</time>
      </trkpt>
      <trkpt lat="45.47436" lon="5.56141">
        <ele>498</ele>
        <time>2017-12-30T19:04:15Z</time>
      </trkpt>
      <trkpt lat="45.47434" lon="5.56132">
        <ele>498</ele>
        <time>2017-12-30T19:04:19Z</time>
      </trkpt>
      <trkpt lat="45.47432" lon="5.56124">
        <ele>498</ele>
        <time>2017-12-30T19:04:23Z</time>
      </trkpt>
      <trkpt lat="45.4743" lon="5.56116">
        <ele>498</ele>
        <time>2017-12-30T19:04:26Z</time>
      </trkpt>
      <trkpt lat="45.47429" lon="5.56108">
        <ele>498</ele>
        <time>2017-12-30T19:04:29Z</time>
      </trkpt>
      <trkpt lat="45.47427" lon="5.561">
        <ele>498</ele>
        <time>2017-12-30T19:04:33Z</time>
      </trkpt>
      <trkpt lat="45.47426" lon="5.56091">
        <ele>498</ele>
        <time>2017-12-30T19:04:36Z</time>
      </trkpt>
      <trkpt lat="45.47425" lon="5.56082">
        <ele>498</ele>
        <time>2017-12-30T19:04:40Z</time>
      </trkpt>
      <trkpt lat="45.47424" lon="5.56074">
        <ele>498.2</ele>
        <time>2017-12-30T19:04:43Z</time>
      </trkpt>
      <trkpt lat="45.47423" lon="5.56065">
        <ele>498.4</ele>
        <time>2017-12-30T19:04:47Z</time>
      </trkpt>
      <trkpt lat="45.47421" lon="5.56057">
        <ele>498.6</ele>
        <time>2017-12-30T19:04:50Z</time>
      </trkpt>
      <trkpt lat="45.47421" lon="5.56048">
        <ele>498.8</ele>
        <time>2017-12-30T19:04:54Z</time>
      </trkpt>
      <trkpt lat="45.47421" lon="5.5604">
        <ele>499</ele>
        <time>2017-12-30T19:04:57Z</time>
      </trkpt>
      <trkpt lat="45.47421" lon="5.56032">
        <ele>499.2</ele>
        <time>2017-12-30T19:05:00Z</time>
      </trkpt>
      <trkpt lat="45.47422" lon="5.56024">
        <ele>499.4</ele>
        <time>2017-12-30T19:05:04Z</time>
      </trkpt>
      <trkpt lat="45.47424" lon="5.56016">
        <ele>499.6</ele>
        <time>2017-12-30T19:05:07Z</time>
      </trkpt>
      <trkpt lat="45.47425" lon="5.56008">
        <ele>499.7</ele>
        <time>2017-12-30T19:05:10Z</time>
      </trkpt>
      <trkpt lat="45.47426" lon="5.56">
        <ele>499.9</ele>
        <time>2017-12-30T19:05:14Z</time>
      </trkpt>
      <trkpt lat="45.47426" lon="5.55992">
        <ele>499.6</ele>
        <time>2017-12-30T19:05:17Z</time>
      </trkpt>
      <trkpt lat="45.47427" lon="5.55984">
        <ele>499.3</ele>
        <time>2017-12-30T19:05:20Z</time>
      </trkpt>
      <trkpt lat="45.47427" lon="5.55975">
        <ele>499</ele>
        <time>2017-12-30T19:05:24Z</time>
      </trkpt>
      <trkpt lat="45.47428" lon="5.55967">
        <ele>498.7</ele>
        <time>2017-12-30T19:05:27Z</time>
      </trkpt>
      <trkpt lat="45.47428" lon="5.55958">
        <ele>498.4</ele>
        <time>2017-12-30T19:05:31Z</time>
      </trkpt>
      <trkpt lat="45.47428" lon="5.5595">
        <ele>498.1</ele>
        <time>2017-12-30T19:05:34Z</time>
      </trkpt>
      <trkpt lat="45.47428" lon="5.55942">
        <ele>497.9</ele>
        <time>2017-12-30T19:05:37Z</time>
      </trkpt>
      <trkpt lat="45.47429" lon="5.55933">
        <ele>497.5</ele>
        <time>2017-12-30T19:05:41Z</time>
      </trkpt>
      <trkpt lat="45.47429" lon="5.55924">
        <ele>497.2</ele>
        <time>2017-12-30T19:05:44Z</time>
      </trkpt>
      <trkpt lat="45.47428" lon="5.55916">
        <ele>497</ele>
        <time>2017-12-30T19:05:47Z</time>
      </trkpt>
      <trkpt lat="45.47428" lon="5.55908">
        <ele>496.7</ele>
        <time>2017-12-30T19:05:51Z</time>
      </trkpt>
      <trkpt lat="45.47426" lon="5.55899">
        <ele>496.4</ele>
        <time>2017-12-30T19:05:54Z</time>
      </trkpt>
      <trkpt lat="45.47424" lon="5.55891">
        <ele>496.1</ele>
        <time>2017-12-30T19:05:58Z</time>
      </trkpt>
      <trkpt lat="45.47422" lon="5.55883">
        <ele>495.8</ele>
        <time>2017-12-30T19:06:01Z</time>
      </trkpt>
      <trkpt lat="45.4742" lon="5.55875">
        <ele>495.5</ele>
        <time>2017-12-30T19:06:05Z</time>
      </trkpt>
      <trkpt lat="45.47418" lon="5.55867">
        <ele>495.2</ele>
        <time>2017-12-30T19:06:08Z</time>
      </trkpt>
      <trkpt lat="45.47416" lon="5.55859">
        <ele>494.9</ele>
        <time>2017-12-30T19:06:11Z</time>
      </trkpt>
      <trkpt lat="45.47413" lon="5.55851">
        <ele>494.7</ele>
        <time>2017-12-30T19:06:15Z</time>
      </trkpt>
      <trkpt lat="45.47411" lon="5.55844">
        <ele>494.4</ele>
        <time>2017-12-30T19:06:18Z</time>
      </trkpt>
      <trkpt lat="45.47409" lon="5.55836">
        <ele>494.2</ele>
        <time>2017-12-30T19:06:22Z</time>
      </trkpt>
      <trkpt lat="45.47406" lon="5.55828">
        <ele>494.2</ele>
        <time>2017-12-30T19:06:25Z</time>
      </trkpt>
      <trkpt lat="45.47404" lon="5.5582">
        <ele>494.3</ele>
        <time>2017-12-30T19:06:29Z</time>
      </trkpt>
      <trkpt lat="45.47401" lon="5.55813">
        <ele>494.4</ele>
        <time>2017-12-30T19:06:32Z</time>
      </trkpt>
      <trkpt lat="45.47399" lon="5.55805">
        <ele>494.5</ele>
        <time>2017-12-30T19:06:35Z</time>
      </trkpt>
      <trkpt lat="45.47396" lon="5.55797">
        <ele>494.6</ele>
        <time>2017-12-30T19:06:39Z</time>
      </trkpt>
      <trkpt lat="45.47394" lon="5.55789">
        <ele>494.7</ele>
        <time>2017-12-30T19:06:42Z</time>
      </trkpt>
      <trkpt lat="45.47392" lon="5.55781">
        <ele>494.7</ele>
        <time>2017-12-30T19:06:46Z</time>
      </trkpt>
      <trkpt lat="45.47389" lon="5.55773">
        <ele>494.8</ele>
        <time>2017-12-30T19:06:49Z</time>
      </trkpt>
      <trkpt lat="45.47387" lon="5.55765">
        <ele>494.9</ele>
        <time>2017-12-30T19:06:53Z</time>
      </trkpt>
      <trkpt lat="45.47386" lon="5.55757">
        <ele>495</ele>
        <time>2017-12-30T19:06:56Z</time>
      </trkpt>
      <trkpt lat="45.47384" lon="5.5575">
        <ele>495</ele>
        <time>2017-12-30T19:06:59Z</time>
      </trkpt>
      <trkpt lat="45.47382" lon="5.55742">
        <ele>495.1</ele>
        <time>2017-12-30T19:07:02Z</time>
      </trkpt>
      <trkpt lat="45.4738" lon="5.55735">
        <ele>495.2</ele>
        <time>2017-12-30T19:07:05Z</time>
      </trkpt>
      <trkpt lat="45.47378" lon="5.55727">
        <ele>495.3</ele>
        <time>2017-12-30T19:07:09Z</time>
      </trkpt>
      <trkpt lat="45.47377" lon="5.55721">
        <ele>495.4</ele>
        <time>2017-12-30T19:07:11Z</time>
      </trkpt>
      <trkpt lat="45.47376" lon="5.55714">
        <ele>495.4</ele>
        <time>2017-12-30T19:07:14Z</time>
      </trkpt>
      <trkpt lat="45.47376" lon="5.55707">
        <ele>495.5</ele>
        <time>2017-12-30T19:07:17Z</time>
      </trkpt>
      <trkpt lat="45.47377" lon="5.55699">
        <ele>495.6</ele>
        <time>2017-12-30T19:07:20Z</time>
      </trkpt>
      <trkpt lat="45.4738" lon="5.55692">
        <ele>495.8</ele>
        <time>2017-12-30T19:07:24Z</time>
      </trkpt>
      <trkpt lat="45.47383" lon="5.55685">
        <ele>495.9</ele>
        <time>2017-12-30T19:07:27Z</time>
      </trkpt>
      <trkpt lat="45.47388" lon="5.55679">
        <ele>496.1</ele>
        <time>2017-12-30T19:07:31Z</time>
      </trkpt>
      <trkpt lat="45.47392" lon="5.55672">
        <ele>496.3</ele>
        <time>2017-12-30T19:07:34Z</time>
      </trkpt>
      <trkpt lat="45.47397" lon="5.55667">
        <ele>496.5</ele>
        <time>2017-12-30T19:07:38Z</time>
      </trkpt>
      <trkpt lat="45.47401" lon="5.55661">
        <ele>496.8</ele>
        <time>2017-12-30T19:07:41Z</time>
      </trkpt>
      <trkpt lat="45.47405" lon="5.55655">
        <ele>497.1</ele>
        <time>2017-12-30T19:07:44Z</time>
      </trkpt>
      <trkpt lat="45.47409" lon="5.55649">
        <ele>497.5</ele>
        <time>2017-12-30T19:07:48Z</time>
      </trkpt>
      <trkpt lat="45.47414" lon="5.55644">
        <ele>497.8</ele>
        <time>2017-12-30T19:07:51Z</time>
      </trkpt>
      <trkpt lat="45.47418" lon="5.55639">
        <ele>498</ele>
        <time>2017-12-30T19:07:54Z</time>
      </trkpt>
      <trkpt lat="45.47423" lon="5.55634">
        <ele>498.3</ele>
        <time>2017-12-30T19:07:58Z</time>
      </trkpt>
      <trkpt lat="45.47427" lon="5.5563">
        <ele>498.6</ele>
        <time>2017-12-30T19:08:01Z</time>
      </trkpt>
      <trkpt lat="45.47431" lon="5.55625">
        <ele>498.9</ele>
        <time>2017-12-30T19:08:04Z</time>
      </trkpt>
      <trkpt lat="45.47435" lon="5.5562">
        <ele>499.1</ele>
        <time>2017-12-30T19:08:07Z</time>
      </trkpt>
      <trkpt lat="45.47439" lon="5.55614">
        <ele>499.5</ele>
        <time>2017-12-30T19:08:10Z</time>
      </trkpt>
      <trkpt lat="45.47443" lon="5.55608">
        <ele>499.8</ele>
        <time>2017-12-30T19:08:13Z</time>
      </trkpt>
      <trkpt lat="45.47447" lon="5.55602">
        <ele>500.1</ele>
        <time>2017-12-30T19:08:17Z</time>
      </trkpt>
      <trkpt lat="45.47451" lon="5.55595">
        <ele>500.4</ele>
        <time>2017-12-30T19:08:20Z</time>
      </trkpt>
      <trkpt lat="45.47455" lon="5.55588">
        <ele>500.8</ele>
        <time>2017-12-30T19:08:24Z</time>
      </trkpt>
      <trkpt lat="45.47459" lon="5.55582">
        <ele>501</ele>
        <time>2017-12-30T19:08:27Z</time>
      </trkpt>
      <trkpt lat="45.47464" lon="5.55575">
        <ele>501.3</ele>
        <time>2017-12-30T19:08:31Z</time>
      </trkpt>
      <trkpt lat="45.47468" lon="5.55568">
        <ele>501.5</ele>
        <time>2017-12-30T19:08:35Z</time>
      </trkpt>
      <trkpt lat="45.47472" lon="5.55562">
        <ele>501.7</ele>
        <time>2017-12-30T19:08:38Z</time>
      </trkpt>
      <trkpt lat="45.47476" lon="5.55555">
        <ele>501.9</ele>
        <time>2017-12-30T19:08:42Z</time>
      </trkpt>
      <trkpt lat="45.47481" lon="5.55549">
        <ele>502.1</ele>
        <time>2017-12-30T19:08:45Z</time>
      </trkpt>
      <trkpt lat="45.47485" lon="5.55543">
        <ele>502.2</ele>
        <time>2017-12-30T19:08:49Z</time>
      </trkpt>
      <trkpt lat="45.47489" lon="5.55538">
        <ele>502.4</ele>
        <time>2017-12-30T19:08:52Z</time>
      </trkpt>
      <trkpt lat="45.47493" lon="5.55532">
        <ele>502.5</ele>
        <time>2017-12-30T19:08:55Z</time>
      </trkpt>
      <trkpt lat="45.47497" lon="5.55527">
        <ele>502.6</ele>
        <time>2017-12-30T19:08:58Z</time>
      </trkpt>
      <trkpt lat="45.47501" lon="5.55522">
        <ele>502.7</ele>
        <time>2017-12-30T19:09:01Z</time>
      </trkpt>
      <trkpt lat="45.47505" lon="5.55517">
        <ele>502.8</ele>
        <time>2017-12-30T19:09:04Z</time>
      </trkpt>
      <trkpt lat="45.47509" lon="5.55513">
        <ele>502.9</ele>
        <time>2017-12-30T19:09:07Z</time>
      </trkpt>
      <trkpt lat="45.47514" lon="5.55509">
        <ele>503</ele>
        <time>2017-12-30T19:09:10Z</time>
      </trkpt>
      <trkpt lat="45.47518" lon="5.55504">
        <ele>503.1</ele>
        <time>2017-12-30T19:09:13Z</time>
      </trkpt>
      <trkpt lat="45.47521" lon="5.555">
        <ele>503.3</ele>
        <time>2017-12-30T19:09:16Z</time>
      </trkpt>
      <trkpt lat="45.47525" lon="5.55495">
        <ele>503.6</ele>
        <time>2017-12-30T19:09:19Z</time>
      </trkpt>
      <trkpt lat="45.47531" lon="5.55485">
        <ele>504.4</ele>
        <time>2017-12-30T19:09:24Z</time>
      </trkpt>
      <trkpt lat="45.47533" lon="5.5548">
        <ele>504.8</ele>
        <time>2017-12-30T19:09:26Z</time>
      </trkpt>
      <trkpt lat="45.47536" lon="5.55474">
        <ele>505.3</ele>
        <time>2017-12-30T19:09:29Z</time>
      </trkpt>
      <trkpt lat="45.47538" lon="5.55469">
        <ele>505.7</ele>
        <time>2017-12-30T19:09:32Z</time>
      </trkpt>
      <trkpt lat="45.47541" lon="5.55462">
        <ele>506.3</ele>
        <time>2017-12-30T19:09:35Z</time>
      </trkpt>
      <trkpt lat="45.47543" lon="5.55456">
        <ele>506.8</ele>
        <time>2017-12-30T19:09:38Z</time>
      </trkpt>
      <trkpt lat="45.47545" lon="5.5545">
        <ele>507.3</ele>
        <time>2017-12-30T19:09:40Z</time>
      </trkpt>
      <trkpt lat="45.47548" lon="5.55445">
        <ele>507.8</ele>
        <time>2017-12-30T19:09:43Z</time>
      </trkpt>
      <trkpt lat="45.47551" lon="5.5544">
        <ele>508.3</ele>
        <time>2017-12-30T19:09:45Z</time>
      </trkpt>
      <trkpt lat="45.47554" lon="5.55435">
        <ele>508.8</ele>
        <time>2017-12-30T19:09:48Z</time>
      </trkpt>
      <trkpt lat="45.47557" lon="5.5543">
        <ele>509.4</ele>
        <time>2017-12-30T19:09:51Z</time>
      </trkpt>
      <trkpt lat="45.4756" lon="5.55425">
        <ele>510</ele>
        <time>2017-12-30T19:09:53Z</time>
      </trkpt>
      <trkpt lat="45.47564" lon="5.5542">
        <ele>510.6</ele>
        <time>2017-12-30T19:09:56Z</time>
      </trkpt>
      <trkpt lat="45.47568" lon="5.55415">
        <ele>511.3</ele>
        <time>2017-12-30T19:09:59Z</time>
      </trkpt>
      <trkpt lat="45.47575" lon="5.5541">
        <ele>512.1</ele>
        <time>2017-12-30T19:10:04Z</time>
      </trkpt>
      <trkpt lat="45.47583" lon="5.55406">
        <ele>513.1</ele>
        <time>2017-12-30T19:10:09Z</time>
      </trkpt>
      <trkpt lat="45.4759" lon="5.55401">
        <ele>515.1</ele>
        <time>2017-12-30T19:10:13Z</time>
      </trkpt>
      <trkpt lat="45.47597" lon="5.55401">
        <ele>516.8</ele>
        <time>2017-12-30T19:10:17Z</time>
      </trkpt>
      <trkpt lat="45.47602" lon="5.55407">
        <ele>517.3</ele>
        <time>2017-12-30T19:10:21Z</time>
      </trkpt>
      <trkpt lat="45.47608" lon="5.55417">
        <ele>517.7</ele>
        <time>2017-12-30T19:10:26Z</time>
      </trkpt>
      <trkpt lat="45.47611" lon="5.55421">
        <ele>517.8</ele>
        <time>2017-12-30T19:10:29Z</time>
      </trkpt>
      <trkpt lat="45.47615" lon="5.55426">
        <ele>518.1</ele>
        <time>2017-12-30T19:10:32Z</time>
      </trkpt>
      <trkpt lat="45.47618" lon="5.5543">
        <ele>518.2</ele>
        <time>2017-12-30T19:10:34Z</time>
      </trkpt>
      <trkpt lat="45.47622" lon="5.55435">
        <ele>518.3</ele>
        <time>2017-12-30T19:10:37Z</time>
      </trkpt>
      <trkpt lat="45.47625" lon="5.5544">
        <ele>518.2</ele>
        <time>2017-12-30T19:10:40Z</time>
      </trkpt>
      <trkpt lat="45.47629" lon="5.55445">
        <ele>518.3</ele>
        <time>2017-12-30T19:10:43Z</time>
      </trkpt>
      <trkpt lat="45.47633" lon="5.5545">
        <ele>518.3</ele>
        <time>2017-12-30T19:10:46Z</time>
      </trkpt>
      <trkpt lat="45.47637" lon="5.55456">
        <ele>518.1</ele>
        <time>2017-12-30T19:10:49Z</time>
      </trkpt>
      <trkpt lat="45.47641" lon="5.55462">
        <ele>517.9</ele>
        <time>2017-12-30T19:10:52Z</time>
      </trkpt>
      <trkpt lat="45.47645" lon="5.55468">
        <ele>517.6</ele>
        <time>2017-12-30T19:10:56Z</time>
      </trkpt>
      <trkpt lat="45.47649" lon="5.55474">
        <ele>517.2</ele>
        <time>2017-12-30T19:10:59Z</time>
      </trkpt>
      <trkpt lat="45.47653" lon="5.55481">
        <ele>516.6</ele>
        <time>2017-12-30T19:11:03Z</time>
      </trkpt>
      <trkpt lat="45.47658" lon="5.55487">
        <ele>516.3</ele>
        <time>2017-12-30T19:11:06Z</time>
      </trkpt>
      <trkpt lat="45.47662" lon="5.55494">
        <ele>515.6</ele>
        <time>2017-12-30T19:11:10Z</time>
      </trkpt>
      <trkpt lat="45.47666" lon="5.55501">
        <ele>514.9</ele>
        <time>2017-12-30T19:11:14Z</time>
      </trkpt>
      <trkpt lat="45.4767" lon="5.55508">
        <ele>515.3</ele>
        <time>2017-12-30T19:11:17Z</time>
      </trkpt>
      <trkpt lat="45.47675" lon="5.55515">
        <ele>516</ele>
        <time>2017-12-30T19:11:21Z</time>
      </trkpt>
      <trkpt lat="45.47679" lon="5.55522">
        <ele>516.5</ele>
        <time>2017-12-30T19:11:25Z</time>
      </trkpt>
      <trkpt lat="45.47683" lon="5.55529">
        <ele>516.8</ele>
        <time>2017-12-30T19:11:29Z</time>
      </trkpt>
      <trkpt lat="45.47686" lon="5.55537">
        <ele>516.8</ele>
        <time>2017-12-30T19:11:32Z</time>
      </trkpt>
      <trkpt lat="45.4769" lon="5.55545">
        <ele>517</ele>
        <time>2017-12-30T19:11:36Z</time>
      </trkpt>
      <trkpt lat="45.47693" lon="5.55554">
        <ele>516.8</ele>
        <time>2017-12-30T19:11:40Z</time>
      </trkpt>
      <trkpt lat="45.47697" lon="5.55562">
        <ele>516.9</ele>
        <time>2017-12-30T19:11:44Z</time>
      </trkpt>
      <trkpt lat="45.477" lon="5.55571">
        <ele>516.6</ele>
        <time>2017-12-30T19:11:48Z</time>
      </trkpt>
      <trkpt lat="45.47703" lon="5.55579">
        <ele>516.3</ele>
        <time>2017-12-30T19:11:52Z</time>
      </trkpt>
      <trkpt lat="45.47705" lon="5.55588">
        <ele>515.9</ele>
        <time>2017-12-30T19:11:55Z</time>
      </trkpt>
      <trkpt lat="45.47708" lon="5.55598">
        <ele>516</ele>
        <time>2017-12-30T19:12:00Z</time>
      </trkpt>
      <trkpt lat="45.4771" lon="5.55607">
        <ele>515.9</ele>
        <time>2017-12-30T19:12:04Z</time>
      </trkpt>
      <trkpt lat="45.47712" lon="5.55616">
        <ele>515.8</ele>
        <time>2017-12-30T19:12:07Z</time>
      </trkpt>
      <trkpt lat="45.47715" lon="5.55626">
        <ele>515.8</ele>
        <time>2017-12-30T19:12:12Z</time>
      </trkpt>
      <trkpt lat="45.47717" lon="5.55635">
        <ele>515.7</ele>
        <time>2017-12-30T19:12:16Z</time>
      </trkpt>
      <trkpt lat="45.4772" lon="5.55645">
        <ele>515.7</ele>
        <time>2017-12-30T19:12:20Z</time>
      </trkpt>
      <trkpt lat="45.47722" lon="5.55654">
        <ele>515.5</ele>
        <time>2017-12-30T19:12:24Z</time>
      </trkpt>
      <trkpt lat="45.47725" lon="5.55664">
        <ele>515.5</ele>
        <time>2017-12-30T19:12:28Z</time>
      </trkpt>
      <trkpt lat="45.47727" lon="5.55674">
        <ele>515.3</ele>
        <time>2017-12-30T19:12:32Z</time>
      </trkpt>
      <trkpt lat="45.47729" lon="5.55684">
        <ele>515.1</ele>
        <time>2017-12-30T19:12:36Z</time>
      </trkpt>
      <trkpt lat="45.47731" lon="5.55694">
        <ele>514.8</ele>
        <time>2017-12-30T19:12:41Z</time>
      </trkpt>
      <trkpt lat="45.47734" lon="5.55703">
        <ele>514.8</ele>
        <time>2017-12-30T19:12:45Z</time>
      </trkpt>
      <trkpt lat="45.47736" lon="5.55713">
        <ele>514.4</ele>
        <time>2017-12-30T19:12:49Z</time>
      </trkpt>
      <trkpt lat="45.47738" lon="5.55723">
        <ele>514.1</ele>
        <time>2017-12-30T19:12:53Z</time>
      </trkpt>
      <trkpt lat="45.4774" lon="5.55732">
        <ele>513.8</ele>
        <time>2017-12-30T19:12:57Z</time>
      </trkpt>
      <trkpt lat="45.47743" lon="5.55741">
        <ele>513.6</ele>
        <time>2017-12-30T19:13:01Z</time>
      </trkpt>
      <trkpt lat="45.47745" lon="5.55751">
        <ele>513.2</ele>
        <time>2017-12-30T19:13:05Z</time>
      </trkpt>
      <trkpt lat="45.47748" lon="5.5576">
        <ele>513.6</ele>
        <time>2017-12-30T19:13:09Z</time>
      </trkpt>
      <trkpt lat="45.4775" lon="5.55769">
        <ele>513.8</ele>
        <time>2017-12-30T19:13:13Z</time>
      </trkpt>
      <trkpt lat="45.47752" lon="5.55779">
        <ele>514.5</ele>
        <time>2017-12-30T19:13:17Z</time>
      </trkpt>
      <trkpt lat="45.47755" lon="5.55788">
        <ele>515.6</ele>
        <time>2017-12-30T19:13:21Z</time>
      </trkpt>
      <trkpt lat="45.47757" lon="5.55797">
        <ele>516.2</ele>
        <time>2017-12-30T19:13:25Z</time>
      </trkpt>
      <trkpt lat="45.47759" lon="5.55806">
        <ele>516.9</ele>
        <time>2017-12-30T19:13:28Z</time>
      </trkpt>
      <trkpt lat="45.47761" lon="5.55815">
        <ele>517.5</ele>
        <time>2017-12-30T19:13:32Z</time>
      </trkpt>
      <trkpt lat="45.47764" lon="5.55824">
        <ele>518.6</ele>
        <time>2017-12-30T19:13:36Z</time>
      </trkpt>
      <trkpt lat="45.47766" lon="5.55833">
        <ele>519.2</ele>
        <time>2017-12-30T19:13:40Z</time>
      </trkpt>
      <trkpt lat="45.47768" lon="5.55842">
        <ele>519.6</ele>
        <time>2017-12-30T19:13:44Z</time>
      </trkpt>
      <trkpt lat="45.47771" lon="5.5585">
        <ele>520.5</ele>
        <time>2017-12-30T19:13:47Z</time>
      </trkpt>
      <trkpt lat="45.47773" lon="5.55859">
        <ele>520.9</ele>
        <time>2017-12-30T19:13:51Z</time>
      </trkpt>
      <trkpt lat="45.47775" lon="5.55867">
        <ele>521.3</ele>
        <time>2017-12-30T19:13:55Z</time>
      </trkpt>
      <trkpt lat="45.47777" lon="5.55876">
        <ele>521.7</ele>
        <time>2017-12-30T19:13:58Z</time>
      </trkpt>
      <trkpt lat="45.47779" lon="5.55884">
        <ele>522.2</ele>
        <time>2017-12-30T19:14:02Z</time>
      </trkpt>
      <trkpt lat="45.47781" lon="5.55893">
        <ele>522.5</ele>
        <time>2017-12-30T19:14:05Z</time>
      </trkpt>
      <trkpt lat="45.47783" lon="5.55901">
        <ele>523</ele>
        <time>2017-12-30T19:14:09Z</time>
      </trkpt>
      <trkpt lat="45.47785" lon="5.5591">
        <ele>523.3</ele>
        <time>2017-12-30T19:14:13Z</time>
      </trkpt>
      <trkpt lat="45.47787" lon="5.55918">
        <ele>523.7</ele>
        <time>2017-12-30T19:14:16Z</time>
      </trkpt>
      <trkpt lat="45.47789" lon="5.55926">
        <ele>523.9</ele>
        <time>2017-12-30T19:14:19Z</time>
      </trkpt>
      <trkpt lat="45.47789" lon="5.55926">
        <ele>523.9</ele>
        <time>2017-12-30T19:14:19Z</time>
      </trkpt>
      <trkpt lat="45.47838" lon="5.56119">
        <ele>521.4</ele>
        <time>2017-12-30T19:15:42Z</time>
      </trkpt>
      <trkpt lat="45.47838" lon="5.56119">
        <ele>521.4</ele>
        <time>2017-12-30T19:15:42Z</time>
      </trkpt>
      <trkpt lat="45.47879" lon="5.56046">
        <ele>546.4</ele>
        <time>2017-12-30T19:16:19Z</time>
      </trkpt>
      <trkpt lat="45.47879" lon="5.56046">
        <ele>546.4</ele>
        <time>2017-12-30T19:16:19Z</time>
      </trkpt>
      <trkpt lat="45.47894" lon="5.5596">
        <ele>563.8</ele>
        <time>2017-12-30T19:16:55Z</time>
      </trkpt>
      <trkpt lat="45.47894" lon="5.5596">
        <ele>563.8</ele>
        <time>2017-12-30T19:16:55Z</time>
      </trkpt>
      <trkpt lat="45.479" lon="5.5584">
        <ele>572.1</ele>
        <time>2017-12-30T19:17:43Z</time>
      </trkpt>
      <trkpt lat="45.479" lon="5.5584">
        <ele>572.1</ele>
        <time>2017-12-30T19:17:43Z</time>
      </trkpt>
      <trkpt lat="45.47903" lon="5.55711">
        <ele>577.2</ele>
        <time>2017-12-30T19:18:35Z</time>
      </trkpt>
      <trkpt lat="45.47903" lon="5.55711">
        <ele>577.2</ele>
        <time>2017-12-30T19:18:35Z</time>
      </trkpt>
      <trkpt lat="45.47945" lon="5.55599">
        <ele>585.9</ele>
        <time>2017-12-30T19:19:26Z</time>
      </trkpt>
      <trkpt lat="45.47945" lon="5.55599">
        <ele>585.9</ele>
        <time>2017-12-30T19:19:26Z</time>
      </trkpt>
      <trkpt lat="45.47948" lon="5.55556">
        <ele>584</ele>
        <time>2017-12-30T19:19:43Z</time>
      </trkpt>
      <trkpt lat="45.47948" lon="5.55556">
        <ele>584</ele>
        <time>2017-12-30T19:19:43Z</time>
      </trkpt>
      <trkpt lat="45.47927" lon="5.55526">
        <ele>577.7</ele>
        <time>2017-12-30T19:20:00Z</time>
      </trkpt>
      <trkpt lat="45.47927" lon="5.55526">
        <ele>577.7</ele>
        <time>2017-12-30T19:20:00Z</time>
      </trkpt>
      <trkpt lat="45.48" lon="5.55534">
        <ele>595</ele>
        <time>2017-12-30T19:20:42Z</time>
      </trkpt>
      <trkpt lat="45.48" lon="5.55534">
        <ele>595</ele>
        <time>2017-12-30T19:20:42Z</time>
      </trkpt>
      <trkpt lat="45.48011" lon="5.55543">
        <ele>597.9</ele>
        <time>2017-12-30T19:20:49Z</time>
      </trkpt>
      <trkpt lat="45.48011" lon="5.55543">
        <ele>597.9</ele>
        <time>2017-12-30T19:20:49Z</time>
      </trkpt>
      <trkpt lat="45.47996" lon="5.55608">
        <ele>602.4</ele>
        <time>2017-12-30T19:21:17Z</time>
      </trkpt>
      <trkpt lat="45.47996" lon="5.55608">
        <ele>602.4</ele>
        <time>2017-12-30T19:21:17Z</time>
      </trkpt>
      <trkpt lat="45.48039" lon="5.55792">
        <ele>612.4</ele>
        <time>2017-12-30T19:22:34Z</time>
      </trkpt>
      <trkpt lat="45.48039" lon="5.55792">
        <ele>612.4</ele>
        <time>2017-12-30T19:22:34Z</time>
      </trkpt>
      <trkpt lat="45.48123" lon="5.55878">
        <ele>615.3</ele>
        <time>2017-12-30T19:23:34Z</time>
      </trkpt>
      <trkpt lat="45.48123" lon="5.55878">
        <ele>615.3</ele>
        <time>2017-12-30T19:23:34Z</time>
      </trkpt>
      <trkpt lat="45.48174" lon="5.55904">
        <ele>617.4</ele>
        <time>2017-12-30T19:24:05Z</time>
      </trkpt>
      <trkpt lat="45.48174" lon="5.55904">
        <ele>617.4</ele>
        <time>2017-12-30T19:24:05Z</time>
      </trkpt>
      <trkpt lat="45.48315" lon="5.55908">
        <ele>617.2</ele>
        <time>2017-12-30T19:25:25Z</time>
      </trkpt>
      <trkpt lat="45.48315" lon="5.55908">
        <ele>617.2</ele>
        <time>2017-12-30T19:25:25Z</time>
      </trkpt>
      <trkpt lat="45.48382" lon="5.55822">
        <ele>622</ele>
        <time>2017-12-30T19:26:17Z</time>
      </trkpt>
      <trkpt lat="45.48382" lon="5.55822">
        <ele>622</ele>
        <time>2017-12-30T19:26:17Z</time>
      </trkpt>
      <trkpt lat="45.484" lon="5.55702">
        <ele>620.7</ele>
        <time>2017-12-30T19:27:06Z</time>
      </trkpt>
      <trkpt lat="45.484" lon="5.55702">
        <ele>620.7</ele>
        <time>2017-12-30T19:27:06Z</time>
      </trkpt>
      <trkpt lat="45.48461" lon="5.55581">
        <ele>618.5</ele>
        <time>2017-12-30T19:28:06Z</time>
      </trkpt>
      <trkpt lat="45.48461" lon="5.55581">
        <ele>618.5</ele>
        <time>2017-12-30T19:28:06Z</time>
      </trkpt>
      <trkpt lat="45.48463" lon="5.55573">
        <ele>618.4</ele>
        <time>2017-12-30T19:28:09Z</time>
      </trkpt>
      <trkpt lat="45.48466" lon="5.55564">
        <ele>618.2</ele>
        <time>2017-12-30T19:28:13Z</time>
      </trkpt>
      <trkpt lat="45.48468" lon="5.55555">
        <ele>618.1</ele>
        <time>2017-12-30T19:28:17Z</time>
      </trkpt>
      <trkpt lat="45.48472" lon="5.55546">
        <ele>617.9</ele>
        <time>2017-12-30T19:28:21Z</time>
      </trkpt>
      <trkpt lat="45.48475" lon="5.55537">
        <ele>617.7</ele>
        <time>2017-12-30T19:28:25Z</time>
      </trkpt>
      <trkpt lat="45.48478" lon="5.55528">
        <ele>617.6</ele>
        <time>2017-12-30T19:28:29Z</time>
      </trkpt>
      <trkpt lat="45.48481" lon="5.55519">
        <ele>617.4</ele>
        <time>2017-12-30T19:28:33Z</time>
      </trkpt>
      <trkpt lat="45.48484" lon="5.5551">
        <ele>617.2</ele>
        <time>2017-12-30T19:28:37Z</time>
      </trkpt>
      <trkpt lat="45.48487" lon="5.55501">
        <ele>617</ele>
        <time>2017-12-30T19:28:41Z</time>
      </trkpt>
      <trkpt lat="45.48489" lon="5.55493">
        <ele>616.6</ele>
        <time>2017-12-30T19:28:44Z</time>
      </trkpt>
      <trkpt lat="45.48491" lon="5.55485">
        <ele>616.3</ele>
        <time>2017-12-30T19:28:48Z</time>
      </trkpt>
      <trkpt lat="45.48493" lon="5.55477">
        <ele>615.9</ele>
        <time>2017-12-30T19:28:51Z</time>
      </trkpt>
      <trkpt lat="45.48495" lon="5.5547">
        <ele>615.5</ele>
        <time>2017-12-30T19:28:54Z</time>
      </trkpt>
      <trkpt lat="45.48498" lon="5.55464">
        <ele>615.2</ele>
        <time>2017-12-30T19:28:57Z</time>
      </trkpt>
      <trkpt lat="45.485" lon="5.55457">
        <ele>614.9</ele>
        <time>2017-12-30T19:29:00Z</time>
      </trkpt>
      <trkpt lat="45.48503" lon="5.55451">
        <ele>614.8</ele>
        <time>2017-12-30T19:29:03Z</time>
      </trkpt>
      <trkpt lat="45.48506" lon="5.55445">
        <ele>614.8</ele>
        <time>2017-12-30T19:29:06Z</time>
      </trkpt>
      <trkpt lat="45.4851" lon="5.55439">
        <ele>614.8</ele>
        <time>2017-12-30T19:29:10Z</time>
      </trkpt>
      <trkpt lat="45.48513" lon="5.55435">
        <ele>614.8</ele>
        <time>2017-12-30T19:29:12Z</time>
      </trkpt>
      <trkpt lat="45.48517" lon="5.55431">
        <ele>615</ele>
        <time>2017-12-30T19:29:15Z</time>
      </trkpt>
      <trkpt lat="45.48524" lon="5.55424">
        <ele>615.3</ele>
        <time>2017-12-30T19:29:20Z</time>
      </trkpt>
      <trkpt lat="45.48531" lon="5.55418">
        <ele>615.6</ele>
        <time>2017-12-30T19:29:24Z</time>
      </trkpt>
      <trkpt lat="45.48538" lon="5.55412">
        <ele>615.9</ele>
        <time>2017-12-30T19:29:29Z</time>
      </trkpt>
      <trkpt lat="45.48543" lon="5.55409">
        <ele>616.2</ele>
        <time>2017-12-30T19:29:32Z</time>
      </trkpt>
      <trkpt lat="45.48548" lon="5.55406">
        <ele>616.4</ele>
        <time>2017-12-30T19:29:35Z</time>
      </trkpt>
      <trkpt lat="45.48553" lon="5.55402">
        <ele>616.6</ele>
        <time>2017-12-30T19:29:38Z</time>
      </trkpt>
      <trkpt lat="45.48558" lon="5.55397">
        <ele>616.7</ele>
        <time>2017-12-30T19:29:42Z</time>
      </trkpt>
      <trkpt lat="45.48563" lon="5.55392">
        <ele>616.7</ele>
        <time>2017-12-30T19:29:45Z</time>
      </trkpt>
      <trkpt lat="45.48567" lon="5.55387">
        <ele>616.7</ele>
        <time>2017-12-30T19:29:48Z</time>
      </trkpt>
      <trkpt lat="45.48572" lon="5.55382">
        <ele>616.7</ele>
        <time>2017-12-30T19:29:52Z</time>
      </trkpt>
      <trkpt lat="45.48578" lon="5.55377">
        <ele>616.8</ele>
        <time>2017-12-30T19:29:56Z</time>
      </trkpt>
      <trkpt lat="45.48584" lon="5.55372">
        <ele>616.8</ele>
        <time>2017-12-30T19:30:00Z</time>
      </trkpt>
      <trkpt lat="45.4859" lon="5.55367">
        <ele>616.8</ele>
        <time>2017-12-30T19:30:04Z</time>
      </trkpt>
      <trkpt lat="45.48597" lon="5.55361">
        <ele>616.8</ele>
        <time>2017-12-30T19:30:08Z</time>
      </trkpt>
      <trkpt lat="45.48604" lon="5.55354">
        <ele>616.8</ele>
        <time>2017-12-30T19:30:13Z</time>
      </trkpt>
      <trkpt lat="45.48611" lon="5.55348">
        <ele>616.9</ele>
        <time>2017-12-30T19:30:18Z</time>
      </trkpt>
      <trkpt lat="45.48619" lon="5.55341">
        <ele>617</ele>
        <time>2017-12-30T19:30:23Z</time>
      </trkpt>
      <trkpt lat="45.48627" lon="5.55334">
        <ele>617.2</ele>
        <time>2017-12-30T19:30:29Z</time>
      </trkpt>
      <trkpt lat="45.48634" lon="5.55327">
        <ele>617</ele>
        <time>2017-12-30T19:30:34Z</time>
      </trkpt>
      <trkpt lat="45.48641" lon="5.55319">
        <ele>616.6</ele>
        <time>2017-12-30T19:30:39Z</time>
      </trkpt>
      <trkpt lat="45.48646" lon="5.55309">
        <ele>615.9</ele>
        <time>2017-12-30T19:30:44Z</time>
      </trkpt>
      <trkpt lat="45.48652" lon="5.55299">
        <ele>615.3</ele>
        <time>2017-12-30T19:30:49Z</time>
      </trkpt>
      <trkpt lat="45.48656" lon="5.55289">
        <ele>614.5</ele>
        <time>2017-12-30T19:30:54Z</time>
      </trkpt>
      <trkpt lat="45.4866" lon="5.55279">
        <ele>613.7</ele>
        <time>2017-12-30T19:30:58Z</time>
      </trkpt>
      <trkpt lat="45.48664" lon="5.5527">
        <ele>612.9</ele>
        <time>2017-12-30T19:31:02Z</time>
      </trkpt>
      <trkpt lat="45.48667" lon="5.55262">
        <ele>612.3</ele>
        <time>2017-12-30T19:31:06Z</time>
      </trkpt>
      <trkpt lat="45.4867" lon="5.55254">
        <ele>611.7</ele>
        <time>2017-12-30T19:31:10Z</time>
      </trkpt>
      <trkpt lat="45.48672" lon="5.55247">
        <ele>611.3</ele>
        <time>2017-12-30T19:31:13Z</time>
      </trkpt>
      <trkpt lat="45.48675" lon="5.5524">
        <ele>611</ele>
        <time>2017-12-30T19:31:16Z</time>
      </trkpt>
      <trkpt lat="45.48679" lon="5.55234">
        <ele>610.8</ele>
        <time>2017-12-30T19:31:19Z</time>
      </trkpt>
      <trkpt lat="45.48683" lon="5.55228">
        <ele>610.6</ele>
        <time>2017-12-30T19:31:23Z</time>
      </trkpt>
      <trkpt lat="45.48689" lon="5.55223">
        <ele>610.7</ele>
        <time>2017-12-30T19:31:27Z</time>
      </trkpt>
      <trkpt lat="45.48695" lon="5.55219">
        <ele>610.8</ele>
        <time>2017-12-30T19:31:30Z</time>
      </trkpt>
      <trkpt lat="45.48702" lon="5.55215">
        <ele>610.9</ele>
        <time>2017-12-30T19:31:35Z</time>
      </trkpt>
      <trkpt lat="45.48709" lon="5.55211">
        <ele>611.1</ele>
        <time>2017-12-30T19:31:39Z</time>
      </trkpt>
      <trkpt lat="45.48716" lon="5.55207">
        <ele>611.1</ele>
        <time>2017-12-30T19:31:43Z</time>
      </trkpt>
      <trkpt lat="45.48723" lon="5.55203">
        <ele>611.2</ele>
        <time>2017-12-30T19:31:48Z</time>
      </trkpt>
      <trkpt lat="45.48729" lon="5.55198">
        <ele>611</ele>
        <time>2017-12-30T19:31:52Z</time>
      </trkpt>
      <trkpt lat="45.48735" lon="5.55192">
        <ele>610.6</ele>
        <time>2017-12-30T19:31:56Z</time>
      </trkpt>
      <trkpt lat="45.48739" lon="5.55186">
        <ele>610</ele>
        <time>2017-12-30T19:31:59Z</time>
      </trkpt>
      <trkpt lat="45.48745" lon="5.55178">
        <ele>609.3</ele>
        <time>2017-12-30T19:32:04Z</time>
      </trkpt>
      <trkpt lat="45.48751" lon="5.5517">
        <ele>608.4</ele>
        <time>2017-12-30T19:32:09Z</time>
      </trkpt>
      <trkpt lat="45.48758" lon="5.55162">
        <ele>608.2</ele>
        <time>2017-12-30T19:32:14Z</time>
      </trkpt>
      <trkpt lat="45.48765" lon="5.55156">
        <ele>608.5</ele>
        <time>2017-12-30T19:32:18Z</time>
      </trkpt>
      <trkpt lat="45.48772" lon="5.55148">
        <ele>608.9</ele>
        <time>2017-12-30T19:32:24Z</time>
      </trkpt>
      <trkpt lat="45.48782" lon="5.55141">
        <ele>609.6</ele>
        <time>2017-12-30T19:32:30Z</time>
      </trkpt>
      <trkpt lat="45.48789" lon="5.55134">
        <ele>610.3</ele>
        <time>2017-12-30T19:32:35Z</time>
      </trkpt>
      <trkpt lat="45.48792" lon="5.55129">
        <ele>610.7</ele>
        <time>2017-12-30T19:32:37Z</time>
      </trkpt>
      <trkpt lat="45.48797" lon="5.55123">
        <ele>611.3</ele>
        <time>2017-12-30T19:32:41Z</time>
      </trkpt>
      <trkpt lat="45.48802" lon="5.55117">
        <ele>612.1</ele>
        <time>2017-12-30T19:32:45Z</time>
      </trkpt>
      <trkpt lat="45.48806" lon="5.55108">
        <ele>612.9</ele>
        <time>2017-12-30T19:32:49Z</time>
      </trkpt>
      <trkpt lat="45.48807" lon="5.55101">
        <ele>613.4</ele>
        <time>2017-12-30T19:32:52Z</time>
      </trkpt>
      <trkpt lat="45.48807" lon="5.55089">
        <ele>614</ele>
        <time>2017-12-30T19:32:57Z</time>
      </trkpt>
      <trkpt lat="45.48806" lon="5.55079">
        <ele>614.7</ele>
        <time>2017-12-30T19:33:01Z</time>
      </trkpt>
      <trkpt lat="45.48804" lon="5.55068">
        <ele>615.8</ele>
        <time>2017-12-30T19:33:05Z</time>
      </trkpt>
      <trkpt lat="45.48802" lon="5.55057">
        <ele>617</ele>
        <time>2017-12-30T19:33:10Z</time>
      </trkpt>
      <trkpt lat="45.48805" lon="5.55047">
        <ele>618.6</ele>
        <time>2017-12-30T19:33:14Z</time>
      </trkpt>
      <trkpt lat="45.48809" lon="5.55037">
        <ele>620.4</ele>
        <time>2017-12-30T19:33:19Z</time>
      </trkpt>
      <trkpt lat="45.48813" lon="5.55028">
        <ele>622.1</ele>
        <time>2017-12-30T19:33:23Z</time>
      </trkpt>
      <trkpt lat="45.48816" lon="5.55023">
        <ele>623.1</ele>
        <time>2017-12-30T19:33:26Z</time>
      </trkpt>
      <trkpt lat="45.48821" lon="5.55019">
        <ele>624.2</ele>
        <time>2017-12-30T19:33:29Z</time>
      </trkpt>
      <trkpt lat="45.48825" lon="5.55013">
        <ele>625.5</ele>
        <time>2017-12-30T19:33:32Z</time>
      </trkpt>
      <trkpt lat="45.48828" lon="5.55004">
        <ele>626.9</ele>
        <time>2017-12-30T19:33:36Z</time>
      </trkpt>
      <trkpt lat="45.48832" lon="5.54997">
        <ele>628.2</ele>
        <time>2017-12-30T19:33:40Z</time>
      </trkpt>
      <trkpt lat="45.48834" lon="5.54986">
        <ele>629.5</ele>
        <time>2017-12-30T19:33:45Z</time>
      </trkpt>
      <trkpt lat="45.48834" lon="5.54976">
        <ele>630.4</ele>
        <time>2017-12-30T19:33:49Z</time>
      </trkpt>
      <trkpt lat="45.48835" lon="5.54965">
        <ele>631.6</ele>
        <time>2017-12-30T19:33:53Z</time>
      </trkpt>
      <trkpt lat="45.48835" lon="5.54954">
        <ele>632.6</ele>
        <time>2017-12-30T19:33:58Z</time>
      </trkpt>
      <trkpt lat="45.48839" lon="5.54944">
        <ele>633.9</ele>
        <time>2017-12-30T19:34:02Z</time>
      </trkpt>
      <trkpt lat="45.48838" lon="5.54933">
        <ele>634.8</ele>
        <time>2017-12-30T19:34:07Z</time>
      </trkpt>
      <trkpt lat="45.48838" lon="5.54928">
        <ele>635.3</ele>
        <time>2017-12-30T19:34:09Z</time>
      </trkpt>
      <trkpt lat="45.48838" lon="5.54911">
        <ele>636.3</ele>
        <time>2017-12-30T19:34:15Z</time>
      </trkpt>
      <trkpt lat="45.48838" lon="5.54899">
        <ele>636.3</ele>
        <time>2017-12-30T19:34:20Z</time>
      </trkpt>
      <trkpt lat="45.48838" lon="5.54887">
        <ele>636.3</ele>
        <time>2017-12-30T19:34:25Z</time>
      </trkpt>
      <trkpt lat="45.48838" lon="5.54881">
        <ele>636.3</ele>
        <time>2017-12-30T19:34:27Z</time>
      </trkpt>
      <trkpt lat="45.48837" lon="5.54874">
        <ele>636.2</ele>
        <time>2017-12-30T19:34:30Z</time>
      </trkpt>
      <trkpt lat="45.48837" lon="5.54868">
        <ele>636.2</ele>
        <time>2017-12-30T19:34:33Z</time>
      </trkpt>
      <trkpt lat="45.48836" lon="5.54861">
        <ele>636.2</ele>
        <time>2017-12-30T19:34:36Z</time>
      </trkpt>
      <trkpt lat="45.48835" lon="5.54854">
        <ele>636.1</ele>
        <time>2017-12-30T19:34:38Z</time>
      </trkpt>
      <trkpt lat="45.48837" lon="5.54842">
        <ele>636.2</ele>
        <time>2017-12-30T19:34:43Z</time>
      </trkpt>
      <trkpt lat="45.48838" lon="5.54831">
        <ele>636.1</ele>
        <time>2017-12-30T19:34:48Z</time>
      </trkpt>
      <trkpt lat="45.48841" lon="5.54821">
        <ele>635.5</ele>
        <time>2017-12-30T19:34:52Z</time>
      </trkpt>
      <trkpt lat="45.48843" lon="5.5481">
        <ele>634.9</ele>
        <time>2017-12-30T19:34:57Z</time>
      </trkpt>
      <trkpt lat="45.48844" lon="5.54801">
        <ele>634.3</ele>
        <time>2017-12-30T19:35:00Z</time>
      </trkpt>
      <trkpt lat="45.48843" lon="5.54792">
        <ele>633.5</ele>
        <time>2017-12-30T19:35:04Z</time>
      </trkpt>
      <trkpt lat="45.48843" lon="5.54784">
        <ele>633</ele>
        <time>2017-12-30T19:35:07Z</time>
      </trkpt>
      <trkpt lat="45.48843" lon="5.54775">
        <ele>632.3</ele>
        <time>2017-12-30T19:35:11Z</time>
      </trkpt>
      <trkpt lat="45.48842" lon="5.54765">
        <ele>631.4</ele>
        <time>2017-12-30T19:35:15Z</time>
      </trkpt>
      <trkpt lat="45.48843" lon="5.54754">
        <ele>630.8</ele>
        <time>2017-12-30T19:35:19Z</time>
      </trkpt>
      <trkpt lat="45.48842" lon="5.54748">
        <ele>630.3</ele>
        <time>2017-12-30T19:35:22Z</time>
      </trkpt>
      <trkpt lat="45.48843" lon="5.5474">
        <ele>630.1</ele>
        <time>2017-12-30T19:35:25Z</time>
      </trkpt>
      <trkpt lat="45.48844" lon="5.54733">
        <ele>630</ele>
        <time>2017-12-30T19:35:28Z</time>
      </trkpt>
      <trkpt lat="45.48846" lon="5.54726">
        <ele>630.1</ele>
        <time>2017-12-30T19:35:31Z</time>
      </trkpt>
      <trkpt lat="45.48847" lon="5.54719">
        <ele>630</ele>
        <time>2017-12-30T19:35:34Z</time>
      </trkpt>
      <trkpt lat="45.48849" lon="5.54712">
        <ele>630.1</ele>
        <time>2017-12-30T19:35:37Z</time>
      </trkpt>
      <trkpt lat="45.48851" lon="5.54701">
        <ele>630</ele>
        <time>2017-12-30T19:35:41Z</time>
      </trkpt>
      <trkpt lat="45.48852" lon="5.54689">
        <ele>629.7</ele>
        <time>2017-12-30T19:35:46Z</time>
      </trkpt>
      <trkpt lat="45.48852" lon="5.54678">
        <ele>629.3</ele>
        <time>2017-12-30T19:35:51Z</time>
      </trkpt>
      <trkpt lat="45.48852" lon="5.54669">
        <ele>629</ele>
        <time>2017-12-30T19:35:54Z</time>
      </trkpt>
      <trkpt lat="45.48851" lon="5.54659">
        <ele>628.7</ele>
        <time>2017-12-30T19:35:58Z</time>
      </trkpt>
      <trkpt lat="45.4885" lon="5.54648">
        <ele>628.5</ele>
        <time>2017-12-30T19:36:03Z</time>
      </trkpt>
      <trkpt lat="45.48849" lon="5.54636">
        <ele>628.3</ele>
        <time>2017-12-30T19:36:08Z</time>
      </trkpt>
      <trkpt lat="45.48849" lon="5.54624">
        <ele>628.2</ele>
        <time>2017-12-30T19:36:12Z</time>
      </trkpt>
      <trkpt lat="45.48849" lon="5.54614">
        <ele>628.1</ele>
        <time>2017-12-30T19:36:16Z</time>
      </trkpt>
      <trkpt lat="45.48854" lon="5.54604">
        <ele>628.5</ele>
        <time>2017-12-30T19:36:21Z</time>
      </trkpt>
      <trkpt lat="45.48859" lon="5.54597">
        <ele>628.8</ele>
        <time>2017-12-30T19:36:25Z</time>
      </trkpt>
      <trkpt lat="45.48862" lon="5.54593">
        <ele>628.9</ele>
        <time>2017-12-30T19:36:28Z</time>
      </trkpt>
      <trkpt lat="45.48872" lon="5.54585">
        <ele>629.4</ele>
        <time>2017-12-30T19:36:34Z</time>
      </trkpt>
      <trkpt lat="45.48879" lon="5.5458">
        <ele>629.5</ele>
        <time>2017-12-30T19:36:39Z</time>
      </trkpt>
      <trkpt lat="45.48886" lon="5.54579">
        <ele>629.9</ele>
        <time>2017-12-30T19:36:43Z</time>
      </trkpt>
      <trkpt lat="45.48893" lon="5.54581">
        <ele>630.4</ele>
        <time>2017-12-30T19:36:47Z</time>
      </trkpt>
      <trkpt lat="45.48899" lon="5.54583">
        <ele>630.9</ele>
        <time>2017-12-30T19:36:50Z</time>
      </trkpt>
      <trkpt lat="45.48906" lon="5.54587">
        <ele>631.6</ele>
        <time>2017-12-30T19:36:55Z</time>
      </trkpt>
      <trkpt lat="45.48913" lon="5.54592">
        <ele>632.4</ele>
        <time>2017-12-30T19:36:59Z</time>
      </trkpt>
      <trkpt lat="45.4892" lon="5.54597">
        <ele>633.3</ele>
        <time>2017-12-30T19:37:04Z</time>
      </trkpt>
      <trkpt lat="45.48927" lon="5.54602">
        <ele>634.2</ele>
        <time>2017-12-30T19:37:08Z</time>
      </trkpt>
      <trkpt lat="45.48934" lon="5.54605">
        <ele>634.9</ele>
        <time>2017-12-30T19:37:12Z</time>
      </trkpt>
      <trkpt lat="45.48941" lon="5.54605">
        <ele>635.4</ele>
        <time>2017-12-30T19:37:16Z</time>
      </trkpt>
      <trkpt lat="45.48947" lon="5.54602">
        <ele>635.5</ele>
        <time>2017-12-30T19:37:20Z</time>
      </trkpt>
      <trkpt lat="45.48955" lon="5.546">
        <ele>635.8</ele>
        <time>2017-12-30T19:37:25Z</time>
      </trkpt>
      <trkpt lat="45.48961" lon="5.54597">
        <ele>635.9</ele>
        <time>2017-12-30T19:37:28Z</time>
      </trkpt>
      <trkpt lat="45.48967" lon="5.54594">
        <ele>636</ele>
        <time>2017-12-30T19:37:32Z</time>
      </trkpt>
      <trkpt lat="45.48973" lon="5.54592">
        <ele>636.2</ele>
        <time>2017-12-30T19:37:35Z</time>
      </trkpt>
      <trkpt lat="45.4898" lon="5.5459">
        <ele>636.4</ele>
        <time>2017-12-30T19:37:39Z</time>
      </trkpt>
      <trkpt lat="45.48986" lon="5.54586">
        <ele>636.4</ele>
        <time>2017-12-30T19:37:43Z</time>
      </trkpt>
      <trkpt lat="45.48991" lon="5.54584">
        <ele>636.5</ele>
        <time>2017-12-30T19:37:46Z</time>
      </trkpt>
      <trkpt lat="45.48998" lon="5.54579">
        <ele>636.4</ele>
        <time>2017-12-30T19:37:51Z</time>
      </trkpt>
      <trkpt lat="45.49005" lon="5.54575">
        <ele>636.6</ele>
        <time>2017-12-30T19:37:55Z</time>
      </trkpt>
      <trkpt lat="45.49011" lon="5.54568">
        <ele>636.5</ele>
        <time>2017-12-30T19:37:59Z</time>
      </trkpt>
      <trkpt lat="45.49015" lon="5.5456">
        <ele>636</ele>
        <time>2017-12-30T19:38:03Z</time>
      </trkpt>
      <trkpt lat="45.49022" lon="5.54557">
        <ele>636.3</ele>
        <time>2017-12-30T19:38:08Z</time>
      </trkpt>
      <trkpt lat="45.49027" lon="5.54555">
        <ele>636.5</ele>
        <time>2017-12-30T19:38:11Z</time>
      </trkpt>
      <trkpt lat="45.49031" lon="5.54554">
        <ele>636.7</ele>
        <time>2017-12-30T19:38:13Z</time>
      </trkpt>
      <trkpt lat="45.49036" lon="5.54552">
        <ele>636.9</ele>
        <time>2017-12-30T19:38:16Z</time>
      </trkpt>
      <trkpt lat="45.49041" lon="5.54551">
        <ele>637.2</ele>
        <time>2017-12-30T19:38:19Z</time>
      </trkpt>
      <trkpt lat="45.49045" lon="5.5455">
        <ele>637.4</ele>
        <time>2017-12-30T19:38:21Z</time>
      </trkpt>
      <trkpt lat="45.4905" lon="5.5455">
        <ele>637.8</ele>
        <time>2017-12-30T19:38:24Z</time>
      </trkpt>
      <trkpt lat="45.49059" lon="5.54547">
        <ele>638.2</ele>
        <time>2017-12-30T19:38:29Z</time>
      </trkpt>
      <trkpt lat="45.49063" lon="5.54546">
        <ele>638.4</ele>
        <time>2017-12-30T19:38:31Z</time>
      </trkpt>
      <trkpt lat="45.49072" lon="5.54544">
        <ele>638.9</ele>
        <time>2017-12-30T19:38:37Z</time>
      </trkpt>
      <trkpt lat="45.49077" lon="5.54543">
        <ele>639.1</ele>
        <time>2017-12-30T19:38:40Z</time>
      </trkpt>
      <trkpt lat="45.49081" lon="5.54542">
        <ele>639.3</ele>
        <time>2017-12-30T19:38:42Z</time>
      </trkpt>
      <trkpt lat="45.49094" lon="5.54539">
        <ele>639.1</ele>
        <time>2017-12-30T19:38:49Z</time>
      </trkpt>
      <trkpt lat="45.49098" lon="5.54537">
        <ele>638.8</ele>
        <time>2017-12-30T19:38:52Z</time>
      </trkpt>
      <trkpt lat="45.49103" lon="5.54535">
        <ele>638.6</ele>
        <time>2017-12-30T19:38:55Z</time>
      </trkpt>
      <trkpt lat="45.49107" lon="5.54533">
        <ele>638.3</ele>
        <time>2017-12-30T19:38:57Z</time>
      </trkpt>
      <trkpt lat="45.49111" lon="5.5453">
        <ele>637.9</ele>
        <time>2017-12-30T19:39:00Z</time>
      </trkpt>
      <trkpt lat="45.49116" lon="5.54528">
        <ele>637.6</ele>
        <time>2017-12-30T19:39:03Z</time>
      </trkpt>
      <trkpt lat="45.49121" lon="5.54526">
        <ele>637.4</ele>
        <time>2017-12-30T19:39:06Z</time>
      </trkpt>
      <trkpt lat="45.49126" lon="5.54524">
        <ele>637.1</ele>
        <time>2017-12-30T19:39:09Z</time>
      </trkpt>
      <trkpt lat="45.49131" lon="5.54521">
        <ele>636.7</ele>
        <time>2017-12-30T19:39:12Z</time>
      </trkpt>
      <trkpt lat="45.49135" lon="5.54519">
        <ele>636.4</ele>
        <time>2017-12-30T19:39:14Z</time>
      </trkpt>
      <trkpt lat="45.4914" lon="5.54516">
        <ele>636.1</ele>
        <time>2017-12-30T19:39:17Z</time>
      </trkpt>
      <trkpt lat="45.49145" lon="5.54512">
        <ele>635.5</ele>
        <time>2017-12-30T19:39:21Z</time>
      </trkpt>
      <trkpt lat="45.4915" lon="5.5451">
        <ele>635.3</ele>
        <time>2017-12-30T19:39:24Z</time>
      </trkpt>
      <trkpt lat="45.49155" lon="5.54507">
        <ele>634.9</ele>
        <time>2017-12-30T19:39:27Z</time>
      </trkpt>
      <trkpt lat="45.4916" lon="5.54504">
        <ele>634.5</ele>
        <time>2017-12-30T19:39:30Z</time>
      </trkpt>
      <trkpt lat="45.49164" lon="5.545">
        <ele>634</ele>
        <time>2017-12-30T19:39:33Z</time>
      </trkpt>
      <trkpt lat="45.49169" lon="5.54497">
        <ele>633.7</ele>
        <time>2017-12-30T19:39:36Z</time>
      </trkpt>
      <trkpt lat="45.49173" lon="5.54494">
        <ele>633.3</ele>
        <time>2017-12-30T19:39:38Z</time>
      </trkpt>
      <trkpt lat="45.49177" lon="5.54491">
        <ele>633</ele>
        <time>2017-12-30T19:39:41Z</time>
      </trkpt>
      <trkpt lat="45.49185" lon="5.54486">
        <ele>632.4</ele>
        <time>2017-12-30T19:39:46Z</time>
      </trkpt>
      <trkpt lat="45.49192" lon="5.54482">
        <ele>631.8</ele>
        <time>2017-12-30T19:39:50Z</time>
      </trkpt>
      <trkpt lat="45.49198" lon="5.54472">
        <ele>630.5</ele>
        <time>2017-12-30T19:39:55Z</time>
      </trkpt>
      <trkpt lat="45.49194" lon="5.54463">
        <ele>629.5</ele>
        <time>2017-12-30T19:40:00Z</time>
      </trkpt>
      <trkpt lat="45.49191" lon="5.54458">
        <ele>629</ele>
        <time>2017-12-30T19:40:02Z</time>
      </trkpt>
      <trkpt lat="45.49188" lon="5.54454">
        <ele>628.7</ele>
        <time>2017-12-30T19:40:05Z</time>
      </trkpt>
      <trkpt lat="45.49184" lon="5.54449">
        <ele>628.3</ele>
        <time>2017-12-30T19:40:08Z</time>
      </trkpt>
      <trkpt lat="45.4918" lon="5.54444">
        <ele>627.9</ele>
        <time>2017-12-30T19:40:11Z</time>
      </trkpt>
      <trkpt lat="45.49175" lon="5.54438">
        <ele>627.5</ele>
        <time>2017-12-30T19:40:15Z</time>
      </trkpt>
      <trkpt lat="45.49171" lon="5.54433">
        <ele>627.3</ele>
        <time>2017-12-30T19:40:18Z</time>
      </trkpt>
      <trkpt lat="45.49166" lon="5.54428">
        <ele>627.1</ele>
        <time>2017-12-30T19:40:21Z</time>
      </trkpt>
      <trkpt lat="45.49161" lon="5.54424">
        <ele>626.8</ele>
        <time>2017-12-30T19:40:24Z</time>
      </trkpt>
      <trkpt lat="45.49157" lon="5.5442">
        <ele>626.5</ele>
        <time>2017-12-30T19:40:27Z</time>
      </trkpt>
      <trkpt lat="45.49151" lon="5.54416">
        <ele>626.4</ele>
        <time>2017-12-30T19:40:31Z</time>
      </trkpt>
      <trkpt lat="45.49146" lon="5.54413">
        <ele>626.4</ele>
        <time>2017-12-30T19:40:34Z</time>
      </trkpt>
      <trkpt lat="45.49141" lon="5.54409">
        <ele>626.5</ele>
        <time>2017-12-30T19:40:37Z</time>
      </trkpt>
      <trkpt lat="45.49136" lon="5.54406">
        <ele>626.6</ele>
        <time>2017-12-30T19:40:40Z</time>
      </trkpt>
      <trkpt lat="45.49132" lon="5.54403">
        <ele>626.7</ele>
        <time>2017-12-30T19:40:43Z</time>
      </trkpt>
      <trkpt lat="45.49127" lon="5.544">
        <ele>626.8</ele>
        <time>2017-12-30T19:40:46Z</time>
      </trkpt>
      <trkpt lat="45.49123" lon="5.54397">
        <ele>626.9</ele>
        <time>2017-12-30T19:40:49Z</time>
      </trkpt>
      <trkpt lat="45.49118" lon="5.54395">
        <ele>627.1</ele>
        <time>2017-12-30T19:40:52Z</time>
      </trkpt>
      <trkpt lat="45.49113" lon="5.54393">
        <ele>627.3</ele>
        <time>2017-12-30T19:40:55Z</time>
      </trkpt>
      <trkpt lat="45.49108" lon="5.54392">
        <ele>627.4</ele>
        <time>2017-12-30T19:40:57Z</time>
      </trkpt>
      <trkpt lat="45.49102" lon="5.5439">
        <ele>627.7</ele>
        <time>2017-12-30T19:41:01Z</time>
      </trkpt>
      <trkpt lat="45.49097" lon="5.54389">
        <ele>627.8</ele>
        <time>2017-12-30T19:41:04Z</time>
      </trkpt>
      <trkpt lat="45.49092" lon="5.54387">
        <ele>628</ele>
        <time>2017-12-30T19:41:07Z</time>
      </trkpt>
      <trkpt lat="45.49087" lon="5.54385">
        <ele>628.2</ele>
        <time>2017-12-30T19:41:10Z</time>
      </trkpt>
      <trkpt lat="45.49081" lon="5.54383">
        <ele>628.4</ele>
        <time>2017-12-30T19:41:13Z</time>
      </trkpt>
      <trkpt lat="45.49076" lon="5.5438">
        <ele>628.6</ele>
        <time>2017-12-30T19:41:16Z</time>
      </trkpt>
      <trkpt lat="45.49072" lon="5.54377">
        <ele>628.7</ele>
        <time>2017-12-30T19:41:19Z</time>
      </trkpt>
      <trkpt lat="45.49067" lon="5.54374">
        <ele>628.8</ele>
        <time>2017-12-30T19:41:22Z</time>
      </trkpt>
      <trkpt lat="45.49062" lon="5.54371">
        <ele>628.9</ele>
        <time>2017-12-30T19:41:25Z</time>
      </trkpt>
      <trkpt lat="45.49058" lon="5.54367">
        <ele>629.1</ele>
        <time>2017-12-30T19:41:28Z</time>
      </trkpt>
      <trkpt lat="45.49054" lon="5.54363">
        <ele>629.2</ele>
        <time>2017-12-30T19:41:31Z</time>
      </trkpt>
      <trkpt lat="45.4905" lon="5.54359">
        <ele>629.4</ele>
        <time>2017-12-30T19:41:34Z</time>
      </trkpt>
      <trkpt lat="45.49046" lon="5.54355">
        <ele>629.5</ele>
        <time>2017-12-30T19:41:36Z</time>
      </trkpt>
      <trkpt lat="45.49043" lon="5.54351">
        <ele>629.7</ele>
        <time>2017-12-30T19:41:39Z</time>
      </trkpt>
      <trkpt lat="45.49039" lon="5.54347">
        <ele>629.8</ele>
        <time>2017-12-30T19:41:42Z</time>
      </trkpt>
      <trkpt lat="45.49035" lon="5.54343">
        <ele>630</ele>
        <time>2017-12-30T19:41:44Z</time>
      </trkpt>
      <trkpt lat="45.4903" lon="5.54339">
        <ele>630.2</ele>
        <time>2017-12-30T19:41:48Z</time>
      </trkpt>
      <trkpt lat="45.49027" lon="5.54335">
        <ele>630.3</ele>
        <time>2017-12-30T19:41:50Z</time>
      </trkpt>
      <trkpt lat="45.49023" lon="5.54331">
        <ele>630.6</ele>
        <time>2017-12-30T19:41:53Z</time>
      </trkpt>
      <trkpt lat="45.49018" lon="5.54327">
        <ele>631</ele>
        <time>2017-12-30T19:41:56Z</time>
      </trkpt>
      <trkpt lat="45.49013" lon="5.54323">
        <ele>631.4</ele>
        <time>2017-12-30T19:41:59Z</time>
      </trkpt>
      <trkpt lat="45.49009" lon="5.5432">
        <ele>631.6</ele>
        <time>2017-12-30T19:42:02Z</time>
      </trkpt>
      <trkpt lat="45.49004" lon="5.54316">
        <ele>632</ele>
        <time>2017-12-30T19:42:05Z</time>
      </trkpt>
      <trkpt lat="45.48999" lon="5.54312">
        <ele>632.3</ele>
        <time>2017-12-30T19:42:08Z</time>
      </trkpt>
      <trkpt lat="45.48994" lon="5.54309">
        <ele>632.6</ele>
        <time>2017-12-30T19:42:12Z</time>
      </trkpt>
      <trkpt lat="45.48994" lon="5.54309">
        <ele>632.6</ele>
        <time>2017-12-30T19:42:12Z</time>
      </trkpt>
      <trkpt lat="45.48989" lon="5.54305">
        <ele>632.9</ele>
        <time>2017-12-30T19:42:15Z</time>
      </trkpt>
      <trkpt lat="45.48984" lon="5.54301">
        <ele>633.1</ele>
        <time>2017-12-30T19:42:18Z</time>
      </trkpt>
      <trkpt lat="45.48978" lon="5.54298">
        <ele>633.3</ele>
        <time>2017-12-30T19:42:22Z</time>
      </trkpt>
      <trkpt lat="45.48972" lon="5.54295">
        <ele>633.5</ele>
        <time>2017-12-30T19:42:25Z</time>
      </trkpt>
      <trkpt lat="45.48966" lon="5.54292">
        <ele>633.7</ele>
        <time>2017-12-30T19:42:29Z</time>
      </trkpt>
      <trkpt lat="45.48959" lon="5.54289">
        <ele>633.9</ele>
        <time>2017-12-30T19:42:33Z</time>
      </trkpt>
      <trkpt lat="45.48953" lon="5.54286">
        <ele>634</ele>
        <time>2017-12-30T19:42:37Z</time>
      </trkpt>
      <trkpt lat="45.48946" lon="5.54283">
        <ele>634.2</ele>
        <time>2017-12-30T19:42:41Z</time>
      </trkpt>
      <trkpt lat="45.4894" lon="5.54281">
        <ele>634.2</ele>
        <time>2017-12-30T19:42:45Z</time>
      </trkpt>
      <trkpt lat="45.48933" lon="5.54279">
        <ele>634.3</ele>
        <time>2017-12-30T19:42:49Z</time>
      </trkpt>
      <trkpt lat="45.48926" lon="5.54277">
        <ele>634.4</ele>
        <time>2017-12-30T19:42:53Z</time>
      </trkpt>
      <trkpt lat="45.48921" lon="5.54271">
        <ele>634.5</ele>
        <time>2017-12-30T19:42:56Z</time>
      </trkpt>
      <trkpt lat="45.48919" lon="5.54264">
        <ele>634.7</ele>
        <time>2017-12-30T19:42:59Z</time>
      </trkpt>
      <trkpt lat="45.48919" lon="5.54257">
        <ele>634.9</ele>
        <time>2017-12-30T19:43:02Z</time>
      </trkpt>
      <trkpt lat="45.4892" lon="5.54249">
        <ele>635.1</ele>
        <time>2017-12-30T19:43:06Z</time>
      </trkpt>
      <trkpt lat="45.48922" lon="5.54241">
        <ele>635.3</ele>
        <time>2017-12-30T19:43:09Z</time>
      </trkpt>
      <trkpt lat="45.48924" lon="5.54233">
        <ele>635.6</ele>
        <time>2017-12-30T19:43:12Z</time>
      </trkpt>
      <trkpt lat="45.48926" lon="5.54224">
        <ele>635.9</ele>
        <time>2017-12-30T19:43:16Z</time>
      </trkpt>
      <trkpt lat="45.48928" lon="5.54215">
        <ele>636.2</ele>
        <time>2017-12-30T19:43:20Z</time>
      </trkpt>
      <trkpt lat="45.4893" lon="5.54207">
        <ele>636.5</ele>
        <time>2017-12-30T19:43:23Z</time>
      </trkpt>
      <trkpt lat="45.48931" lon="5.54199">
        <ele>636.7</ele>
        <time>2017-12-30T19:43:27Z</time>
      </trkpt>
      <trkpt lat="45.48932" lon="5.54191">
        <ele>637</ele>
        <time>2017-12-30T19:43:30Z</time>
      </trkpt>
      <trkpt lat="45.48934" lon="5.54183">
        <ele>637.3</ele>
        <time>2017-12-30T19:43:33Z</time>
      </trkpt>
      <trkpt lat="45.48935" lon="5.54175">
        <ele>637.6</ele>
        <time>2017-12-30T19:43:37Z</time>
      </trkpt>
      <trkpt lat="45.48937" lon="5.54167">
        <ele>638</ele>
        <time>2017-12-30T19:43:40Z</time>
      </trkpt>
      <trkpt lat="45.48938" lon="5.54159">
        <ele>638.3</ele>
        <time>2017-12-30T19:43:43Z</time>
      </trkpt>
      <trkpt lat="45.4894" lon="5.54151">
        <ele>638.7</ele>
        <time>2017-12-30T19:43:47Z</time>
      </trkpt>
      <trkpt lat="45.48941" lon="5.54143">
        <ele>639</ele>
        <time>2017-12-30T19:43:50Z</time>
      </trkpt>
      <trkpt lat="45.48942" lon="5.54135">
        <ele>639.4</ele>
        <time>2017-12-30T19:43:53Z</time>
      </trkpt>
      <trkpt lat="45.48944" lon="5.54128">
        <ele>639.7</ele>
        <time>2017-12-30T19:43:56Z</time>
      </trkpt>
      <trkpt lat="45.48945" lon="5.5412">
        <ele>640.1</ele>
        <time>2017-12-30T19:43:59Z</time>
      </trkpt>
      <trkpt lat="45.48947" lon="5.54113">
        <ele>640.4</ele>
        <time>2017-12-30T19:44:02Z</time>
      </trkpt>
      <trkpt lat="45.48948" lon="5.54107">
        <ele>640.7</ele>
        <time>2017-12-30T19:44:05Z</time>
      </trkpt>
      <trkpt lat="45.48949" lon="5.541">
        <ele>641</ele>
        <time>2017-12-30T19:44:08Z</time>
      </trkpt>
      <trkpt lat="45.48952" lon="5.54088">
        <ele>641.5</ele>
        <time>2017-12-30T19:44:13Z</time>
      </trkpt>
      <trkpt lat="45.48954" lon="5.54077">
        <ele>641.7</ele>
        <time>2017-12-30T19:44:17Z</time>
      </trkpt>
      <trkpt lat="45.48957" lon="5.54065">
        <ele>641.7</ele>
        <time>2017-12-30T19:44:23Z</time>
      </trkpt>
      <trkpt lat="45.4896" lon="5.54054">
        <ele>641.7</ele>
        <time>2017-12-30T19:44:27Z</time>
      </trkpt>
      <trkpt lat="45.48964" lon="5.54043">
        <ele>641.7</ele>
        <time>2017-12-30T19:44:32Z</time>
      </trkpt>
      <trkpt lat="45.48968" lon="5.54033">
        <ele>641.7</ele>
        <time>2017-12-30T19:44:37Z</time>
      </trkpt>
      <trkpt lat="45.48972" lon="5.54024">
        <ele>641.7</ele>
        <time>2017-12-30T19:44:41Z</time>
      </trkpt>
      <trkpt lat="45.48974" lon="5.5402">
        <ele>641.7</ele>
        <time>2017-12-30T19:44:43Z</time>
      </trkpt>
      <trkpt lat="45.48975" lon="5.54007">
        <ele>641.5</ele>
        <time>2017-12-30T19:44:48Z</time>
      </trkpt>
      <trkpt lat="45.48972" lon="5.53998">
        <ele>641.2</ele>
        <time>2017-12-30T19:44:52Z</time>
      </trkpt>
      <trkpt lat="45.48967" lon="5.53989">
        <ele>640.4</ele>
        <time>2017-12-30T19:44:57Z</time>
      </trkpt>
      <trkpt lat="45.48961" lon="5.5398">
        <ele>639.7</ele>
        <time>2017-12-30T19:45:02Z</time>
      </trkpt>
      <trkpt lat="45.48956" lon="5.53971">
        <ele>639</ele>
        <time>2017-12-30T19:45:06Z</time>
      </trkpt>
      <trkpt lat="45.4895" lon="5.53962">
        <ele>638.4</ele>
        <time>2017-12-30T19:45:11Z</time>
      </trkpt>
      <trkpt lat="45.48946" lon="5.53957">
        <ele>638.1</ele>
        <time>2017-12-30T19:45:14Z</time>
      </trkpt>
      <trkpt lat="45.4894" lon="5.53947">
        <ele>637.5</ele>
        <time>2017-12-30T19:45:20Z</time>
      </trkpt>
      <trkpt lat="45.48935" lon="5.53937">
        <ele>636.9</ele>
        <time>2017-12-30T19:45:25Z</time>
      </trkpt>
      <trkpt lat="45.48931" lon="5.53927">
        <ele>636.4</ele>
        <time>2017-12-30T19:45:29Z</time>
      </trkpt>
      <trkpt lat="45.48926" lon="5.53916">
        <ele>635.8</ele>
        <time>2017-12-30T19:45:35Z</time>
      </trkpt>
      <trkpt lat="45.48922" lon="5.53906">
        <ele>634.9</ele>
        <time>2017-12-30T19:45:39Z</time>
      </trkpt>
      <trkpt lat="45.48917" lon="5.53896">
        <ele>634.2</ele>
        <time>2017-12-30T19:45:44Z</time>
      </trkpt>
      <trkpt lat="45.48914" lon="5.53886">
        <ele>633.6</ele>
        <time>2017-12-30T19:45:48Z</time>
      </trkpt>
      <trkpt lat="45.4891" lon="5.53876">
        <ele>633.2</ele>
        <time>2017-12-30T19:45:53Z</time>
      </trkpt>
      <trkpt lat="45.48905" lon="5.53866">
        <ele>632.9</ele>
        <time>2017-12-30T19:45:58Z</time>
      </trkpt>
      <trkpt lat="45.48899" lon="5.53859">
        <ele>633.1</ele>
        <time>2017-12-30T19:46:02Z</time>
      </trkpt>
      <trkpt lat="45.48892" lon="5.53851">
        <ele>633.3</ele>
        <time>2017-12-30T19:46:08Z</time>
      </trkpt>
      <trkpt lat="45.48885" lon="5.53843">
        <ele>633.7</ele>
        <time>2017-12-30T19:46:13Z</time>
      </trkpt>
      <trkpt lat="45.48882" lon="5.53839">
        <ele>633.8</ele>
        <time>2017-12-30T19:46:15Z</time>
      </trkpt>
      <trkpt lat="45.48878" lon="5.53835">
        <ele>634.2</ele>
        <time>2017-12-30T19:46:18Z</time>
      </trkpt>
      <trkpt lat="45.48875" lon="5.53831">
        <ele>634.3</ele>
        <time>2017-12-30T19:46:20Z</time>
      </trkpt>
      <trkpt lat="45.48871" lon="5.53826">
        <ele>634.6</ele>
        <time>2017-12-30T19:46:23Z</time>
      </trkpt>
      <trkpt lat="45.48868" lon="5.53822">
        <ele>634.7</ele>
        <time>2017-12-30T19:46:26Z</time>
      </trkpt>
      <trkpt lat="45.48864" lon="5.53817">
        <ele>635</ele>
        <time>2017-12-30T19:46:29Z</time>
      </trkpt>
      <trkpt lat="45.4886" lon="5.53813">
        <ele>635.3</ele>
        <time>2017-12-30T19:46:31Z</time>
      </trkpt>
      <trkpt lat="45.48856" lon="5.53809">
        <ele>635.6</ele>
        <time>2017-12-30T19:46:34Z</time>
      </trkpt>
      <trkpt lat="45.48852" lon="5.53805">
        <ele>636</ele>
        <time>2017-12-30T19:46:37Z</time>
      </trkpt>
      <trkpt lat="45.48848" lon="5.53801">
        <ele>636.3</ele>
        <time>2017-12-30T19:46:40Z</time>
      </trkpt>
      <trkpt lat="45.48844" lon="5.53798">
        <ele>636.8</ele>
        <time>2017-12-30T19:46:42Z</time>
      </trkpt>
      <trkpt lat="45.4884" lon="5.53794">
        <ele>637.1</ele>
        <time>2017-12-30T19:46:45Z</time>
      </trkpt>
      <trkpt lat="45.48836" lon="5.5379">
        <ele>637.5</ele>
        <time>2017-12-30T19:46:48Z</time>
      </trkpt>
      <trkpt lat="45.48833" lon="5.53786">
        <ele>637.7</ele>
        <time>2017-12-30T19:46:50Z</time>
      </trkpt>
      <trkpt lat="45.4883" lon="5.5378">
        <ele>637.6</ele>
        <time>2017-12-30T19:46:53Z</time>
      </trkpt>
      <trkpt lat="45.48827" lon="5.53774">
        <ele>637.6</ele>
        <time>2017-12-30T19:46:56Z</time>
      </trkpt>
      <trkpt lat="45.48824" lon="5.53768">
        <ele>637.5</ele>
        <time>2017-12-30T19:46:59Z</time>
      </trkpt>
      <trkpt lat="45.48821" lon="5.53762">
        <ele>637.4</ele>
        <time>2017-12-30T19:47:02Z</time>
      </trkpt>
      <trkpt lat="45.48818" lon="5.53757">
        <ele>637.4</ele>
        <time>2017-12-30T19:47:05Z</time>
      </trkpt>
      <trkpt lat="45.48814" lon="5.53751">
        <ele>637.4</ele>
        <time>2017-12-30T19:47:08Z</time>
      </trkpt>
      <trkpt lat="45.48811" lon="5.53746">
        <ele>637.3</ele>
        <time>2017-12-30T19:47:11Z</time>
      </trkpt>
      <trkpt lat="45.48807" lon="5.5374">
        <ele>637.3</ele>
        <time>2017-12-30T19:47:14Z</time>
      </trkpt>
      <trkpt lat="45.48804" lon="5.53735">
        <ele>637.2</ele>
        <time>2017-12-30T19:47:17Z</time>
      </trkpt>
      <trkpt lat="45.488" lon="5.5373">
        <ele>637.3</ele>
        <time>2017-12-30T19:47:20Z</time>
      </trkpt>
      <trkpt lat="45.48797" lon="5.53725">
        <ele>637.2</ele>
        <time>2017-12-30T19:47:22Z</time>
      </trkpt>
      <trkpt lat="45.48794" lon="5.5372">
        <ele>637.2</ele>
        <time>2017-12-30T19:47:25Z</time>
      </trkpt>
      <trkpt lat="45.4879" lon="5.53715">
        <ele>637.2</ele>
        <time>2017-12-30T19:47:28Z</time>
      </trkpt>
      <trkpt lat="45.48786" lon="5.5371">
        <ele>637.2</ele>
        <time>2017-12-30T19:47:31Z</time>
      </trkpt>
      <trkpt lat="45.48782" lon="5.53705">
        <ele>637.3</ele>
        <time>2017-12-30T19:47:34Z</time>
      </trkpt>
      <trkpt lat="45.48778" lon="5.53699">
        <ele>637.3</ele>
        <time>2017-12-30T19:47:37Z</time>
      </trkpt>
      <trkpt lat="45.48775" lon="5.53694">
        <ele>637.3</ele>
        <time>2017-12-30T19:47:40Z</time>
      </trkpt>
      <trkpt lat="45.48771" lon="5.53689">
        <ele>637.3</ele>
        <time>2017-12-30T19:47:43Z</time>
      </trkpt>
      <trkpt lat="45.48768" lon="5.53684">
        <ele>637.3</ele>
        <time>2017-12-30T19:47:46Z</time>
      </trkpt>
      <trkpt lat="45.48765" lon="5.53679">
        <ele>637.3</ele>
        <time>2017-12-30T19:47:48Z</time>
      </trkpt>
      <trkpt lat="45.48761" lon="5.53673">
        <ele>637.4</ele>
        <time>2017-12-30T19:47:52Z</time>
      </trkpt>
      <trkpt lat="45.48758" lon="5.53668">
        <ele>637.4</ele>
        <time>2017-12-30T19:47:54Z</time>
      </trkpt>
      <trkpt lat="45.48754" lon="5.53664">
        <ele>637.5</ele>
        <time>2017-12-30T19:47:57Z</time>
      </trkpt>
      <trkpt lat="45.4875" lon="5.5366">
        <ele>637.7</ele>
        <time>2017-12-30T19:48:00Z</time>
      </trkpt>
      <trkpt lat="45.48743" lon="5.53653">
        <ele>637.8</ele>
        <time>2017-12-30T19:48:05Z</time>
      </trkpt>
      <trkpt lat="45.4874" lon="5.53649">
        <ele>637.8</ele>
        <time>2017-12-30T19:48:07Z</time>
      </trkpt>
      <trkpt lat="45.48736" lon="5.53645">
        <ele>637.9</ele>
        <time>2017-12-30T19:48:10Z</time>
      </trkpt>
      <trkpt lat="45.48732" lon="5.53641">
        <ele>638</ele>
        <time>2017-12-30T19:48:13Z</time>
      </trkpt>
      <trkpt lat="45.48727" lon="5.53636">
        <ele>638.1</ele>
        <time>2017-12-30T19:48:16Z</time>
      </trkpt>
      <trkpt lat="45.48723" lon="5.53632">
        <ele>638.2</ele>
        <time>2017-12-30T19:48:19Z</time>
      </trkpt>
      <trkpt lat="45.4872" lon="5.53627">
        <ele>638.2</ele>
        <time>2017-12-30T19:48:22Z</time>
      </trkpt>
      <trkpt lat="45.48717" lon="5.53621">
        <ele>638.2</ele>
        <time>2017-12-30T19:48:25Z</time>
      </trkpt>
      <trkpt lat="45.48712" lon="5.53611">
        <ele>638.2</ele>
        <time>2017-12-30T19:48:30Z</time>
      </trkpt>
      <trkpt lat="45.48707" lon="5.53601">
        <ele>638.2</ele>
        <time>2017-12-30T19:48:34Z</time>
      </trkpt>
      <trkpt lat="45.48704" lon="5.53595">
        <ele>638.2</ele>
        <time>2017-12-30T19:48:37Z</time>
      </trkpt>
      <trkpt lat="45.48701" lon="5.5359">
        <ele>638.3</ele>
        <time>2017-12-30T19:48:40Z</time>
      </trkpt>
      <trkpt lat="45.48698" lon="5.53584">
        <ele>638.4</ele>
        <time>2017-12-30T19:48:43Z</time>
      </trkpt>
      <trkpt lat="45.48694" lon="5.53578">
        <ele>638.2</ele>
        <time>2017-12-30T19:48:46Z</time>
      </trkpt>
      <trkpt lat="45.4869" lon="5.53572">
        <ele>638</ele>
        <time>2017-12-30T19:48:50Z</time>
      </trkpt>
      <trkpt lat="45.48687" lon="5.53566">
        <ele>637.8</ele>
        <time>2017-12-30T19:48:53Z</time>
      </trkpt>
      <trkpt lat="45.48683" lon="5.53562">
        <ele>637.8</ele>
        <time>2017-12-30T19:48:55Z</time>
      </trkpt>
      <trkpt lat="45.4868" lon="5.53557">
        <ele>637.6</ele>
        <time>2017-12-30T19:48:58Z</time>
      </trkpt>
      <trkpt lat="45.48674" lon="5.53548">
        <ele>637.4</ele>
        <time>2017-12-30T19:49:03Z</time>
      </trkpt>
      <trkpt lat="45.48668" lon="5.5354">
        <ele>637.2</ele>
        <time>2017-12-30T19:49:08Z</time>
      </trkpt>
      <trkpt lat="45.48661" lon="5.53531">
        <ele>637.3</ele>
        <time>2017-12-30T19:49:13Z</time>
      </trkpt>
      <trkpt lat="45.48655" lon="5.53523">
        <ele>637.5</ele>
        <time>2017-12-30T19:49:18Z</time>
      </trkpt>
      <trkpt lat="45.48648" lon="5.53515">
        <ele>637.9</ele>
        <time>2017-12-30T19:49:23Z</time>
      </trkpt>
      <trkpt lat="45.48642" lon="5.53507">
        <ele>638.3</ele>
        <time>2017-12-30T19:49:28Z</time>
      </trkpt>
      <trkpt lat="45.48635" lon="5.53499">
        <ele>638.8</ele>
        <time>2017-12-30T19:49:33Z</time>
      </trkpt>
      <trkpt lat="45.48628" lon="5.53491">
        <ele>639.1</ele>
        <time>2017-12-30T19:49:38Z</time>
      </trkpt>
      <trkpt lat="45.48624" lon="5.53487">
        <ele>639.3</ele>
        <time>2017-12-30T19:49:41Z</time>
      </trkpt>
      <trkpt lat="45.48617" lon="5.53479">
        <ele>639.6</ele>
        <time>2017-12-30T19:49:46Z</time>
      </trkpt>
      <trkpt lat="45.48611" lon="5.53472">
        <ele>639.8</ele>
        <time>2017-12-30T19:49:50Z</time>
      </trkpt>
      <trkpt lat="45.48604" lon="5.53465">
        <ele>640.1</ele>
        <time>2017-12-30T19:49:55Z</time>
      </trkpt>
      <trkpt lat="45.48597" lon="5.53459">
        <ele>640.5</ele>
        <time>2017-12-30T19:50:00Z</time>
      </trkpt>
      <trkpt lat="45.48594" lon="5.53455">
        <ele>640.5</ele>
        <time>2017-12-30T19:50:02Z</time>
      </trkpt>
      <trkpt lat="45.48583" lon="5.53447">
        <ele>641.3</ele>
        <time>2017-12-30T19:50:09Z</time>
      </trkpt>
      <trkpt lat="45.48576" lon="5.53442">
        <ele>641.9</ele>
        <time>2017-12-30T19:50:14Z</time>
      </trkpt>
      <trkpt lat="45.48569" lon="5.53438">
        <ele>642.7</ele>
        <time>2017-12-30T19:50:18Z</time>
      </trkpt>
      <trkpt lat="45.48562" lon="5.53433">
        <ele>643.4</ele>
        <time>2017-12-30T19:50:22Z</time>
      </trkpt>
      <trkpt lat="45.48554" lon="5.53429">
        <ele>644.4</ele>
        <time>2017-12-30T19:50:27Z</time>
      </trkpt>
      <trkpt lat="45.48547" lon="5.53426">
        <ele>645.4</ele>
        <time>2017-12-30T19:50:32Z</time>
      </trkpt>
      <trkpt lat="45.48539" lon="5.53423">
        <ele>646.5</ele>
        <time>2017-12-30T19:50:36Z</time>
      </trkpt>
      <trkpt lat="45.48532" lon="5.53421">
        <ele>647.6</ele>
        <time>2017-12-30T19:50:40Z</time>
      </trkpt>
      <trkpt lat="45.48524" lon="5.53416">
        <ele>648.6</ele>
        <time>2017-12-30T19:50:45Z</time>
      </trkpt>
      <trkpt lat="45.48516" lon="5.53411">
        <ele>649.6</ele>
        <time>2017-12-30T19:50:50Z</time>
      </trkpt>
      <trkpt lat="45.48512" lon="5.53408">
        <ele>650.1</ele>
        <time>2017-12-30T19:50:53Z</time>
      </trkpt>
      <trkpt lat="45.48508" lon="5.53404">
        <ele>650.4</ele>
        <time>2017-12-30T19:50:56Z</time>
      </trkpt>
      <trkpt lat="45.48501" lon="5.53397">
        <ele>651.1</ele>
        <time>2017-12-30T19:51:01Z</time>
      </trkpt>
      <trkpt lat="45.48494" lon="5.53391">
        <ele>651.3</ele>
        <time>2017-12-30T19:51:05Z</time>
      </trkpt>
      <trkpt lat="45.4849" lon="5.53387">
        <ele>651.4</ele>
        <time>2017-12-30T19:51:08Z</time>
      </trkpt>
      <trkpt lat="45.48483" lon="5.5338">
        <ele>651.4</ele>
        <time>2017-12-30T19:51:13Z</time>
      </trkpt>
      <trkpt lat="45.48477" lon="5.53372">
        <ele>651.3</ele>
        <time>2017-12-30T19:51:18Z</time>
      </trkpt>
      <trkpt lat="45.4847" lon="5.53364">
        <ele>651.2</ele>
        <time>2017-12-30T19:51:23Z</time>
      </trkpt>
      <trkpt lat="45.48466" lon="5.53359">
        <ele>651.1</ele>
        <time>2017-12-30T19:51:26Z</time>
      </trkpt>
      <trkpt lat="45.48462" lon="5.53355">
        <ele>651.1</ele>
        <time>2017-12-30T19:51:29Z</time>
      </trkpt>
      <trkpt lat="45.48458" lon="5.53352">
        <ele>651.2</ele>
        <time>2017-12-30T19:51:31Z</time>
      </trkpt>
      <trkpt lat="45.48455" lon="5.53348">
        <ele>651.1</ele>
        <time>2017-12-30T19:51:34Z</time>
      </trkpt>
      <trkpt lat="45.48451" lon="5.53344">
        <ele>651</ele>
        <time>2017-12-30T19:51:36Z</time>
      </trkpt>
      <trkpt lat="45.48447" lon="5.5334">
        <ele>651</ele>
        <time>2017-12-30T19:51:39Z</time>
      </trkpt>
      <trkpt lat="45.48443" lon="5.53336">
        <ele>651</ele>
        <time>2017-12-30T19:51:42Z</time>
      </trkpt>
      <trkpt lat="45.48439" lon="5.53332">
        <ele>651</ele>
        <time>2017-12-30T19:51:45Z</time>
      </trkpt>
      <trkpt lat="45.48435" lon="5.53328">
        <ele>651</ele>
        <time>2017-12-30T19:51:47Z</time>
      </trkpt>
      <trkpt lat="45.48432" lon="5.53324">
        <ele>650.9</ele>
        <time>2017-12-30T19:51:50Z</time>
      </trkpt>
      <trkpt lat="45.48428" lon="5.5332">
        <ele>651</ele>
        <time>2017-12-30T19:51:53Z</time>
      </trkpt>
      <trkpt lat="45.48424" lon="5.53316">
        <ele>651</ele>
        <time>2017-12-30T19:51:55Z</time>
      </trkpt>
      <trkpt lat="45.48421" lon="5.53311">
        <ele>650.9</ele>
        <time>2017-12-30T19:51:58Z</time>
      </trkpt>
      <trkpt lat="45.48417" lon="5.53307">
        <ele>651</ele>
        <time>2017-12-30T19:52:01Z</time>
      </trkpt>
      <trkpt lat="45.48413" lon="5.53303">
        <ele>651.1</ele>
        <time>2017-12-30T19:52:04Z</time>
      </trkpt>
      <trkpt lat="45.48409" lon="5.53299">
        <ele>651.2</ele>
        <time>2017-12-30T19:52:06Z</time>
      </trkpt>
      <trkpt lat="45.48405" lon="5.53295">
        <ele>651.2</ele>
        <time>2017-12-30T19:52:09Z</time>
      </trkpt>
      <trkpt lat="45.48401" lon="5.53291">
        <ele>651.3</ele>
        <time>2017-12-30T19:52:12Z</time>
      </trkpt>
      <trkpt lat="45.48397" lon="5.53287">
        <ele>651.4</ele>
        <time>2017-12-30T19:52:15Z</time>
      </trkpt>
      <trkpt lat="45.48393" lon="5.53283">
        <ele>651.5</ele>
        <time>2017-12-30T19:52:18Z</time>
      </trkpt>
      <trkpt lat="45.48389" lon="5.53279">
        <ele>651.6</ele>
        <time>2017-12-30T19:52:20Z</time>
      </trkpt>
      <trkpt lat="45.48385" lon="5.53275">
        <ele>651.7</ele>
        <time>2017-12-30T19:52:23Z</time>
      </trkpt>
      <trkpt lat="45.48381" lon="5.53271">
        <ele>651.8</ele>
        <time>2017-12-30T19:52:26Z</time>
      </trkpt>
      <trkpt lat="45.48377" lon="5.53267">
        <ele>651.9</ele>
        <time>2017-12-30T19:52:29Z</time>
      </trkpt>
      <trkpt lat="45.48373" lon="5.53262">
        <ele>651.9</ele>
        <time>2017-12-30T19:52:32Z</time>
      </trkpt>
      <trkpt lat="45.4837" lon="5.53258">
        <ele>652</ele>
        <time>2017-12-30T19:52:34Z</time>
      </trkpt>
      <trkpt lat="45.48366" lon="5.53253">
        <ele>652</ele>
        <time>2017-12-30T19:52:37Z</time>
      </trkpt>
      <trkpt lat="45.48363" lon="5.53248">
        <ele>652</ele>
        <time>2017-12-30T19:52:40Z</time>
      </trkpt>
      <trkpt lat="45.4836" lon="5.53243">
        <ele>652</ele>
        <time>2017-12-30T19:52:42Z</time>
      </trkpt>
      <trkpt lat="45.48357" lon="5.53238">
        <ele>652</ele>
        <time>2017-12-30T19:52:45Z</time>
      </trkpt>
      <trkpt lat="45.48354" lon="5.53234">
        <ele>652.1</ele>
        <time>2017-12-30T19:52:47Z</time>
      </trkpt>
      <trkpt lat="45.48351" lon="5.53229">
        <ele>652.1</ele>
        <time>2017-12-30T19:52:50Z</time>
      </trkpt>
      <trkpt lat="45.48348" lon="5.53223">
        <ele>652.1</ele>
        <time>2017-12-30T19:52:53Z</time>
      </trkpt>
      <trkpt lat="45.48346" lon="5.53217">
        <ele>652</ele>
        <time>2017-12-30T19:52:56Z</time>
      </trkpt>
      <trkpt lat="45.48343" lon="5.53212">
        <ele>652.1</ele>
        <time>2017-12-30T19:52:58Z</time>
      </trkpt>
      <trkpt lat="45.4834" lon="5.53206">
        <ele>652.1</ele>
        <time>2017-12-30T19:53:01Z</time>
      </trkpt>
      <trkpt lat="45.48337" lon="5.53201">
        <ele>652.2</ele>
        <time>2017-12-30T19:53:04Z</time>
      </trkpt>
      <trkpt lat="45.48333" lon="5.53196">
        <ele>652.4</ele>
        <time>2017-12-30T19:53:07Z</time>
      </trkpt>
      <trkpt lat="45.4833" lon="5.5319">
        <ele>652.4</ele>
        <time>2017-12-30T19:53:10Z</time>
      </trkpt>
      <trkpt lat="45.48326" lon="5.53185">
        <ele>652.5</ele>
        <time>2017-12-30T19:53:13Z</time>
      </trkpt>
      <trkpt lat="45.48322" lon="5.5318">
        <ele>652.7</ele>
        <time>2017-12-30T19:53:16Z</time>
      </trkpt>
      <trkpt lat="45.48318" lon="5.53175">
        <ele>652.8</ele>
        <time>2017-12-30T19:53:19Z</time>
      </trkpt>
      <trkpt lat="45.48313" lon="5.53171">
        <ele>653.1</ele>
        <time>2017-12-30T19:53:22Z</time>
      </trkpt>
      <trkpt lat="45.48309" lon="5.53166">
        <ele>653.2</ele>
        <time>2017-12-30T19:53:25Z</time>
      </trkpt>
      <trkpt lat="45.48305" lon="5.53161">
        <ele>653.2</ele>
        <time>2017-12-30T19:53:28Z</time>
      </trkpt>
      <trkpt lat="45.48302" lon="5.53157">
        <ele>653.3</ele>
        <time>2017-12-30T19:53:31Z</time>
      </trkpt>
      <trkpt lat="45.48298" lon="5.53152">
        <ele>653.3</ele>
        <time>2017-12-30T19:53:34Z</time>
      </trkpt>
      <trkpt lat="45.48294" lon="5.53149">
        <ele>653.5</ele>
        <time>2017-12-30T19:53:36Z</time>
      </trkpt>
      <trkpt lat="45.48289" lon="5.53146">
        <ele>653.9</ele>
        <time>2017-12-30T19:53:40Z</time>
      </trkpt>
      <trkpt lat="45.48284" lon="5.53142">
        <ele>654.2</ele>
        <time>2017-12-30T19:53:43Z</time>
      </trkpt>
      <trkpt lat="45.4828" lon="5.53139">
        <ele>654.5</ele>
        <time>2017-12-30T19:53:45Z</time>
      </trkpt>
      <trkpt lat="45.48275" lon="5.53135">
        <ele>654.9</ele>
        <time>2017-12-30T19:53:49Z</time>
      </trkpt>
      <trkpt lat="45.4827" lon="5.53131">
        <ele>655.2</ele>
        <time>2017-12-30T19:53:52Z</time>
      </trkpt>
      <trkpt lat="45.48265" lon="5.53127">
        <ele>655.7</ele>
        <time>2017-12-30T19:53:55Z</time>
      </trkpt>
      <trkpt lat="45.4826" lon="5.53124">
        <ele>656.2</ele>
        <time>2017-12-30T19:53:58Z</time>
      </trkpt>
      <trkpt lat="45.48256" lon="5.5312">
        <ele>656.5</ele>
        <time>2017-12-30T19:54:01Z</time>
      </trkpt>
      <trkpt lat="45.48251" lon="5.53117">
        <ele>657.1</ele>
        <time>2017-12-30T19:54:04Z</time>
      </trkpt>
      <trkpt lat="45.48247" lon="5.53113">
        <ele>657.2</ele>
        <time>2017-12-30T19:54:07Z</time>
      </trkpt>
      <trkpt lat="45.48242" lon="5.5311">
        <ele>657.4</ele>
        <time>2017-12-30T19:54:10Z</time>
      </trkpt>
      <trkpt lat="45.48237" lon="5.53107">
        <ele>657.5</ele>
        <time>2017-12-30T19:54:13Z</time>
      </trkpt>
      <trkpt lat="45.48233" lon="5.53104">
        <ele>657.6</ele>
        <time>2017-12-30T19:54:16Z</time>
      </trkpt>
      <trkpt lat="45.48228" lon="5.53101">
        <ele>657.7</ele>
        <time>2017-12-30T19:54:19Z</time>
      </trkpt>
      <trkpt lat="45.48224" lon="5.53097">
        <ele>657.8</ele>
        <time>2017-12-30T19:54:22Z</time>
      </trkpt>
      <trkpt lat="45.48219" lon="5.53095">
        <ele>657.9</ele>
        <time>2017-12-30T19:54:25Z</time>
      </trkpt>
      <trkpt lat="45.48211" lon="5.53092">
        <ele>658.2</ele>
        <time>2017-12-30T19:54:29Z</time>
      </trkpt>
      <trkpt lat="45.48203" lon="5.53098">
        <ele>658.9</ele>
        <time>2017-12-30T19:54:35Z</time>
      </trkpt>
      <trkpt lat="45.48199" lon="5.53103">
        <ele>659.3</ele>
        <time>2017-12-30T19:54:38Z</time>
      </trkpt>
      <trkpt lat="45.48196" lon="5.53107">
        <ele>659.6</ele>
        <time>2017-12-30T19:54:40Z</time>
      </trkpt>
      <trkpt lat="45.48187" lon="5.53108">
        <ele>660.1</ele>
        <time>2017-12-30T19:54:45Z</time>
      </trkpt>
      <trkpt lat="45.48183" lon="5.53106">
        <ele>660.2</ele>
        <time>2017-12-30T19:54:48Z</time>
      </trkpt>
      <trkpt lat="45.48178" lon="5.53104">
        <ele>660.4</ele>
        <time>2017-12-30T19:54:50Z</time>
      </trkpt>
      <trkpt lat="45.48174" lon="5.53101">
        <ele>660.4</ele>
        <time>2017-12-30T19:54:53Z</time>
      </trkpt>
      <trkpt lat="45.4817" lon="5.53098">
        <ele>660.5</ele>
        <time>2017-12-30T19:54:56Z</time>
      </trkpt>
      <trkpt lat="45.48165" lon="5.53095">
        <ele>660.7</ele>
        <time>2017-12-30T19:54:59Z</time>
      </trkpt>
      <trkpt lat="45.48161" lon="5.53092">
        <ele>660.8</ele>
        <time>2017-12-30T19:55:01Z</time>
      </trkpt>
      <trkpt lat="45.48157" lon="5.53089">
        <ele>661</ele>
        <time>2017-12-30T19:55:04Z</time>
      </trkpt>
      <trkpt lat="45.48152" lon="5.53085">
        <ele>661.3</ele>
        <time>2017-12-30T19:55:07Z</time>
      </trkpt>
      <trkpt lat="45.48148" lon="5.53082">
        <ele>661.3</ele>
        <time>2017-12-30T19:55:10Z</time>
      </trkpt>
      <trkpt lat="45.48144" lon="5.53078">
        <ele>661</ele>
        <time>2017-12-30T19:55:13Z</time>
      </trkpt>
      <trkpt lat="45.4814" lon="5.53075">
        <ele>660.9</ele>
        <time>2017-12-30T19:55:15Z</time>
      </trkpt>
      <trkpt lat="45.4814" lon="5.53075">
        <ele>660.9</ele>
        <time>2017-12-30T19:55:15Z</time>
      </trkpt>
      <trkpt lat="45.47912" lon="5.52835">
        <ele>657.9</ele>
        <time>2017-12-30T19:57:57Z</time>
      </trkpt>
      <trkpt lat="45.47912" lon="5.52835">
        <ele>657.9</ele>
        <time>2017-12-30T19:57:57Z</time>
      </trkpt>
      <trkpt lat="45.47801" lon="5.52758">
        <ele>662.3</ele>
        <time>2017-12-30T19:59:08Z</time>
      </trkpt>
      <trkpt lat="45.47801" lon="5.52758">
        <ele>662.3</ele>
        <time>2017-12-30T19:59:08Z</time>
      </trkpt>
      <trkpt lat="45.47808" lon="5.52837">
        <ele>672.6</ele>
        <time>2017-12-30T19:59:40Z</time>
      </trkpt>
      <trkpt lat="45.47808" lon="5.52837">
        <ele>672.6</ele>
        <time>2017-12-30T19:59:40Z</time>
      </trkpt>
      <trkpt lat="45.47726" lon="5.52818">
        <ele>682.1</ele>
        <time>2017-12-30T20:00:27Z</time>
      </trkpt>
      <trkpt lat="45.47726" lon="5.52818">
        <ele>682.1</ele>
        <time>2017-12-30T20:00:27Z</time>
      </trkpt>
      <trkpt lat="45.47635" lon="5.52737">
        <ele>684.8</ele>
        <time>2017-12-30T20:01:29Z</time>
      </trkpt>
      <trkpt lat="45.47635" lon="5.52737">
        <ele>684.8</ele>
        <time>2017-12-30T20:01:29Z</time>
      </trkpt>
      <trkpt lat="45.47581" lon="5.52736">
        <ele>690.5</ele>
        <time>2017-12-30T20:01:59Z</time>
      </trkpt>
      <trkpt lat="45.47581" lon="5.52736">
        <ele>690.5</ele>
        <time>2017-12-30T20:01:59Z</time>
      </trkpt>
      <trkpt lat="45.47533" lon="5.52685">
        <ele>687.8</ele>
        <time>2017-12-30T20:02:34Z</time>
      </trkpt>
      <trkpt lat="45.47533" lon="5.52685">
        <ele>687.8</ele>
        <time>2017-12-30T20:02:34Z</time>
      </trkpt>
      <trkpt lat="45.47463" lon="5.52691">
        <ele>693.6</ele>
        <time>2017-12-30T20:03:14Z</time>
      </trkpt>
      <trkpt lat="45.47463" lon="5.52691">
        <ele>693.6</ele>
        <time>2017-12-30T20:03:14Z</time>
      </trkpt>
      <trkpt lat="45.4734" lon="5.52638">
        <ele>695</ele>
        <time>2017-12-30T20:04:27Z</time>
      </trkpt>
      <trkpt lat="45.4734" lon="5.52638">
        <ele>695</ele>
        <time>2017-12-30T20:04:27Z</time>
      </trkpt>
      <trkpt lat="45.4725" lon="5.52582">
        <ele>696.6</ele>
        <time>2017-12-30T20:05:23Z</time>
      </trkpt>
      <trkpt lat="45.4725" lon="5.52582">
        <ele>696.6</ele>
        <time>2017-12-30T20:05:23Z</time>
      </trkpt>
      <trkpt lat="45.47124" lon="5.52466">
        <ele>690</ele>
        <time>2017-12-30T20:06:49Z</time>
      </trkpt>
      <trkpt lat="45.47124" lon="5.52466">
        <ele>690</ele>
        <time>2017-12-30T20:06:49Z</time>
      </trkpt>
      <trkpt lat="45.47079" lon="5.52419">
        <ele>686.9</ele>
        <time>2017-12-30T20:07:21Z</time>
      </trkpt>
      <trkpt lat="45.47079" lon="5.52419">
        <ele>686.9</ele>
        <time>2017-12-30T20:07:21Z</time>
      </trkpt>
      <trkpt lat="45.47" lon="5.52479">
        <ele>705.6</ele>
        <time>2017-12-30T20:08:12Z</time>
      </trkpt>
      <trkpt lat="45.47" lon="5.52479">
        <ele>705.6</ele>
        <time>2017-12-30T20:08:12Z</time>
      </trkpt>
      <trkpt lat="45.46994" lon="5.52587">
        <ele>703</ele>
        <time>2017-12-30T20:08:56Z</time>
      </trkpt>
      <trkpt lat="45.46994" lon="5.52587">
        <ele>703</ele>
        <time>2017-12-30T20:08:56Z</time>
      </trkpt>
      <trkpt lat="45.47008" lon="5.52729">
        <ele>695.1</ele>
        <time>2017-12-30T20:09:53Z</time>
      </trkpt>
      <trkpt lat="45.47008" lon="5.52729">
        <ele>695.1</ele>
        <time>2017-12-30T20:09:53Z</time>
      </trkpt>
      <trkpt lat="45.46905" lon="5.52737">
        <ele>694.3</ele>
        <time>2017-12-30T20:10:52Z</time>
      </trkpt>
      <trkpt lat="45.46905" lon="5.52737">
        <ele>694.3</ele>
        <time>2017-12-30T20:10:52Z</time>
      </trkpt>
      <trkpt lat="45.46853" lon="5.52765">
        <ele>694</ele>
        <time>2017-12-30T20:11:24Z</time>
      </trkpt>
      <trkpt lat="45.46853" lon="5.52765">
        <ele>694</ele>
        <time>2017-12-30T20:11:24Z</time>
      </trkpt>
      <trkpt lat="45.46785" lon="5.5275">
        <ele>696</ele>
        <time>2017-12-30T20:12:03Z</time>
      </trkpt>
      <trkpt lat="45.46785" lon="5.5275">
        <ele>696</ele>
        <time>2017-12-30T20:12:03Z</time>
      </trkpt>
      <trkpt lat="45.46738" lon="5.5272">
        <ele>698.8</ele>
        <time>2017-12-30T20:12:33Z</time>
      </trkpt>
      <trkpt lat="45.46738" lon="5.5272">
        <ele>698.8</ele>
        <time>2017-12-30T20:12:33Z</time>
      </trkpt>
      <trkpt lat="45.46719" lon="5.52681">
        <ele>702.4</ele>
        <time>2017-12-30T20:12:52Z</time>
      </trkpt>
      <trkpt lat="45.46719" lon="5.52681">
        <ele>702.4</ele>
        <time>2017-12-30T20:12:52Z</time>
      </trkpt>
      <trkpt lat="45.46699" lon="5.52662">
        <ele>703.3</ele>
        <time>2017-12-30T20:13:06Z</time>
      </trkpt>
      <trkpt lat="45.46699" lon="5.52662">
        <ele>703.3</ele>
        <time>2017-12-30T20:13:06Z</time>
      </trkpt>
      <trkpt lat="45.46537" lon="5.52655">
        <ele>692.1</ele>
        <time>2017-12-30T20:14:38Z</time>
      </trkpt>
      <trkpt lat="45.46537" lon="5.52655">
        <ele>692.1</ele>
        <time>2017-12-30T20:14:38Z</time>
      </trkpt>
      <trkpt lat="45.46522" lon="5.52642">
        <ele>692.5</ele>
        <time>2017-12-30T20:14:48Z</time>
      </trkpt>
      <trkpt lat="45.46522" lon="5.52642">
        <ele>692.5</ele>
        <time>2017-12-30T20:14:48Z</time>
      </trkpt>
      <trkpt lat="45.46502" lon="5.52589">
        <ele>696.6</ele>
        <time>2017-12-30T20:15:12Z</time>
      </trkpt>
      <trkpt lat="45.46502" lon="5.52589">
        <ele>696.6</ele>
        <time>2017-12-30T20:15:12Z</time>
      </trkpt>
      <trkpt lat="45.46481" lon="5.52548">
        <ele>689.9</ele>
        <time>2017-12-30T20:15:33Z</time>
      </trkpt>
      <trkpt lat="45.46481" lon="5.52548">
        <ele>689.9</ele>
        <time>2017-12-30T20:15:33Z</time>
      </trkpt>
      <trkpt lat="45.46504" lon="5.5249">
        <ele>689.2</ele>
        <time>2017-12-30T20:16:00Z</time>
      </trkpt>
      <trkpt lat="45.46504" lon="5.5249">
        <ele>689.2</ele>
        <time>2017-12-30T20:16:00Z</time>
      </trkpt>
      <trkpt lat="45.46494" lon="5.5245">
        <ele>679.7</ele>
        <time>2017-12-30T20:16:17Z</time>
      </trkpt>
      <trkpt lat="45.46494" lon="5.5245">
        <ele>679.7</ele>
        <time>2017-12-30T20:16:17Z</time>
      </trkpt>
      <trkpt lat="45.46466" lon="5.52434">
        <ele>671.1</ele>
        <time>2017-12-30T20:16:34Z</time>
      </trkpt>
      <trkpt lat="45.46466" lon="5.52434">
        <ele>671.1</ele>
        <time>2017-12-30T20:16:34Z</time>
      </trkpt>
      <trkpt lat="45.46422" lon="5.52426">
        <ele>660.7</ele>
        <time>2017-12-30T20:16:59Z</time>
      </trkpt>
      <trkpt lat="45.46422" lon="5.52426">
        <ele>660.7</ele>
        <time>2017-12-30T20:16:59Z</time>
      </trkpt>
      <trkpt lat="45.46356" lon="5.52361">
        <ele>644.1</ele>
        <time>2017-12-30T20:17:45Z</time>
      </trkpt>
      <trkpt lat="45.46356" lon="5.52361">
        <ele>644.1</ele>
        <time>2017-12-30T20:17:45Z</time>
      </trkpt>
      <trkpt lat="45.46341" lon="5.52308">
        <ele>637.2</ele>
        <time>2017-12-30T20:18:08Z</time>
      </trkpt>
      <trkpt lat="45.46341" lon="5.52308">
        <ele>637.2</ele>
        <time>2017-12-30T20:18:08Z</time>
      </trkpt>
      <trkpt lat="45.46341" lon="5.5225">
        <ele>632.8</ele>
        <time>2017-12-30T20:18:31Z</time>
      </trkpt>
      <trkpt lat="45.46341" lon="5.5225">
        <ele>632.8</ele>
        <time>2017-12-30T20:18:31Z</time>
      </trkpt>
      <trkpt lat="45.46322" lon="5.52205">
        <ele>624.2</ele>
        <time>2017-12-30T20:18:52Z</time>
      </trkpt>
      <trkpt lat="45.46322" lon="5.52205">
        <ele>624.2</ele>
        <time>2017-12-30T20:18:52Z</time>
      </trkpt>
      <trkpt lat="45.46311" lon="5.52145">
        <ele>615</ele>
        <time>2017-12-30T20:19:17Z</time>
      </trkpt>
      <trkpt lat="45.46311" lon="5.52145">
        <ele>615</ele>
        <time>2017-12-30T20:19:17Z</time>
      </trkpt>
      <trkpt lat="45.46258" lon="5.52101">
        <ele>606.3</ele>
        <time>2017-12-30T20:19:52Z</time>
      </trkpt>
      <trkpt lat="45.46258" lon="5.52101">
        <ele>606.3</ele>
        <time>2017-12-30T20:19:52Z</time>
      </trkpt>
      <trkpt lat="45.46269" lon="5.5205">
        <ele>599.9</ele>
        <time>2017-12-30T20:20:14Z</time>
      </trkpt>
      <trkpt lat="45.46269" lon="5.5205">
        <ele>599.9</ele>
        <time>2017-12-30T20:20:14Z</time>
      </trkpt>
      <trkpt lat="45.46332" lon="5.52024">
        <ele>595.3</ele>
        <time>2017-12-30T20:20:51Z</time>
      </trkpt>
      <trkpt lat="45.46332" lon="5.52024">
        <ele>595.3</ele>
        <time>2017-12-30T20:20:51Z</time>
      </trkpt>
      <trkpt lat="45.46438" lon="5.51988">
        <ele>577.1</ele>
        <time>2017-12-30T20:21:53Z</time>
      </trkpt>
      <trkpt lat="45.46438" lon="5.51988">
        <ele>577.1</ele>
        <time>2017-12-30T20:21:53Z</time>
      </trkpt>
      <trkpt lat="45.46531" lon="5.51934">
        <ele>553.9</ele>
        <time>2017-12-30T20:22:51Z</time>
      </trkpt>
      <trkpt lat="45.46531" lon="5.51934">
        <ele>553.9</ele>
        <time>2017-12-30T20:22:51Z</time>
      </trkpt>
      <trkpt lat="45.46595" lon="5.51766">
        <ele>532.2</ele>
        <time>2017-12-30T20:24:08Z</time>
      </trkpt>
      <trkpt lat="45.46595" lon="5.51766">
        <ele>532.2</ele>
        <time>2017-12-30T20:24:08Z</time>
      </trkpt>
      <trkpt lat="45.46624" lon="5.51724">
        <ele>528.8</ele>
        <time>2017-12-30T20:24:31Z</time>
      </trkpt>
      <trkpt lat="45.46624" lon="5.51724">
        <ele>528.8</ele>
        <time>2017-12-30T20:24:31Z</time>
      </trkpt>
      <trkpt lat="45.46775" lon="5.51779">
        <ele>534.1</ele>
        <time>2017-12-30T20:26:00Z</time>
      </trkpt>
      <trkpt lat="45.46775" lon="5.51779">
        <ele>534.1</ele>
        <time>2017-12-30T20:26:00Z</time>
      </trkpt>
      <trkpt lat="45.46781" lon="5.51779">
        <ele>534.2</ele>
        <time>2017-12-30T20:26:04Z</time>
      </trkpt>
      <trkpt lat="45.46786" lon="5.51778">
        <ele>534.2</ele>
        <time>2017-12-30T20:26:07Z</time>
      </trkpt>
      <trkpt lat="45.46791" lon="5.51777">
        <ele>534.2</ele>
        <time>2017-12-30T20:26:09Z</time>
      </trkpt>
      <trkpt lat="45.46796" lon="5.51776">
        <ele>534.3</ele>
        <time>2017-12-30T20:26:12Z</time>
      </trkpt>
      <trkpt lat="45.46802" lon="5.51774">
        <ele>534.2</ele>
        <time>2017-12-30T20:26:16Z</time>
      </trkpt>
      <trkpt lat="45.46807" lon="5.51773">
        <ele>534.2</ele>
        <time>2017-12-30T20:26:19Z</time>
      </trkpt>
      <trkpt lat="45.46812" lon="5.51771">
        <ele>534.2</ele>
        <time>2017-12-30T20:26:22Z</time>
      </trkpt>
      <trkpt lat="45.46817" lon="5.5177">
        <ele>534.2</ele>
        <time>2017-12-30T20:26:25Z</time>
      </trkpt>
      <trkpt lat="45.46822" lon="5.51768">
        <ele>534.1</ele>
        <time>2017-12-30T20:26:28Z</time>
      </trkpt>
      <trkpt lat="45.46828" lon="5.51767">
        <ele>534.1</ele>
        <time>2017-12-30T20:26:31Z</time>
      </trkpt>
      <trkpt lat="45.46834" lon="5.51765">
        <ele>534</ele>
        <time>2017-12-30T20:26:35Z</time>
      </trkpt>
      <trkpt lat="45.46839" lon="5.51763">
        <ele>533.7</ele>
        <time>2017-12-30T20:26:38Z</time>
      </trkpt>
      <trkpt lat="45.46845" lon="5.51761">
        <ele>533.4</ele>
        <time>2017-12-30T20:26:41Z</time>
      </trkpt>
      <trkpt lat="45.46851" lon="5.51759">
        <ele>533.1</ele>
        <time>2017-12-30T20:26:45Z</time>
      </trkpt>
      <trkpt lat="45.46856" lon="5.51756">
        <ele>532.8</ele>
        <time>2017-12-30T20:26:48Z</time>
      </trkpt>
      <trkpt lat="45.46861" lon="5.51753">
        <ele>532.5</ele>
        <time>2017-12-30T20:26:51Z</time>
      </trkpt>
      <trkpt lat="45.46867" lon="5.51749">
        <ele>532.1</ele>
        <time>2017-12-30T20:26:55Z</time>
      </trkpt>
      <trkpt lat="45.46872" lon="5.51746">
        <ele>531.9</ele>
        <time>2017-12-30T20:26:58Z</time>
      </trkpt>
      <trkpt lat="45.46877" lon="5.51744">
        <ele>531.7</ele>
        <time>2017-12-30T20:27:01Z</time>
      </trkpt>
      <trkpt lat="45.46883" lon="5.51742">
        <ele>531.5</ele>
        <time>2017-12-30T20:27:04Z</time>
      </trkpt>
      <trkpt lat="45.46888" lon="5.5174">
        <ele>531.3</ele>
        <time>2017-12-30T20:27:07Z</time>
      </trkpt>
      <trkpt lat="45.46894" lon="5.51739">
        <ele>531.2</ele>
        <time>2017-12-30T20:27:11Z</time>
      </trkpt>
      <trkpt lat="45.469" lon="5.51738">
        <ele>531</ele>
        <time>2017-12-30T20:27:14Z</time>
      </trkpt>
      <trkpt lat="45.46906" lon="5.51737">
        <ele>530.9</ele>
        <time>2017-12-30T20:27:18Z</time>
      </trkpt>
      <trkpt lat="45.46911" lon="5.51736">
        <ele>530.8</ele>
        <time>2017-12-30T20:27:20Z</time>
      </trkpt>
      <trkpt lat="45.46917" lon="5.51734">
        <ele>530.6</ele>
        <time>2017-12-30T20:27:24Z</time>
      </trkpt>
      <trkpt lat="45.46922" lon="5.51733">
        <ele>530.4</ele>
        <time>2017-12-30T20:27:27Z</time>
      </trkpt>
      <trkpt lat="45.46928" lon="5.51732">
        <ele>530.2</ele>
        <time>2017-12-30T20:27:30Z</time>
      </trkpt>
      <trkpt lat="45.46934" lon="5.51731">
        <ele>529.9</ele>
        <time>2017-12-30T20:27:34Z</time>
      </trkpt>
      <trkpt lat="45.4694" lon="5.5173">
        <ele>529.7</ele>
        <time>2017-12-30T20:27:37Z</time>
      </trkpt>
      <trkpt lat="45.46946" lon="5.51728">
        <ele>529.4</ele>
        <time>2017-12-30T20:27:41Z</time>
      </trkpt>
      <trkpt lat="45.46952" lon="5.51726">
        <ele>529.1</ele>
        <time>2017-12-30T20:27:44Z</time>
      </trkpt>
      <trkpt lat="45.46958" lon="5.51724">
        <ele>528.7</ele>
        <time>2017-12-30T20:27:48Z</time>
      </trkpt>
      <trkpt lat="45.46963" lon="5.51722">
        <ele>528.4</ele>
        <time>2017-12-30T20:27:51Z</time>
      </trkpt>
      <trkpt lat="45.46969" lon="5.5172">
        <ele>528.1</ele>
        <time>2017-12-30T20:27:54Z</time>
      </trkpt>
      <trkpt lat="45.46974" lon="5.51719">
        <ele>527.8</ele>
        <time>2017-12-30T20:27:57Z</time>
      </trkpt>
      <trkpt lat="45.46979" lon="5.51718">
        <ele>527.6</ele>
        <time>2017-12-30T20:28:00Z</time>
      </trkpt>
      <trkpt lat="45.46984" lon="5.51716">
        <ele>527.2</ele>
        <time>2017-12-30T20:28:03Z</time>
      </trkpt>
      <trkpt lat="45.46993" lon="5.51713">
        <ele>526.6</ele>
        <time>2017-12-30T20:28:08Z</time>
      </trkpt>
      <trkpt lat="45.47" lon="5.5171">
        <ele>526.1</ele>
        <time>2017-12-30T20:28:12Z</time>
      </trkpt>
      <trkpt lat="45.47007" lon="5.51707">
        <ele>525.5</ele>
        <time>2017-12-30T20:28:17Z</time>
      </trkpt>
      <trkpt lat="45.47013" lon="5.51703">
        <ele>525</ele>
        <time>2017-12-30T20:28:20Z</time>
      </trkpt>
      <trkpt lat="45.47017" lon="5.51694">
        <ele>524.3</ele>
        <time>2017-12-30T20:28:25Z</time>
      </trkpt>
      <trkpt lat="45.47019" lon="5.51689">
        <ele>523.9</ele>
        <time>2017-12-30T20:28:27Z</time>
      </trkpt>
      <trkpt lat="45.47022" lon="5.51683">
        <ele>523.4</ele>
        <time>2017-12-30T20:28:30Z</time>
      </trkpt>
      <trkpt lat="45.47026" lon="5.51677">
        <ele>522.9</ele>
        <time>2017-12-30T20:28:33Z</time>
      </trkpt>
      <trkpt lat="45.47029" lon="5.51671">
        <ele>522.5</ele>
        <time>2017-12-30T20:28:36Z</time>
      </trkpt>
      <trkpt lat="45.47033" lon="5.51665">
        <ele>522.2</ele>
        <time>2017-12-30T20:28:40Z</time>
      </trkpt>
      <trkpt lat="45.47038" lon="5.51661">
        <ele>522</ele>
        <time>2017-12-30T20:28:43Z</time>
      </trkpt>
      <trkpt lat="45.47044" lon="5.51657">
        <ele>521.9</ele>
        <time>2017-12-30T20:28:47Z</time>
      </trkpt>
      <trkpt lat="45.47051" lon="5.51652">
        <ele>521.7</ele>
        <time>2017-12-30T20:28:51Z</time>
      </trkpt>
      <trkpt lat="45.47058" lon="5.51647">
        <ele>521.6</ele>
        <time>2017-12-30T20:28:56Z</time>
      </trkpt>
      <trkpt lat="45.47063" lon="5.51641">
        <ele>521.6</ele>
        <time>2017-12-30T20:28:59Z</time>
      </trkpt>
      <trkpt lat="45.47069" lon="5.51631">
        <ele>521.6</ele>
        <time>2017-12-30T20:29:05Z</time>
      </trkpt>
      <trkpt lat="45.4707" lon="5.51622">
        <ele>521.6</ele>
        <time>2017-12-30T20:29:08Z</time>
      </trkpt>
      <trkpt lat="45.47071" lon="5.51616">
        <ele>521.6</ele>
        <time>2017-12-30T20:29:11Z</time>
      </trkpt>
      <trkpt lat="45.47072" lon="5.51609">
        <ele>521.7</ele>
        <time>2017-12-30T20:29:14Z</time>
      </trkpt>
      <trkpt lat="45.47073" lon="5.51601">
        <ele>521.7</ele>
        <time>2017-12-30T20:29:17Z</time>
      </trkpt>
      <trkpt lat="45.47073" lon="5.51593">
        <ele>521.8</ele>
        <time>2017-12-30T20:29:20Z</time>
      </trkpt>
      <trkpt lat="45.47073" lon="5.51585">
        <ele>521.9</ele>
        <time>2017-12-30T20:29:23Z</time>
      </trkpt>
      <trkpt lat="45.47074" lon="5.51578">
        <ele>522</ele>
        <time>2017-12-30T20:29:26Z</time>
      </trkpt>
      <trkpt lat="45.47074" lon="5.5157">
        <ele>522.2</ele>
        <time>2017-12-30T20:29:29Z</time>
      </trkpt>
      <trkpt lat="45.47074" lon="5.5156">
        <ele>522.5</ele>
        <time>2017-12-30T20:29:33Z</time>
      </trkpt>
      <trkpt lat="45.47075" lon="5.51552">
        <ele>522.7</ele>
        <time>2017-12-30T20:29:37Z</time>
      </trkpt>
      <trkpt lat="45.47075" lon="5.51543">
        <ele>522.9</ele>
        <time>2017-12-30T20:29:40Z</time>
      </trkpt>
      <trkpt lat="45.47075" lon="5.51534">
        <ele>523.1</ele>
        <time>2017-12-30T20:29:44Z</time>
      </trkpt>
      <trkpt lat="45.47075" lon="5.51526">
        <ele>523.3</ele>
        <time>2017-12-30T20:29:47Z</time>
      </trkpt>
      <trkpt lat="45.47076" lon="5.51518">
        <ele>523.5</ele>
        <time>2017-12-30T20:29:50Z</time>
      </trkpt>
      <trkpt lat="45.47078" lon="5.51511">
        <ele>523.7</ele>
        <time>2017-12-30T20:29:53Z</time>
      </trkpt>
      <trkpt lat="45.47082" lon="5.51505">
        <ele>523.9</ele>
        <time>2017-12-30T20:29:57Z</time>
      </trkpt>
      <trkpt lat="45.47086" lon="5.51502">
        <ele>523.9</ele>
        <time>2017-12-30T20:29:59Z</time>
      </trkpt>
      <trkpt lat="45.47092" lon="5.515">
        <ele>523.9</ele>
        <time>2017-12-30T20:30:03Z</time>
      </trkpt>
      <trkpt lat="45.47098" lon="5.515">
        <ele>523.8</ele>
        <time>2017-12-30T20:30:06Z</time>
      </trkpt>
      <trkpt lat="45.47103" lon="5.51502">
        <ele>523.7</ele>
        <time>2017-12-30T20:30:09Z</time>
      </trkpt>
      <trkpt lat="45.47109" lon="5.51503">
        <ele>523.6</ele>
        <time>2017-12-30T20:30:13Z</time>
      </trkpt>
      <trkpt lat="45.47115" lon="5.51503">
        <ele>523.6</ele>
        <time>2017-12-30T20:30:16Z</time>
      </trkpt>
      <trkpt lat="45.47121" lon="5.51502">
        <ele>523.5</ele>
        <time>2017-12-30T20:30:19Z</time>
      </trkpt>
      <trkpt lat="45.47126" lon="5.515">
        <ele>523.5</ele>
        <time>2017-12-30T20:30:22Z</time>
      </trkpt>
      <trkpt lat="45.47132" lon="5.51498">
        <ele>523.5</ele>
        <time>2017-12-30T20:30:26Z</time>
      </trkpt>
      <trkpt lat="45.47138" lon="5.51494">
        <ele>523.5</ele>
        <time>2017-12-30T20:30:30Z</time>
      </trkpt>
      <trkpt lat="45.47145" lon="5.51491">
        <ele>523.6</ele>
        <time>2017-12-30T20:30:34Z</time>
      </trkpt>
      <trkpt lat="45.47151" lon="5.51489">
        <ele>523.6</ele>
        <time>2017-12-30T20:30:37Z</time>
      </trkpt>
      <trkpt lat="45.47156" lon="5.51486">
        <ele>523.7</ele>
        <time>2017-12-30T20:30:41Z</time>
      </trkpt>
      <trkpt lat="45.47161" lon="5.51484">
        <ele>523.8</ele>
        <time>2017-12-30T20:30:44Z</time>
      </trkpt>
      <trkpt lat="45.47166" lon="5.51481">
        <ele>523.9</ele>
        <time>2017-12-30T20:30:47Z</time>
      </trkpt>
      <trkpt lat="45.47171" lon="5.51478">
        <ele>524.2</ele>
        <time>2017-12-30T20:30:50Z</time>
      </trkpt>
      <trkpt lat="45.47176" lon="5.51475">
        <ele>524.4</ele>
        <time>2017-12-30T20:30:53Z</time>
      </trkpt>
      <trkpt lat="45.47181" lon="5.51472">
        <ele>524.7</ele>
        <time>2017-12-30T20:30:56Z</time>
      </trkpt>
      <trkpt lat="45.47186" lon="5.5147">
        <ele>524.9</ele>
        <time>2017-12-30T20:30:59Z</time>
      </trkpt>
      <trkpt lat="45.47191" lon="5.51467">
        <ele>525.3</ele>
        <time>2017-12-30T20:31:02Z</time>
      </trkpt>
      <trkpt lat="45.47195" lon="5.51463">
        <ele>525.6</ele>
        <time>2017-12-30T20:31:05Z</time>
      </trkpt>
      <trkpt lat="45.472" lon="5.51459">
        <ele>526</ele>
        <time>2017-12-30T20:31:08Z</time>
      </trkpt>
      <trkpt lat="45.47204" lon="5.51455">
        <ele>526.4</ele>
        <time>2017-12-30T20:31:11Z</time>
      </trkpt>
      <trkpt lat="45.47209" lon="5.51451">
        <ele>526.8</ele>
        <time>2017-12-30T20:31:14Z</time>
      </trkpt>
      <trkpt lat="45.47214" lon="5.51448">
        <ele>527.2</ele>
        <time>2017-12-30T20:31:17Z</time>
      </trkpt>
      <trkpt lat="45.47218" lon="5.51445">
        <ele>527.5</ele>
        <time>2017-12-30T20:31:20Z</time>
      </trkpt>
      <trkpt lat="45.47223" lon="5.51442">
        <ele>527.9</ele>
        <time>2017-12-30T20:31:23Z</time>
      </trkpt>
      <trkpt lat="45.47228" lon="5.51438">
        <ele>528.4</ele>
        <time>2017-12-30T20:31:26Z</time>
      </trkpt>
      <trkpt lat="45.47232" lon="5.51435">
        <ele>528.8</ele>
        <time>2017-12-30T20:31:29Z</time>
      </trkpt>
      <trkpt lat="45.47237" lon="5.51432">
        <ele>529.2</ele>
        <time>2017-12-30T20:31:32Z</time>
      </trkpt>
      <trkpt lat="45.47242" lon="5.51428">
        <ele>529.7</ele>
        <time>2017-12-30T20:31:35Z</time>
      </trkpt>
      <trkpt lat="45.47246" lon="5.51425">
        <ele>530.2</ele>
        <time>2017-12-30T20:31:38Z</time>
      </trkpt>
      <trkpt lat="45.4725" lon="5.51423">
        <ele>530.5</ele>
        <time>2017-12-30T20:31:40Z</time>
      </trkpt>
      <trkpt lat="45.47255" lon="5.5142">
        <ele>530.7</ele>
        <time>2017-12-30T20:31:43Z</time>
      </trkpt>
      <trkpt lat="45.47263" lon="5.51415">
        <ele>530.9</ele>
        <time>2017-12-30T20:31:48Z</time>
      </trkpt>
      <trkpt lat="45.47267" lon="5.51413">
        <ele>530.9</ele>
        <time>2017-12-30T20:31:51Z</time>
      </trkpt>
      <trkpt lat="45.47272" lon="5.5141">
        <ele>531</ele>
        <time>2017-12-30T20:31:54Z</time>
      </trkpt>
      <trkpt lat="45.47276" lon="5.51407">
        <ele>531</ele>
        <time>2017-12-30T20:31:56Z</time>
      </trkpt>
      <trkpt lat="45.4728" lon="5.51404">
        <ele>531.1</ele>
        <time>2017-12-30T20:31:59Z</time>
      </trkpt>
      <trkpt lat="45.47284" lon="5.51401">
        <ele>531.1</ele>
        <time>2017-12-30T20:32:02Z</time>
      </trkpt>
      <trkpt lat="45.47289" lon="5.51398">
        <ele>531.2</ele>
        <time>2017-12-30T20:32:05Z</time>
      </trkpt>
      <trkpt lat="45.47293" lon="5.51395">
        <ele>531.3</ele>
        <time>2017-12-30T20:32:07Z</time>
      </trkpt>
      <trkpt lat="45.47297" lon="5.51391">
        <ele>531.4</ele>
        <time>2017-12-30T20:32:10Z</time>
      </trkpt>
      <trkpt lat="45.47301" lon="5.51387">
        <ele>531.6</ele>
        <time>2017-12-30T20:32:13Z</time>
      </trkpt>
      <trkpt lat="45.47305" lon="5.51383">
        <ele>531.7</ele>
        <time>2017-12-30T20:32:16Z</time>
      </trkpt>
      <trkpt lat="45.47309" lon="5.51378">
        <ele>531.9</ele>
        <time>2017-12-30T20:32:19Z</time>
      </trkpt>
      <trkpt lat="45.47313" lon="5.51374">
        <ele>532.1</ele>
        <time>2017-12-30T20:32:21Z</time>
      </trkpt>
      <trkpt lat="45.47317" lon="5.51369">
        <ele>532.3</ele>
        <time>2017-12-30T20:32:24Z</time>
      </trkpt>
      <trkpt lat="45.47321" lon="5.51365">
        <ele>532.5</ele>
        <time>2017-12-30T20:32:27Z</time>
      </trkpt>
      <trkpt lat="45.47325" lon="5.51361">
        <ele>532.7</ele>
        <time>2017-12-30T20:32:30Z</time>
      </trkpt>
      <trkpt lat="45.4733" lon="5.51358">
        <ele>532.8</ele>
        <time>2017-12-30T20:32:33Z</time>
      </trkpt>
      <trkpt lat="45.47334" lon="5.51355">
        <ele>533</ele>
        <time>2017-12-30T20:32:36Z</time>
      </trkpt>
      <trkpt lat="45.47338" lon="5.51352">
        <ele>533.3</ele>
        <time>2017-12-30T20:32:38Z</time>
      </trkpt>
      <trkpt lat="45.47346" lon="5.51348">
        <ele>533.7</ele>
        <time>2017-12-30T20:32:43Z</time>
      </trkpt>
      <trkpt lat="45.47352" lon="5.51343">
        <ele>534.2</ele>
        <time>2017-12-30T20:32:47Z</time>
      </trkpt>
      <trkpt lat="45.47356" lon="5.51334">
        <ele>534.8</ele>
        <time>2017-12-30T20:32:51Z</time>
      </trkpt>
      <trkpt lat="45.47358" lon="5.51327">
        <ele>534.9</ele>
        <time>2017-12-30T20:32:54Z</time>
      </trkpt>
      <trkpt lat="45.47361" lon="5.5132">
        <ele>535.1</ele>
        <time>2017-12-30T20:32:58Z</time>
      </trkpt>
      <trkpt lat="45.47364" lon="5.51314">
        <ele>535.2</ele>
        <time>2017-12-30T20:33:01Z</time>
      </trkpt>
      <trkpt lat="45.47368" lon="5.51309">
        <ele>535.4</ele>
        <time>2017-12-30T20:33:04Z</time>
      </trkpt>
      <trkpt lat="45.47372" lon="5.51302">
        <ele>535.6</ele>
        <time>2017-12-30T20:33:07Z</time>
      </trkpt>
      <trkpt lat="45.47376" lon="5.51296">
        <ele>535.8</ele>
        <time>2017-12-30T20:33:11Z</time>
      </trkpt>
      <trkpt lat="45.4738" lon="5.5129">
        <ele>536</ele>
        <time>2017-12-30T20:33:14Z</time>
      </trkpt>
      <trkpt lat="45.47383" lon="5.51284">
        <ele>536.1</ele>
        <time>2017-12-30T20:33:17Z</time>
      </trkpt>
      <trkpt lat="45.47387" lon="5.51278">
        <ele>536.4</ele>
        <time>2017-12-30T20:33:20Z</time>
      </trkpt>
      <trkpt lat="45.47391" lon="5.51273">
        <ele>536.6</ele>
        <time>2017-12-30T20:33:23Z</time>
      </trkpt>
      <trkpt lat="45.47394" lon="5.51267">
        <ele>536.8</ele>
        <time>2017-12-30T20:33:26Z</time>
      </trkpt>
      <trkpt lat="45.47398" lon="5.51261">
        <ele>537</ele>
        <time>2017-12-30T20:33:30Z</time>
      </trkpt>
      <trkpt lat="45.47402" lon="5.51256">
        <ele>537.2</ele>
        <time>2017-12-30T20:33:33Z</time>
      </trkpt>
      <trkpt lat="45.47405" lon="5.51251">
        <ele>537.4</ele>
        <time>2017-12-30T20:33:35Z</time>
      </trkpt>
      <trkpt lat="45.47409" lon="5.51246">
        <ele>537.7</ele>
        <time>2017-12-30T20:33:38Z</time>
      </trkpt>
      <trkpt lat="45.47413" lon="5.51241">
        <ele>538</ele>
        <time>2017-12-30T20:33:41Z</time>
      </trkpt>
      <trkpt lat="45.47417" lon="5.51235">
        <ele>538.4</ele>
        <time>2017-12-30T20:33:45Z</time>
      </trkpt>
      <trkpt lat="45.47421" lon="5.5123">
        <ele>538.7</ele>
        <time>2017-12-30T20:33:48Z</time>
      </trkpt>
      <trkpt lat="45.47425" lon="5.51225">
        <ele>539</ele>
        <time>2017-12-30T20:33:51Z</time>
      </trkpt>
      <trkpt lat="45.47429" lon="5.5122">
        <ele>539.3</ele>
        <time>2017-12-30T20:33:54Z</time>
      </trkpt>
      <trkpt lat="45.47433" lon="5.51216">
        <ele>539.6</ele>
        <time>2017-12-30T20:33:57Z</time>
      </trkpt>
      <trkpt lat="45.47437" lon="5.51211">
        <ele>539.9</ele>
        <time>2017-12-30T20:34:00Z</time>
      </trkpt>
      <trkpt lat="45.47441" lon="5.51206">
        <ele>540.2</ele>
        <time>2017-12-30T20:34:03Z</time>
      </trkpt>
      <trkpt lat="45.47445" lon="5.51201">
        <ele>540.6</ele>
        <time>2017-12-30T20:34:06Z</time>
      </trkpt>
      <trkpt lat="45.47448" lon="5.51196">
        <ele>540.8</ele>
        <time>2017-12-30T20:34:08Z</time>
      </trkpt>
      <trkpt lat="45.47452" lon="5.51191">
        <ele>541.1</ele>
        <time>2017-12-30T20:34:11Z</time>
      </trkpt>
      <trkpt lat="45.47456" lon="5.51186">
        <ele>541.4</ele>
        <time>2017-12-30T20:34:14Z</time>
      </trkpt>
      <trkpt lat="45.47459" lon="5.51181">
        <ele>541.7</ele>
        <time>2017-12-30T20:34:17Z</time>
      </trkpt>
      <trkpt lat="45.47463" lon="5.51176">
        <ele>542</ele>
        <time>2017-12-30T20:34:20Z</time>
      </trkpt>
      <trkpt lat="45.47466" lon="5.5117">
        <ele>542.3</ele>
        <time>2017-12-30T20:34:23Z</time>
      </trkpt>
      <trkpt lat="45.4747" lon="5.51165">
        <ele>542.6</ele>
        <time>2017-12-30T20:34:26Z</time>
      </trkpt>
      <trkpt lat="45.47474" lon="5.5116">
        <ele>543</ele>
        <time>2017-12-30T20:34:29Z</time>
      </trkpt>
      <trkpt lat="45.47477" lon="5.51154">
        <ele>543.3</ele>
        <time>2017-12-30T20:34:32Z</time>
      </trkpt>
      <trkpt lat="45.47481" lon="5.5115">
        <ele>543.7</ele>
        <time>2017-12-30T20:34:35Z</time>
      </trkpt>
      <trkpt lat="45.47484" lon="5.51145">
        <ele>544</ele>
        <time>2017-12-30T20:34:38Z</time>
      </trkpt>
      <trkpt lat="45.47488" lon="5.5114">
        <ele>544.4</ele>
        <time>2017-12-30T20:34:41Z</time>
      </trkpt>
      <trkpt lat="45.47495" lon="5.51133">
        <ele>545</ele>
        <time>2017-12-30T20:34:45Z</time>
      </trkpt>
      <trkpt lat="45.47502" lon="5.51126">
        <ele>545.7</ele>
        <time>2017-12-30T20:34:50Z</time>
      </trkpt>
      <trkpt lat="45.47509" lon="5.51119">
        <ele>546.8</ele>
        <time>2017-12-30T20:34:55Z</time>
      </trkpt>
      <trkpt lat="45.47515" lon="5.51113">
        <ele>547.8</ele>
        <time>2017-12-30T20:34:59Z</time>
      </trkpt>
      <trkpt lat="45.4752" lon="5.51105">
        <ele>548.8</ele>
        <time>2017-12-30T20:35:04Z</time>
      </trkpt>
      <trkpt lat="45.47525" lon="5.51096">
        <ele>549.9</ele>
        <time>2017-12-30T20:35:08Z</time>
      </trkpt>
      <trkpt lat="45.4753" lon="5.51088">
        <ele>551.1</ele>
        <time>2017-12-30T20:35:13Z</time>
      </trkpt>
      <trkpt lat="45.47537" lon="5.51083">
        <ele>552.4</ele>
        <time>2017-12-30T20:35:17Z</time>
      </trkpt>
      <trkpt lat="45.47544" lon="5.51084">
        <ele>553.3</ele>
        <time>2017-12-30T20:35:21Z</time>
      </trkpt>
      <trkpt lat="45.47551" lon="5.51088">
        <ele>554</ele>
        <time>2017-12-30T20:35:25Z</time>
      </trkpt>
      <trkpt lat="45.47559" lon="5.51091">
        <ele>554.9</ele>
        <time>2017-12-30T20:35:30Z</time>
      </trkpt>
      <trkpt lat="45.47566" lon="5.51095">
        <ele>555.6</ele>
        <time>2017-12-30T20:35:34Z</time>
      </trkpt>
      <trkpt lat="45.47573" lon="5.51099">
        <ele>556.2</ele>
        <time>2017-12-30T20:35:39Z</time>
      </trkpt>
      <trkpt lat="45.4758" lon="5.51104">
        <ele>556.6</ele>
        <time>2017-12-30T20:35:43Z</time>
      </trkpt>
      <trkpt lat="45.47588" lon="5.51106">
        <ele>558</ele>
        <time>2017-12-30T20:35:48Z</time>
      </trkpt>
      <trkpt lat="45.47597" lon="5.51105">
        <ele>560.1</ele>
        <time>2017-12-30T20:35:53Z</time>
      </trkpt>
      <trkpt lat="45.47604" lon="5.51099">
        <ele>562.3</ele>
        <time>2017-12-30T20:35:58Z</time>
      </trkpt>
      <trkpt lat="45.47609" lon="5.51091">
        <ele>564.2</ele>
        <time>2017-12-30T20:36:02Z</time>
      </trkpt>
      <trkpt lat="45.47612" lon="5.51081">
        <ele>565.6</ele>
        <time>2017-12-30T20:36:06Z</time>
      </trkpt>
      <trkpt lat="45.47615" lon="5.51071">
        <ele>566.6</ele>
        <time>2017-12-30T20:36:11Z</time>
      </trkpt>
      <trkpt lat="45.47618" lon="5.51061">
        <ele>567.4</ele>
        <time>2017-12-30T20:36:15Z</time>
      </trkpt>
      <trkpt lat="45.47619" lon="5.51056">
        <ele>567.8</ele>
        <time>2017-12-30T20:36:17Z</time>
      </trkpt>
      <trkpt lat="45.47623" lon="5.51042">
        <ele>568.9</ele>
        <time>2017-12-30T20:36:23Z</time>
      </trkpt>
      <trkpt lat="45.47625" lon="5.51033">
        <ele>569.4</ele>
        <time>2017-12-30T20:36:27Z</time>
      </trkpt>
      <trkpt lat="45.47625" lon="5.51021">
        <ele>569.6</ele>
        <time>2017-12-30T20:36:32Z</time>
      </trkpt>
      <trkpt lat="45.47619" lon="5.51012">
        <ele>568.8</ele>
        <time>2017-12-30T20:36:37Z</time>
      </trkpt>
      <trkpt lat="45.47611" lon="5.5101">
        <ele>567.4</ele>
        <time>2017-12-30T20:36:41Z</time>
      </trkpt>
      <trkpt lat="45.47603" lon="5.51007">
        <ele>566.1</ele>
        <time>2017-12-30T20:36:46Z</time>
      </trkpt>
      <trkpt lat="45.47597" lon="5.51001">
        <ele>565.3</ele>
        <time>2017-12-30T20:36:50Z</time>
      </trkpt>
      <trkpt lat="45.47592" lon="5.50994">
        <ele>564.4</ele>
        <time>2017-12-30T20:36:54Z</time>
      </trkpt>
      <trkpt lat="45.4759" lon="5.50982">
        <ele>564</ele>
        <time>2017-12-30T20:36:59Z</time>
      </trkpt>
      <trkpt lat="45.4759" lon="5.50969">
        <ele>564</ele>
        <time>2017-12-30T20:37:05Z</time>
      </trkpt>
      <trkpt lat="45.47591" lon="5.50958">
        <ele>564</ele>
        <time>2017-12-30T20:37:09Z</time>
      </trkpt>
      <trkpt lat="45.47594" lon="5.50948">
        <ele>564.3</ele>
        <time>2017-12-30T20:37:13Z</time>
      </trkpt>
      <trkpt lat="45.47599" lon="5.50938">
        <ele>564.8</ele>
        <time>2017-12-30T20:37:18Z</time>
      </trkpt>
      <trkpt lat="45.47604" lon="5.50929">
        <ele>565.2</ele>
        <time>2017-12-30T20:37:23Z</time>
      </trkpt>
      <trkpt lat="45.47609" lon="5.50919">
        <ele>565.5</ele>
        <time>2017-12-30T20:37:28Z</time>
      </trkpt>
      <trkpt lat="45.47612" lon="5.50911">
        <ele>566.3</ele>
        <time>2017-12-30T20:37:31Z</time>
      </trkpt>
      <trkpt lat="45.47613" lon="5.50901">
        <ele>567.4</ele>
        <time>2017-12-30T20:37:36Z</time>
      </trkpt>
      <trkpt lat="45.47615" lon="5.50891">
        <ele>568.5</ele>
        <time>2017-12-30T20:37:40Z</time>
      </trkpt>
      <trkpt lat="45.47615" lon="5.50884">
        <ele>569.1</ele>
        <time>2017-12-30T20:37:42Z</time>
      </trkpt>
      <trkpt lat="45.47619" lon="5.50873">
        <ele>570.4</ele>
        <time>2017-12-30T20:37:47Z</time>
      </trkpt>
      <trkpt lat="45.47621" lon="5.50863">
        <ele>571.4</ele>
        <time>2017-12-30T20:37:52Z</time>
      </trkpt>
      <trkpt lat="45.47625" lon="5.50853">
        <ele>572.4</ele>
        <time>2017-12-30T20:37:56Z</time>
      </trkpt>
      <trkpt lat="45.47627" lon="5.50844">
        <ele>573.2</ele>
        <time>2017-12-30T20:38:00Z</time>
      </trkpt>
      <trkpt lat="45.47629" lon="5.50834">
        <ele>574.1</ele>
        <time>2017-12-30T20:38:04Z</time>
      </trkpt>
      <trkpt lat="45.47631" lon="5.5083">
        <ele>574.6</ele>
        <time>2017-12-30T20:38:06Z</time>
      </trkpt>
      <trkpt lat="45.47634" lon="5.50817">
        <ele>576</ele>
        <time>2017-12-30T20:38:12Z</time>
      </trkpt>
      <trkpt lat="45.47637" lon="5.50808">
        <ele>577</ele>
        <time>2017-12-30T20:38:16Z</time>
      </trkpt>
      <trkpt lat="45.4764" lon="5.50799">
        <ele>577.9</ele>
        <time>2017-12-30T20:38:20Z</time>
      </trkpt>
      <trkpt lat="45.47643" lon="5.50791">
        <ele>578.8</ele>
        <time>2017-12-30T20:38:23Z</time>
      </trkpt>
      <trkpt lat="45.47647" lon="5.50784">
        <ele>579.4</ele>
        <time>2017-12-30T20:38:27Z</time>
      </trkpt>
      <trkpt lat="45.4765" lon="5.50776">
        <ele>580.1</ele>
        <time>2017-12-30T20:38:31Z</time>
      </trkpt>
      <trkpt lat="45.47653" lon="5.50769">
        <ele>580.7</ele>
        <time>2017-12-30T20:38:34Z</time>
      </trkpt>
      <trkpt lat="45.47657" lon="5.5076">
        <ele>581.5</ele>
        <time>2017-12-30T20:38:38Z</time>
      </trkpt>
      <trkpt lat="45.4766" lon="5.50752">
        <ele>582.1</ele>
        <time>2017-12-30T20:38:42Z</time>
      </trkpt>
      <trkpt lat="45.47663" lon="5.50743">
        <ele>583.2</ele>
        <time>2017-12-30T20:38:46Z</time>
      </trkpt>
      <trkpt lat="45.47667" lon="5.50733">
        <ele>584.5</ele>
        <time>2017-12-30T20:38:50Z</time>
      </trkpt>
      <trkpt lat="45.4767" lon="5.50723">
        <ele>586</ele>
        <time>2017-12-30T20:38:55Z</time>
      </trkpt>
      <trkpt lat="45.47674" lon="5.50713">
        <ele>587.5</ele>
        <time>2017-12-30T20:38:59Z</time>
      </trkpt>
      <trkpt lat="45.47678" lon="5.50704">
        <ele>588.8</ele>
        <time>2017-12-30T20:39:04Z</time>
      </trkpt>
      <trkpt lat="45.47682" lon="5.50695">
        <ele>590.2</ele>
        <time>2017-12-30T20:39:08Z</time>
      </trkpt>
      <trkpt lat="45.47685" lon="5.50685">
        <ele>591.6</ele>
        <time>2017-12-30T20:39:12Z</time>
      </trkpt>
      <trkpt lat="45.47689" lon="5.50677">
        <ele>592.9</ele>
        <time>2017-12-30T20:39:16Z</time>
      </trkpt>
      <trkpt lat="45.47694" lon="5.50666">
        <ele>594.4</ele>
        <time>2017-12-30T20:39:21Z</time>
      </trkpt>
      <trkpt lat="45.47697" lon="5.5066">
        <ele>594.9</ele>
        <time>2017-12-30T20:39:24Z</time>
      </trkpt>
      <trkpt lat="45.47702" lon="5.50652">
        <ele>595.5</ele>
        <time>2017-12-30T20:39:29Z</time>
      </trkpt>
      <trkpt lat="45.47702" lon="5.50652">
        <ele>595.5</ele>
        <time>2017-12-30T20:39:29Z</time>
      </trkpt>
      <trkpt lat="45.47705" lon="5.50645">
        <ele>596</ele>
        <time>2017-12-30T20:39:32Z</time>
      </trkpt>
      <trkpt lat="45.47711" lon="5.50637">
        <ele>596.5</ele>
        <time>2017-12-30T20:39:37Z</time>
      </trkpt>
      <trkpt lat="45.47717" lon="5.50629">
        <ele>597</ele>
        <time>2017-12-30T20:39:41Z</time>
      </trkpt>
      <trkpt lat="45.47722" lon="5.50621">
        <ele>597.4</ele>
        <time>2017-12-30T20:39:46Z</time>
      </trkpt>
      <trkpt lat="45.47726" lon="5.50615">
        <ele>597.8</ele>
        <time>2017-12-30T20:39:49Z</time>
      </trkpt>
      <trkpt lat="45.47731" lon="5.50608">
        <ele>598.1</ele>
        <time>2017-12-30T20:39:53Z</time>
      </trkpt>
      <trkpt lat="45.47735" lon="5.50601">
        <ele>598.4</ele>
        <time>2017-12-30T20:39:57Z</time>
      </trkpt>
      <trkpt lat="45.47739" lon="5.50592">
        <ele>598.8</ele>
        <time>2017-12-30T20:40:01Z</time>
      </trkpt>
      <trkpt lat="45.47742" lon="5.50582">
        <ele>599.2</ele>
        <time>2017-12-30T20:40:05Z</time>
      </trkpt>
      <trkpt lat="45.47745" lon="5.50576">
        <ele>599.3</ele>
        <time>2017-12-30T20:40:08Z</time>
      </trkpt>
      <trkpt lat="45.47747" lon="5.50571">
        <ele>599.4</ele>
        <time>2017-12-30T20:40:10Z</time>
      </trkpt>
      <trkpt lat="45.4775" lon="5.50553">
        <ele>599.7</ele>
        <time>2017-12-30T20:40:18Z</time>
      </trkpt>
      <trkpt lat="45.47752" lon="5.50542">
        <ele>600</ele>
        <time>2017-12-30T20:40:22Z</time>
      </trkpt>
      <trkpt lat="45.47752" lon="5.50531">
        <ele>600.2</ele>
        <time>2017-12-30T20:40:27Z</time>
      </trkpt>
      <trkpt lat="45.47753" lon="5.50522">
        <ele>600.4</ele>
        <time>2017-12-30T20:40:31Z</time>
      </trkpt>
      <trkpt lat="45.47753" lon="5.50509">
        <ele>600.7</ele>
        <time>2017-12-30T20:40:36Z</time>
      </trkpt>
      <trkpt lat="45.47752" lon="5.505">
        <ele>601</ele>
        <time>2017-12-30T20:40:39Z</time>
      </trkpt>
      <trkpt lat="45.47753" lon="5.50489">
        <ele>601.2</ele>
        <time>2017-12-30T20:40:44Z</time>
      </trkpt>
      <trkpt lat="45.47755" lon="5.50478">
        <ele>601.4</ele>
        <time>2017-12-30T20:40:48Z</time>
      </trkpt>
      <trkpt lat="45.47757" lon="5.50466">
        <ele>601.7</ele>
        <time>2017-12-30T20:40:53Z</time>
      </trkpt>
      <trkpt lat="45.47759" lon="5.50454">
        <ele>601.9</ele>
        <time>2017-12-30T20:40:58Z</time>
      </trkpt>
      <trkpt lat="45.47762" lon="5.50442">
        <ele>602.1</ele>
        <time>2017-12-30T20:41:03Z</time>
      </trkpt>
      <trkpt lat="45.47764" lon="5.50431">
        <ele>602.3</ele>
        <time>2017-12-30T20:41:08Z</time>
      </trkpt>
      <trkpt lat="45.47767" lon="5.50419">
        <ele>602.5</ele>
        <time>2017-12-30T20:41:13Z</time>
      </trkpt>
      <trkpt lat="45.4777" lon="5.50407">
        <ele>602.8</ele>
        <time>2017-12-30T20:41:18Z</time>
      </trkpt>
      <trkpt lat="45.47772" lon="5.50395">
        <ele>603.1</ele>
        <time>2017-12-30T20:41:23Z</time>
      </trkpt>
      <trkpt lat="45.47775" lon="5.50383">
        <ele>603.3</ele>
        <time>2017-12-30T20:41:28Z</time>
      </trkpt>
      <trkpt lat="45.47779" lon="5.50372">
        <ele>603.6</ele>
        <time>2017-12-30T20:41:33Z</time>
      </trkpt>
      <trkpt lat="45.47782" lon="5.50361">
        <ele>603.8</ele>
        <time>2017-12-30T20:41:38Z</time>
      </trkpt>
      <trkpt lat="45.47782" lon="5.5035">
        <ele>604.2</ele>
        <time>2017-12-30T20:41:42Z</time>
      </trkpt>
      <trkpt lat="45.4778" lon="5.50339">
        <ele>604.5</ele>
        <time>2017-12-30T20:41:47Z</time>
      </trkpt>
      <trkpt lat="45.47777" lon="5.50328">
        <ele>604.8</ele>
        <time>2017-12-30T20:41:52Z</time>
      </trkpt>
      <trkpt lat="45.47774" lon="5.50317">
        <ele>605.2</ele>
        <time>2017-12-30T20:41:56Z</time>
      </trkpt>
      <trkpt lat="45.47771" lon="5.50308">
        <ele>605.5</ele>
        <time>2017-12-30T20:42:00Z</time>
      </trkpt>
      <trkpt lat="45.47767" lon="5.503">
        <ele>605.8</ele>
        <time>2017-12-30T20:42:04Z</time>
      </trkpt>
      <trkpt lat="45.47764" lon="5.50291">
        <ele>606.2</ele>
        <time>2017-12-30T20:42:08Z</time>
      </trkpt>
      <trkpt lat="45.4776" lon="5.50283">
        <ele>606.6</ele>
        <time>2017-12-30T20:42:12Z</time>
      </trkpt>
      <trkpt lat="45.47757" lon="5.50275">
        <ele>606.9</ele>
        <time>2017-12-30T20:42:16Z</time>
      </trkpt>
      <trkpt lat="45.47753" lon="5.50266">
        <ele>607.3</ele>
        <time>2017-12-30T20:42:20Z</time>
      </trkpt>
      <trkpt lat="45.47749" lon="5.50258">
        <ele>607.8</ele>
        <time>2017-12-30T20:42:24Z</time>
      </trkpt>
      <trkpt lat="45.47744" lon="5.50249">
        <ele>608.3</ele>
        <time>2017-12-30T20:42:29Z</time>
      </trkpt>
      <trkpt lat="45.47741" lon="5.50245">
        <ele>608.5</ele>
        <time>2017-12-30T20:42:31Z</time>
      </trkpt>
      <trkpt lat="45.47732" lon="5.50236">
        <ele>609.1</ele>
        <time>2017-12-30T20:42:37Z</time>
      </trkpt>
      <trkpt lat="45.47726" lon="5.50232">
        <ele>609.5</ele>
        <time>2017-12-30T20:42:41Z</time>
      </trkpt>
      <trkpt lat="45.4772" lon="5.50229">
        <ele>609.9</ele>
        <time>2017-12-30T20:42:45Z</time>
      </trkpt>
      <trkpt lat="45.47712" lon="5.50224">
        <ele>610.4</ele>
        <time>2017-12-30T20:42:50Z</time>
      </trkpt>
      <trkpt lat="45.47704" lon="5.50219">
        <ele>611</ele>
        <time>2017-12-30T20:42:55Z</time>
      </trkpt>
      <trkpt lat="45.47697" lon="5.50213">
        <ele>611.6</ele>
        <time>2017-12-30T20:42:59Z</time>
      </trkpt>
      <trkpt lat="45.47693" lon="5.50207">
        <ele>612</ele>
        <time>2017-12-30T20:43:03Z</time>
      </trkpt>
      <trkpt lat="45.47687" lon="5.50198">
        <ele>612.6</ele>
        <time>2017-12-30T20:43:08Z</time>
      </trkpt>
      <trkpt lat="45.47684" lon="5.5019">
        <ele>613</ele>
        <time>2017-12-30T20:43:11Z</time>
      </trkpt>
      <trkpt lat="45.47682" lon="5.50182">
        <ele>613.4</ele>
        <time>2017-12-30T20:43:15Z</time>
      </trkpt>
      <trkpt lat="45.47679" lon="5.50173">
        <ele>613.9</ele>
        <time>2017-12-30T20:43:19Z</time>
      </trkpt>
      <trkpt lat="45.47677" lon="5.50165">
        <ele>614.3</ele>
        <time>2017-12-30T20:43:22Z</time>
      </trkpt>
      <trkpt lat="45.47674" lon="5.50157">
        <ele>614.5</ele>
        <time>2017-12-30T20:43:26Z</time>
      </trkpt>
      <trkpt lat="45.47672" lon="5.50148">
        <ele>614.6</ele>
        <time>2017-12-30T20:43:30Z</time>
      </trkpt>
      <trkpt lat="45.47669" lon="5.50137">
        <ele>614.8</ele>
        <time>2017-12-30T20:43:34Z</time>
      </trkpt>
      <trkpt lat="45.47667" lon="5.50125">
        <ele>615</ele>
        <time>2017-12-30T20:43:39Z</time>
      </trkpt>
      <trkpt lat="45.47665" lon="5.50115">
        <ele>615.2</ele>
        <time>2017-12-30T20:43:43Z</time>
      </trkpt>
      <trkpt lat="45.47662" lon="5.50104">
        <ele>615.6</ele>
        <time>2017-12-30T20:43:48Z</time>
      </trkpt>
      <trkpt lat="45.47659" lon="5.50094">
        <ele>616.1</ele>
        <time>2017-12-30T20:43:53Z</time>
      </trkpt>
      <trkpt lat="45.47654" lon="5.50084">
        <ele>617</ele>
        <time>2017-12-30T20:43:57Z</time>
      </trkpt>
      <trkpt lat="45.4765" lon="5.50074">
        <ele>617.7</ele>
        <time>2017-12-30T20:44:02Z</time>
      </trkpt>
      <trkpt lat="45.47647" lon="5.50065">
        <ele>618.2</ele>
        <time>2017-12-30T20:44:06Z</time>
      </trkpt>
      <trkpt lat="45.47643" lon="5.50054">
        <ele>618.8</ele>
        <time>2017-12-30T20:44:11Z</time>
      </trkpt>
      <trkpt lat="45.47642" lon="5.50051">
        <ele>619</ele>
        <time>2017-12-30T20:44:12Z</time>
      </trkpt>
      <trkpt lat="45.47637" lon="5.50036">
        <ele>619.8</ele>
        <time>2017-12-30T20:44:19Z</time>
      </trkpt>
      <trkpt lat="45.47633" lon="5.50028">
        <ele>620.4</ele>
        <time>2017-12-30T20:44:23Z</time>
      </trkpt>
      <trkpt lat="45.47629" lon="5.5002">
        <ele>620.9</ele>
        <time>2017-12-30T20:44:27Z</time>
      </trkpt>
      <trkpt lat="45.47625" lon="5.50009">
        <ele>621.5</ele>
        <time>2017-12-30T20:44:32Z</time>
      </trkpt>
      <trkpt lat="45.47623" lon="5.50002">
        <ele>621.8</ele>
        <time>2017-12-30T20:44:35Z</time>
      </trkpt>
      <trkpt lat="45.47621" lon="5.49995">
        <ele>622</ele>
        <time>2017-12-30T20:44:38Z</time>
      </trkpt>
      <trkpt lat="45.47617" lon="5.49984">
        <ele>622.5</ele>
        <time>2017-12-30T20:44:43Z</time>
      </trkpt>
      <trkpt lat="45.47615" lon="5.49972">
        <ele>622.6</ele>
        <time>2017-12-30T20:44:48Z</time>
      </trkpt>
      <trkpt lat="45.47613" lon="5.4996">
        <ele>622.8</ele>
        <time>2017-12-30T20:44:53Z</time>
      </trkpt>
      <trkpt lat="45.47613" lon="5.49948">
        <ele>622.7</ele>
        <time>2017-12-30T20:44:58Z</time>
      </trkpt>
      <trkpt lat="45.47613" lon="5.49938">
        <ele>622.6</ele>
        <time>2017-12-30T20:45:02Z</time>
      </trkpt>
      <trkpt lat="45.47612" lon="5.49926">
        <ele>622.6</ele>
        <time>2017-12-30T20:45:06Z</time>
      </trkpt>
      <trkpt lat="45.47612" lon="5.4992">
        <ele>622.6</ele>
        <time>2017-12-30T20:45:09Z</time>
      </trkpt>
      <trkpt lat="45.47612" lon="5.49907">
        <ele>622.8</ele>
        <time>2017-12-30T20:45:14Z</time>
      </trkpt>
      <trkpt lat="45.47612" lon="5.49895">
        <ele>623</ele>
        <time>2017-12-30T20:45:19Z</time>
      </trkpt>
      <trkpt lat="45.47612" lon="5.49884">
        <ele>623.3</ele>
        <time>2017-12-30T20:45:23Z</time>
      </trkpt>
      <trkpt lat="45.47612" lon="5.49873">
        <ele>623.5</ele>
        <time>2017-12-30T20:45:28Z</time>
      </trkpt>
      <trkpt lat="45.47612" lon="5.49867">
        <ele>623.6</ele>
        <time>2017-12-30T20:45:30Z</time>
      </trkpt>
      <trkpt lat="45.47612" lon="5.4986">
        <ele>623.7</ele>
        <time>2017-12-30T20:45:33Z</time>
      </trkpt>
      <trkpt lat="45.47612" lon="5.49847">
        <ele>624</ele>
        <time>2017-12-30T20:45:38Z</time>
      </trkpt>
      <trkpt lat="45.47613" lon="5.49841">
        <ele>624.1</ele>
        <time>2017-12-30T20:45:41Z</time>
      </trkpt>
      <trkpt lat="45.47613" lon="5.49834">
        <ele>624.2</ele>
        <time>2017-12-30T20:45:43Z</time>
      </trkpt>
      <trkpt lat="45.47613" lon="5.49827">
        <ele>624.1</ele>
        <time>2017-12-30T20:45:46Z</time>
      </trkpt>
      <trkpt lat="45.47612" lon="5.4982">
        <ele>624</ele>
        <time>2017-12-30T20:45:49Z</time>
      </trkpt>
      <trkpt lat="45.47611" lon="5.49812">
        <ele>624</ele>
        <time>2017-12-30T20:45:52Z</time>
      </trkpt>
      <trkpt lat="45.47611" lon="5.49805">
        <ele>623.9</ele>
        <time>2017-12-30T20:45:55Z</time>
      </trkpt>
      <trkpt lat="45.47609" lon="5.49798">
        <ele>623.9</ele>
        <time>2017-12-30T20:45:58Z</time>
      </trkpt>
      <trkpt lat="45.47608" lon="5.49792">
        <ele>623.9</ele>
        <time>2017-12-30T20:46:01Z</time>
      </trkpt>
      <trkpt lat="45.47607" lon="5.49785">
        <ele>623.9</ele>
        <time>2017-12-30T20:46:03Z</time>
      </trkpt>
      <trkpt lat="45.47606" lon="5.49779">
        <ele>623.9</ele>
        <time>2017-12-30T20:46:06Z</time>
      </trkpt>
      <trkpt lat="45.47604" lon="5.49773">
        <ele>624</ele>
        <time>2017-12-30T20:46:09Z</time>
      </trkpt>
      <trkpt lat="45.47602" lon="5.49767">
        <ele>624.2</ele>
        <time>2017-12-30T20:46:11Z</time>
      </trkpt>
      <trkpt lat="45.47599" lon="5.49756">
        <ele>624.3</ele>
        <time>2017-12-30T20:46:16Z</time>
      </trkpt>
      <trkpt lat="45.47596" lon="5.49744">
        <ele>624.5</ele>
        <time>2017-12-30T20:46:21Z</time>
      </trkpt>
      <trkpt lat="45.47594" lon="5.49732">
        <ele>624.6</ele>
        <time>2017-12-30T20:46:26Z</time>
      </trkpt>
      <trkpt lat="45.47592" lon="5.4972">
        <ele>624.6</ele>
        <time>2017-12-30T20:46:31Z</time>
      </trkpt>
      <trkpt lat="45.47591" lon="5.49713">
        <ele>624.6</ele>
        <time>2017-12-30T20:46:34Z</time>
      </trkpt>
      <trkpt lat="45.47589" lon="5.49706">
        <ele>624.8</ele>
        <time>2017-12-30T20:46:37Z</time>
      </trkpt>
      <trkpt lat="45.47588" lon="5.497">
        <ele>624.8</ele>
        <time>2017-12-30T20:46:39Z</time>
      </trkpt>
      <trkpt lat="45.47586" lon="5.49693">
        <ele>625</ele>
        <time>2017-12-30T20:46:42Z</time>
      </trkpt>
      <trkpt lat="45.47585" lon="5.49687">
        <ele>625</ele>
        <time>2017-12-30T20:46:45Z</time>
      </trkpt>
      <trkpt lat="45.47584" lon="5.49681">
        <ele>625.1</ele>
        <time>2017-12-30T20:46:47Z</time>
      </trkpt>
      <trkpt lat="45.47583" lon="5.49673">
        <ele>625.1</ele>
        <time>2017-12-30T20:46:51Z</time>
      </trkpt>
      <trkpt lat="45.47582" lon="5.49666">
        <ele>625.1</ele>
        <time>2017-12-30T20:46:53Z</time>
      </trkpt>
      <trkpt lat="45.47581" lon="5.49658">
        <ele>625</ele>
        <time>2017-12-30T20:46:57Z</time>
      </trkpt>
      <trkpt lat="45.4758" lon="5.49651">
        <ele>625</ele>
        <time>2017-12-30T20:47:00Z</time>
      </trkpt>
      <trkpt lat="45.47578" lon="5.49643">
        <ele>625.1</ele>
        <time>2017-12-30T20:47:03Z</time>
      </trkpt>
      <trkpt lat="45.47577" lon="5.49635">
        <ele>625</ele>
        <time>2017-12-30T20:47:06Z</time>
      </trkpt>
      <trkpt lat="45.47576" lon="5.49628">
        <ele>625</ele>
        <time>2017-12-30T20:47:09Z</time>
      </trkpt>
      <trkpt lat="45.47575" lon="5.4962">
        <ele>625</ele>
        <time>2017-12-30T20:47:12Z</time>
      </trkpt>
      <trkpt lat="45.47574" lon="5.49613">
        <ele>625</ele>
        <time>2017-12-30T20:47:15Z</time>
      </trkpt>
      <trkpt lat="45.47573" lon="5.49606">
        <ele>625.1</ele>
        <time>2017-12-30T20:47:18Z</time>
      </trkpt>
      <trkpt lat="45.47571" lon="5.49599">
        <ele>625.2</ele>
        <time>2017-12-30T20:47:21Z</time>
      </trkpt>
      <trkpt lat="45.4757" lon="5.49592">
        <ele>625.2</ele>
        <time>2017-12-30T20:47:24Z</time>
      </trkpt>
      <trkpt lat="45.47569" lon="5.49585">
        <ele>625.2</ele>
        <time>2017-12-30T20:47:27Z</time>
      </trkpt>
      <trkpt lat="45.47568" lon="5.49579">
        <ele>625.2</ele>
        <time>2017-12-30T20:47:29Z</time>
      </trkpt>
      <trkpt lat="45.47567" lon="5.49572">
        <ele>625.1</ele>
        <time>2017-12-30T20:47:32Z</time>
      </trkpt>
      <trkpt lat="45.47566" lon="5.49566">
        <ele>625</ele>
        <time>2017-12-30T20:47:35Z</time>
      </trkpt>
      <trkpt lat="45.47565" lon="5.49559">
        <ele>625</ele>
        <time>2017-12-30T20:47:38Z</time>
      </trkpt>
      <trkpt lat="45.47564" lon="5.49553">
        <ele>624.9</ele>
        <time>2017-12-30T20:47:40Z</time>
      </trkpt>
      <trkpt lat="45.47562" lon="5.4954">
        <ele>624.9</ele>
        <time>2017-12-30T20:47:45Z</time>
      </trkpt>
      <trkpt lat="45.47559" lon="5.49528">
        <ele>625</ele>
        <time>2017-12-30T20:47:50Z</time>
      </trkpt>
      <trkpt lat="45.47558" lon="5.49522">
        <ele>625</ele>
        <time>2017-12-30T20:47:53Z</time>
      </trkpt>
      <trkpt lat="45.47556" lon="5.49515">
        <ele>625.2</ele>
        <time>2017-12-30T20:47:56Z</time>
      </trkpt>
      <trkpt lat="45.47553" lon="5.49504">
        <ele>625.4</ele>
        <time>2017-12-30T20:48:01Z</time>
      </trkpt>
      <trkpt lat="45.47549" lon="5.49493">
        <ele>625.9</ele>
        <time>2017-12-30T20:48:06Z</time>
      </trkpt>
      <trkpt lat="45.47546" lon="5.49482">
        <ele>626.3</ele>
        <time>2017-12-30T20:48:10Z</time>
      </trkpt>
      <trkpt lat="45.47541" lon="5.49472">
        <ele>626.9</ele>
        <time>2017-12-30T20:48:15Z</time>
      </trkpt>
      <trkpt lat="45.47536" lon="5.49462">
        <ele>627.5</ele>
        <time>2017-12-30T20:48:20Z</time>
      </trkpt>
      <trkpt lat="45.47532" lon="5.49452">
        <ele>628</ele>
        <time>2017-12-30T20:48:25Z</time>
      </trkpt>
      <trkpt lat="45.47529" lon="5.49442">
        <ele>628.4</ele>
        <time>2017-12-30T20:48:29Z</time>
      </trkpt>
      <trkpt lat="45.47527" lon="5.4943">
        <ele>628.5</ele>
        <time>2017-12-30T20:48:34Z</time>
      </trkpt>
      <trkpt lat="45.47527" lon="5.49423">
        <ele>628.5</ele>
        <time>2017-12-30T20:48:37Z</time>
      </trkpt>
      <trkpt lat="45.47526" lon="5.49416">
        <ele>628.5</ele>
        <time>2017-12-30T20:48:40Z</time>
      </trkpt>
      <trkpt lat="45.47525" lon="5.49408">
        <ele>628.3</ele>
        <time>2017-12-30T20:48:43Z</time>
      </trkpt>
      <trkpt lat="45.47523" lon="5.49401">
        <ele>628.4</ele>
        <time>2017-12-30T20:48:46Z</time>
      </trkpt>
      <trkpt lat="45.47522" lon="5.49394">
        <ele>628.2</ele>
        <time>2017-12-30T20:48:49Z</time>
      </trkpt>
      <trkpt lat="45.4752" lon="5.49387">
        <ele>628.3</ele>
        <time>2017-12-30T20:48:52Z</time>
      </trkpt>
      <trkpt lat="45.47518" lon="5.49379">
        <ele>628.3</ele>
        <time>2017-12-30T20:48:55Z</time>
      </trkpt>
      <trkpt lat="45.47516" lon="5.49372">
        <ele>628.4</ele>
        <time>2017-12-30T20:48:58Z</time>
      </trkpt>
      <trkpt lat="45.47514" lon="5.49365">
        <ele>628.5</ele>
        <time>2017-12-30T20:49:02Z</time>
      </trkpt>
      <trkpt lat="45.47512" lon="5.49358">
        <ele>628.6</ele>
        <time>2017-12-30T20:49:05Z</time>
      </trkpt>
      <trkpt lat="45.4751" lon="5.49352">
        <ele>628.7</ele>
        <time>2017-12-30T20:49:07Z</time>
      </trkpt>
      <trkpt lat="45.47509" lon="5.49345">
        <ele>628.7</ele>
        <time>2017-12-30T20:49:10Z</time>
      </trkpt>
      <trkpt lat="45.47506" lon="5.49334">
        <ele>628.9</ele>
        <time>2017-12-30T20:49:15Z</time>
      </trkpt>
      <trkpt lat="45.47499" lon="5.49331">
        <ele>629.9</ele>
        <time>2017-12-30T20:49:19Z</time>
      </trkpt>
      <trkpt lat="45.47491" lon="5.49337">
        <ele>630.7</ele>
        <time>2017-12-30T20:49:24Z</time>
      </trkpt>
      <trkpt lat="45.47487" lon="5.49339">
        <ele>631</ele>
        <time>2017-12-30T20:49:27Z</time>
      </trkpt>
      <trkpt lat="45.47482" lon="5.49341">
        <ele>631.4</ele>
        <time>2017-12-30T20:49:30Z</time>
      </trkpt>
      <trkpt lat="45.47477" lon="5.49343">
        <ele>631.7</ele>
        <time>2017-12-30T20:49:33Z</time>
      </trkpt>
      <trkpt lat="45.47473" lon="5.49344">
        <ele>632</ele>
        <time>2017-12-30T20:49:35Z</time>
      </trkpt>
      <trkpt lat="45.47466" lon="5.49347">
        <ele>632.5</ele>
        <time>2017-12-30T20:49:39Z</time>
      </trkpt>
      <trkpt lat="45.47461" lon="5.49348">
        <ele>632.8</ele>
        <time>2017-12-30T20:49:42Z</time>
      </trkpt>
      <trkpt lat="45.47456" lon="5.49349">
        <ele>633.1</ele>
        <time>2017-12-30T20:49:45Z</time>
      </trkpt>
      <trkpt lat="45.47451" lon="5.49351">
        <ele>633.4</ele>
        <time>2017-12-30T20:49:48Z</time>
      </trkpt>
      <trkpt lat="45.47445" lon="5.49352">
        <ele>633.8</ele>
        <time>2017-12-30T20:49:51Z</time>
      </trkpt>
      <trkpt lat="45.4744" lon="5.49352">
        <ele>634.1</ele>
        <time>2017-12-30T20:49:54Z</time>
      </trkpt>
      <trkpt lat="45.47435" lon="5.49353">
        <ele>634.4</ele>
        <time>2017-12-30T20:49:57Z</time>
      </trkpt>
      <trkpt lat="45.4743" lon="5.49354">
        <ele>634.7</ele>
        <time>2017-12-30T20:50:00Z</time>
      </trkpt>
      <trkpt lat="45.47425" lon="5.49354">
        <ele>635</ele>
        <time>2017-12-30T20:50:03Z</time>
      </trkpt>
      <trkpt lat="45.4742" lon="5.49355">
        <ele>635.3</ele>
        <time>2017-12-30T20:50:06Z</time>
      </trkpt>
      <trkpt lat="45.47415" lon="5.49356">
        <ele>635.5</ele>
        <time>2017-12-30T20:50:08Z</time>
      </trkpt>
      <trkpt lat="45.47411" lon="5.49356">
        <ele>635.6</ele>
        <time>2017-12-30T20:50:11Z</time>
      </trkpt>
      <trkpt lat="45.47406" lon="5.49356">
        <ele>635.7</ele>
        <time>2017-12-30T20:50:14Z</time>
      </trkpt>
      <trkpt lat="45.47397" lon="5.49357">
        <ele>635.8</ele>
        <time>2017-12-30T20:50:19Z</time>
      </trkpt>
      <trkpt lat="45.47388" lon="5.49356">
        <ele>636</ele>
        <time>2017-12-30T20:50:24Z</time>
      </trkpt>
      <trkpt lat="45.47384" lon="5.49356">
        <ele>636.1</ele>
        <time>2017-12-30T20:50:26Z</time>
      </trkpt>
      <trkpt lat="45.47379" lon="5.49356">
        <ele>636.2</ele>
        <time>2017-12-30T20:50:29Z</time>
      </trkpt>
      <trkpt lat="45.47374" lon="5.49356">
        <ele>636.2</ele>
        <time>2017-12-30T20:50:32Z</time>
      </trkpt>
      <trkpt lat="45.4737" lon="5.49355">
        <ele>636.3</ele>
        <time>2017-12-30T20:50:34Z</time>
      </trkpt>
      <trkpt lat="45.47365" lon="5.49355">
        <ele>636.4</ele>
        <time>2017-12-30T20:50:37Z</time>
      </trkpt>
      <trkpt lat="45.4736" lon="5.49354">
        <ele>636.5</ele>
        <time>2017-12-30T20:50:40Z</time>
      </trkpt>
      <trkpt lat="45.47355" lon="5.49355">
        <ele>636.6</ele>
        <time>2017-12-30T20:50:43Z</time>
      </trkpt>
      <trkpt lat="45.4735" lon="5.49355">
        <ele>636.7</ele>
        <time>2017-12-30T20:50:46Z</time>
      </trkpt>
      <trkpt lat="45.47344" lon="5.49356">
        <ele>636.8</ele>
        <time>2017-12-30T20:50:49Z</time>
      </trkpt>
      <trkpt lat="45.47339" lon="5.49356">
        <ele>636.9</ele>
        <time>2017-12-30T20:50:52Z</time>
      </trkpt>
      <trkpt lat="45.47334" lon="5.49357">
        <ele>637</ele>
        <time>2017-12-30T20:50:55Z</time>
      </trkpt>
      <trkpt lat="45.47329" lon="5.49357">
        <ele>637.1</ele>
        <time>2017-12-30T20:50:58Z</time>
      </trkpt>
      <trkpt lat="45.47324" lon="5.49359">
        <ele>637.2</ele>
        <time>2017-12-30T20:51:01Z</time>
      </trkpt>
      <trkpt lat="45.47318" lon="5.49361">
        <ele>637.3</ele>
        <time>2017-12-30T20:51:04Z</time>
      </trkpt>
      <trkpt lat="45.47313" lon="5.49365">
        <ele>637.4</ele>
        <time>2017-12-30T20:51:08Z</time>
      </trkpt>
      <trkpt lat="45.47308" lon="5.49368">
        <ele>637.5</ele>
        <time>2017-12-30T20:51:11Z</time>
      </trkpt>
      <trkpt lat="45.47303" lon="5.49372">
        <ele>637.6</ele>
        <time>2017-12-30T20:51:14Z</time>
      </trkpt>
      <trkpt lat="45.47299" lon="5.49376">
        <ele>637.6</ele>
        <time>2017-12-30T20:51:17Z</time>
      </trkpt>
      <trkpt lat="45.47294" lon="5.4938">
        <ele>637.7</ele>
        <time>2017-12-30T20:51:20Z</time>
      </trkpt>
      <trkpt lat="45.4729" lon="5.49385">
        <ele>637.7</ele>
        <time>2017-12-30T20:51:23Z</time>
      </trkpt>
      <trkpt lat="45.47285" lon="5.4939">
        <ele>637.8</ele>
        <time>2017-12-30T20:51:27Z</time>
      </trkpt>
      <trkpt lat="45.47281" lon="5.49395">
        <ele>637.8</ele>
        <time>2017-12-30T20:51:30Z</time>
      </trkpt>
      <trkpt lat="45.47276" lon="5.49399">
        <ele>637.8</ele>
        <time>2017-12-30T20:51:33Z</time>
      </trkpt>
      <trkpt lat="45.47272" lon="5.49404">
        <ele>637.9</ele>
        <time>2017-12-30T20:51:36Z</time>
      </trkpt>
      <trkpt lat="45.47268" lon="5.49408">
        <ele>637.9</ele>
        <time>2017-12-30T20:51:39Z</time>
      </trkpt>
      <trkpt lat="45.47263" lon="5.49413">
        <ele>637.9</ele>
        <time>2017-12-30T20:51:42Z</time>
      </trkpt>
      <trkpt lat="45.47259" lon="5.49417">
        <ele>637.9</ele>
        <time>2017-12-30T20:51:45Z</time>
      </trkpt>
      <trkpt lat="45.47254" lon="5.49421">
        <ele>637.9</ele>
        <time>2017-12-30T20:51:48Z</time>
      </trkpt>
      <trkpt lat="45.47249" lon="5.49424">
        <ele>637.9</ele>
        <time>2017-12-30T20:51:51Z</time>
      </trkpt>
      <trkpt lat="45.47244" lon="5.49427">
        <ele>638</ele>
        <time>2017-12-30T20:51:54Z</time>
      </trkpt>
      <trkpt lat="45.47239" lon="5.49429">
        <ele>638.1</ele>
        <time>2017-12-30T20:51:57Z</time>
      </trkpt>
      <trkpt lat="45.47234" lon="5.49431">
        <ele>638.2</ele>
        <time>2017-12-30T20:52:00Z</time>
      </trkpt>
      <trkpt lat="45.47229" lon="5.49432">
        <ele>638.4</ele>
        <time>2017-12-30T20:52:03Z</time>
      </trkpt>
      <trkpt lat="45.47224" lon="5.49434">
        <ele>638.5</ele>
        <time>2017-12-30T20:52:06Z</time>
      </trkpt>
      <trkpt lat="45.47219" lon="5.49436">
        <ele>638.6</ele>
        <time>2017-12-30T20:52:09Z</time>
      </trkpt>
      <trkpt lat="45.47214" lon="5.49437">
        <ele>638.7</ele>
        <time>2017-12-30T20:52:12Z</time>
      </trkpt>
      <trkpt lat="45.47209" lon="5.49439">
        <ele>638.8</ele>
        <time>2017-12-30T20:52:15Z</time>
      </trkpt>
      <trkpt lat="45.47203" lon="5.4944">
        <ele>639</ele>
        <time>2017-12-30T20:52:19Z</time>
      </trkpt>
      <trkpt lat="45.47198" lon="5.49442">
        <ele>639.1</ele>
        <time>2017-12-30T20:52:22Z</time>
      </trkpt>
      <trkpt lat="45.47192" lon="5.49443">
        <ele>639.2</ele>
        <time>2017-12-30T20:52:25Z</time>
      </trkpt>
      <trkpt lat="45.47187" lon="5.49444">
        <ele>639.4</ele>
        <time>2017-12-30T20:52:28Z</time>
      </trkpt>
      <trkpt lat="45.47182" lon="5.49445">
        <ele>639.5</ele>
        <time>2017-12-30T20:52:31Z</time>
      </trkpt>
      <trkpt lat="45.47177" lon="5.49447">
        <ele>639.6</ele>
        <time>2017-12-30T20:52:34Z</time>
      </trkpt>
      <trkpt lat="45.47172" lon="5.49449">
        <ele>639.7</ele>
        <time>2017-12-30T20:52:37Z</time>
      </trkpt>
      <trkpt lat="45.47166" lon="5.49453">
        <ele>639.7</ele>
        <time>2017-12-30T20:52:40Z</time>
      </trkpt>
      <trkpt lat="45.47161" lon="5.49457">
        <ele>639.7</ele>
        <time>2017-12-30T20:52:44Z</time>
      </trkpt>
      <trkpt lat="45.47156" lon="5.49461">
        <ele>639.7</ele>
        <time>2017-12-30T20:52:47Z</time>
      </trkpt>
      <trkpt lat="45.47151" lon="5.49465">
        <ele>639.6</ele>
        <time>2017-12-30T20:52:50Z</time>
      </trkpt>
      <trkpt lat="45.47145" lon="5.49469">
        <ele>639.6</ele>
        <time>2017-12-30T20:52:54Z</time>
      </trkpt>
      <trkpt lat="45.4714" lon="5.49474">
        <ele>639.5</ele>
        <time>2017-12-30T20:52:58Z</time>
      </trkpt>
      <trkpt lat="45.47134" lon="5.49478">
        <ele>639.4</ele>
        <time>2017-12-30T20:53:01Z</time>
      </trkpt>
      <trkpt lat="45.47129" lon="5.49482">
        <ele>639.3</ele>
        <time>2017-12-30T20:53:05Z</time>
      </trkpt>
      <trkpt lat="45.47124" lon="5.49486">
        <ele>639.2</ele>
        <time>2017-12-30T20:53:08Z</time>
      </trkpt>
      <trkpt lat="45.47119" lon="5.4949">
        <ele>639.1</ele>
        <time>2017-12-30T20:53:11Z</time>
      </trkpt>
      <trkpt lat="45.47114" lon="5.49494">
        <ele>639</ele>
        <time>2017-12-30T20:53:14Z</time>
      </trkpt>
      <trkpt lat="45.47109" lon="5.49498">
        <ele>638.8</ele>
        <time>2017-12-30T20:53:18Z</time>
      </trkpt>
      <trkpt lat="45.47103" lon="5.49502">
        <ele>638.7</ele>
        <time>2017-12-30T20:53:22Z</time>
      </trkpt>
      <trkpt lat="45.47103" lon="5.49502">
        <ele>638.7</ele>
        <time>2017-12-30T20:53:22Z</time>
      </trkpt>
      <trkpt lat="45.47099" lon="5.49505">
        <ele>638.5</ele>
        <time>2017-12-30T20:53:24Z</time>
      </trkpt>
      <trkpt lat="45.47093" lon="5.49508">
        <ele>638.4</ele>
        <time>2017-12-30T20:53:28Z</time>
      </trkpt>
      <trkpt lat="45.47088" lon="5.4951">
        <ele>638.3</ele>
        <time>2017-12-30T20:53:31Z</time>
      </trkpt>
      <trkpt lat="45.47083" lon="5.49512">
        <ele>638.2</ele>
        <time>2017-12-30T20:53:34Z</time>
      </trkpt>
      <trkpt lat="45.47078" lon="5.49512">
        <ele>638.6</ele>
        <time>2017-12-30T20:53:37Z</time>
      </trkpt>
      <trkpt lat="45.47073" lon="5.49512">
        <ele>639</ele>
        <time>2017-12-30T20:53:39Z</time>
      </trkpt>
      <trkpt lat="45.47067" lon="5.49512">
        <ele>639.4</ele>
        <time>2017-12-30T20:53:43Z</time>
      </trkpt>
      <trkpt lat="45.47062" lon="5.49512">
        <ele>639.8</ele>
        <time>2017-12-30T20:53:46Z</time>
      </trkpt>
      <trkpt lat="45.47057" lon="5.49512">
        <ele>640.2</ele>
        <time>2017-12-30T20:53:49Z</time>
      </trkpt>
      <trkpt lat="45.47052" lon="5.49513">
        <ele>640.6</ele>
        <time>2017-12-30T20:53:51Z</time>
      </trkpt>
      <trkpt lat="45.47047" lon="5.49513">
        <ele>641</ele>
        <time>2017-12-30T20:53:54Z</time>
      </trkpt>
      <trkpt lat="45.47042" lon="5.49513">
        <ele>641.4</ele>
        <time>2017-12-30T20:53:57Z</time>
      </trkpt>
      <trkpt lat="45.47037" lon="5.49513">
        <ele>641.8</ele>
        <time>2017-12-30T20:54:00Z</time>
      </trkpt>
      <trkpt lat="45.47033" lon="5.49512">
        <ele>642.1</ele>
        <time>2017-12-30T20:54:02Z</time>
      </trkpt>
      <trkpt lat="45.47024" lon="5.49513">
        <ele>642.8</ele>
        <time>2017-12-30T20:54:08Z</time>
      </trkpt>
      <trkpt lat="45.47019" lon="5.49513">
        <ele>643.2</ele>
        <time>2017-12-30T20:54:10Z</time>
      </trkpt>
      <trkpt lat="45.47015" lon="5.49514">
        <ele>643.5</ele>
        <time>2017-12-30T20:54:13Z</time>
      </trkpt>
      <trkpt lat="45.47006" lon="5.49516">
        <ele>644.1</ele>
        <time>2017-12-30T20:54:18Z</time>
      </trkpt>
      <trkpt lat="45.47001" lon="5.49517">
        <ele>644.5</ele>
        <time>2017-12-30T20:54:21Z</time>
      </trkpt>
      <trkpt lat="45.46993" lon="5.49519">
        <ele>644.9</ele>
        <time>2017-12-30T20:54:25Z</time>
      </trkpt>
      <trkpt lat="45.46984" lon="5.49521">
        <ele>645.3</ele>
        <time>2017-12-30T20:54:31Z</time>
      </trkpt>
      <trkpt lat="45.46979" lon="5.49522">
        <ele>645.6</ele>
        <time>2017-12-30T20:54:34Z</time>
      </trkpt>
      <trkpt lat="45.46974" lon="5.49523">
        <ele>645.8</ele>
        <time>2017-12-30T20:54:36Z</time>
      </trkpt>
      <trkpt lat="45.4697" lon="5.49524">
        <ele>646</ele>
        <time>2017-12-30T20:54:39Z</time>
      </trkpt>
      <trkpt lat="45.46965" lon="5.49525">
        <ele>646.2</ele>
        <time>2017-12-30T20:54:42Z</time>
      </trkpt>
      <trkpt lat="45.46957" lon="5.49525">
        <ele>646.6</ele>
        <time>2017-12-30T20:54:46Z</time>
      </trkpt>
      <trkpt lat="45.46949" lon="5.49523">
        <ele>647.1</ele>
        <time>2017-12-30T20:54:51Z</time>
      </trkpt>
      <trkpt lat="45.46941" lon="5.4952">
        <ele>647.5</ele>
        <time>2017-12-30T20:54:56Z</time>
      </trkpt>
      <trkpt lat="45.46934" lon="5.49517">
        <ele>647.9</ele>
        <time>2017-12-30T20:55:00Z</time>
      </trkpt>
      <trkpt lat="45.46926" lon="5.49514">
        <ele>648.4</ele>
        <time>2017-12-30T20:55:04Z</time>
      </trkpt>
      <trkpt lat="45.46919" lon="5.49513">
        <ele>648.7</ele>
        <time>2017-12-30T20:55:09Z</time>
      </trkpt>
      <trkpt lat="45.46914" lon="5.49512">
        <ele>648.9</ele>
        <time>2017-12-30T20:55:11Z</time>
      </trkpt>
      <trkpt lat="45.4691" lon="5.49511">
        <ele>649.1</ele>
        <time>2017-12-30T20:55:14Z</time>
      </trkpt>
      <trkpt lat="45.46905" lon="5.49511">
        <ele>649.2</ele>
        <time>2017-12-30T20:55:17Z</time>
      </trkpt>
      <trkpt lat="45.46899" lon="5.49511">
        <ele>649.4</ele>
        <time>2017-12-30T20:55:20Z</time>
      </trkpt>
      <trkpt lat="45.46894" lon="5.49512">
        <ele>649.6</ele>
        <time>2017-12-30T20:55:23Z</time>
      </trkpt>
      <trkpt lat="45.4689" lon="5.49514">
        <ele>649.6</ele>
        <time>2017-12-30T20:55:25Z</time>
      </trkpt>
      <trkpt lat="45.46885" lon="5.49516">
        <ele>649.7</ele>
        <time>2017-12-30T20:55:28Z</time>
      </trkpt>
      <trkpt lat="45.46881" lon="5.49519">
        <ele>649.8</ele>
        <time>2017-12-30T20:55:31Z</time>
      </trkpt>
      <trkpt lat="45.46871" lon="5.49525">
        <ele>649.9</ele>
        <time>2017-12-30T20:55:37Z</time>
      </trkpt>
      <trkpt lat="45.46864" lon="5.49529">
        <ele>649.9</ele>
        <time>2017-12-30T20:55:41Z</time>
      </trkpt>
      <trkpt lat="45.46858" lon="5.49534">
        <ele>649.9</ele>
        <time>2017-12-30T20:55:45Z</time>
      </trkpt>
      <trkpt lat="45.46852" lon="5.49537">
        <ele>649.9</ele>
        <time>2017-12-30T20:55:49Z</time>
      </trkpt>
      <trkpt lat="45.46845" lon="5.4954">
        <ele>649.9</ele>
        <time>2017-12-30T20:55:53Z</time>
      </trkpt>
      <trkpt lat="45.46837" lon="5.49543">
        <ele>649.9</ele>
        <time>2017-12-30T20:55:58Z</time>
      </trkpt>
      <trkpt lat="45.46833" lon="5.49544">
        <ele>649.9</ele>
        <time>2017-12-30T20:56:00Z</time>
      </trkpt>
      <trkpt lat="45.46828" lon="5.49545">
        <ele>650.2</ele>
        <time>2017-12-30T20:56:03Z</time>
      </trkpt>
      <trkpt lat="45.46823" lon="5.49546">
        <ele>650.4</ele>
        <time>2017-12-30T20:56:06Z</time>
      </trkpt>
      <trkpt lat="45.46818" lon="5.49547">
        <ele>650.7</ele>
        <time>2017-12-30T20:56:09Z</time>
      </trkpt>
      <trkpt lat="45.46813" lon="5.49547">
        <ele>651</ele>
        <time>2017-12-30T20:56:12Z</time>
      </trkpt>
      <trkpt lat="45.46807" lon="5.49547">
        <ele>651.3</ele>
        <time>2017-12-30T20:56:15Z</time>
      </trkpt>
      <trkpt lat="45.46802" lon="5.49547">
        <ele>651.6</ele>
        <time>2017-12-30T20:56:18Z</time>
      </trkpt>
      <trkpt lat="45.46797" lon="5.49546">
        <ele>651.9</ele>
        <time>2017-12-30T20:56:21Z</time>
      </trkpt>
      <trkpt lat="45.46792" lon="5.49545">
        <ele>652.3</ele>
        <time>2017-12-30T20:56:24Z</time>
      </trkpt>
      <trkpt lat="45.46788" lon="5.49543">
        <ele>652.7</ele>
        <time>2017-12-30T20:56:26Z</time>
      </trkpt>
      <trkpt lat="45.46779" lon="5.49541">
        <ele>653.3</ele>
        <time>2017-12-30T20:56:31Z</time>
      </trkpt>
      <trkpt lat="45.4677" lon="5.4954">
        <ele>653.9</ele>
        <time>2017-12-30T20:56:37Z</time>
      </trkpt>
      <trkpt lat="45.46762" lon="5.49539">
        <ele>654.5</ele>
        <time>2017-12-30T20:56:41Z</time>
      </trkpt>
      <trkpt lat="45.46755" lon="5.49539">
        <ele>654.9</ele>
        <time>2017-12-30T20:56:45Z</time>
      </trkpt>
      <trkpt lat="45.46747" lon="5.49537">
        <ele>655.4</ele>
        <time>2017-12-30T20:56:50Z</time>
      </trkpt>
      <trkpt lat="45.46741" lon="5.49534">
        <ele>655.6</ele>
        <time>2017-12-30T20:56:53Z</time>
      </trkpt>
      <trkpt lat="45.46733" lon="5.49532">
        <ele>655.9</ele>
        <time>2017-12-30T20:56:58Z</time>
      </trkpt>
      <trkpt lat="45.46726" lon="5.49529">
        <ele>656.1</ele>
        <time>2017-12-30T20:57:02Z</time>
      </trkpt>
      <trkpt lat="45.46719" lon="5.49526">
        <ele>656.4</ele>
        <time>2017-12-30T20:57:06Z</time>
      </trkpt>
      <trkpt lat="45.46713" lon="5.49523">
        <ele>656.7</ele>
        <time>2017-12-30T20:57:10Z</time>
      </trkpt>
      <trkpt lat="45.46707" lon="5.49519">
        <ele>657.1</ele>
        <time>2017-12-30T20:57:14Z</time>
      </trkpt>
      <trkpt lat="45.46701" lon="5.49515">
        <ele>657.4</ele>
        <time>2017-12-30T20:57:18Z</time>
      </trkpt>
      <trkpt lat="45.46696" lon="5.49511">
        <ele>657.8</ele>
        <time>2017-12-30T20:57:21Z</time>
      </trkpt>
      <trkpt lat="45.4669" lon="5.49506">
        <ele>658.3</ele>
        <time>2017-12-30T20:57:25Z</time>
      </trkpt>
      <trkpt lat="45.46684" lon="5.49501">
        <ele>658.7</ele>
        <time>2017-12-30T20:57:29Z</time>
      </trkpt>
      <trkpt lat="45.46679" lon="5.49494">
        <ele>659.6</ele>
        <time>2017-12-30T20:57:33Z</time>
      </trkpt>
      <trkpt lat="45.46673" lon="5.49486">
        <ele>660.7</ele>
        <time>2017-12-30T20:57:38Z</time>
      </trkpt>
      <trkpt lat="45.46667" lon="5.49479">
        <ele>661.6</ele>
        <time>2017-12-30T20:57:42Z</time>
      </trkpt>
      <trkpt lat="45.46661" lon="5.49471">
        <ele>662.4</ele>
        <time>2017-12-30T20:57:47Z</time>
      </trkpt>
      <trkpt lat="45.46658" lon="5.49467">
        <ele>662.7</ele>
        <time>2017-12-30T20:57:49Z</time>
      </trkpt>
      <trkpt lat="45.4665" lon="5.49455">
        <ele>663.7</ele>
        <time>2017-12-30T20:57:56Z</time>
      </trkpt>
      <trkpt lat="45.46646" lon="5.49446">
        <ele>664.3</ele>
        <time>2017-12-30T20:58:00Z</time>
      </trkpt>
      <trkpt lat="45.46641" lon="5.49437">
        <ele>664.8</ele>
        <time>2017-12-30T20:58:05Z</time>
      </trkpt>
      <trkpt lat="45.46638" lon="5.49427">
        <ele>665.4</ele>
        <time>2017-12-30T20:58:09Z</time>
      </trkpt>
      <trkpt lat="45.46634" lon="5.49416">
        <ele>665.9</ele>
        <time>2017-12-30T20:58:14Z</time>
      </trkpt>
      <trkpt lat="45.46632" lon="5.4941">
        <ele>666</ele>
        <time>2017-12-30T20:58:17Z</time>
      </trkpt>
      <trkpt lat="45.46631" lon="5.49403">
        <ele>666.2</ele>
        <time>2017-12-30T20:58:19Z</time>
      </trkpt>
      <trkpt lat="45.46629" lon="5.49397">
        <ele>666.3</ele>
        <time>2017-12-30T20:58:22Z</time>
      </trkpt>
      <trkpt lat="45.46627" lon="5.4939">
        <ele>666.3</ele>
        <time>2017-12-30T20:58:25Z</time>
      </trkpt>
      <trkpt lat="45.46625" lon="5.49383">
        <ele>666.4</ele>
        <time>2017-12-30T20:58:28Z</time>
      </trkpt>
      <trkpt lat="45.46624" lon="5.49376">
        <ele>666.6</ele>
        <time>2017-12-30T20:58:31Z</time>
      </trkpt>
      <trkpt lat="45.46622" lon="5.49369">
        <ele>666.7</ele>
        <time>2017-12-30T20:58:34Z</time>
      </trkpt>
      <trkpt lat="45.4662" lon="5.49362">
        <ele>666.8</ele>
        <time>2017-12-30T20:58:37Z</time>
      </trkpt>
      <trkpt lat="45.46619" lon="5.49355">
        <ele>667</ele>
        <time>2017-12-30T20:58:40Z</time>
      </trkpt>
      <trkpt lat="45.46618" lon="5.49349">
        <ele>667.1</ele>
        <time>2017-12-30T20:58:42Z</time>
      </trkpt>
      <trkpt lat="45.46616" lon="5.49341">
        <ele>667.2</ele>
        <time>2017-12-30T20:58:46Z</time>
      </trkpt>
      <trkpt lat="45.46614" lon="5.49334">
        <ele>667.3</ele>
        <time>2017-12-30T20:58:49Z</time>
      </trkpt>
      <trkpt lat="45.46612" lon="5.49326">
        <ele>667.3</ele>
        <time>2017-12-30T20:58:52Z</time>
      </trkpt>
      <trkpt lat="45.46611" lon="5.49318">
        <ele>667.4</ele>
        <time>2017-12-30T20:58:56Z</time>
      </trkpt>
      <trkpt lat="45.46609" lon="5.4931">
        <ele>667.4</ele>
        <time>2017-12-30T20:58:59Z</time>
      </trkpt>
      <trkpt lat="45.46608" lon="5.49302">
        <ele>667.4</ele>
        <time>2017-12-30T20:59:02Z</time>
      </trkpt>
      <trkpt lat="45.46606" lon="5.49295">
        <ele>667.4</ele>
        <time>2017-12-30T20:59:05Z</time>
      </trkpt>
      <trkpt lat="45.46604" lon="5.49288">
        <ele>667.3</ele>
        <time>2017-12-30T20:59:08Z</time>
      </trkpt>
      <trkpt lat="45.46602" lon="5.49281">
        <ele>667.3</ele>
        <time>2017-12-30T20:59:11Z</time>
      </trkpt>
      <trkpt lat="45.466" lon="5.49274">
        <ele>667.2</ele>
        <time>2017-12-30T20:59:14Z</time>
      </trkpt>
      <trkpt lat="45.46599" lon="5.49267">
        <ele>667.3</ele>
        <time>2017-12-30T20:59:17Z</time>
      </trkpt>
      <trkpt lat="45.46597" lon="5.4926">
        <ele>667.3</ele>
        <time>2017-12-30T20:59:20Z</time>
      </trkpt>
      <trkpt lat="45.46595" lon="5.49253">
        <ele>667.2</ele>
        <time>2017-12-30T20:59:23Z</time>
      </trkpt>
      <trkpt lat="45.46594" lon="5.49246">
        <ele>667</ele>
        <time>2017-12-30T20:59:26Z</time>
      </trkpt>
      <trkpt lat="45.46592" lon="5.4924">
        <ele>666.6</ele>
        <time>2017-12-30T20:59:29Z</time>
      </trkpt>
      <trkpt lat="45.46591" lon="5.49233">
        <ele>666.2</ele>
        <time>2017-12-30T20:59:32Z</time>
      </trkpt>
      <trkpt lat="45.46589" lon="5.49221">
        <ele>665.6</ele>
        <time>2017-12-30T20:59:37Z</time>
      </trkpt>
      <trkpt lat="45.46594" lon="5.49211">
        <ele>665.7</ele>
        <time>2017-12-30T20:59:42Z</time>
      </trkpt>
      <trkpt lat="45.46597" lon="5.49207">
        <ele>665.9</ele>
        <time>2017-12-30T20:59:44Z</time>
      </trkpt>
      <trkpt lat="45.46602" lon="5.49203">
        <ele>666.3</ele>
        <time>2017-12-30T20:59:47Z</time>
      </trkpt>
      <trkpt lat="45.46607" lon="5.49199">
        <ele>666.7</ele>
        <time>2017-12-30T20:59:50Z</time>
      </trkpt>
      <trkpt lat="45.46611" lon="5.49196">
        <ele>667</ele>
        <time>2017-12-30T20:59:53Z</time>
      </trkpt>
      <trkpt lat="45.46616" lon="5.49193">
        <ele>667.5</ele>
        <time>2017-12-30T20:59:56Z</time>
      </trkpt>
      <trkpt lat="45.46621" lon="5.4919">
        <ele>667.9</ele>
        <time>2017-12-30T20:59:59Z</time>
      </trkpt>
      <trkpt lat="45.46626" lon="5.49187">
        <ele>668.3</ele>
        <time>2017-12-30T21:00:02Z</time>
      </trkpt>
      <trkpt lat="45.46632" lon="5.49184">
        <ele>668.9</ele>
        <time>2017-12-30T21:00:06Z</time>
      </trkpt>
      <trkpt lat="45.46637" lon="5.49181">
        <ele>669.3</ele>
        <time>2017-12-30T21:00:09Z</time>
      </trkpt>
      <trkpt lat="45.46642" lon="5.49178">
        <ele>669.7</ele>
        <time>2017-12-30T21:00:12Z</time>
      </trkpt>
      <trkpt lat="45.46647" lon="5.49176">
        <ele>670.2</ele>
        <time>2017-12-30T21:00:15Z</time>
      </trkpt>
      <trkpt lat="45.46652" lon="5.49172">
        <ele>670.6</ele>
        <time>2017-12-30T21:00:18Z</time>
      </trkpt>
      <trkpt lat="45.46657" lon="5.49168">
        <ele>671</ele>
        <time>2017-12-30T21:00:22Z</time>
      </trkpt>
      <trkpt lat="45.46661" lon="5.49164">
        <ele>671.2</ele>
        <time>2017-12-30T21:00:24Z</time>
      </trkpt>
      <trkpt lat="45.46665" lon="5.4916">
        <ele>671.2</ele>
        <time>2017-12-30T21:00:27Z</time>
      </trkpt>
      <trkpt lat="45.46669" lon="5.49156">
        <ele>671.1</ele>
        <time>2017-12-30T21:00:30Z</time>
      </trkpt>
      <trkpt lat="45.46675" lon="5.49146">
        <ele>670.2</ele>
        <time>2017-12-30T21:00:35Z</time>
      </trkpt>
      <trkpt lat="45.46678" lon="5.49141">
        <ele>669.8</ele>
        <time>2017-12-30T21:00:38Z</time>
      </trkpt>
      <trkpt lat="45.46681" lon="5.49136">
        <ele>669.4</ele>
        <time>2017-12-30T21:00:41Z</time>
      </trkpt>
      <trkpt lat="45.46684" lon="5.49131">
        <ele>669</ele>
        <time>2017-12-30T21:00:43Z</time>
      </trkpt>
      <trkpt lat="45.46687" lon="5.49125">
        <ele>668.5</ele>
        <time>2017-12-30T21:00:46Z</time>
      </trkpt>
      <trkpt lat="45.46691" lon="5.4912">
        <ele>668</ele>
        <time>2017-12-30T21:00:49Z</time>
      </trkpt>
      <trkpt lat="45.46693" lon="5.49113">
        <ele>667.5</ele>
        <time>2017-12-30T21:00:52Z</time>
      </trkpt>
      <trkpt lat="45.46695" lon="5.49104">
        <ele>666.7</ele>
        <time>2017-12-30T21:00:56Z</time>
      </trkpt>
      <trkpt lat="45.46697" lon="5.49096">
        <ele>666</ele>
        <time>2017-12-30T21:00:59Z</time>
      </trkpt>
      <trkpt lat="45.46699" lon="5.49088">
        <ele>665.4</ele>
        <time>2017-12-30T21:01:03Z</time>
      </trkpt>
      <trkpt lat="45.467" lon="5.49079">
        <ele>665</ele>
        <time>2017-12-30T21:01:07Z</time>
      </trkpt>
      <trkpt lat="45.46702" lon="5.49071">
        <ele>665</ele>
        <time>2017-12-30T21:01:10Z</time>
      </trkpt>
      <trkpt lat="45.46704" lon="5.49063">
        <ele>665</ele>
        <time>2017-12-30T21:01:13Z</time>
      </trkpt>
      <trkpt lat="45.46706" lon="5.49055">
        <ele>665</ele>
        <time>2017-12-30T21:01:17Z</time>
      </trkpt>
      <trkpt lat="45.46708" lon="5.49048">
        <ele>665</ele>
        <time>2017-12-30T21:01:20Z</time>
      </trkpt>
      <trkpt lat="45.46711" lon="5.4904">
        <ele>665</ele>
        <time>2017-12-30T21:01:23Z</time>
      </trkpt>
      <trkpt lat="45.46713" lon="5.49033">
        <ele>664.9</ele>
        <time>2017-12-30T21:01:26Z</time>
      </trkpt>
      <trkpt lat="45.46715" lon="5.49026">
        <ele>664.9</ele>
        <time>2017-12-30T21:01:29Z</time>
      </trkpt>
      <trkpt lat="45.46717" lon="5.49018">
        <ele>664.8</ele>
        <time>2017-12-30T21:01:33Z</time>
      </trkpt>
      <trkpt lat="45.4672" lon="5.49011">
        <ele>664.8</ele>
        <time>2017-12-30T21:01:36Z</time>
      </trkpt>
      <trkpt lat="45.46722" lon="5.49004">
        <ele>664.7</ele>
        <time>2017-12-30T21:01:39Z</time>
      </trkpt>
      <trkpt lat="45.46725" lon="5.48997">
        <ele>664.6</ele>
        <time>2017-12-30T21:01:43Z</time>
      </trkpt>
      <trkpt lat="45.46727" lon="5.4899">
        <ele>664.5</ele>
        <time>2017-12-30T21:01:46Z</time>
      </trkpt>
      <trkpt lat="45.46729" lon="5.48984">
        <ele>664.5</ele>
        <time>2017-12-30T21:01:48Z</time>
      </trkpt>
      <trkpt lat="45.46731" lon="5.48977">
        <ele>664.4</ele>
        <time>2017-12-30T21:01:51Z</time>
      </trkpt>
      <trkpt lat="45.46733" lon="5.48971">
        <ele>664.3</ele>
        <time>2017-12-30T21:01:54Z</time>
      </trkpt>
      <trkpt lat="45.46735" lon="5.48964">
        <ele>664.2</ele>
        <time>2017-12-30T21:01:57Z</time>
      </trkpt>
      <trkpt lat="45.46737" lon="5.48958">
        <ele>664</ele>
        <time>2017-12-30T21:02:00Z</time>
      </trkpt>
      <trkpt lat="45.46739" lon="5.48951">
        <ele>663.9</ele>
        <time>2017-12-30T21:02:03Z</time>
      </trkpt>
      <trkpt lat="45.46742" lon="5.48945">
        <ele>663.7</ele>
        <time>2017-12-30T21:02:06Z</time>
      </trkpt>
      <trkpt lat="45.46744" lon="5.48938">
        <ele>663.6</ele>
        <time>2017-12-30T21:02:09Z</time>
      </trkpt>
      <trkpt lat="45.46746" lon="5.48931">
        <ele>663.4</ele>
        <time>2017-12-30T21:02:12Z</time>
      </trkpt>
      <trkpt lat="45.46748" lon="5.48925">
        <ele>663.2</ele>
        <time>2017-12-30T21:02:14Z</time>
      </trkpt>
      <trkpt lat="45.4675" lon="5.48919">
        <ele>663</ele>
        <time>2017-12-30T21:02:17Z</time>
      </trkpt>
      <trkpt lat="45.46752" lon="5.48913">
        <ele>662.9</ele>
        <time>2017-12-30T21:02:20Z</time>
      </trkpt>
      <trkpt lat="45.46754" lon="5.48907">
        <ele>662.7</ele>
        <time>2017-12-30T21:02:22Z</time>
      </trkpt>
      <trkpt lat="45.46756" lon="5.489">
        <ele>662.6</ele>
        <time>2017-12-30T21:02:25Z</time>
      </trkpt>
      <trkpt lat="45.46759" lon="5.48893">
        <ele>662.4</ele>
        <time>2017-12-30T21:02:29Z</time>
      </trkpt>
      <trkpt lat="45.46761" lon="5.48886">
        <ele>662.2</ele>
        <time>2017-12-30T21:02:32Z</time>
      </trkpt>
      <trkpt lat="45.46763" lon="5.4888">
        <ele>662</ele>
        <time>2017-12-30T21:02:34Z</time>
      </trkpt>
      <trkpt lat="45.46767" lon="5.48868">
        <ele>661.7</ele>
        <time>2017-12-30T21:02:40Z</time>
      </trkpt>
      <trkpt lat="45.4677" lon="5.48857">
        <ele>661.4</ele>
        <time>2017-12-30T21:02:44Z</time>
      </trkpt>
      <trkpt lat="45.46772" lon="5.48851">
        <ele>661.2</ele>
        <time>2017-12-30T21:02:47Z</time>
      </trkpt>
      <trkpt lat="45.46774" lon="5.48845">
        <ele>661</ele>
        <time>2017-12-30T21:02:50Z</time>
      </trkpt>
      <trkpt lat="45.46776" lon="5.48838">
        <ele>660.8</ele>
        <time>2017-12-30T21:02:53Z</time>
      </trkpt>
      <trkpt lat="45.46779" lon="5.48832">
        <ele>660.6</ele>
        <time>2017-12-30T21:02:56Z</time>
      </trkpt>
      <trkpt lat="45.46781" lon="5.48825">
        <ele>660.3</ele>
        <time>2017-12-30T21:02:59Z</time>
      </trkpt>
      <trkpt lat="45.46784" lon="5.48818">
        <ele>659.9</ele>
        <time>2017-12-30T21:03:02Z</time>
      </trkpt>
      <trkpt lat="45.46786" lon="5.4881">
        <ele>659.6</ele>
        <time>2017-12-30T21:03:05Z</time>
      </trkpt>
      <trkpt lat="45.46788" lon="5.48802">
        <ele>659.2</ele>
        <time>2017-12-30T21:03:09Z</time>
      </trkpt>
      <trkpt lat="45.4679" lon="5.48794">
        <ele>658.9</ele>
        <time>2017-12-30T21:03:12Z</time>
      </trkpt>
      <trkpt lat="45.46792" lon="5.48786">
        <ele>658.5</ele>
        <time>2017-12-30T21:03:16Z</time>
      </trkpt>
      <trkpt lat="45.46794" lon="5.48778">
        <ele>658.2</ele>
        <time>2017-12-30T21:03:19Z</time>
      </trkpt>
      <trkpt lat="45.46796" lon="5.4877">
        <ele>657.8</ele>
        <time>2017-12-30T21:03:22Z</time>
      </trkpt>
      <trkpt lat="45.46798" lon="5.48762">
        <ele>657.5</ele>
        <time>2017-12-30T21:03:26Z</time>
      </trkpt>
      <trkpt lat="45.468" lon="5.48754">
        <ele>657.1</ele>
        <time>2017-12-30T21:03:29Z</time>
      </trkpt>
      <trkpt lat="45.46802" lon="5.48746">
        <ele>656.7</ele>
        <time>2017-12-30T21:03:33Z</time>
      </trkpt>
      <trkpt lat="45.46805" lon="5.48738">
        <ele>656.2</ele>
        <time>2017-12-30T21:03:36Z</time>
      </trkpt>
      <trkpt lat="45.46808" lon="5.4873">
        <ele>655.7</ele>
        <time>2017-12-30T21:03:40Z</time>
      </trkpt>
      <trkpt lat="45.46811" lon="5.48722">
        <ele>655.2</ele>
        <time>2017-12-30T21:03:44Z</time>
      </trkpt>
      <trkpt lat="45.46815" lon="5.48713">
        <ele>654.5</ele>
        <time>2017-12-30T21:03:48Z</time>
      </trkpt>
      <trkpt lat="45.4682" lon="5.48704">
        <ele>653.7</ele>
        <time>2017-12-30T21:03:52Z</time>
      </trkpt>
      <trkpt lat="45.46824" lon="5.48694">
        <ele>653</ele>
        <time>2017-12-30T21:03:57Z</time>
      </trkpt>
      <trkpt lat="45.46828" lon="5.48685">
        <ele>652.3</ele>
        <time>2017-12-30T21:04:01Z</time>
      </trkpt>
      <trkpt lat="45.46832" lon="5.48676">
        <ele>651.5</ele>
        <time>2017-12-30T21:04:06Z</time>
      </trkpt>
      <trkpt lat="45.46835" lon="5.48669">
        <ele>651</ele>
        <time>2017-12-30T21:04:09Z</time>
      </trkpt>
      <trkpt lat="45.46838" lon="5.48658">
        <ele>650.5</ele>
        <time>2017-12-30T21:04:14Z</time>
      </trkpt>
      <trkpt lat="45.46843" lon="5.48648">
        <ele>650</ele>
        <time>2017-12-30T21:04:19Z</time>
      </trkpt>
      <trkpt lat="45.46849" lon="5.4864">
        <ele>649.4</ele>
        <time>2017-12-30T21:04:23Z</time>
      </trkpt>
      <trkpt lat="45.46853" lon="5.48635">
        <ele>649</ele>
        <time>2017-12-30T21:04:26Z</time>
      </trkpt>
      <trkpt lat="45.46857" lon="5.4863">
        <ele>648.6</ele>
        <time>2017-12-30T21:04:29Z</time>
      </trkpt>
      <trkpt lat="45.4686" lon="5.48624">
        <ele>648.2</ele>
        <time>2017-12-30T21:04:32Z</time>
      </trkpt>
      <trkpt lat="45.46864" lon="5.48617">
        <ele>647.7</ele>
        <time>2017-12-30T21:04:36Z</time>
      </trkpt>
      <trkpt lat="45.46867" lon="5.48611">
        <ele>647.3</ele>
        <time>2017-12-30T21:04:39Z</time>
      </trkpt>
      <trkpt lat="45.46871" lon="5.48604">
        <ele>646.8</ele>
        <time>2017-12-30T21:04:42Z</time>
      </trkpt>
      <trkpt lat="45.46874" lon="5.48597">
        <ele>646.4</ele>
        <time>2017-12-30T21:04:46Z</time>
      </trkpt>
      <trkpt lat="45.46877" lon="5.48588">
        <ele>645.9</ele>
        <time>2017-12-30T21:04:50Z</time>
      </trkpt>
      <trkpt lat="45.46881" lon="5.48581">
        <ele>645.4</ele>
        <time>2017-12-30T21:04:53Z</time>
      </trkpt>
      <trkpt lat="45.46883" lon="5.48573">
        <ele>645</ele>
        <time>2017-12-30T21:04:57Z</time>
      </trkpt>
      <trkpt lat="45.46886" lon="5.48565">
        <ele>644.6</ele>
        <time>2017-12-30T21:05:00Z</time>
      </trkpt>
      <trkpt lat="45.46889" lon="5.48557">
        <ele>644.2</ele>
        <time>2017-12-30T21:05:04Z</time>
      </trkpt>
      <trkpt lat="45.46892" lon="5.48548">
        <ele>643.8</ele>
        <time>2017-12-30T21:05:08Z</time>
      </trkpt>
      <trkpt lat="45.46895" lon="5.48539">
        <ele>643.4</ele>
        <time>2017-12-30T21:05:12Z</time>
      </trkpt>
      <trkpt lat="45.46898" lon="5.48529">
        <ele>643</ele>
        <time>2017-12-30T21:05:16Z</time>
      </trkpt>
      <trkpt lat="45.46902" lon="5.48521">
        <ele>642.5</ele>
        <time>2017-12-30T21:05:20Z</time>
      </trkpt>
      <trkpt lat="45.46905" lon="5.48511">
        <ele>642.1</ele>
        <time>2017-12-30T21:05:25Z</time>
      </trkpt>
      <trkpt lat="45.46908" lon="5.48502">
        <ele>641.7</ele>
        <time>2017-12-30T21:05:29Z</time>
      </trkpt>
      <trkpt lat="45.46911" lon="5.48494">
        <ele>641.3</ele>
        <time>2017-12-30T21:05:32Z</time>
      </trkpt>
      <trkpt lat="45.46913" lon="5.48487">
        <ele>641</ele>
        <time>2017-12-30T21:05:35Z</time>
      </trkpt>
      <trkpt lat="45.46915" lon="5.48478">
        <ele>640.6</ele>
        <time>2017-12-30T21:05:39Z</time>
      </trkpt>
      <trkpt lat="45.46912" lon="5.48469">
        <ele>640.5</ele>
        <time>2017-12-30T21:05:43Z</time>
      </trkpt>
      <trkpt lat="45.46908" lon="5.48464">
        <ele>640.7</ele>
        <time>2017-12-30T21:05:46Z</time>
      </trkpt>
      <trkpt lat="45.46904" lon="5.4846">
        <ele>640.8</ele>
        <time>2017-12-30T21:05:49Z</time>
      </trkpt>
      <trkpt lat="45.469" lon="5.48454">
        <ele>640.8</ele>
        <time>2017-12-30T21:05:52Z</time>
      </trkpt>
      <trkpt lat="45.46896" lon="5.48448">
        <ele>640.8</ele>
        <time>2017-12-30T21:05:56Z</time>
      </trkpt>
      <trkpt lat="45.46892" lon="5.48442">
        <ele>640.8</ele>
        <time>2017-12-30T21:05:59Z</time>
      </trkpt>
      <trkpt lat="45.46888" lon="5.48436">
        <ele>640.8</ele>
        <time>2017-12-30T21:06:02Z</time>
      </trkpt>
      <trkpt lat="45.46884" lon="5.4843">
        <ele>640.7</ele>
        <time>2017-12-30T21:06:06Z</time>
      </trkpt>
      <trkpt lat="45.4688" lon="5.48424">
        <ele>640.6</ele>
        <time>2017-12-30T21:06:09Z</time>
      </trkpt>
      <trkpt lat="45.46875" lon="5.48417">
        <ele>640.5</ele>
        <time>2017-12-30T21:06:13Z</time>
      </trkpt>
      <trkpt lat="45.46871" lon="5.4841">
        <ele>640.4</ele>
        <time>2017-12-30T21:06:17Z</time>
      </trkpt>
      <trkpt lat="45.46867" lon="5.48404">
        <ele>640.3</ele>
        <time>2017-12-30T21:06:20Z</time>
      </trkpt>
      <trkpt lat="45.46863" lon="5.48397">
        <ele>640.3</ele>
        <time>2017-12-30T21:06:23Z</time>
      </trkpt>
      <trkpt lat="45.46859" lon="5.4839">
        <ele>640.2</ele>
        <time>2017-12-30T21:06:27Z</time>
      </trkpt>
      <trkpt lat="45.46855" lon="5.48383">
        <ele>640.2</ele>
        <time>2017-12-30T21:06:31Z</time>
      </trkpt>
      <trkpt lat="45.46855" lon="5.48383">
        <ele>640.2</ele>
        <time>2017-12-30T21:06:31Z</time>
      </trkpt>
      <trkpt lat="45.46851" lon="5.48375">
        <ele>640.1</ele>
        <time>2017-12-30T21:06:35Z</time>
      </trkpt>
      <trkpt lat="45.46847" lon="5.48368">
        <ele>640.1</ele>
        <time>2017-12-30T21:06:38Z</time>
      </trkpt>
      <trkpt lat="45.46843" lon="5.48361">
        <ele>640.1</ele>
        <time>2017-12-30T21:06:42Z</time>
      </trkpt>
      <trkpt lat="45.46838" lon="5.48354">
        <ele>640.2</ele>
        <time>2017-12-30T21:06:46Z</time>
      </trkpt>
      <trkpt lat="45.46834" lon="5.48347">
        <ele>640.3</ele>
        <time>2017-12-30T21:06:50Z</time>
      </trkpt>
      <trkpt lat="45.46829" lon="5.4834">
        <ele>640.4</ele>
        <time>2017-12-30T21:06:54Z</time>
      </trkpt>
      <trkpt lat="45.46825" lon="5.48334">
        <ele>640.5</ele>
        <time>2017-12-30T21:06:57Z</time>
      </trkpt>
      <trkpt lat="45.4682" lon="5.48328">
        <ele>640.6</ele>
        <time>2017-12-30T21:07:01Z</time>
      </trkpt>
      <trkpt lat="45.46816" lon="5.48322">
        <ele>640.6</ele>
        <time>2017-12-30T21:07:04Z</time>
      </trkpt>
      <trkpt lat="45.46812" lon="5.48316">
        <ele>640.6</ele>
        <time>2017-12-30T21:07:07Z</time>
      </trkpt>
      <trkpt lat="45.46808" lon="5.48309">
        <ele>640.5</ele>
        <time>2017-12-30T21:07:11Z</time>
      </trkpt>
      <trkpt lat="45.46804" lon="5.48304">
        <ele>640.6</ele>
        <time>2017-12-30T21:07:14Z</time>
      </trkpt>
      <trkpt lat="45.468" lon="5.48303">
        <ele>640.7</ele>
        <time>2017-12-30T21:07:16Z</time>
      </trkpt>
      <trkpt lat="45.46794" lon="5.48303">
        <ele>641.1</ele>
        <time>2017-12-30T21:07:20Z</time>
      </trkpt>
      <trkpt lat="45.46789" lon="5.48306">
        <ele>641.5</ele>
        <time>2017-12-30T21:07:23Z</time>
      </trkpt>
      <trkpt lat="45.46784" lon="5.48308">
        <ele>641.8</ele>
        <time>2017-12-30T21:07:26Z</time>
      </trkpt>
      <trkpt lat="45.46779" lon="5.48311">
        <ele>642.3</ele>
        <time>2017-12-30T21:07:29Z</time>
      </trkpt>
      <trkpt lat="45.46773" lon="5.48313">
        <ele>642.7</ele>
        <time>2017-12-30T21:07:32Z</time>
      </trkpt>
      <trkpt lat="45.46768" lon="5.48316">
        <ele>643.1</ele>
        <time>2017-12-30T21:07:35Z</time>
      </trkpt>
      <trkpt lat="45.46762" lon="5.48319">
        <ele>643.6</ele>
        <time>2017-12-30T21:07:39Z</time>
      </trkpt>
      <trkpt lat="45.46756" lon="5.48321">
        <ele>644</ele>
        <time>2017-12-30T21:07:43Z</time>
      </trkpt>
      <trkpt lat="45.4675" lon="5.48324">
        <ele>644.5</ele>
        <time>2017-12-30T21:07:46Z</time>
      </trkpt>
      <trkpt lat="45.46744" lon="5.48327">
        <ele>644.9</ele>
        <time>2017-12-30T21:07:50Z</time>
      </trkpt>
      <trkpt lat="45.46738" lon="5.4833">
        <ele>645.3</ele>
        <time>2017-12-30T21:07:54Z</time>
      </trkpt>
      <trkpt lat="45.46732" lon="5.48332">
        <ele>645.6</ele>
        <time>2017-12-30T21:07:57Z</time>
      </trkpt>
      <trkpt lat="45.46726" lon="5.48334">
        <ele>645.9</ele>
        <time>2017-12-30T21:08:01Z</time>
      </trkpt>
      <trkpt lat="45.4672" lon="5.48336">
        <ele>646.1</ele>
        <time>2017-12-30T21:08:04Z</time>
      </trkpt>
      <trkpt lat="45.46714" lon="5.48338">
        <ele>646.3</ele>
        <time>2017-12-30T21:08:08Z</time>
      </trkpt>
      <trkpt lat="45.46708" lon="5.4834">
        <ele>646.6</ele>
        <time>2017-12-30T21:08:11Z</time>
      </trkpt>
      <trkpt lat="45.46703" lon="5.48342">
        <ele>646.8</ele>
        <time>2017-12-30T21:08:14Z</time>
      </trkpt>
      <trkpt lat="45.46697" lon="5.48343">
        <ele>647</ele>
        <time>2017-12-30T21:08:18Z</time>
      </trkpt>
      <trkpt lat="45.46692" lon="5.48341">
        <ele>647.2</ele>
        <time>2017-12-30T21:08:21Z</time>
      </trkpt>
      <trkpt lat="45.46686" lon="5.4834">
        <ele>647.4</ele>
        <time>2017-12-30T21:08:24Z</time>
      </trkpt>
      <trkpt lat="45.4668" lon="5.48338">
        <ele>647.6</ele>
        <time>2017-12-30T21:08:27Z</time>
      </trkpt>
      <trkpt lat="45.46675" lon="5.48337">
        <ele>647.7</ele>
        <time>2017-12-30T21:08:30Z</time>
      </trkpt>
      <trkpt lat="45.4667" lon="5.48335">
        <ele>647.9</ele>
        <time>2017-12-30T21:08:33Z</time>
      </trkpt>
      <trkpt lat="45.46664" lon="5.48334">
        <ele>648</ele>
        <time>2017-12-30T21:08:37Z</time>
      </trkpt>
      <trkpt lat="45.46659" lon="5.48332">
        <ele>648</ele>
        <time>2017-12-30T21:08:40Z</time>
      </trkpt>
      <trkpt lat="45.46654" lon="5.4833">
        <ele>648</ele>
        <time>2017-12-30T21:08:43Z</time>
      </trkpt>
      <trkpt lat="45.46648" lon="5.48327">
        <ele>648</ele>
        <time>2017-12-30T21:08:46Z</time>
      </trkpt>
      <trkpt lat="45.46643" lon="5.48325">
        <ele>647.9</ele>
        <time>2017-12-30T21:08:49Z</time>
      </trkpt>
      <trkpt lat="45.46638" lon="5.48323">
        <ele>647.9</ele>
        <time>2017-12-30T21:08:52Z</time>
      </trkpt>
      <trkpt lat="45.46633" lon="5.4832">
        <ele>647.8</ele>
        <time>2017-12-30T21:08:55Z</time>
      </trkpt>
      <trkpt lat="45.46628" lon="5.48317">
        <ele>647.8</ele>
        <time>2017-12-30T21:08:59Z</time>
      </trkpt>
      <trkpt lat="45.46623" lon="5.48314">
        <ele>647.7</ele>
        <time>2017-12-30T21:09:02Z</time>
      </trkpt>
      <trkpt lat="45.46618" lon="5.4831">
        <ele>647.6</ele>
        <time>2017-12-30T21:09:05Z</time>
      </trkpt>
      <trkpt lat="45.46612" lon="5.48307">
        <ele>647.5</ele>
        <time>2017-12-30T21:09:09Z</time>
      </trkpt>
      <trkpt lat="45.46608" lon="5.48304">
        <ele>647.4</ele>
        <time>2017-12-30T21:09:11Z</time>
      </trkpt>
      <trkpt lat="45.46603" lon="5.48301">
        <ele>647.3</ele>
        <time>2017-12-30T21:09:14Z</time>
      </trkpt>
      <trkpt lat="45.46598" lon="5.48298">
        <ele>647.2</ele>
        <time>2017-12-30T21:09:17Z</time>
      </trkpt>
      <trkpt lat="45.46594" lon="5.48295">
        <ele>647.1</ele>
        <time>2017-12-30T21:09:20Z</time>
      </trkpt>
      <trkpt lat="45.46585" lon="5.48291">
        <ele>646.9</ele>
        <time>2017-12-30T21:09:25Z</time>
      </trkpt>
      <trkpt lat="45.46578" lon="5.48287">
        <ele>647</ele>
        <time>2017-12-30T21:09:30Z</time>
      </trkpt>
      <trkpt lat="45.46571" lon="5.48283">
        <ele>647.2</ele>
        <time>2017-12-30T21:09:34Z</time>
      </trkpt>
      <trkpt lat="45.46565" lon="5.48278">
        <ele>647.2</ele>
        <time>2017-12-30T21:09:38Z</time>
      </trkpt>
      <trkpt lat="45.46559" lon="5.48273">
        <ele>647.1</ele>
        <time>2017-12-30T21:09:42Z</time>
      </trkpt>
      <trkpt lat="45.46552" lon="5.48269">
        <ele>647.1</ele>
        <time>2017-12-30T21:09:46Z</time>
      </trkpt>
      <trkpt lat="45.46546" lon="5.48264">
        <ele>647</ele>
        <time>2017-12-30T21:09:50Z</time>
      </trkpt>
      <trkpt lat="45.46539" lon="5.48259">
        <ele>646.8</ele>
        <time>2017-12-30T21:09:55Z</time>
      </trkpt>
      <trkpt lat="45.46534" lon="5.48255">
        <ele>646.6</ele>
        <time>2017-12-30T21:09:58Z</time>
      </trkpt>
      <trkpt lat="45.46528" lon="5.48251">
        <ele>646.4</ele>
        <time>2017-12-30T21:10:02Z</time>
      </trkpt>
      <trkpt lat="45.46522" lon="5.48247">
        <ele>646.3</ele>
        <time>2017-12-30T21:10:05Z</time>
      </trkpt>
      <trkpt lat="45.46516" lon="5.48244">
        <ele>646.2</ele>
        <time>2017-12-30T21:10:09Z</time>
      </trkpt>
      <trkpt lat="45.46511" lon="5.48239">
        <ele>646</ele>
        <time>2017-12-30T21:10:13Z</time>
      </trkpt>
      <trkpt lat="45.46509" lon="5.48237">
        <ele>645.9</ele>
        <time>2017-12-30T21:10:14Z</time>
      </trkpt>
      <trkpt lat="45.46499" lon="5.48228">
        <ele>645.6</ele>
        <time>2017-12-30T21:10:21Z</time>
      </trkpt>
      <trkpt lat="45.46492" lon="5.48221">
        <ele>646.5</ele>
        <time>2017-12-30T21:10:26Z</time>
      </trkpt>
      <trkpt lat="45.46485" lon="5.48214">
        <ele>647.3</ele>
        <time>2017-12-30T21:10:31Z</time>
      </trkpt>
      <trkpt lat="45.46478" lon="5.48207">
        <ele>648.2</ele>
        <time>2017-12-30T21:10:35Z</time>
      </trkpt>
      <trkpt lat="45.46471" lon="5.482">
        <ele>649.1</ele>
        <time>2017-12-30T21:10:40Z</time>
      </trkpt>
      <trkpt lat="45.46463" lon="5.48195">
        <ele>650.2</ele>
        <time>2017-12-30T21:10:45Z</time>
      </trkpt>
      <trkpt lat="45.46458" lon="5.48191">
        <ele>650.9</ele>
        <time>2017-12-30T21:10:49Z</time>
      </trkpt>
      <trkpt lat="45.46449" lon="5.48188">
        <ele>652.4</ele>
        <time>2017-12-30T21:10:54Z</time>
      </trkpt>
      <trkpt lat="45.46442" lon="5.48188">
        <ele>653.8</ele>
        <time>2017-12-30T21:10:58Z</time>
      </trkpt>
      <trkpt lat="45.46435" lon="5.48188">
        <ele>655.2</ele>
        <time>2017-12-30T21:11:02Z</time>
      </trkpt>
      <trkpt lat="45.46429" lon="5.48187">
        <ele>656.2</ele>
        <time>2017-12-30T21:11:05Z</time>
      </trkpt>
      <trkpt lat="45.46423" lon="5.48187">
        <ele>657.4</ele>
        <time>2017-12-30T21:11:09Z</time>
      </trkpt>
      <trkpt lat="45.46416" lon="5.48185">
        <ele>658.6</ele>
        <time>2017-12-30T21:11:13Z</time>
      </trkpt>
      <trkpt lat="45.46407" lon="5.48185">
        <ele>660.2</ele>
        <time>2017-12-30T21:11:18Z</time>
      </trkpt>
      <trkpt lat="45.46401" lon="5.48184">
        <ele>661.1</ele>
        <time>2017-12-30T21:11:21Z</time>
      </trkpt>
      <trkpt lat="45.46394" lon="5.48182">
        <ele>662.2</ele>
        <time>2017-12-30T21:11:26Z</time>
      </trkpt>
      <trkpt lat="45.46386" lon="5.48179">
        <ele>663.4</ele>
        <time>2017-12-30T21:11:30Z</time>
      </trkpt>
      <trkpt lat="45.46381" lon="5.48178">
        <ele>664.2</ele>
        <time>2017-12-30T21:11:33Z</time>
      </trkpt>
      <trkpt lat="45.46377" lon="5.48176">
        <ele>664.8</ele>
        <time>2017-12-30T21:11:36Z</time>
      </trkpt>
      <trkpt lat="45.46372" lon="5.48176">
        <ele>665.7</ele>
        <time>2017-12-30T21:11:38Z</time>
      </trkpt>
      <trkpt lat="45.46367" lon="5.48176">
        <ele>666.5</ele>
        <time>2017-12-30T21:11:41Z</time>
      </trkpt>
      <trkpt lat="45.46363" lon="5.48175">
        <ele>667.2</ele>
        <time>2017-12-30T21:11:44Z</time>
      </trkpt>
      <trkpt lat="45.46354" lon="5.48173">
        <ele>668.7</ele>
        <time>2017-12-30T21:11:49Z</time>
      </trkpt>
      <trkpt lat="45.4635" lon="5.48172">
        <ele>669.3</ele>
        <time>2017-12-30T21:11:51Z</time>
      </trkpt>
      <trkpt lat="45.46345" lon="5.48171">
        <ele>670.1</ele>
        <time>2017-12-30T21:11:54Z</time>
      </trkpt>
      <trkpt lat="45.4634" lon="5.4817">
        <ele>671</ele>
        <time>2017-12-30T21:11:57Z</time>
      </trkpt>
      <trkpt lat="45.46335" lon="5.48169">
        <ele>671.8</ele>
        <time>2017-12-30T21:12:00Z</time>
      </trkpt>
      <trkpt lat="45.4633" lon="5.48168">
        <ele>672.2</ele>
        <time>2017-12-30T21:12:03Z</time>
      </trkpt>
      <trkpt lat="45.46326" lon="5.48166">
        <ele>672.3</ele>
        <time>2017-12-30T21:12:05Z</time>
      </trkpt>
      <trkpt lat="45.46317" lon="5.48164">
        <ele>672.7</ele>
        <time>2017-12-30T21:12:10Z</time>
      </trkpt>
      <trkpt lat="45.4631" lon="5.48162">
        <ele>672.9</ele>
        <time>2017-12-30T21:12:14Z</time>
      </trkpt>
      <trkpt lat="45.46303" lon="5.48159">
        <ele>673</ele>
        <time>2017-12-30T21:12:19Z</time>
      </trkpt>
      <trkpt lat="45.463" lon="5.48158">
        <ele>673</ele>
        <time>2017-12-30T21:12:20Z</time>
      </trkpt>
      <trkpt lat="45.4629" lon="5.48153">
        <ele>673.1</ele>
        <time>2017-12-30T21:12:26Z</time>
      </trkpt>
      <trkpt lat="45.46284" lon="5.48148">
        <ele>672.8</ele>
        <time>2017-12-30T21:12:30Z</time>
      </trkpt>
      <trkpt lat="45.46278" lon="5.48143">
        <ele>672.6</ele>
        <time>2017-12-30T21:12:34Z</time>
      </trkpt>
      <trkpt lat="45.46273" lon="5.48138">
        <ele>672.3</ele>
        <time>2017-12-30T21:12:38Z</time>
      </trkpt>
      <trkpt lat="45.46267" lon="5.48131">
        <ele>671.8</ele>
        <time>2017-12-30T21:12:42Z</time>
      </trkpt>
      <trkpt lat="45.46263" lon="5.48124">
        <ele>671.2</ele>
        <time>2017-12-30T21:12:46Z</time>
      </trkpt>
      <trkpt lat="45.46258" lon="5.48116">
        <ele>670.5</ele>
        <time>2017-12-30T21:12:50Z</time>
      </trkpt>
      <trkpt lat="45.46253" lon="5.48109">
        <ele>669.9</ele>
        <time>2017-12-30T21:12:54Z</time>
      </trkpt>
      <trkpt lat="45.46249" lon="5.48102">
        <ele>669.3</ele>
        <time>2017-12-30T21:12:58Z</time>
      </trkpt>
      <trkpt lat="45.46243" lon="5.48095">
        <ele>669.5</ele>
        <time>2017-12-30T21:13:02Z</time>
      </trkpt>
      <trkpt lat="45.46238" lon="5.48088">
        <ele>669.6</ele>
        <time>2017-12-30T21:13:06Z</time>
      </trkpt>
      <trkpt lat="45.46234" lon="5.48081">
        <ele>669.7</ele>
        <time>2017-12-30T21:13:10Z</time>
      </trkpt>
      <trkpt lat="45.46229" lon="5.48074">
        <ele>670.2</ele>
        <time>2017-12-30T21:13:14Z</time>
      </trkpt>
      <trkpt lat="45.46222" lon="5.48067">
        <ele>671</ele>
        <time>2017-12-30T21:13:19Z</time>
      </trkpt>
      <trkpt lat="45.46217" lon="5.48061">
        <ele>671.6</ele>
        <time>2017-12-30T21:13:23Z</time>
      </trkpt>
      <trkpt lat="45.4621" lon="5.48053">
        <ele>672.3</ele>
        <time>2017-12-30T21:13:28Z</time>
      </trkpt>
      <trkpt lat="45.46205" lon="5.48048">
        <ele>672.9</ele>
        <time>2017-12-30T21:13:31Z</time>
      </trkpt>
      <trkpt lat="45.46199" lon="5.48042">
        <ele>673.7</ele>
        <time>2017-12-30T21:13:35Z</time>
      </trkpt>
      <trkpt lat="45.46193" lon="5.48034">
        <ele>674.3</ele>
        <time>2017-12-30T21:13:40Z</time>
      </trkpt>
      <trkpt lat="45.46188" lon="5.48028">
        <ele>674.8</ele>
        <time>2017-12-30T21:13:44Z</time>
      </trkpt>
      <trkpt lat="45.46181" lon="5.48023">
        <ele>675.8</ele>
        <time>2017-12-30T21:13:48Z</time>
      </trkpt>
      <trkpt lat="45.46175" lon="5.48016">
        <ele>676.4</ele>
        <time>2017-12-30T21:13:53Z</time>
      </trkpt>
      <trkpt lat="45.46169" lon="5.48011">
        <ele>677.2</ele>
        <time>2017-12-30T21:13:57Z</time>
      </trkpt>
      <trkpt lat="45.46163" lon="5.48004">
        <ele>677.9</ele>
        <time>2017-12-30T21:14:01Z</time>
      </trkpt>
      <trkpt lat="45.46155" lon="5.47999">
        <ele>679.2</ele>
        <time>2017-12-30T21:14:06Z</time>
      </trkpt>
      <trkpt lat="45.46148" lon="5.47993">
        <ele>680.4</ele>
        <time>2017-12-30T21:14:11Z</time>
      </trkpt>
      <trkpt lat="45.46141" lon="5.47989">
        <ele>681.6</ele>
        <time>2017-12-30T21:14:15Z</time>
      </trkpt>
      <trkpt lat="45.4614" lon="5.47988">
        <ele>681.7</ele>
        <time>2017-12-30T21:14:16Z</time>
      </trkpt>
      <trkpt lat="45.46126" lon="5.47982">
        <ele>684.1</ele>
        <time>2017-12-30T21:14:24Z</time>
      </trkpt>
      <trkpt lat="45.46118" lon="5.47979">
        <ele>685.5</ele>
        <time>2017-12-30T21:14:29Z</time>
      </trkpt>
      <trkpt lat="45.46112" lon="5.47976">
        <ele>686.5</ele>
        <time>2017-12-30T21:14:32Z</time>
      </trkpt>
      <trkpt lat="45.46107" lon="5.47974">
        <ele>687.3</ele>
        <time>2017-12-30T21:14:35Z</time>
      </trkpt>
      <trkpt lat="45.46099" lon="5.47971">
        <ele>688.7</ele>
        <time>2017-12-30T21:14:40Z</time>
      </trkpt>
      <trkpt lat="45.46093" lon="5.4797">
        <ele>689.7</ele>
        <time>2017-12-30T21:14:44Z</time>
      </trkpt>
      <trkpt lat="45.46085" lon="5.47968">
        <ele>691.1</ele>
        <time>2017-12-30T21:14:48Z</time>
      </trkpt>
      <trkpt lat="45.46077" lon="5.47967">
        <ele>692.3</ele>
        <time>2017-12-30T21:14:53Z</time>
      </trkpt>
      <trkpt lat="45.46071" lon="5.47964">
        <ele>693</ele>
        <time>2017-12-30T21:14:57Z</time>
      </trkpt>
      <trkpt lat="45.46064" lon="5.47963">
        <ele>694</ele>
        <time>2017-12-30T21:15:01Z</time>
      </trkpt>
      <trkpt lat="45.46056" lon="5.47966">
        <ele>695.3</ele>
        <time>2017-12-30T21:15:05Z</time>
      </trkpt>
      <trkpt lat="45.46048" lon="5.47967">
        <ele>696.6</ele>
        <time>2017-12-30T21:15:10Z</time>
      </trkpt>
      <trkpt lat="45.46041" lon="5.47967">
        <ele>697.6</ele>
        <time>2017-12-30T21:15:14Z</time>
      </trkpt>
      <trkpt lat="45.46034" lon="5.47967">
        <ele>698.6</ele>
        <time>2017-12-30T21:15:18Z</time>
      </trkpt>
      <trkpt lat="45.46025" lon="5.47968">
        <ele>700</ele>
        <time>2017-12-30T21:15:23Z</time>
      </trkpt>
      <trkpt lat="45.46017" lon="5.47966">
        <ele>701</ele>
        <time>2017-12-30T21:15:28Z</time>
      </trkpt>
      <trkpt lat="45.46014" lon="5.47965">
        <ele>701.4</ele>
        <time>2017-12-30T21:15:29Z</time>
      </trkpt>
      <trkpt lat="45.46003" lon="5.47962">
        <ele>702.8</ele>
        <time>2017-12-30T21:15:36Z</time>
      </trkpt>
      <trkpt lat="45.45998" lon="5.4796">
        <ele>703.2</ele>
        <time>2017-12-30T21:15:39Z</time>
      </trkpt>
      <trkpt lat="45.45994" lon="5.47959">
        <ele>703.3</ele>
        <time>2017-12-30T21:15:41Z</time>
      </trkpt>
      <trkpt lat="45.45989" lon="5.47956">
        <ele>703.4</ele>
        <time>2017-12-30T21:15:44Z</time>
      </trkpt>
      <trkpt lat="45.45984" lon="5.47953">
        <ele>703.4</ele>
        <time>2017-12-30T21:15:47Z</time>
      </trkpt>
      <trkpt lat="45.45979" lon="5.47949">
        <ele>703.3</ele>
        <time>2017-12-30T21:15:51Z</time>
      </trkpt>
      <trkpt lat="45.45975" lon="5.47946">
        <ele>703.3</ele>
        <time>2017-12-30T21:15:53Z</time>
      </trkpt>
      <trkpt lat="45.4597" lon="5.47942">
        <ele>703.2</ele>
        <time>2017-12-30T21:15:56Z</time>
      </trkpt>
      <trkpt lat="45.45965" lon="5.47939">
        <ele>703.2</ele>
        <time>2017-12-30T21:16:00Z</time>
      </trkpt>
      <trkpt lat="45.4596" lon="5.47935">
        <ele>703</ele>
        <time>2017-12-30T21:16:03Z</time>
      </trkpt>
      <trkpt lat="45.45955" lon="5.47932">
        <ele>703</ele>
        <time>2017-12-30T21:16:06Z</time>
      </trkpt>
      <trkpt lat="45.4595" lon="5.47929">
        <ele>702.9</ele>
        <time>2017-12-30T21:16:09Z</time>
      </trkpt>
      <trkpt lat="45.45946" lon="5.47925">
        <ele>702.7</ele>
        <time>2017-12-30T21:16:12Z</time>
      </trkpt>
      <trkpt lat="45.45942" lon="5.4792">
        <ele>702.4</ele>
        <time>2017-12-30T21:16:15Z</time>
      </trkpt>
      <trkpt lat="45.45938" lon="5.47916">
        <ele>702.2</ele>
        <time>2017-12-30T21:16:18Z</time>
      </trkpt>
      <trkpt lat="45.45935" lon="5.47911">
        <ele>702</ele>
        <time>2017-12-30T21:16:20Z</time>
      </trkpt>
      <trkpt lat="45.45931" lon="5.47907">
        <ele>701.9</ele>
        <time>2017-12-30T21:16:23Z</time>
      </trkpt>
      <trkpt lat="45.45927" lon="5.47902">
        <ele>701.7</ele>
        <time>2017-12-30T21:16:26Z</time>
      </trkpt>
      <trkpt lat="45.45922" lon="5.47897">
        <ele>701.6</ele>
        <time>2017-12-30T21:16:30Z</time>
      </trkpt>
      <trkpt lat="45.45919" lon="5.47892">
        <ele>701.4</ele>
        <time>2017-12-30T21:16:32Z</time>
      </trkpt>
      <trkpt lat="45.45915" lon="5.47886">
        <ele>701.3</ele>
        <time>2017-12-30T21:16:36Z</time>
      </trkpt>
      <trkpt lat="45.45911" lon="5.4788">
        <ele>701.3</ele>
        <time>2017-12-30T21:16:39Z</time>
      </trkpt>
      <trkpt lat="45.45907" lon="5.47873">
        <ele>701.1</ele>
        <time>2017-12-30T21:16:43Z</time>
      </trkpt>
      <trkpt lat="45.45903" lon="5.47867">
        <ele>701.1</ele>
        <time>2017-12-30T21:16:46Z</time>
      </trkpt>
      <trkpt lat="45.45899" lon="5.47861">
        <ele>701</ele>
        <time>2017-12-30T21:16:49Z</time>
      </trkpt>
      <trkpt lat="45.45895" lon="5.47855">
        <ele>700.8</ele>
        <time>2017-12-30T21:16:53Z</time>
      </trkpt>
      <trkpt lat="45.45891" lon="5.47847">
        <ele>700.5</ele>
        <time>2017-12-30T21:16:56Z</time>
      </trkpt>
      <trkpt lat="45.45886" lon="5.4784">
        <ele>700.3</ele>
        <time>2017-12-30T21:17:00Z</time>
      </trkpt>
      <trkpt lat="45.45881" lon="5.47834">
        <ele>700.2</ele>
        <time>2017-12-30T21:17:04Z</time>
      </trkpt>
      <trkpt lat="45.45877" lon="5.47828">
        <ele>699.7</ele>
        <time>2017-12-30T21:17:08Z</time>
      </trkpt>
      <trkpt lat="45.45872" lon="5.47822">
        <ele>699.2</ele>
        <time>2017-12-30T21:17:11Z</time>
      </trkpt>
      <trkpt lat="45.45867" lon="5.47817">
        <ele>698.9</ele>
        <time>2017-12-30T21:17:15Z</time>
      </trkpt>
      <trkpt lat="45.45862" lon="5.47811">
        <ele>698.5</ele>
        <time>2017-12-30T21:17:18Z</time>
      </trkpt>
      <trkpt lat="45.45858" lon="5.47804">
        <ele>697.8</ele>
        <time>2017-12-30T21:17:22Z</time>
      </trkpt>
      <trkpt lat="45.45853" lon="5.47798">
        <ele>697.3</ele>
        <time>2017-12-30T21:17:26Z</time>
      </trkpt>
      <trkpt lat="45.45849" lon="5.47792">
        <ele>696.7</ele>
        <time>2017-12-30T21:17:29Z</time>
      </trkpt>
      <trkpt lat="45.45844" lon="5.47785">
        <ele>696.1</ele>
        <time>2017-12-30T21:17:33Z</time>
      </trkpt>
      <trkpt lat="45.45839" lon="5.47778">
        <ele>695.4</ele>
        <time>2017-12-30T21:17:37Z</time>
      </trkpt>
      <trkpt lat="45.45835" lon="5.47772">
        <ele>694.8</ele>
        <time>2017-12-30T21:17:40Z</time>
      </trkpt>
      <trkpt lat="45.45831" lon="5.47768">
        <ele>694.7</ele>
        <time>2017-12-30T21:17:43Z</time>
      </trkpt>
      <trkpt lat="45.45826" lon="5.47762">
        <ele>694.8</ele>
        <time>2017-12-30T21:17:47Z</time>
      </trkpt>
      <trkpt lat="45.45822" lon="5.47755">
        <ele>694.5</ele>
        <time>2017-12-30T21:17:51Z</time>
      </trkpt>
      <trkpt lat="45.45817" lon="5.47749">
        <ele>694.6</ele>
        <time>2017-12-30T21:17:54Z</time>
      </trkpt>
      <trkpt lat="45.45812" lon="5.47742">
        <ele>694.7</ele>
        <time>2017-12-30T21:17:58Z</time>
      </trkpt>
      <trkpt lat="45.45808" lon="5.47736">
        <ele>694.7</ele>
        <time>2017-12-30T21:18:02Z</time>
      </trkpt>
      <trkpt lat="45.45803" lon="5.47729">
        <ele>694.7</ele>
        <time>2017-12-30T21:18:06Z</time>
      </trkpt>
      <trkpt lat="45.45798" lon="5.47723">
        <ele>694.8</ele>
        <time>2017-12-30T21:18:09Z</time>
      </trkpt>
      <trkpt lat="45.45794" lon="5.47717">
        <ele>694.6</ele>
        <time>2017-12-30T21:18:13Z</time>
      </trkpt>
      <trkpt lat="45.45788" lon="5.47711">
        <ele>694.7</ele>
        <time>2017-12-30T21:18:17Z</time>
      </trkpt>
      <trkpt lat="45.45784" lon="5.47705">
        <ele>694.5</ele>
        <time>2017-12-30T21:18:20Z</time>
      </trkpt>
      <trkpt lat="45.45779" lon="5.47698">
        <ele>694.2</ele>
        <time>2017-12-30T21:18:24Z</time>
      </trkpt>
      <trkpt lat="45.45774" lon="5.47692">
        <ele>694.1</ele>
        <time>2017-12-30T21:18:28Z</time>
      </trkpt>
      <trkpt lat="45.45769" lon="5.47687">
        <ele>693.9</ele>
        <time>2017-12-30T21:18:32Z</time>
      </trkpt>
      <trkpt lat="45.45765" lon="5.47681">
        <ele>693.5</ele>
        <time>2017-12-30T21:18:35Z</time>
      </trkpt>
      <trkpt lat="45.45761" lon="5.47674">
        <ele>692.9</ele>
        <time>2017-12-30T21:18:38Z</time>
      </trkpt>
      <trkpt lat="45.45755" lon="5.47668">
        <ele>692.6</ele>
        <time>2017-12-30T21:18:43Z</time>
      </trkpt>
      <trkpt lat="45.4575" lon="5.47663">
        <ele>692.4</ele>
        <time>2017-12-30T21:18:46Z</time>
      </trkpt>
      <trkpt lat="45.45746" lon="5.47661">
        <ele>692.7</ele>
        <time>2017-12-30T21:18:49Z</time>
      </trkpt>
      <trkpt lat="45.4574" lon="5.47658">
        <ele>693.2</ele>
        <time>2017-12-30T21:18:52Z</time>
      </trkpt>
      <trkpt lat="45.45734" lon="5.47655">
        <ele>693.7</ele>
        <time>2017-12-30T21:18:56Z</time>
      </trkpt>
      <trkpt lat="45.45729" lon="5.47653">
        <ele>694.1</ele>
        <time>2017-12-30T21:18:59Z</time>
      </trkpt>
      <trkpt lat="45.45723" lon="5.4765">
        <ele>694.6</ele>
        <time>2017-12-30T21:19:02Z</time>
      </trkpt>
      <trkpt lat="45.45717" lon="5.47649">
        <ele>695.3</ele>
        <time>2017-12-30T21:19:06Z</time>
      </trkpt>
      <trkpt lat="45.45711" lon="5.47648">
        <ele>696.1</ele>
        <time>2017-12-30T21:19:09Z</time>
      </trkpt>
      <trkpt lat="45.45705" lon="5.47647">
        <ele>696.9</ele>
        <time>2017-12-30T21:19:13Z</time>
      </trkpt>
      <trkpt lat="45.45698" lon="5.47646">
        <ele>697.7</ele>
        <time>2017-12-30T21:19:17Z</time>
      </trkpt>
      <trkpt lat="45.45692" lon="5.47645">
        <ele>698.5</ele>
        <time>2017-12-30T21:19:20Z</time>
      </trkpt>
      <trkpt lat="45.45685" lon="5.47644">
        <ele>699.4</ele>
        <time>2017-12-30T21:19:24Z</time>
      </trkpt>
      <trkpt lat="45.45679" lon="5.47642">
        <ele>699.9</ele>
        <time>2017-12-30T21:19:28Z</time>
      </trkpt>
      <trkpt lat="45.45673" lon="5.4764">
        <ele>700.5</ele>
        <time>2017-12-30T21:19:31Z</time>
      </trkpt>
      <trkpt lat="45.45667" lon="5.47639">
        <ele>701.2</ele>
        <time>2017-12-30T21:19:35Z</time>
      </trkpt>
      <trkpt lat="45.45661" lon="5.47637">
        <ele>701.3</ele>
        <time>2017-12-30T21:19:38Z</time>
      </trkpt>
      <trkpt lat="45.45654" lon="5.47635">
        <ele>701.4</ele>
        <time>2017-12-30T21:19:42Z</time>
      </trkpt>
      <trkpt lat="45.45649" lon="5.47633">
        <ele>701.5</ele>
        <time>2017-12-30T21:19:45Z</time>
      </trkpt>
      <trkpt lat="45.45643" lon="5.47632">
        <ele>701.7</ele>
        <time>2017-12-30T21:19:49Z</time>
      </trkpt>
      <trkpt lat="45.45637" lon="5.47631">
        <ele>701.9</ele>
        <time>2017-12-30T21:19:52Z</time>
      </trkpt>
      <trkpt lat="45.45632" lon="5.47631">
        <ele>702.2</ele>
        <time>2017-12-30T21:19:55Z</time>
      </trkpt>
      <trkpt lat="45.45627" lon="5.4763">
        <ele>702.4</ele>
        <time>2017-12-30T21:19:58Z</time>
      </trkpt>
      <trkpt lat="45.45623" lon="5.4763">
        <ele>702.7</ele>
        <time>2017-12-30T21:20:00Z</time>
      </trkpt>
      <trkpt lat="45.45615" lon="5.4763">
        <ele>703.2</ele>
        <time>2017-12-30T21:20:05Z</time>
      </trkpt>
      <trkpt lat="45.45607" lon="5.47629">
        <ele>703.6</ele>
        <time>2017-12-30T21:20:09Z</time>
      </trkpt>
      <trkpt lat="45.45598" lon="5.47631">
        <ele>704.5</ele>
        <time>2017-12-30T21:20:15Z</time>
      </trkpt>
      <trkpt lat="45.45589" lon="5.47631">
        <ele>705.1</ele>
        <time>2017-12-30T21:20:20Z</time>
      </trkpt>
      <trkpt lat="45.45581" lon="5.47628">
        <ele>705.2</ele>
        <time>2017-12-30T21:20:25Z</time>
      </trkpt>
      <trkpt lat="45.45575" lon="5.47625">
        <ele>705.2</ele>
        <time>2017-12-30T21:20:28Z</time>
      </trkpt>
      <trkpt lat="45.45569" lon="5.47618">
        <ele>704.5</ele>
        <time>2017-12-30T21:20:33Z</time>
      </trkpt>
      <trkpt lat="45.45569" lon="5.47618">
        <ele>704.5</ele>
        <time>2017-12-30T21:20:33Z</time>
      </trkpt>
      <trkpt lat="45.45563" lon="5.4761">
        <ele>703.8</ele>
        <time>2017-12-30T21:20:37Z</time>
      </trkpt>
      <trkpt lat="45.45556" lon="5.47604">
        <ele>703.5</ele>
        <time>2017-12-30T21:20:42Z</time>
      </trkpt>
      <trkpt lat="45.4555" lon="5.47599">
        <ele>703.4</ele>
        <time>2017-12-30T21:20:46Z</time>
      </trkpt>
      <trkpt lat="45.45545" lon="5.47595">
        <ele>703.3</ele>
        <time>2017-12-30T21:20:49Z</time>
      </trkpt>
      <trkpt lat="45.4554" lon="5.4759">
        <ele>703.1</ele>
        <time>2017-12-30T21:20:53Z</time>
      </trkpt>
      <trkpt lat="45.45535" lon="5.47585">
        <ele>703</ele>
        <time>2017-12-30T21:20:56Z</time>
      </trkpt>
      <trkpt lat="45.45527" lon="5.47581">
        <ele>703.4</ele>
        <time>2017-12-30T21:21:01Z</time>
      </trkpt>
      <trkpt lat="45.45522" lon="5.47576">
        <ele>703.5</ele>
        <time>2017-12-30T21:21:05Z</time>
      </trkpt>
      <trkpt lat="45.45515" lon="5.47572">
        <ele>703.8</ele>
        <time>2017-12-30T21:21:09Z</time>
      </trkpt>
      <trkpt lat="45.45509" lon="5.47567">
        <ele>704</ele>
        <time>2017-12-30T21:21:13Z</time>
      </trkpt>
      <trkpt lat="45.45503" lon="5.47559">
        <ele>703.7</ele>
        <time>2017-12-30T21:21:18Z</time>
      </trkpt>
      <trkpt lat="45.45499" lon="5.47556">
        <ele>703.9</ele>
        <time>2017-12-30T21:21:20Z</time>
      </trkpt>
      <trkpt lat="45.4549" lon="5.47551">
        <ele>705.2</ele>
        <time>2017-12-30T21:21:26Z</time>
      </trkpt>
      <trkpt lat="45.45484" lon="5.47547">
        <ele>705.9</ele>
        <time>2017-12-30T21:21:29Z</time>
      </trkpt>
      <trkpt lat="45.45477" lon="5.47543">
        <ele>706.8</ele>
        <time>2017-12-30T21:21:34Z</time>
      </trkpt>
      <trkpt lat="45.4547" lon="5.47537">
        <ele>707.4</ele>
        <time>2017-12-30T21:21:38Z</time>
      </trkpt>
      <trkpt lat="45.45464" lon="5.47532">
        <ele>707.8</ele>
        <time>2017-12-30T21:21:42Z</time>
      </trkpt>
      <trkpt lat="45.45459" lon="5.47529">
        <ele>708.3</ele>
        <time>2017-12-30T21:21:46Z</time>
      </trkpt>
      <trkpt lat="45.45455" lon="5.47527">
        <ele>708.8</ele>
        <time>2017-12-30T21:21:48Z</time>
      </trkpt>
      <trkpt lat="45.4545" lon="5.47526">
        <ele>709.5</ele>
        <time>2017-12-30T21:21:51Z</time>
      </trkpt>
      <trkpt lat="45.45445" lon="5.47524">
        <ele>710.2</ele>
        <time>2017-12-30T21:21:54Z</time>
      </trkpt>
      <trkpt lat="45.45441" lon="5.47521">
        <ele>710.4</ele>
        <time>2017-12-30T21:21:56Z</time>
      </trkpt>
      <trkpt lat="45.45435" lon="5.47518">
        <ele>711</ele>
        <time>2017-12-30T21:22:00Z</time>
      </trkpt>
      <trkpt lat="45.4543" lon="5.47515">
        <ele>711.4</ele>
        <time>2017-12-30T21:22:03Z</time>
      </trkpt>
      <trkpt lat="45.45426" lon="5.47513">
        <ele>711.7</ele>
        <time>2017-12-30T21:22:06Z</time>
      </trkpt>
      <trkpt lat="45.45422" lon="5.4751">
        <ele>711.9</ele>
        <time>2017-12-30T21:22:08Z</time>
      </trkpt>
      <trkpt lat="45.45418" lon="5.47508">
        <ele>712.2</ele>
        <time>2017-12-30T21:22:11Z</time>
      </trkpt>
      <trkpt lat="45.45413" lon="5.47506">
        <ele>712.7</ele>
        <time>2017-12-30T21:22:14Z</time>
      </trkpt>
      <trkpt lat="45.45405" lon="5.47502">
        <ele>713.4</ele>
        <time>2017-12-30T21:22:18Z</time>
      </trkpt>
      <trkpt lat="45.45397" lon="5.47498">
        <ele>714.2</ele>
        <time>2017-12-30T21:22:23Z</time>
      </trkpt>
      <trkpt lat="45.45389" lon="5.47494">
        <ele>715</ele>
        <time>2017-12-30T21:22:28Z</time>
      </trkpt>
      <trkpt lat="45.45385" lon="5.47491">
        <ele>715.2</ele>
        <time>2017-12-30T21:22:31Z</time>
      </trkpt>
      <trkpt lat="45.45378" lon="5.47484">
        <ele>715.3</ele>
        <time>2017-12-30T21:22:36Z</time>
      </trkpt>
      <trkpt lat="45.45375" lon="5.47476">
        <ele>714.5</ele>
        <time>2017-12-30T21:22:39Z</time>
      </trkpt>
      <trkpt lat="45.4537" lon="5.47467">
        <ele>713.9</ele>
        <time>2017-12-30T21:22:44Z</time>
      </trkpt>
      <trkpt lat="45.45365" lon="5.47459">
        <ele>713.4</ele>
        <time>2017-12-30T21:22:48Z</time>
      </trkpt>
      <trkpt lat="45.45362" lon="5.4745">
        <ele>712.4</ele>
        <time>2017-12-30T21:22:52Z</time>
      </trkpt>
      <trkpt lat="45.45357" lon="5.4744">
        <ele>711.5</ele>
        <time>2017-12-30T21:22:57Z</time>
      </trkpt>
      <trkpt lat="45.45352" lon="5.47432">
        <ele>710.9</ele>
        <time>2017-12-30T21:23:01Z</time>
      </trkpt>
      <trkpt lat="45.45348" lon="5.47425">
        <ele>710.2</ele>
        <time>2017-12-30T21:23:05Z</time>
      </trkpt>
      <trkpt lat="45.45342" lon="5.47416">
        <ele>709.6</ele>
        <time>2017-12-30T21:23:10Z</time>
      </trkpt>
      <trkpt lat="45.45338" lon="5.47409">
        <ele>709.4</ele>
        <time>2017-12-30T21:23:14Z</time>
      </trkpt>
      <trkpt lat="45.45333" lon="5.47402">
        <ele>709.2</ele>
        <time>2017-12-30T21:23:18Z</time>
      </trkpt>
      <trkpt lat="45.45326" lon="5.47393">
        <ele>709.9</ele>
        <time>2017-12-30T21:23:23Z</time>
      </trkpt>
      <trkpt lat="45.4532" lon="5.47386">
        <ele>710.5</ele>
        <time>2017-12-30T21:23:27Z</time>
      </trkpt>
      <trkpt lat="45.45317" lon="5.47382">
        <ele>710.7</ele>
        <time>2017-12-30T21:23:30Z</time>
      </trkpt>
      <trkpt lat="45.45309" lon="5.47369">
        <ele>711</ele>
        <time>2017-12-30T21:23:37Z</time>
      </trkpt>
      <trkpt lat="45.45304" lon="5.47362">
        <ele>711.3</ele>
        <time>2017-12-30T21:23:41Z</time>
      </trkpt>
      <trkpt lat="45.45298" lon="5.47354">
        <ele>711.7</ele>
        <time>2017-12-30T21:23:45Z</time>
      </trkpt>
      <trkpt lat="45.45293" lon="5.47346">
        <ele>711.8</ele>
        <time>2017-12-30T21:23:50Z</time>
      </trkpt>
      <trkpt lat="45.45287" lon="5.47339">
        <ele>712.2</ele>
        <time>2017-12-30T21:23:54Z</time>
      </trkpt>
      <trkpt lat="45.45283" lon="5.47333">
        <ele>712.4</ele>
        <time>2017-12-30T21:23:57Z</time>
      </trkpt>
      <trkpt lat="45.45279" lon="5.47324">
        <ele>712.5</ele>
        <time>2017-12-30T21:24:02Z</time>
      </trkpt>
      <trkpt lat="45.45274" lon="5.47316">
        <ele>712.9</ele>
        <time>2017-12-30T21:24:06Z</time>
      </trkpt>
      <trkpt lat="45.45269" lon="5.4731">
        <ele>713.5</ele>
        <time>2017-12-30T21:24:10Z</time>
      </trkpt>
      <trkpt lat="45.45263" lon="5.47302">
        <ele>714.1</ele>
        <time>2017-12-30T21:24:14Z</time>
      </trkpt>
      <trkpt lat="45.45256" lon="5.47296">
        <ele>715</ele>
        <time>2017-12-30T21:24:19Z</time>
      </trkpt>
      <trkpt lat="45.4525" lon="5.47289">
        <ele>715.7</ele>
        <time>2017-12-30T21:24:23Z</time>
      </trkpt>
      <trkpt lat="45.45243" lon="5.47283">
        <ele>716.6</ele>
        <time>2017-12-30T21:24:28Z</time>
      </trkpt>
      <trkpt lat="45.45238" lon="5.47275">
        <ele>716.8</ele>
        <time>2017-12-30T21:24:32Z</time>
      </trkpt>
      <trkpt lat="45.45233" lon="5.47267">
        <ele>717</ele>
        <time>2017-12-30T21:24:37Z</time>
      </trkpt>
      <trkpt lat="45.45227" lon="5.47259">
        <ele>717.3</ele>
        <time>2017-12-30T21:24:41Z</time>
      </trkpt>
      <trkpt lat="45.45221" lon="5.47251">
        <ele>717.6</ele>
        <time>2017-12-30T21:24:46Z</time>
      </trkpt>
      <trkpt lat="45.45218" lon="5.47242">
        <ele>717.3</ele>
        <time>2017-12-30T21:24:50Z</time>
      </trkpt>
      <trkpt lat="45.45213" lon="5.47236">
        <ele>717.7</ele>
        <time>2017-12-30T21:24:54Z</time>
      </trkpt>
      <trkpt lat="45.45208" lon="5.4723">
        <ele>718.1</ele>
        <time>2017-12-30T21:24:58Z</time>
      </trkpt>
      <trkpt lat="45.45202" lon="5.47224">
        <ele>718.7</ele>
        <time>2017-12-30T21:25:02Z</time>
      </trkpt>
      <trkpt lat="45.45198" lon="5.47216">
        <ele>718.8</ele>
        <time>2017-12-30T21:25:06Z</time>
      </trkpt>
      <trkpt lat="45.45192" lon="5.47209">
        <ele>719.3</ele>
        <time>2017-12-30T21:25:10Z</time>
      </trkpt>
      <trkpt lat="45.45185" lon="5.47202">
        <ele>720.1</ele>
        <time>2017-12-30T21:25:15Z</time>
      </trkpt>
      <trkpt lat="45.45177" lon="5.47198">
        <ele>721.4</ele>
        <time>2017-12-30T21:25:20Z</time>
      </trkpt>
      <trkpt lat="45.45172" lon="5.47196">
        <ele>722.3</ele>
        <time>2017-12-30T21:25:23Z</time>
      </trkpt>
      <trkpt lat="45.45167" lon="5.47197">
        <ele>723.4</ele>
        <time>2017-12-30T21:25:26Z</time>
      </trkpt>
      <trkpt lat="45.45162" lon="5.472">
        <ele>724</ele>
        <time>2017-12-30T21:25:29Z</time>
      </trkpt>
      <trkpt lat="45.45155" lon="5.47203">
        <ele>724.7</ele>
        <time>2017-12-30T21:25:33Z</time>
      </trkpt>
      <trkpt lat="45.45147" lon="5.47206">
        <ele>725.4</ele>
        <time>2017-12-30T21:25:38Z</time>
      </trkpt>
      <trkpt lat="45.45139" lon="5.47208">
        <ele>726.1</ele>
        <time>2017-12-30T21:25:42Z</time>
      </trkpt>
      <trkpt lat="45.45131" lon="5.47211">
        <ele>726.9</ele>
        <time>2017-12-30T21:25:47Z</time>
      </trkpt>
      <trkpt lat="45.45123" lon="5.47214">
        <ele>727.7</ele>
        <time>2017-12-30T21:25:52Z</time>
      </trkpt>
      <trkpt lat="45.45115" lon="5.47216">
        <ele>728.5</ele>
        <time>2017-12-30T21:25:57Z</time>
      </trkpt>
      <trkpt lat="45.45107" lon="5.47218">
        <ele>729.3</ele>
        <time>2017-12-30T21:26:01Z</time>
      </trkpt>
      <trkpt lat="45.451" lon="5.4722">
        <ele>730.1</ele>
        <time>2017-12-30T21:26:05Z</time>
      </trkpt>
      <trkpt lat="45.45093" lon="5.47222">
        <ele>730.9</ele>
        <time>2017-12-30T21:26:09Z</time>
      </trkpt>
      <trkpt lat="45.45085" lon="5.47225">
        <ele>731.9</ele>
        <time>2017-12-30T21:26:14Z</time>
      </trkpt>
      <trkpt lat="45.45077" lon="5.47228">
        <ele>732.2</ele>
        <time>2017-12-30T21:26:19Z</time>
      </trkpt>
      <trkpt lat="45.45069" lon="5.47232">
        <ele>732.4</ele>
        <time>2017-12-30T21:26:24Z</time>
      </trkpt>
      <trkpt lat="45.45063" lon="5.47234">
        <ele>732.4</ele>
        <time>2017-12-30T21:26:27Z</time>
      </trkpt>
      <trkpt lat="45.45056" lon="5.47235">
        <ele>732.2</ele>
        <time>2017-12-30T21:26:31Z</time>
      </trkpt>
      <trkpt lat="45.45047" lon="5.47234">
        <ele>731.6</ele>
        <time>2017-12-30T21:26:36Z</time>
      </trkpt>
      <trkpt lat="45.45041" lon="5.47231">
        <ele>730.8</ele>
        <time>2017-12-30T21:26:40Z</time>
      </trkpt>
      <trkpt lat="45.45032" lon="5.47227">
        <ele>729.7</ele>
        <time>2017-12-30T21:26:45Z</time>
      </trkpt>
      <trkpt lat="45.45025" lon="5.4722">
        <ele>728.2</ele>
        <time>2017-12-30T21:26:50Z</time>
      </trkpt>
      <trkpt lat="45.45019" lon="5.47212">
        <ele>726.6</ele>
        <time>2017-12-30T21:26:55Z</time>
      </trkpt>
      <trkpt lat="45.45015" lon="5.47206">
        <ele>725.4</ele>
        <time>2017-12-30T21:26:58Z</time>
      </trkpt>
      <trkpt lat="45.45011" lon="5.47201">
        <ele>724.3</ele>
        <time>2017-12-30T21:27:01Z</time>
      </trkpt>
      <trkpt lat="45.45007" lon="5.47196">
        <ele>723.2</ele>
        <time>2017-12-30T21:27:04Z</time>
      </trkpt>
      <trkpt lat="45.45004" lon="5.4719">
        <ele>722.1</ele>
        <time>2017-12-30T21:27:07Z</time>
      </trkpt>
      <trkpt lat="45.45001" lon="5.4718">
        <ele>720.2</ele>
        <time>2017-12-30T21:27:12Z</time>
      </trkpt>
      <trkpt lat="45.44998" lon="5.47171">
        <ele>718.9</ele>
        <time>2017-12-30T21:27:16Z</time>
      </trkpt>
      <trkpt lat="45.44994" lon="5.47162">
        <ele>718.1</ele>
        <time>2017-12-30T21:27:20Z</time>
      </trkpt>
      <trkpt lat="45.44992" lon="5.47153">
        <ele>717.2</ele>
        <time>2017-12-30T21:27:24Z</time>
      </trkpt>
      <trkpt lat="45.4499" lon="5.47144">
        <ele>716.3</ele>
        <time>2017-12-30T21:27:28Z</time>
      </trkpt>
      <trkpt lat="45.44988" lon="5.47135">
        <ele>715.4</ele>
        <time>2017-12-30T21:27:31Z</time>
      </trkpt>
      <trkpt lat="45.44983" lon="5.47129">
        <ele>715.3</ele>
        <time>2017-12-30T21:27:35Z</time>
      </trkpt>
      <trkpt lat="45.44977" lon="5.4712">
        <ele>715</ele>
        <time>2017-12-30T21:27:40Z</time>
      </trkpt>
      <trkpt lat="45.44971" lon="5.47113">
        <ele>714.9</ele>
        <time>2017-12-30T21:27:44Z</time>
      </trkpt>
      <trkpt lat="45.44965" lon="5.47108">
        <ele>715.1</ele>
        <time>2017-12-30T21:27:48Z</time>
      </trkpt>
      <trkpt lat="45.44959" lon="5.47102">
        <ele>715.2</ele>
        <time>2017-12-30T21:27:53Z</time>
      </trkpt>
      <trkpt lat="45.44953" lon="5.47096">
        <ele>715.3</ele>
        <time>2017-12-30T21:27:57Z</time>
      </trkpt>
      <trkpt lat="45.44947" lon="5.47093">
        <ele>715.8</ele>
        <time>2017-12-30T21:28:00Z</time>
      </trkpt>
      <trkpt lat="45.44941" lon="5.47091">
        <ele>716.4</ele>
        <time>2017-12-30T21:28:04Z</time>
      </trkpt>
      <trkpt lat="45.44935" lon="5.47089">
        <ele>717</ele>
        <time>2017-12-30T21:28:08Z</time>
      </trkpt>
      <trkpt lat="45.44927" lon="5.47088">
        <ele>718</ele>
        <time>2017-12-30T21:28:12Z</time>
      </trkpt>
      <trkpt lat="45.44921" lon="5.47085">
        <ele>718.5</ele>
        <time>2017-12-30T21:28:16Z</time>
      </trkpt>
      <trkpt lat="45.44914" lon="5.47084">
        <ele>719.3</ele>
        <time>2017-12-30T21:28:20Z</time>
      </trkpt>
      <trkpt lat="45.44908" lon="5.47084">
        <ele>720</ele>
        <time>2017-12-30T21:28:23Z</time>
      </trkpt>
      <trkpt lat="45.44902" lon="5.47083">
        <ele>720.5</ele>
        <time>2017-12-30T21:28:27Z</time>
      </trkpt>
      <trkpt lat="45.44897" lon="5.47082">
        <ele>720.9</ele>
        <time>2017-12-30T21:28:30Z</time>
      </trkpt>
      <trkpt lat="45.44889" lon="5.4708">
        <ele>721.4</ele>
        <time>2017-12-30T21:28:34Z</time>
      </trkpt>
      <trkpt lat="45.44884" lon="5.47079">
        <ele>721.8</ele>
        <time>2017-12-30T21:28:37Z</time>
      </trkpt>
      <trkpt lat="45.44879" lon="5.47077">
        <ele>722.1</ele>
        <time>2017-12-30T21:28:40Z</time>
      </trkpt>
      <trkpt lat="45.44872" lon="5.47074">
        <ele>722.3</ele>
        <time>2017-12-30T21:28:44Z</time>
      </trkpt>
      <trkpt lat="45.44865" lon="5.4707">
        <ele>722.5</ele>
        <time>2017-12-30T21:28:49Z</time>
      </trkpt>
      <trkpt lat="45.4486" lon="5.47068">
        <ele>722.6</ele>
        <time>2017-12-30T21:28:51Z</time>
      </trkpt>
      <trkpt lat="45.44856" lon="5.47065">
        <ele>722.6</ele>
        <time>2017-12-30T21:28:54Z</time>
      </trkpt>
      <trkpt lat="45.44851" lon="5.47063">
        <ele>722.8</ele>
        <time>2017-12-30T21:28:57Z</time>
      </trkpt>
      <trkpt lat="45.44845" lon="5.4706">
        <ele>722.9</ele>
        <time>2017-12-30T21:29:01Z</time>
      </trkpt>
      <trkpt lat="45.4484" lon="5.47056">
        <ele>722.7</ele>
        <time>2017-12-30T21:29:04Z</time>
      </trkpt>
      <trkpt lat="45.44835" lon="5.47053">
        <ele>722.7</ele>
        <time>2017-12-30T21:29:07Z</time>
      </trkpt>
      <trkpt lat="45.4483" lon="5.47049">
        <ele>722.6</ele>
        <time>2017-12-30T21:29:10Z</time>
      </trkpt>
      <trkpt lat="45.44824" lon="5.47046">
        <ele>722.9</ele>
        <time>2017-12-30T21:29:14Z</time>
      </trkpt>
      <trkpt lat="45.44819" lon="5.47044">
        <ele>723.2</ele>
        <time>2017-12-30T21:29:17Z</time>
      </trkpt>
      <trkpt lat="45.44813" lon="5.47042">
        <ele>723.7</ele>
        <time>2017-12-30T21:29:20Z</time>
      </trkpt>
      <trkpt lat="45.44805" lon="5.47037">
        <ele>723.8</ele>
        <time>2017-12-30T21:29:25Z</time>
      </trkpt>
      <trkpt lat="45.448" lon="5.47033">
        <ele>723.8</ele>
        <time>2017-12-30T21:29:29Z</time>
      </trkpt>
      <trkpt lat="45.44794" lon="5.47028">
        <ele>723.7</ele>
        <time>2017-12-30T21:29:33Z</time>
      </trkpt>
      <trkpt lat="45.44788" lon="5.47025">
        <ele>723.9</ele>
        <time>2017-12-30T21:29:36Z</time>
      </trkpt>
      <trkpt lat="45.44783" lon="5.47022">
        <ele>724</ele>
        <time>2017-12-30T21:29:39Z</time>
      </trkpt>
      <trkpt lat="45.44779" lon="5.47019">
        <ele>723.9</ele>
        <time>2017-12-30T21:29:42Z</time>
      </trkpt>
      <trkpt lat="45.44774" lon="5.47016">
        <ele>724</ele>
        <time>2017-12-30T21:29:45Z</time>
      </trkpt>
      <trkpt lat="45.4477" lon="5.47013">
        <ele>723.9</ele>
        <time>2017-12-30T21:29:48Z</time>
      </trkpt>
      <trkpt lat="45.44764" lon="5.4701">
        <ele>724.1</ele>
        <time>2017-12-30T21:29:51Z</time>
      </trkpt>
      <trkpt lat="45.4476" lon="5.47006">
        <ele>723.8</ele>
        <time>2017-12-30T21:29:54Z</time>
      </trkpt>
      <trkpt lat="45.44756" lon="5.47001">
        <ele>723.4</ele>
        <time>2017-12-30T21:29:57Z</time>
      </trkpt>
      <trkpt lat="45.44752" lon="5.46997">
        <ele>723.3</ele>
        <time>2017-12-30T21:30:00Z</time>
      </trkpt>
      <trkpt lat="45.44748" lon="5.46992">
        <ele>723.1</ele>
        <time>2017-12-30T21:30:03Z</time>
      </trkpt>
      <trkpt lat="45.44745" lon="5.46987">
        <ele>722.8</ele>
        <time>2017-12-30T21:30:06Z</time>
      </trkpt>
      <trkpt lat="45.44741" lon="5.46982">
        <ele>722.7</ele>
        <time>2017-12-30T21:30:09Z</time>
      </trkpt>
      <trkpt lat="45.44734" lon="5.46974">
        <ele>722.6</ele>
        <time>2017-12-30T21:30:14Z</time>
      </trkpt>
      <trkpt lat="45.4473" lon="5.46971">
        <ele>722.7</ele>
        <time>2017-12-30T21:30:16Z</time>
      </trkpt>
      <trkpt lat="45.44726" lon="5.46967">
        <ele>722.7</ele>
        <time>2017-12-30T21:30:19Z</time>
      </trkpt>
      <trkpt lat="45.44723" lon="5.46963">
        <ele>722.5</ele>
        <time>2017-12-30T21:30:22Z</time>
      </trkpt>
      <trkpt lat="45.44716" lon="5.46955">
        <ele>722.3</ele>
        <time>2017-12-30T21:30:27Z</time>
      </trkpt>
      <trkpt lat="45.44713" lon="5.46951">
        <ele>722.1</ele>
        <time>2017-12-30T21:30:29Z</time>
      </trkpt>
      <trkpt lat="45.44708" lon="5.46947">
        <ele>722.2</ele>
        <time>2017-12-30T21:30:32Z</time>
      </trkpt>
      <trkpt lat="45.44702" lon="5.46942">
        <ele>722.3</ele>
        <time>2017-12-30T21:30:36Z</time>
      </trkpt>
      <trkpt lat="45.44697" lon="5.46935">
        <ele>721.8</ele>
        <time>2017-12-30T21:30:40Z</time>
      </trkpt>
      <trkpt lat="45.44693" lon="5.46927">
        <ele>721.1</ele>
        <time>2017-12-30T21:30:44Z</time>
      </trkpt>
      <trkpt lat="45.44687" lon="5.46918">
        <ele>720.4</ele>
        <time>2017-12-30T21:30:49Z</time>
      </trkpt>
      <trkpt lat="45.44683" lon="5.46915">
        <ele>720.5</ele>
        <time>2017-12-30T21:30:52Z</time>
      </trkpt>
      <trkpt lat="45.44678" lon="5.4691">
        <ele>720.4</ele>
        <time>2017-12-30T21:30:55Z</time>
      </trkpt>
      <trkpt lat="45.44674" lon="5.46905">
        <ele>720.1</ele>
        <time>2017-12-30T21:30:58Z</time>
      </trkpt>
      <trkpt lat="45.44671" lon="5.469">
        <ele>719.8</ele>
        <time>2017-12-30T21:31:01Z</time>
      </trkpt>
      <trkpt lat="45.44667" lon="5.46895">
        <ele>719.5</ele>
        <time>2017-12-30T21:31:04Z</time>
      </trkpt>
      <trkpt lat="45.44664" lon="5.46889">
        <ele>718.9</ele>
        <time>2017-12-30T21:31:07Z</time>
      </trkpt>
      <trkpt lat="45.44661" lon="5.46883">
        <ele>718.3</ele>
        <time>2017-12-30T21:31:10Z</time>
      </trkpt>
      <trkpt lat="45.44658" lon="5.46876">
        <ele>717.5</ele>
        <time>2017-12-30T21:31:13Z</time>
      </trkpt>
      <trkpt lat="45.44655" lon="5.46869">
        <ele>716.6</ele>
        <time>2017-12-30T21:31:17Z</time>
      </trkpt>
      <trkpt lat="45.44652" lon="5.46862">
        <ele>715.8</ele>
        <time>2017-12-30T21:31:20Z</time>
      </trkpt>
      <trkpt lat="45.44649" lon="5.46854">
        <ele>714.8</ele>
        <time>2017-12-30T21:31:23Z</time>
      </trkpt>
      <trkpt lat="45.44645" lon="5.46846">
        <ele>713.8</ele>
        <time>2017-12-30T21:31:27Z</time>
      </trkpt>
      <trkpt lat="45.44641" lon="5.46837">
        <ele>712.7</ele>
        <time>2017-12-30T21:31:32Z</time>
      </trkpt>
      <trkpt lat="45.44637" lon="5.46829">
        <ele>711.4</ele>
        <time>2017-12-30T21:31:36Z</time>
      </trkpt>
      <trkpt lat="45.44632" lon="5.46822">
        <ele>710.2</ele>
        <time>2017-12-30T21:31:40Z</time>
      </trkpt>
      <trkpt lat="45.44626" lon="5.46813">
        <ele>708.7</ele>
        <time>2017-12-30T21:31:45Z</time>
      </trkpt>
      <trkpt lat="45.4462" lon="5.46804">
        <ele>707.1</ele>
        <time>2017-12-30T21:31:50Z</time>
      </trkpt>
      <trkpt lat="45.44615" lon="5.46793">
        <ele>704.9</ele>
        <time>2017-12-30T21:31:55Z</time>
      </trkpt>
      <trkpt lat="45.44609" lon="5.46781">
        <ele>702.6</ele>
        <time>2017-12-30T21:32:01Z</time>
      </trkpt>
      <trkpt lat="45.44605" lon="5.46768">
        <ele>699.8</ele>
        <time>2017-12-30T21:32:06Z</time>
      </trkpt>
      <trkpt lat="45.446" lon="5.46755">
        <ele>697.1</ele>
        <time>2017-12-30T21:32:12Z</time>
      </trkpt>
      <trkpt lat="45.44595" lon="5.46743">
        <ele>694.2</ele>
        <time>2017-12-30T21:32:18Z</time>
      </trkpt>
      <trkpt lat="45.44588" lon="5.46733">
        <ele>691.9</ele>
        <time>2017-12-30T21:32:24Z</time>
      </trkpt>
      <trkpt lat="45.44581" lon="5.46725">
        <ele>690.2</ele>
        <time>2017-12-30T21:32:29Z</time>
      </trkpt>
      <trkpt lat="45.44574" lon="5.46716">
        <ele>688.6</ele>
        <time>2017-12-30T21:32:34Z</time>
      </trkpt>
      <trkpt lat="45.44567" lon="5.46707">
        <ele>687</ele>
        <time>2017-12-30T21:32:40Z</time>
      </trkpt>
      <trkpt lat="45.44561" lon="5.46699">
        <ele>685.5</ele>
        <time>2017-12-30T21:32:44Z</time>
      </trkpt>
      <trkpt lat="45.44555" lon="5.4669">
        <ele>683.9</ele>
        <time>2017-12-30T21:32:49Z</time>
      </trkpt>
      <trkpt lat="45.44548" lon="5.46682">
        <ele>682.6</ele>
        <time>2017-12-30T21:32:54Z</time>
      </trkpt>
      <trkpt lat="45.44542" lon="5.46675">
        <ele>681.5</ele>
        <time>2017-12-30T21:32:59Z</time>
      </trkpt>
      <trkpt lat="45.44536" lon="5.46667">
        <ele>680.2</ele>
        <time>2017-12-30T21:33:04Z</time>
      </trkpt>
      <trkpt lat="45.4453" lon="5.46663">
        <ele>680.1</ele>
        <time>2017-12-30T21:33:07Z</time>
      </trkpt>
      <trkpt lat="45.44536" lon="5.46656">
        <ele>677.8</ele>
        <time>2017-12-30T21:33:12Z</time>
      </trkpt>
      <trkpt lat="45.44538" lon="5.46656">
        <ele>677.6</ele>
        <time>2017-12-30T21:33:13Z</time>
      </trkpt>
      <trkpt lat="45.44552" lon="5.46657">
        <ele>676.1</ele>
        <time>2017-12-30T21:33:21Z</time>
      </trkpt>
      <trkpt lat="45.44556" lon="5.46657">
        <ele>675.6</ele>
        <time>2017-12-30T21:33:23Z</time>
      </trkpt>
      <trkpt lat="45.44562" lon="5.46658">
        <ele>675</ele>
        <time>2017-12-30T21:33:27Z</time>
      </trkpt>
      <trkpt lat="45.44566" lon="5.4666">
        <ele>674.9</ele>
        <time>2017-12-30T21:33:29Z</time>
      </trkpt>
      <trkpt lat="45.44571" lon="5.46661">
        <ele>674.5</ele>
        <time>2017-12-30T21:33:32Z</time>
      </trkpt>
      <trkpt lat="45.44577" lon="5.46663">
        <ele>674.1</ele>
        <time>2017-12-30T21:33:35Z</time>
      </trkpt>
      <trkpt lat="45.44583" lon="5.46665">
        <ele>673.7</ele>
        <time>2017-12-30T21:33:39Z</time>
      </trkpt>
      <trkpt lat="45.4459" lon="5.46668">
        <ele>673.7</ele>
        <time>2017-12-30T21:33:43Z</time>
      </trkpt>
      <trkpt lat="45.44596" lon="5.4667">
        <ele>673.7</ele>
        <time>2017-12-30T21:33:47Z</time>
      </trkpt>
      <trkpt lat="45.44604" lon="5.46673">
        <ele>673.9</ele>
        <time>2017-12-30T21:33:51Z</time>
      </trkpt>
      <trkpt lat="45.44611" lon="5.46674">
        <ele>673.6</ele>
        <time>2017-12-30T21:33:55Z</time>
      </trkpt>
      <trkpt lat="45.4462" lon="5.46675">
        <ele>673.2</ele>
        <time>2017-12-30T21:34:01Z</time>
      </trkpt>
      <trkpt lat="45.44625" lon="5.46674">
        <ele>672.5</ele>
        <time>2017-12-30T21:34:03Z</time>
      </trkpt>
      <trkpt lat="45.44633" lon="5.46673">
        <ele>671.5</ele>
        <time>2017-12-30T21:34:08Z</time>
      </trkpt>
      <trkpt lat="45.4464" lon="5.46672">
        <ele>670.7</ele>
        <time>2017-12-30T21:34:12Z</time>
      </trkpt>
      <trkpt lat="45.44648" lon="5.46671">
        <ele>669.7</ele>
        <time>2017-12-30T21:34:17Z</time>
      </trkpt>
      <trkpt lat="45.44657" lon="5.46671">
        <ele>669</ele>
        <time>2017-12-30T21:34:22Z</time>
      </trkpt>
      <trkpt lat="45.44666" lon="5.46671">
        <ele>668.2</ele>
        <time>2017-12-30T21:34:27Z</time>
      </trkpt>
      <trkpt lat="45.44677" lon="5.46671">
        <ele>667.8</ele>
        <time>2017-12-30T21:34:33Z</time>
      </trkpt>
      <trkpt lat="45.44686" lon="5.46672">
        <ele>667.7</ele>
        <time>2017-12-30T21:34:38Z</time>
      </trkpt>
      <trkpt lat="45.44694" lon="5.46673">
        <ele>667.6</ele>
        <time>2017-12-30T21:34:43Z</time>
      </trkpt>
      <trkpt lat="45.44709" lon="5.46675">
        <ele>667.5</ele>
        <time>2017-12-30T21:34:52Z</time>
      </trkpt>
      <trkpt lat="45.44719" lon="5.46679">
        <ele>668.1</ele>
        <time>2017-12-30T21:34:58Z</time>
      </trkpt>
      <trkpt lat="45.44729" lon="5.46683">
        <ele>668.5</ele>
        <time>2017-12-30T21:35:04Z</time>
      </trkpt>
      <trkpt lat="45.4474" lon="5.46687">
        <ele>668.8</ele>
        <time>2017-12-30T21:35:10Z</time>
      </trkpt>
      <trkpt lat="45.4475" lon="5.4669">
        <ele>668.9</ele>
        <time>2017-12-30T21:35:16Z</time>
      </trkpt>
      <trkpt lat="45.4476" lon="5.46693">
        <ele>667.8</ele>
        <time>2017-12-30T21:35:22Z</time>
      </trkpt>
      <trkpt lat="45.44769" lon="5.46697">
        <ele>667</ele>
        <time>2017-12-30T21:35:27Z</time>
      </trkpt>
      <trkpt lat="45.44778" lon="5.46698">
        <ele>665.6</ele>
        <time>2017-12-30T21:35:32Z</time>
      </trkpt>
      <trkpt lat="45.44788" lon="5.467">
        <ele>664.2</ele>
        <time>2017-12-30T21:35:38Z</time>
      </trkpt>
      <trkpt lat="45.44798" lon="5.46702">
        <ele>662.9</ele>
        <time>2017-12-30T21:35:44Z</time>
      </trkpt>
      <trkpt lat="45.44807" lon="5.46703">
        <ele>661.5</ele>
        <time>2017-12-30T21:35:49Z</time>
      </trkpt>
      <trkpt lat="45.44815" lon="5.46702">
        <ele>659.8</ele>
        <time>2017-12-30T21:35:54Z</time>
      </trkpt>
      <trkpt lat="45.44824" lon="5.46702">
        <ele>658.2</ele>
        <time>2017-12-30T21:35:59Z</time>
      </trkpt>
      <trkpt lat="45.44832" lon="5.46701">
        <ele>656.5</ele>
        <time>2017-12-30T21:36:03Z</time>
      </trkpt>
      <trkpt lat="45.44839" lon="5.46699">
        <ele>654.9</ele>
        <time>2017-12-30T21:36:07Z</time>
      </trkpt>
      <trkpt lat="45.44839" lon="5.46699">
        <ele>654.9</ele>
        <time>2017-12-30T21:36:07Z</time>
      </trkpt>
      <trkpt lat="45.44904" lon="5.46679">
        <ele>639.9</ele>
        <time>2017-12-30T21:36:45Z</time>
      </trkpt>
      <trkpt lat="45.44904" lon="5.46679">
        <ele>639.9</ele>
        <time>2017-12-30T21:36:45Z</time>
      </trkpt>
      <trkpt lat="45.44976" lon="5.46737">
        <ele>644.3</ele>
        <time>2017-12-30T21:37:33Z</time>
      </trkpt>
      <trkpt lat="45.44976" lon="5.46737">
        <ele>644.3</ele>
        <time>2017-12-30T21:37:33Z</time>
      </trkpt>
      <trkpt lat="45.45005" lon="5.46741">
        <ele>644.2</ele>
        <time>2017-12-30T21:37:49Z</time>
      </trkpt>
      <trkpt lat="45.45005" lon="5.46741">
        <ele>644.2</ele>
        <time>2017-12-30T21:37:49Z</time>
      </trkpt>
      <trkpt lat="45.45077" lon="5.4672">
        <ele>637.3</ele>
        <time>2017-12-30T21:38:31Z</time>
      </trkpt>
      <trkpt lat="45.45077" lon="5.4672">
        <ele>637.3</ele>
        <time>2017-12-30T21:38:31Z</time>
      </trkpt>
      <trkpt lat="45.45124" lon="5.46679">
        <ele>627.6</ele>
        <time>2017-12-30T21:39:03Z</time>
      </trkpt>
      <trkpt lat="45.45124" lon="5.46679">
        <ele>627.6</ele>
        <time>2017-12-30T21:39:03Z</time>
      </trkpt>
      <trkpt lat="45.45173" lon="5.4666">
        <ele>626.2</ele>
        <time>2017-12-30T21:39:32Z</time>
      </trkpt>
      <trkpt lat="45.45173" lon="5.4666">
        <ele>626.2</ele>
        <time>2017-12-30T21:39:32Z</time>
      </trkpt>
      <trkpt lat="45.45184" lon="5.46636">
        <ele>630.1</ele>
        <time>2017-12-30T21:39:43Z</time>
      </trkpt>
      <trkpt lat="45.45184" lon="5.46636">
        <ele>630.1</ele>
        <time>2017-12-30T21:39:43Z</time>
      </trkpt>
      <trkpt lat="45.45167" lon="5.466">
        <ele>633.1</ele>
        <time>2017-12-30T21:40:01Z</time>
      </trkpt>
      <trkpt lat="45.45167" lon="5.466">
        <ele>633.1</ele>
        <time>2017-12-30T21:40:01Z</time>
      </trkpt>
      <trkpt lat="45.45142" lon="5.4657">
        <ele>635.1</ele>
        <time>2017-12-30T21:40:20Z</time>
      </trkpt>
      <trkpt lat="45.45142" lon="5.4657">
        <ele>635.1</ele>
        <time>2017-12-30T21:40:20Z</time>
      </trkpt>
      <trkpt lat="45.45048" lon="5.46512">
        <ele>634.1</ele>
        <time>2017-12-30T21:41:18Z</time>
      </trkpt>
      <trkpt lat="45.45048" lon="5.46512">
        <ele>634.1</ele>
        <time>2017-12-30T21:41:18Z</time>
      </trkpt>
      <trkpt lat="45.44985" lon="5.4645">
        <ele>628.7</ele>
        <time>2017-12-30T21:42:02Z</time>
      </trkpt>
      <trkpt lat="45.44985" lon="5.4645">
        <ele>628.7</ele>
        <time>2017-12-30T21:42:02Z</time>
      </trkpt>
      <trkpt lat="45.44971" lon="5.46379">
        <ele>624.8</ele>
        <time>2017-12-30T21:42:31Z</time>
      </trkpt>
      <trkpt lat="45.44971" lon="5.46379">
        <ele>624.8</ele>
        <time>2017-12-30T21:42:31Z</time>
      </trkpt>
      <trkpt lat="45.44968" lon="5.46222">
        <ele>612.2</ele>
        <time>2017-12-30T21:43:34Z</time>
      </trkpt>
      <trkpt lat="45.44968" lon="5.46222">
        <ele>612.2</ele>
        <time>2017-12-30T21:43:34Z</time>
      </trkpt>
      <trkpt lat="45.44943" lon="5.46074">
        <ele>594.8</ele>
        <time>2017-12-30T21:44:36Z</time>
      </trkpt>
      <trkpt lat="45.44943" lon="5.46074">
        <ele>594.8</ele>
        <time>2017-12-30T21:44:36Z</time>
      </trkpt>
      <trkpt lat="45.4491" lon="5.46051">
        <ele>585.2</ele>
        <time>2017-12-30T21:44:57Z</time>
      </trkpt>
      <trkpt lat="45.4491" lon="5.46051">
        <ele>585.2</ele>
        <time>2017-12-30T21:44:57Z</time>
      </trkpt>
      <trkpt lat="45.44889" lon="5.46012">
        <ele>576.3</ele>
        <time>2017-12-30T21:45:16Z</time>
      </trkpt>
      <trkpt lat="45.44889" lon="5.46012">
        <ele>576.3</ele>
        <time>2017-12-30T21:45:16Z</time>
      </trkpt>
      <trkpt lat="45.4486" lon="5.45924">
        <ele>563.5</ele>
        <time>2017-12-30T21:45:55Z</time>
      </trkpt>
      <trkpt lat="45.4486" lon="5.45924">
        <ele>563.5</ele>
        <time>2017-12-30T21:45:55Z</time>
      </trkpt>
      <trkpt lat="45.44839" lon="5.45885">
        <ele>556.3</ele>
        <time>2017-12-30T21:46:15Z</time>
      </trkpt>
      <trkpt lat="45.44839" lon="5.45885">
        <ele>556.3</ele>
        <time>2017-12-30T21:46:15Z</time>
      </trkpt>
      <trkpt lat="45.44779" lon="5.45838">
        <ele>560.5</ele>
        <time>2017-12-30T21:46:54Z</time>
      </trkpt>
      <trkpt lat="45.44779" lon="5.45838">
        <ele>560.5</ele>
        <time>2017-12-30T21:46:54Z</time>
      </trkpt>
      <trkpt lat="45.4477" lon="5.45809">
        <ele>557.6</ele>
        <time>2017-12-30T21:47:07Z</time>
      </trkpt>
      <trkpt lat="45.4477" lon="5.45809">
        <ele>557.6</ele>
        <time>2017-12-30T21:47:07Z</time>
      </trkpt>
      <trkpt lat="45.44774" lon="5.45769">
        <ele>549.9</ele>
        <time>2017-12-30T21:47:23Z</time>
      </trkpt>
      <trkpt lat="45.44774" lon="5.45769">
        <ele>549.9</ele>
        <time>2017-12-30T21:47:23Z</time>
      </trkpt>
      <trkpt lat="45.44827" lon="5.45636">
        <ele>517.7</ele>
        <time>2017-12-30T21:48:24Z</time>
      </trkpt>
      <trkpt lat="45.44827" lon="5.45636">
        <ele>517.7</ele>
        <time>2017-12-30T21:48:24Z</time>
      </trkpt>
      <trkpt lat="45.44862" lon="5.45516">
        <ele>508.2</ele>
        <time>2017-12-30T21:49:17Z</time>
      </trkpt>
      <trkpt lat="45.44862" lon="5.45516">
        <ele>508.2</ele>
        <time>2017-12-30T21:49:17Z</time>
      </trkpt>
      <trkpt lat="45.44649" lon="5.45312">
        <ele>506.2</ele>
        <time>2017-12-30T21:51:43Z</time>
      </trkpt>
      <trkpt lat="45.44649" lon="5.45312">
        <ele>506.2</ele>
        <time>2017-12-30T21:51:43Z</time>
      </trkpt>
      <trkpt lat="45.44561" lon="5.4522">
        <ele>506.3</ele>
        <time>2017-12-30T21:52:46Z</time>
      </trkpt>
      <trkpt lat="45.44561" lon="5.4522">
        <ele>506.3</ele>
        <time>2017-12-30T21:52:46Z</time>
      </trkpt>
      <trkpt lat="45.44466" lon="5.45179">
        <ele>505.6</ele>
        <time>2017-12-30T21:53:43Z</time>
      </trkpt>
      <trkpt lat="45.44466" lon="5.45179">
        <ele>505.6</ele>
        <time>2017-12-30T21:53:43Z</time>
      </trkpt>
      <trkpt lat="45.44422" lon="5.45139">
        <ele>506.1</ele>
        <time>2017-12-30T21:54:12Z</time>
      </trkpt>
      <trkpt lat="45.44422" lon="5.45139">
        <ele>506.1</ele>
        <time>2017-12-30T21:54:12Z</time>
      </trkpt>
      <trkpt lat="45.44407" lon="5.451">
        <ele>506.8</ele>
        <time>2017-12-30T21:54:30Z</time>
      </trkpt>
      <trkpt lat="45.44407" lon="5.451">
        <ele>506.8</ele>
        <time>2017-12-30T21:54:30Z</time>
      </trkpt>
      <trkpt lat="45.44373" lon="5.45079">
        <ele>505.3</ele>
        <time>2017-12-30T21:54:51Z</time>
      </trkpt>
      <trkpt lat="45.44373" lon="5.45079">
        <ele>505.3</ele>
        <time>2017-12-30T21:54:51Z</time>
      </trkpt>
      <trkpt lat="45.44348" lon="5.45145">
        <ele>501.7</ele>
        <time>2017-12-30T21:55:21Z</time>
      </trkpt>
      <trkpt lat="45.44348" lon="5.45145">
        <ele>501.7</ele>
        <time>2017-12-30T21:55:21Z</time>
      </trkpt>
      <trkpt lat="45.44285" lon="5.45166">
        <ele>495.9</ele>
        <time>2017-12-30T21:55:58Z</time>
      </trkpt>
      <trkpt lat="45.44285" lon="5.45166">
        <ele>495.9</ele>
        <time>2017-12-30T21:55:58Z</time>
      </trkpt>
      <trkpt lat="45.44168" lon="5.45287">
        <ele>506.9</ele>
        <time>2017-12-30T21:57:21Z</time>
      </trkpt>
      <trkpt lat="45.44168" lon="5.45287">
        <ele>506.9</ele>
        <time>2017-12-30T21:57:21Z</time>
      </trkpt>
      <trkpt lat="45.44098" lon="5.45352">
        <ele>511.4</ele>
        <time>2017-12-30T21:58:09Z</time>
      </trkpt>
      <trkpt lat="45.44098" lon="5.45352">
        <ele>511.4</ele>
        <time>2017-12-30T21:58:09Z</time>
      </trkpt>
      <trkpt lat="45.4402" lon="5.45385">
        <ele>514</ele>
        <time>2017-12-30T21:58:55Z</time>
      </trkpt>
      <trkpt lat="45.4402" lon="5.45385">
        <ele>514</ele>
        <time>2017-12-30T21:58:55Z</time>
      </trkpt>
      <trkpt lat="45.43942" lon="5.45407">
        <ele>520</ele>
        <time>2017-12-30T21:59:41Z</time>
      </trkpt>
      <trkpt lat="45.43942" lon="5.45407">
        <ele>520</ele>
        <time>2017-12-30T21:59:41Z</time>
      </trkpt>
      <trkpt lat="45.43831" lon="5.45523">
        <ele>555.8</ele>
        <time>2017-12-30T22:01:00Z</time>
      </trkpt>
      <trkpt lat="45.43831" lon="5.45523">
        <ele>555.8</ele>
        <time>2017-12-30T22:01:00Z</time>
      </trkpt>
      <trkpt lat="45.43731" lon="5.45583">
        <ele>582.5</ele>
        <time>2017-12-30T22:02:02Z</time>
      </trkpt>
      <trkpt lat="45.43731" lon="5.45583">
        <ele>582.5</ele>
        <time>2017-12-30T22:02:02Z</time>
      </trkpt>
      <trkpt lat="45.43601" lon="5.45639">
        <ele>590.8</ele>
        <time>2017-12-30T22:03:19Z</time>
      </trkpt>
      <trkpt lat="45.43601" lon="5.45639">
        <ele>590.8</ele>
        <time>2017-12-30T22:03:19Z</time>
      </trkpt>
      <trkpt lat="45.43427" lon="5.4578">
        <ele>604.2</ele>
        <time>2017-12-30T22:05:14Z</time>
      </trkpt>
      <trkpt lat="45.43427" lon="5.4578">
        <ele>604.2</ele>
        <time>2017-12-30T22:05:14Z</time>
      </trkpt>
      <trkpt lat="45.43299" lon="5.45994">
        <ele>608</ele>
        <time>2017-12-30T22:07:07Z</time>
      </trkpt>
      <trkpt lat="45.43299" lon="5.45994">
        <ele>608</ele>
        <time>2017-12-30T22:07:07Z</time>
      </trkpt>
      <trkpt lat="45.43258" lon="5.46081">
        <ele>601.7</ele>
        <time>2017-12-30T22:07:49Z</time>
      </trkpt>
      <trkpt lat="45.43258" lon="5.46081">
        <ele>601.7</ele>
        <time>2017-12-30T22:07:49Z</time>
      </trkpt>
      <trkpt lat="45.4318" lon="5.46175">
        <ele>597.3</ele>
        <time>2017-12-30T22:08:47Z</time>
      </trkpt>
      <trkpt lat="45.4318" lon="5.46175">
        <ele>597.3</ele>
        <time>2017-12-30T22:08:47Z</time>
      </trkpt>
      <trkpt lat="45.43158" lon="5.4623">
        <ele>599.2</ele>
        <time>2017-12-30T22:09:13Z</time>
      </trkpt>
      <trkpt lat="45.43158" lon="5.4623">
        <ele>599.2</ele>
        <time>2017-12-30T22:09:13Z</time>
      </trkpt>
      <trkpt lat="45.43155" lon="5.4624">
        <ele>599.5</ele>
        <time>2017-12-30T22:09:17Z</time>
      </trkpt>
      <trkpt lat="45.43152" lon="5.4625">
        <ele>599.8</ele>
        <time>2017-12-30T22:09:21Z</time>
      </trkpt>
      <trkpt lat="45.43149" lon="5.46259">
        <ele>599.9</ele>
        <time>2017-12-30T22:09:25Z</time>
      </trkpt>
      <trkpt lat="45.43145" lon="5.46269">
        <ele>599.8</ele>
        <time>2017-12-30T22:09:30Z</time>
      </trkpt>
      <trkpt lat="45.43141" lon="5.46278">
        <ele>599.5</ele>
        <time>2017-12-30T22:09:34Z</time>
      </trkpt>
      <trkpt lat="45.43137" lon="5.46287">
        <ele>599.2</ele>
        <time>2017-12-30T22:09:38Z</time>
      </trkpt>
      <trkpt lat="45.43134" lon="5.46296">
        <ele>599.1</ele>
        <time>2017-12-30T22:09:42Z</time>
      </trkpt>
      <trkpt lat="45.4313" lon="5.46305">
        <ele>598.6</ele>
        <time>2017-12-30T22:09:47Z</time>
      </trkpt>
      <trkpt lat="45.43127" lon="5.46314">
        <ele>598.4</ele>
        <time>2017-12-30T22:09:51Z</time>
      </trkpt>
      <trkpt lat="45.43123" lon="5.46323">
        <ele>597.8</ele>
        <time>2017-12-30T22:09:55Z</time>
      </trkpt>
      <trkpt lat="45.4312" lon="5.46332">
        <ele>597.5</ele>
        <time>2017-12-30T22:09:59Z</time>
      </trkpt>
      <trkpt lat="45.43119" lon="5.46341">
        <ele>597.8</ele>
        <time>2017-12-30T22:10:03Z</time>
      </trkpt>
      <trkpt lat="45.43117" lon="5.4635">
        <ele>597.8</ele>
        <time>2017-12-30T22:10:06Z</time>
      </trkpt>
      <trkpt lat="45.43116" lon="5.46359">
        <ele>598.1</ele>
        <time>2017-12-30T22:10:10Z</time>
      </trkpt>
      <trkpt lat="45.43115" lon="5.46368">
        <ele>598.3</ele>
        <time>2017-12-30T22:10:14Z</time>
      </trkpt>
      <trkpt lat="45.43113" lon="5.46376">
        <ele>598.3</ele>
        <time>2017-12-30T22:10:17Z</time>
      </trkpt>
      <trkpt lat="45.43113" lon="5.46384">
        <ele>598.8</ele>
        <time>2017-12-30T22:10:20Z</time>
      </trkpt>
      <trkpt lat="45.43111" lon="5.46392">
        <ele>598.7</ele>
        <time>2017-12-30T22:10:24Z</time>
      </trkpt>
      <trkpt lat="45.4311" lon="5.464">
        <ele>598.9</ele>
        <time>2017-12-30T22:10:27Z</time>
      </trkpt>
      <trkpt lat="45.43109" lon="5.46407">
        <ele>599.1</ele>
        <time>2017-12-30T22:10:30Z</time>
      </trkpt>
      <trkpt lat="45.43108" lon="5.46415">
        <ele>599.3</ele>
        <time>2017-12-30T22:10:33Z</time>
      </trkpt>
      <trkpt lat="45.43107" lon="5.46422">
        <ele>599.1</ele>
        <time>2017-12-30T22:10:36Z</time>
      </trkpt>
      <trkpt lat="45.43106" lon="5.46428">
        <ele>598.8</ele>
        <time>2017-12-30T22:10:38Z</time>
      </trkpt>
      <trkpt lat="45.43106" lon="5.46435">
        <ele>598.8</ele>
        <time>2017-12-30T22:10:41Z</time>
      </trkpt>
      <trkpt lat="45.43105" lon="5.46441">
        <ele>598.5</ele>
        <time>2017-12-30T22:10:44Z</time>
      </trkpt>
      <trkpt lat="45.43105" lon="5.46448">
        <ele>598.5</ele>
        <time>2017-12-30T22:10:47Z</time>
      </trkpt>
      <trkpt lat="45.43105" lon="5.46454">
        <ele>598.5</ele>
        <time>2017-12-30T22:10:49Z</time>
      </trkpt>
      <trkpt lat="45.43104" lon="5.46462">
        <ele>598.2</ele>
        <time>2017-12-30T22:10:52Z</time>
      </trkpt>
      <trkpt lat="45.43104" lon="5.46469">
        <ele>598.2</ele>
        <time>2017-12-30T22:10:55Z</time>
      </trkpt>
      <trkpt lat="45.43103" lon="5.4648">
        <ele>597.9</ele>
        <time>2017-12-30T22:10:59Z</time>
      </trkpt>
      <trkpt lat="45.43104" lon="5.4649">
        <ele>598.2</ele>
        <time>2017-12-30T22:11:04Z</time>
      </trkpt>
      <trkpt lat="45.43106" lon="5.465">
        <ele>598.8</ele>
        <time>2017-12-30T22:11:08Z</time>
      </trkpt>
      <trkpt lat="45.43109" lon="5.4651">
        <ele>598.7</ele>
        <time>2017-12-30T22:11:12Z</time>
      </trkpt>
      <trkpt lat="45.43111" lon="5.46521">
        <ele>598.2</ele>
        <time>2017-12-30T22:11:17Z</time>
      </trkpt>
      <trkpt lat="45.43114" lon="5.46531">
        <ele>598</ele>
        <time>2017-12-30T22:11:21Z</time>
      </trkpt>
      <trkpt lat="45.43117" lon="5.46541">
        <ele>597.8</ele>
        <time>2017-12-30T22:11:25Z</time>
      </trkpt>
      <trkpt lat="45.43121" lon="5.4655">
        <ele>598</ele>
        <time>2017-12-30T22:11:30Z</time>
      </trkpt>
      <trkpt lat="45.43125" lon="5.4656">
        <ele>598.1</ele>
        <time>2017-12-30T22:11:34Z</time>
      </trkpt>
      <trkpt lat="45.43128" lon="5.46571">
        <ele>597.7</ele>
        <time>2017-12-30T22:11:39Z</time>
      </trkpt>
      <trkpt lat="45.43132" lon="5.46581">
        <ele>597.8</ele>
        <time>2017-12-30T22:11:44Z</time>
      </trkpt>
      <trkpt lat="45.43136" lon="5.46591">
        <ele>597.8</ele>
        <time>2017-12-30T22:11:48Z</time>
      </trkpt>
      <trkpt lat="45.43141" lon="5.466">
        <ele>598.2</ele>
        <time>2017-12-30T22:11:53Z</time>
      </trkpt>
      <trkpt lat="45.43145" lon="5.4661">
        <ele>598</ele>
        <time>2017-12-30T22:11:57Z</time>
      </trkpt>
      <trkpt lat="45.4315" lon="5.46619">
        <ele>598</ele>
        <time>2017-12-30T22:12:02Z</time>
      </trkpt>
      <trkpt lat="45.43153" lon="5.46624">
        <ele>598</ele>
        <time>2017-12-30T22:12:05Z</time>
      </trkpt>
      <trkpt lat="45.43162" lon="5.46638">
        <ele>597.7</ele>
        <time>2017-12-30T22:12:12Z</time>
      </trkpt>
      <trkpt lat="45.43167" lon="5.46647">
        <ele>597.2</ele>
        <time>2017-12-30T22:12:17Z</time>
      </trkpt>
      <trkpt lat="45.43172" lon="5.46657">
        <ele>596.7</ele>
        <time>2017-12-30T22:12:22Z</time>
      </trkpt>
      <trkpt lat="45.43177" lon="5.46667">
        <ele>596.2</ele>
        <time>2017-12-30T22:12:27Z</time>
      </trkpt>
      <trkpt lat="45.43182" lon="5.46677">
        <ele>596</ele>
        <time>2017-12-30T22:12:32Z</time>
      </trkpt>
      <trkpt lat="45.43186" lon="5.46686">
        <ele>595.7</ele>
        <time>2017-12-30T22:12:36Z</time>
      </trkpt>
      <trkpt lat="45.43191" lon="5.46695">
        <ele>595.5</ele>
        <time>2017-12-30T22:12:41Z</time>
      </trkpt>
      <trkpt lat="45.43197" lon="5.46705">
        <ele>595.2</ele>
        <time>2017-12-30T22:12:46Z</time>
      </trkpt>
      <trkpt lat="45.43202" lon="5.46715">
        <ele>594.7</ele>
        <time>2017-12-30T22:12:51Z</time>
      </trkpt>
      <trkpt lat="45.43207" lon="5.46724">
        <ele>594.1</ele>
        <time>2017-12-30T22:12:55Z</time>
      </trkpt>
      <trkpt lat="45.43213" lon="5.46733">
        <ele>593.6</ele>
        <time>2017-12-30T22:13:00Z</time>
      </trkpt>
      <trkpt lat="45.43218" lon="5.46743">
        <ele>592.7</ele>
        <time>2017-12-30T22:13:05Z</time>
      </trkpt>
      <trkpt lat="45.43223" lon="5.46752">
        <ele>592</ele>
        <time>2017-12-30T22:13:10Z</time>
      </trkpt>
      <trkpt lat="45.43228" lon="5.46763">
        <ele>591.7</ele>
        <time>2017-12-30T22:13:15Z</time>
      </trkpt>
      <trkpt lat="45.4323" lon="5.46769">
        <ele>591.4</ele>
        <time>2017-12-30T22:13:18Z</time>
      </trkpt>
      <trkpt lat="45.43232" lon="5.46775">
        <ele>591.2</ele>
        <time>2017-12-30T22:13:21Z</time>
      </trkpt>
      <trkpt lat="45.43234" lon="5.46781">
        <ele>590.8</ele>
        <time>2017-12-30T22:13:23Z</time>
      </trkpt>
      <trkpt lat="45.43237" lon="5.46787">
        <ele>590.6</ele>
        <time>2017-12-30T22:13:26Z</time>
      </trkpt>
      <trkpt lat="45.43239" lon="5.46793">
        <ele>590.2</ele>
        <time>2017-12-30T22:13:29Z</time>
      </trkpt>
      <trkpt lat="45.43242" lon="5.46804">
        <ele>589.4</ele>
        <time>2017-12-30T22:13:34Z</time>
      </trkpt>
      <trkpt lat="45.43243" lon="5.46816">
        <ele>588.4</ele>
        <time>2017-12-30T22:13:38Z</time>
      </trkpt>
      <trkpt lat="45.43244" lon="5.46826">
        <ele>587.6</ele>
        <time>2017-12-30T22:13:42Z</time>
      </trkpt>
      <trkpt lat="45.43247" lon="5.46836">
        <ele>587</ele>
        <time>2017-12-30T22:13:47Z</time>
      </trkpt>
      <trkpt lat="45.43249" lon="5.46847">
        <ele>587.4</ele>
        <time>2017-12-30T22:13:51Z</time>
      </trkpt>
      <trkpt lat="45.43251" lon="5.46859">
        <ele>588</ele>
        <time>2017-12-30T22:13:56Z</time>
      </trkpt>
      <trkpt lat="45.43252" lon="5.46871">
        <ele>588.6</ele>
        <time>2017-12-30T22:14:01Z</time>
      </trkpt>
      <trkpt lat="45.43253" lon="5.46878">
        <ele>588.9</ele>
        <time>2017-12-30T22:14:04Z</time>
      </trkpt>
      <trkpt lat="45.43254" lon="5.46884">
        <ele>589.2</ele>
        <time>2017-12-30T22:14:07Z</time>
      </trkpt>
      <trkpt lat="45.43256" lon="5.46891">
        <ele>589.6</ele>
        <time>2017-12-30T22:14:10Z</time>
      </trkpt>
      <trkpt lat="45.43257" lon="5.46897">
        <ele>589.8</ele>
        <time>2017-12-30T22:14:12Z</time>
      </trkpt>
      <trkpt lat="45.43259" lon="5.46903">
        <ele>590.2</ele>
        <time>2017-12-30T22:14:15Z</time>
      </trkpt>
      <trkpt lat="45.4326" lon="5.46909">
        <ele>590.4</ele>
        <time>2017-12-30T22:14:17Z</time>
      </trkpt>
      <trkpt lat="45.43263" lon="5.46921">
        <ele>591</ele>
        <time>2017-12-30T22:14:22Z</time>
      </trkpt>
      <trkpt lat="45.43267" lon="5.46932">
        <ele>592</ele>
        <time>2017-12-30T22:14:27Z</time>
      </trkpt>
      <trkpt lat="45.43272" lon="5.46942">
        <ele>593.1</ele>
        <time>2017-12-30T22:14:32Z</time>
      </trkpt>
      <trkpt lat="45.43274" lon="5.46947">
        <ele>593.7</ele>
        <time>2017-12-30T22:14:34Z</time>
      </trkpt>
      <trkpt lat="45.43278" lon="5.46961">
        <ele>595.2</ele>
        <time>2017-12-30T22:14:41Z</time>
      </trkpt>
      <trkpt lat="45.4328" lon="5.46971">
        <ele>596.3</ele>
        <time>2017-12-30T22:14:45Z</time>
      </trkpt>
      <trkpt lat="45.43281" lon="5.46983">
        <ele>597.5</ele>
        <time>2017-12-30T22:14:50Z</time>
      </trkpt>
      <trkpt lat="45.43282" lon="5.46995">
        <ele>598.7</ele>
        <time>2017-12-30T22:14:54Z</time>
      </trkpt>
      <trkpt lat="45.43283" lon="5.47007">
        <ele>599.6</ele>
        <time>2017-12-30T22:14:59Z</time>
      </trkpt>
      <trkpt lat="45.43284" lon="5.47019">
        <ele>600.2</ele>
        <time>2017-12-30T22:15:04Z</time>
      </trkpt>
      <trkpt lat="45.43285" lon="5.47031">
        <ele>600.9</ele>
        <time>2017-12-30T22:15:09Z</time>
      </trkpt>
      <trkpt lat="45.43286" lon="5.47043">
        <ele>601.6</ele>
        <time>2017-12-30T22:15:14Z</time>
      </trkpt>
      <trkpt lat="45.43287" lon="5.4705">
        <ele>602.2</ele>
        <time>2017-12-30T22:15:17Z</time>
      </trkpt>
      <trkpt lat="45.43288" lon="5.47056">
        <ele>602.7</ele>
        <time>2017-12-30T22:15:19Z</time>
      </trkpt>
      <trkpt lat="45.43289" lon="5.47063">
        <ele>603.3</ele>
        <time>2017-12-30T22:15:22Z</time>
      </trkpt>
      <trkpt lat="45.43289" lon="5.4707">
        <ele>603.6</ele>
        <time>2017-12-30T22:15:25Z</time>
      </trkpt>
      <trkpt lat="45.4329" lon="5.47077">
        <ele>604.2</ele>
        <time>2017-12-30T22:15:28Z</time>
      </trkpt>
      <trkpt lat="45.43291" lon="5.47085">
        <ele>604.8</ele>
        <time>2017-12-30T22:15:31Z</time>
      </trkpt>
      <trkpt lat="45.43292" lon="5.47092">
        <ele>604.8</ele>
        <time>2017-12-30T22:15:34Z</time>
      </trkpt>
      <trkpt lat="45.43293" lon="5.47101">
        <ele>604.9</ele>
        <time>2017-12-30T22:15:37Z</time>
      </trkpt>
      <trkpt lat="45.43294" lon="5.4711">
        <ele>604.9</ele>
        <time>2017-12-30T22:15:41Z</time>
      </trkpt>
      <trkpt lat="45.43294" lon="5.47119">
        <ele>604.6</ele>
        <time>2017-12-30T22:15:45Z</time>
      </trkpt>
      <trkpt lat="45.43295" lon="5.47129">
        <ele>604.6</ele>
        <time>2017-12-30T22:15:49Z</time>
      </trkpt>
      <trkpt lat="45.43297" lon="5.47139">
        <ele>605</ele>
        <time>2017-12-30T22:15:53Z</time>
      </trkpt>
      <trkpt lat="45.43299" lon="5.47148">
        <ele>605.5</ele>
        <time>2017-12-30T22:15:57Z</time>
      </trkpt>
      <trkpt lat="45.43302" lon="5.47158">
        <ele>606.5</ele>
        <time>2017-12-30T22:16:01Z</time>
      </trkpt>
      <trkpt lat="45.43306" lon="5.47167">
        <ele>607.9</ele>
        <time>2017-12-30T22:16:05Z</time>
      </trkpt>
      <trkpt lat="45.43312" lon="5.47175">
        <ele>608.7</ele>
        <time>2017-12-30T22:16:10Z</time>
      </trkpt>
      <trkpt lat="45.43319" lon="5.47182">
        <ele>609.9</ele>
        <time>2017-12-30T22:16:15Z</time>
      </trkpt>
      <trkpt lat="45.43326" lon="5.47188">
        <ele>611.2</ele>
        <time>2017-12-30T22:16:20Z</time>
      </trkpt>
      <trkpt lat="45.43334" lon="5.47195">
        <ele>612.5</ele>
        <time>2017-12-30T22:16:25Z</time>
      </trkpt>
      <trkpt lat="45.43341" lon="5.47201">
        <ele>613.1</ele>
        <time>2017-12-30T22:16:30Z</time>
      </trkpt>
      <trkpt lat="45.43348" lon="5.47207">
        <ele>613.8</ele>
        <time>2017-12-30T22:16:34Z</time>
      </trkpt>
      <trkpt lat="45.43355" lon="5.47214">
        <ele>614.5</ele>
        <time>2017-12-30T22:16:39Z</time>
      </trkpt>
      <trkpt lat="45.43361" lon="5.47221">
        <ele>615.1</ele>
        <time>2017-12-30T22:16:44Z</time>
      </trkpt>
      <trkpt lat="45.43367" lon="5.47229">
        <ele>615.7</ele>
        <time>2017-12-30T22:16:48Z</time>
      </trkpt>
      <trkpt lat="45.43371" lon="5.47238">
        <ele>615.5</ele>
        <time>2017-12-30T22:16:53Z</time>
      </trkpt>
      <trkpt lat="45.43375" lon="5.47246">
        <ele>615.7</ele>
        <time>2017-12-30T22:16:57Z</time>
      </trkpt>
      <trkpt lat="45.43379" lon="5.47255">
        <ele>615.5</ele>
        <time>2017-12-30T22:17:01Z</time>
      </trkpt>
      <trkpt lat="45.43382" lon="5.47262">
        <ele>614.9</ele>
        <time>2017-12-30T22:17:04Z</time>
      </trkpt>
      <trkpt lat="45.43385" lon="5.4727">
        <ele>614</ele>
        <time>2017-12-30T22:17:08Z</time>
      </trkpt>
      <trkpt lat="45.43387" lon="5.47277">
        <ele>612.9</ele>
        <time>2017-12-30T22:17:11Z</time>
      </trkpt>
      <trkpt lat="45.4339" lon="5.47285">
        <ele>611.9</ele>
        <time>2017-12-30T22:17:14Z</time>
      </trkpt>
      <trkpt lat="45.43392" lon="5.47292">
        <ele>610.8</ele>
        <time>2017-12-30T22:17:17Z</time>
      </trkpt>
      <trkpt lat="45.43394" lon="5.47299">
        <ele>609.6</ele>
        <time>2017-12-30T22:17:21Z</time>
      </trkpt>
      <trkpt lat="45.43396" lon="5.47305">
        <ele>608.7</ele>
        <time>2017-12-30T22:17:23Z</time>
      </trkpt>
      <trkpt lat="45.43399" lon="5.47311">
        <ele>608</ele>
        <time>2017-12-30T22:17:26Z</time>
      </trkpt>
      <trkpt lat="45.43402" lon="5.47322">
        <ele>606</ele>
        <time>2017-12-30T22:17:31Z</time>
      </trkpt>
      <trkpt lat="45.43406" lon="5.47333">
        <ele>604.2</ele>
        <time>2017-12-30T22:17:36Z</time>
      </trkpt>
      <trkpt lat="45.43407" lon="5.47342">
        <ele>602.6</ele>
        <time>2017-12-30T22:17:40Z</time>
      </trkpt>
      <trkpt lat="45.43411" lon="5.47352">
        <ele>601.5</ele>
        <time>2017-12-30T22:17:44Z</time>
      </trkpt>
      <trkpt lat="45.43413" lon="5.47357">
        <ele>600.9</ele>
        <time>2017-12-30T22:17:46Z</time>
      </trkpt>
      <trkpt lat="45.4342" lon="5.47372">
        <ele>599.4</ele>
        <time>2017-12-30T22:17:54Z</time>
      </trkpt>
      <trkpt lat="45.43425" lon="5.47382">
        <ele>598.6</ele>
        <time>2017-12-30T22:17:59Z</time>
      </trkpt>
      <trkpt lat="45.43429" lon="5.47392">
        <ele>597.3</ele>
        <time>2017-12-30T22:18:03Z</time>
      </trkpt>
      <trkpt lat="45.43434" lon="5.47401">
        <ele>596.4</ele>
        <time>2017-12-30T22:18:08Z</time>
      </trkpt>
      <trkpt lat="45.43439" lon="5.47409">
        <ele>595.6</ele>
        <time>2017-12-30T22:18:12Z</time>
      </trkpt>
      <trkpt lat="45.43443" lon="5.47419">
        <ele>594.1</ele>
        <time>2017-12-30T22:18:17Z</time>
      </trkpt>
      <trkpt lat="45.43448" lon="5.47428">
        <ele>593.9</ele>
        <time>2017-12-30T22:18:21Z</time>
      </trkpt>
      <trkpt lat="45.43453" lon="5.47437">
        <ele>593.4</ele>
        <time>2017-12-30T22:18:26Z</time>
      </trkpt>
      <trkpt lat="45.43457" lon="5.47446">
        <ele>592.6</ele>
        <time>2017-12-30T22:18:30Z</time>
      </trkpt>
      <trkpt lat="45.43462" lon="5.47456">
        <ele>591.5</ele>
        <time>2017-12-30T22:18:35Z</time>
      </trkpt>
      <trkpt lat="45.43466" lon="5.47465">
        <ele>590.3</ele>
        <time>2017-12-30T22:18:39Z</time>
      </trkpt>
      <trkpt lat="45.4347" lon="5.47474">
        <ele>588.8</ele>
        <time>2017-12-30T22:18:44Z</time>
      </trkpt>
      <trkpt lat="45.43475" lon="5.47483">
        <ele>587.3</ele>
        <time>2017-12-30T22:18:48Z</time>
      </trkpt>
      <trkpt lat="45.43479" lon="5.47492">
        <ele>585.5</ele>
        <time>2017-12-30T22:18:53Z</time>
      </trkpt>
      <trkpt lat="45.43484" lon="5.475">
        <ele>583.7</ele>
        <time>2017-12-30T22:18:57Z</time>
      </trkpt>
      <trkpt lat="45.43487" lon="5.47508">
        <ele>583.6</ele>
        <time>2017-12-30T22:19:01Z</time>
      </trkpt>
      <trkpt lat="45.43491" lon="5.47518">
        <ele>583.6</ele>
        <time>2017-12-30T22:19:05Z</time>
      </trkpt>
      <trkpt lat="45.43485" lon="5.47526">
        <ele>583.3</ele>
        <time>2017-12-30T22:19:10Z</time>
      </trkpt>
      <trkpt lat="45.43478" lon="5.47525">
        <ele>583.2</ele>
        <time>2017-12-30T22:19:14Z</time>
      </trkpt>
      <trkpt lat="45.4347" lon="5.47522">
        <ele>583</ele>
        <time>2017-12-30T22:19:19Z</time>
      </trkpt>
      <trkpt lat="45.43462" lon="5.47518">
        <ele>582.9</ele>
        <time>2017-12-30T22:19:23Z</time>
      </trkpt>
      <trkpt lat="45.43457" lon="5.47516">
        <ele>582.8</ele>
        <time>2017-12-30T22:19:26Z</time>
      </trkpt>
      <trkpt lat="45.43453" lon="5.47514">
        <ele>582.7</ele>
        <time>2017-12-30T22:19:29Z</time>
      </trkpt>
      <trkpt lat="45.43448" lon="5.47512">
        <ele>582.6</ele>
        <time>2017-12-30T22:19:32Z</time>
      </trkpt>
      <trkpt lat="45.43444" lon="5.4751">
        <ele>582.5</ele>
        <time>2017-12-30T22:19:34Z</time>
      </trkpt>
      <trkpt lat="45.43439" lon="5.47508">
        <ele>582.4</ele>
        <time>2017-12-30T22:19:37Z</time>
      </trkpt>
      <trkpt lat="45.43434" lon="5.47506">
        <ele>582.4</ele>
        <time>2017-12-30T22:19:40Z</time>
      </trkpt>
      <trkpt lat="45.4343" lon="5.47504">
        <ele>582.3</ele>
        <time>2017-12-30T22:19:43Z</time>
      </trkpt>
      <trkpt lat="45.43425" lon="5.47501">
        <ele>582.2</ele>
        <time>2017-12-30T22:19:46Z</time>
      </trkpt>
      <trkpt lat="45.4342" lon="5.47499">
        <ele>582.2</ele>
        <time>2017-12-30T22:19:49Z</time>
      </trkpt>
      <trkpt lat="45.43416" lon="5.47496">
        <ele>582.3</ele>
        <time>2017-12-30T22:19:51Z</time>
      </trkpt>
      <trkpt lat="45.43411" lon="5.47494">
        <ele>582.2</ele>
        <time>2017-12-30T22:19:54Z</time>
      </trkpt>
      <trkpt lat="45.43406" lon="5.47492">
        <ele>582</ele>
        <time>2017-12-30T22:19:57Z</time>
      </trkpt>
      <trkpt lat="45.43401" lon="5.47489">
        <ele>582</ele>
        <time>2017-12-30T22:20:00Z</time>
      </trkpt>
      <trkpt lat="45.43396" lon="5.47487">
        <ele>581.8</ele>
        <time>2017-12-30T22:20:03Z</time>
      </trkpt>
      <trkpt lat="45.4339" lon="5.47483">
        <ele>581.7</ele>
        <time>2017-12-30T22:20:07Z</time>
      </trkpt>
      <trkpt lat="45.43385" lon="5.47479">
        <ele>581.6</ele>
        <time>2017-12-30T22:20:10Z</time>
      </trkpt>
      <trkpt lat="45.4338" lon="5.47475">
        <ele>581.5</ele>
        <time>2017-12-30T22:20:14Z</time>
      </trkpt>
      <trkpt lat="45.43374" lon="5.47471">
        <ele>581.4</ele>
        <time>2017-12-30T22:20:17Z</time>
      </trkpt>
      <trkpt lat="45.4337" lon="5.47467">
        <ele>581.3</ele>
        <time>2017-12-30T22:20:20Z</time>
      </trkpt>
      <trkpt lat="45.43364" lon="5.47462">
        <ele>581.1</ele>
        <time>2017-12-30T22:20:24Z</time>
      </trkpt>
      <trkpt lat="45.4336" lon="5.47457">
        <ele>581</ele>
        <time>2017-12-30T22:20:27Z</time>
      </trkpt>
      <trkpt lat="45.43355" lon="5.47452">
        <ele>580.8</ele>
        <time>2017-12-30T22:20:31Z</time>
      </trkpt>
      <trkpt lat="45.43351" lon="5.47447">
        <ele>580.7</ele>
        <time>2017-12-30T22:20:34Z</time>
      </trkpt>
      <trkpt lat="45.43346" lon="5.47442">
        <ele>580.4</ele>
        <time>2017-12-30T22:20:37Z</time>
      </trkpt>
      <trkpt lat="45.43342" lon="5.47437">
        <ele>580.3</ele>
        <time>2017-12-30T22:20:40Z</time>
      </trkpt>
      <trkpt lat="45.43337" lon="5.47432">
        <ele>580</ele>
        <time>2017-12-30T22:20:44Z</time>
      </trkpt>
      <trkpt lat="45.43332" lon="5.47426">
        <ele>579.7</ele>
        <time>2017-12-30T22:20:47Z</time>
      </trkpt>
      <trkpt lat="45.43327" lon="5.47421">
        <ele>579.6</ele>
        <time>2017-12-30T22:20:51Z</time>
      </trkpt>
      <trkpt lat="45.43322" lon="5.47416">
        <ele>579.5</ele>
        <time>2017-12-30T22:20:54Z</time>
      </trkpt>
      <trkpt lat="45.43317" lon="5.4741">
        <ele>579.4</ele>
        <time>2017-12-30T22:20:58Z</time>
      </trkpt>
      <trkpt lat="45.43311" lon="5.47404">
        <ele>579.2</ele>
        <time>2017-12-30T22:21:02Z</time>
      </trkpt>
      <trkpt lat="45.43305" lon="5.47398">
        <ele>578.9</ele>
        <time>2017-12-30T22:21:07Z</time>
      </trkpt>
      <trkpt lat="45.433" lon="5.47393">
        <ele>578.7</ele>
        <time>2017-12-30T22:21:10Z</time>
      </trkpt>
      <trkpt lat="45.43295" lon="5.47387">
        <ele>578.4</ele>
        <time>2017-12-30T22:21:14Z</time>
      </trkpt>
      <trkpt lat="45.4329" lon="5.47381">
        <ele>578.1</ele>
        <time>2017-12-30T22:21:18Z</time>
      </trkpt>
      <trkpt lat="45.43285" lon="5.47376">
        <ele>577.7</ele>
        <time>2017-12-30T22:21:21Z</time>
      </trkpt>
      <trkpt lat="45.43279" lon="5.4737">
        <ele>577.3</ele>
        <time>2017-12-30T22:21:25Z</time>
      </trkpt>
      <trkpt lat="45.43274" lon="5.47365">
        <ele>576.8</ele>
        <time>2017-12-30T22:21:29Z</time>
      </trkpt>
      <trkpt lat="45.43268" lon="5.47359">
        <ele>576.2</ele>
        <time>2017-12-30T22:21:33Z</time>
      </trkpt>
      <trkpt lat="45.43263" lon="5.47354">
        <ele>575.7</ele>
        <time>2017-12-30T22:21:36Z</time>
      </trkpt>
      <trkpt lat="45.43258" lon="5.47348">
        <ele>575.1</ele>
        <time>2017-12-30T22:21:40Z</time>
      </trkpt>
      <trkpt lat="45.43252" lon="5.47342">
        <ele>574.4</ele>
        <time>2017-12-30T22:21:44Z</time>
      </trkpt>
      <trkpt lat="45.43247" lon="5.47337">
        <ele>574</ele>
        <time>2017-12-30T22:21:48Z</time>
      </trkpt>
      <trkpt lat="45.43242" lon="5.47331">
        <ele>573.9</ele>
        <time>2017-12-30T22:21:52Z</time>
      </trkpt>
      <trkpt lat="45.43237" lon="5.47325">
        <ele>573.9</ele>
        <time>2017-12-30T22:21:55Z</time>
      </trkpt>
      <trkpt lat="45.43232" lon="5.47318">
        <ele>573.9</ele>
        <time>2017-12-30T22:21:59Z</time>
      </trkpt>
      <trkpt lat="45.43228" lon="5.47312">
        <ele>573.9</ele>
        <time>2017-12-30T22:22:03Z</time>
      </trkpt>
      <trkpt lat="45.43223" lon="5.47305">
        <ele>573.8</ele>
        <time>2017-12-30T22:22:07Z</time>
      </trkpt>
      <trkpt lat="45.43218" lon="5.47299">
        <ele>573.7</ele>
        <time>2017-12-30T22:22:10Z</time>
      </trkpt>
      <trkpt lat="45.43213" lon="5.47293">
        <ele>573.6</ele>
        <time>2017-12-30T22:22:14Z</time>
      </trkpt>
      <trkpt lat="45.43208" lon="5.47287">
        <ele>573.5</ele>
        <time>2017-12-30T22:22:18Z</time>
      </trkpt>
      <trkpt lat="45.43202" lon="5.47281">
        <ele>573.3</ele>
        <time>2017-12-30T22:22:22Z</time>
      </trkpt>
      <trkpt lat="45.43197" lon="5.47275">
        <ele>573.2</ele>
        <time>2017-12-30T22:22:26Z</time>
      </trkpt>
      <trkpt lat="45.43191" lon="5.4727">
        <ele>573</ele>
        <time>2017-12-30T22:22:30Z</time>
      </trkpt>
      <trkpt lat="45.43184" lon="5.47266">
        <ele>572.7</ele>
        <time>2017-12-30T22:22:34Z</time>
      </trkpt>
      <trkpt lat="45.43178" lon="5.47262">
        <ele>572.5</ele>
        <time>2017-12-30T22:22:38Z</time>
      </trkpt>
      <trkpt lat="45.43171" lon="5.47259">
        <ele>572.3</ele>
        <time>2017-12-30T22:22:42Z</time>
      </trkpt>
      <trkpt lat="45.43164" lon="5.47257">
        <ele>572</ele>
        <time>2017-12-30T22:22:46Z</time>
      </trkpt>
      <trkpt lat="45.43157" lon="5.47255">
        <ele>571.9</ele>
        <time>2017-12-30T22:22:50Z</time>
      </trkpt>
      <trkpt lat="45.4315" lon="5.47254">
        <ele>571.8</ele>
        <time>2017-12-30T22:22:54Z</time>
      </trkpt>
      <trkpt lat="45.43143" lon="5.47254">
        <ele>571.7</ele>
        <time>2017-12-30T22:22:58Z</time>
      </trkpt>
      <trkpt lat="45.43136" lon="5.47253">
        <ele>571.7</ele>
        <time>2017-12-30T22:23:02Z</time>
      </trkpt>
      <trkpt lat="45.4313" lon="5.47252">
        <ele>571.6</ele>
        <time>2017-12-30T22:23:06Z</time>
      </trkpt>
      <trkpt lat="45.43123" lon="5.4725">
        <ele>571.5</ele>
        <time>2017-12-30T22:23:10Z</time>
      </trkpt>
      <trkpt lat="45.43116" lon="5.47248">
        <ele>571.5</ele>
        <time>2017-12-30T22:23:14Z</time>
      </trkpt>
      <trkpt lat="45.43109" lon="5.47245">
        <ele>571.5</ele>
        <time>2017-12-30T22:23:18Z</time>
      </trkpt>
      <trkpt lat="45.43102" lon="5.47242">
        <ele>571.5</ele>
        <time>2017-12-30T22:23:22Z</time>
      </trkpt>
      <trkpt lat="45.43095" lon="5.4724">
        <ele>571.5</ele>
        <time>2017-12-30T22:23:26Z</time>
      </trkpt>
      <trkpt lat="45.43088" lon="5.47238">
        <ele>571.4</ele>
        <time>2017-12-30T22:23:30Z</time>
      </trkpt>
      <trkpt lat="45.43082" lon="5.47236">
        <ele>571.3</ele>
        <time>2017-12-30T22:23:34Z</time>
      </trkpt>
      <trkpt lat="45.43074" lon="5.47234">
        <ele>571</ele>
        <time>2017-12-30T22:23:39Z</time>
      </trkpt>
      <trkpt lat="45.43069" lon="5.47242">
        <ele>570.7</ele>
        <time>2017-12-30T22:23:43Z</time>
      </trkpt>
      <trkpt lat="45.43069" lon="5.47247">
        <ele>570.6</ele>
        <time>2017-12-30T22:23:45Z</time>
      </trkpt>
      <trkpt lat="45.43069" lon="5.47264">
        <ele>570.5</ele>
        <time>2017-12-30T22:23:52Z</time>
      </trkpt>
      <trkpt lat="45.43069" lon="5.47275">
        <ele>570.5</ele>
        <time>2017-12-30T22:23:56Z</time>
      </trkpt>
      <trkpt lat="45.43068" lon="5.47286">
        <ele>570.5</ele>
        <time>2017-12-30T22:24:01Z</time>
      </trkpt>
      <trkpt lat="45.43067" lon="5.47298">
        <ele>570.4</ele>
        <time>2017-12-30T22:24:05Z</time>
      </trkpt>
      <trkpt lat="45.43067" lon="5.47305">
        <ele>570.4</ele>
        <time>2017-12-30T22:24:08Z</time>
      </trkpt>
      <trkpt lat="45.43067" lon="5.47312">
        <ele>570.4</ele>
        <time>2017-12-30T22:24:11Z</time>
      </trkpt>
      <trkpt lat="45.43067" lon="5.47312">
        <ele>570.4</ele>
        <time>2017-12-30T22:24:11Z</time>
      </trkpt>
      <trkpt lat="45.43067" lon="5.47318">
        <ele>570.4</ele>
        <time>2017-12-30T22:24:13Z</time>
      </trkpt>
      <trkpt lat="45.43068" lon="5.47331">
        <ele>570.5</ele>
        <time>2017-12-30T22:24:19Z</time>
      </trkpt>
      <trkpt lat="45.43073" lon="5.4734">
        <ele>570.9</ele>
        <time>2017-12-30T22:24:23Z</time>
      </trkpt>
      <trkpt lat="45.43079" lon="5.47347">
        <ele>571.3</ele>
        <time>2017-12-30T22:24:28Z</time>
      </trkpt>
      <trkpt lat="45.43085" lon="5.47355">
        <ele>571.8</ele>
        <time>2017-12-30T22:24:32Z</time>
      </trkpt>
      <trkpt lat="45.43089" lon="5.47366">
        <ele>572.3</ele>
        <time>2017-12-30T22:24:37Z</time>
      </trkpt>
      <trkpt lat="45.4309" lon="5.47378">
        <ele>572.7</ele>
        <time>2017-12-30T22:24:42Z</time>
      </trkpt>
      <trkpt lat="45.43091" lon="5.4739">
        <ele>573.1</ele>
        <time>2017-12-30T22:24:47Z</time>
      </trkpt>
      <trkpt lat="45.4309" lon="5.47402">
        <ele>573.6</ele>
        <time>2017-12-30T22:24:52Z</time>
      </trkpt>
      <trkpt lat="45.4309" lon="5.47414">
        <ele>574</ele>
        <time>2017-12-30T22:24:57Z</time>
      </trkpt>
      <trkpt lat="45.43093" lon="5.47424">
        <ele>574.6</ele>
        <time>2017-12-30T22:25:01Z</time>
      </trkpt>
      <trkpt lat="45.43099" lon="5.4743">
        <ele>575.1</ele>
        <time>2017-12-30T22:25:05Z</time>
      </trkpt>
      <trkpt lat="45.43106" lon="5.47434">
        <ele>575.5</ele>
        <time>2017-12-30T22:25:10Z</time>
      </trkpt>
      <trkpt lat="45.43113" lon="5.47438">
        <ele>575.9</ele>
        <time>2017-12-30T22:25:14Z</time>
      </trkpt>
      <trkpt lat="45.43119" lon="5.47443">
        <ele>576.3</ele>
        <time>2017-12-30T22:25:18Z</time>
      </trkpt>
      <trkpt lat="45.43125" lon="5.47448">
        <ele>576.7</ele>
        <time>2017-12-30T22:25:22Z</time>
      </trkpt>
      <trkpt lat="45.4313" lon="5.47454">
        <ele>577.2</ele>
        <time>2017-12-30T22:25:26Z</time>
      </trkpt>
      <trkpt lat="45.43134" lon="5.47461">
        <ele>577.8</ele>
        <time>2017-12-30T22:25:29Z</time>
      </trkpt>
      <trkpt lat="45.43137" lon="5.47473">
        <ele>578.7</ele>
        <time>2017-12-30T22:25:34Z</time>
      </trkpt>
      <trkpt lat="45.43138" lon="5.47485">
        <ele>579.5</ele>
        <time>2017-12-30T22:25:39Z</time>
      </trkpt>
      <trkpt lat="45.43139" lon="5.47496">
        <ele>580.3</ele>
        <time>2017-12-30T22:25:44Z</time>
      </trkpt>
      <trkpt lat="45.43139" lon="5.47499">
        <ele>580.6</ele>
        <time>2017-12-30T22:25:45Z</time>
      </trkpt>
      <trkpt lat="45.43139" lon="5.4752">
        <ele>582.1</ele>
        <time>2017-12-30T22:25:53Z</time>
      </trkpt>
      <trkpt lat="45.4314" lon="5.47531">
        <ele>582.9</ele>
        <time>2017-12-30T22:25:58Z</time>
      </trkpt>
      <trkpt lat="45.4314" lon="5.47542">
        <ele>583.7</ele>
        <time>2017-12-30T22:26:02Z</time>
      </trkpt>
      <trkpt lat="45.4314" lon="5.47552">
        <ele>584.4</ele>
        <time>2017-12-30T22:26:06Z</time>
      </trkpt>
      <trkpt lat="45.43141" lon="5.47564">
        <ele>585.3</ele>
        <time>2017-12-30T22:26:11Z</time>
      </trkpt>
      <trkpt lat="45.43144" lon="5.47576">
        <ele>586.2</ele>
        <time>2017-12-30T22:26:16Z</time>
      </trkpt>
      <trkpt lat="45.43145" lon="5.47587">
        <ele>587</ele>
        <time>2017-12-30T22:26:21Z</time>
      </trkpt>
      <trkpt lat="45.43147" lon="5.47598">
        <ele>587.9</ele>
        <time>2017-12-30T22:26:25Z</time>
      </trkpt>
      <trkpt lat="45.4315" lon="5.47608">
        <ele>588.7</ele>
        <time>2017-12-30T22:26:30Z</time>
      </trkpt>
      <trkpt lat="45.43153" lon="5.47619">
        <ele>589.7</ele>
        <time>2017-12-30T22:26:34Z</time>
      </trkpt>
      <trkpt lat="45.43155" lon="5.47629">
        <ele>590.5</ele>
        <time>2017-12-30T22:26:38Z</time>
      </trkpt>
      <trkpt lat="45.43158" lon="5.4764">
        <ele>591.5</ele>
        <time>2017-12-30T22:26:43Z</time>
      </trkpt>
      <trkpt lat="45.43159" lon="5.47644">
        <ele>591.8</ele>
        <time>2017-12-30T22:26:45Z</time>
      </trkpt>
      <trkpt lat="45.43163" lon="5.47661">
        <ele>593.4</ele>
        <time>2017-12-30T22:26:52Z</time>
      </trkpt>
      <trkpt lat="45.43166" lon="5.4767">
        <ele>594.1</ele>
        <time>2017-12-30T22:26:56Z</time>
      </trkpt>
      <trkpt lat="45.43164" lon="5.47682">
        <ele>594.6</ele>
        <time>2017-12-30T22:27:01Z</time>
      </trkpt>
      <trkpt lat="45.43159" lon="5.47691">
        <ele>594.9</ele>
        <time>2017-12-30T22:27:06Z</time>
      </trkpt>
      <trkpt lat="45.43152" lon="5.47695">
        <ele>594.9</ele>
        <time>2017-12-30T22:27:10Z</time>
      </trkpt>
      <trkpt lat="45.43145" lon="5.47701">
        <ele>595</ele>
        <time>2017-12-30T22:27:15Z</time>
      </trkpt>
      <trkpt lat="45.43139" lon="5.47706">
        <ele>595</ele>
        <time>2017-12-30T22:27:19Z</time>
      </trkpt>
      <trkpt lat="45.43132" lon="5.47713">
        <ele>595.2</ele>
        <time>2017-12-30T22:27:23Z</time>
      </trkpt>
      <trkpt lat="45.43126" lon="5.47719">
        <ele>595.3</ele>
        <time>2017-12-30T22:27:28Z</time>
      </trkpt>
      <trkpt lat="45.43118" lon="5.47725">
        <ele>595.4</ele>
        <time>2017-12-30T22:27:33Z</time>
      </trkpt>
      <trkpt lat="45.43112" lon="5.4773">
        <ele>595.5</ele>
        <time>2017-12-30T22:27:37Z</time>
      </trkpt>
      <trkpt lat="45.43106" lon="5.47735">
        <ele>595.7</ele>
        <time>2017-12-30T22:27:41Z</time>
      </trkpt>
      <trkpt lat="45.431" lon="5.4774">
        <ele>595.8</ele>
        <time>2017-12-30T22:27:45Z</time>
      </trkpt>
      <trkpt lat="45.43093" lon="5.47746">
        <ele>596</ele>
        <time>2017-12-30T22:27:49Z</time>
      </trkpt>
      <trkpt lat="45.43086" lon="5.47752">
        <ele>596.1</ele>
        <time>2017-12-30T22:27:54Z</time>
      </trkpt>
      <trkpt lat="45.43081" lon="5.47757">
        <ele>596.2</ele>
        <time>2017-12-30T22:27:58Z</time>
      </trkpt>
      <trkpt lat="45.43075" lon="5.47761">
        <ele>596.4</ele>
        <time>2017-12-30T22:28:01Z</time>
      </trkpt>
      <trkpt lat="45.43073" lon="5.47763">
        <ele>596.5</ele>
        <time>2017-12-30T22:28:03Z</time>
      </trkpt>
      <trkpt lat="45.43064" lon="5.4777">
        <ele>596.9</ele>
        <time>2017-12-30T22:28:09Z</time>
      </trkpt>
      <trkpt lat="45.43058" lon="5.47774">
        <ele>597.1</ele>
        <time>2017-12-30T22:28:12Z</time>
      </trkpt>
      <trkpt lat="45.43053" lon="5.47778">
        <ele>597.3</ele>
        <time>2017-12-30T22:28:16Z</time>
      </trkpt>
      <trkpt lat="45.4305" lon="5.47786">
        <ele>597.5</ele>
        <time>2017-12-30T22:28:19Z</time>
      </trkpt>
      <trkpt lat="45.43051" lon="5.47797">
        <ele>597.7</ele>
        <time>2017-12-30T22:28:24Z</time>
      </trkpt>
      <trkpt lat="45.43052" lon="5.47803">
        <ele>597.8</ele>
        <time>2017-12-30T22:28:26Z</time>
      </trkpt>
      <trkpt lat="45.43054" lon="5.47809">
        <ele>597.9</ele>
        <time>2017-12-30T22:28:29Z</time>
      </trkpt>
      <trkpt lat="45.43056" lon="5.47815">
        <ele>597.9</ele>
        <time>2017-12-30T22:28:32Z</time>
      </trkpt>
      <trkpt lat="45.43057" lon="5.47821">
        <ele>598.1</ele>
        <time>2017-12-30T22:28:34Z</time>
      </trkpt>
      <trkpt lat="45.43059" lon="5.47827">
        <ele>598.2</ele>
        <time>2017-12-30T22:28:37Z</time>
      </trkpt>
      <trkpt lat="45.43062" lon="5.47839">
        <ele>598.3</ele>
        <time>2017-12-30T22:28:42Z</time>
      </trkpt>
      <trkpt lat="45.43064" lon="5.4785">
        <ele>598.2</ele>
        <time>2017-12-30T22:28:46Z</time>
      </trkpt>
      <trkpt lat="45.43067" lon="5.4786">
        <ele>598.3</ele>
        <time>2017-12-30T22:28:51Z</time>
      </trkpt>
      <trkpt lat="45.43071" lon="5.4787">
        <ele>598.3</ele>
        <time>2017-12-30T22:28:55Z</time>
      </trkpt>
      <trkpt lat="45.43073" lon="5.47876">
        <ele>598.4</ele>
        <time>2017-12-30T22:28:58Z</time>
      </trkpt>
      <trkpt lat="45.43076" lon="5.47881">
        <ele>598.5</ele>
        <time>2017-12-30T22:29:01Z</time>
      </trkpt>
      <trkpt lat="45.43079" lon="5.47886">
        <ele>598.5</ele>
        <time>2017-12-30T22:29:03Z</time>
      </trkpt>
      <trkpt lat="45.43083" lon="5.47892">
        <ele>598.7</ele>
        <time>2017-12-30T22:29:07Z</time>
      </trkpt>
      <trkpt lat="45.43086" lon="5.47897">
        <ele>598.9</ele>
        <time>2017-12-30T22:29:09Z</time>
      </trkpt>
      <trkpt lat="45.4309" lon="5.47903">
        <ele>599.1</ele>
        <time>2017-12-30T22:29:13Z</time>
      </trkpt>
      <trkpt lat="45.43093" lon="5.47908">
        <ele>599.2</ele>
        <time>2017-12-30T22:29:15Z</time>
      </trkpt>
      <trkpt lat="45.43097" lon="5.47914">
        <ele>599.5</ele>
        <time>2017-12-30T22:29:19Z</time>
      </trkpt>
      <trkpt lat="45.431" lon="5.47919">
        <ele>599.6</ele>
        <time>2017-12-30T22:29:21Z</time>
      </trkpt>
      <trkpt lat="45.43103" lon="5.47925">
        <ele>599.9</ele>
        <time>2017-12-30T22:29:24Z</time>
      </trkpt>
      <trkpt lat="45.43106" lon="5.4793">
        <ele>600.1</ele>
        <time>2017-12-30T22:29:27Z</time>
      </trkpt>
      <trkpt lat="45.43112" lon="5.47939">
        <ele>600.5</ele>
        <time>2017-12-30T22:29:32Z</time>
      </trkpt>
      <trkpt lat="45.43117" lon="5.47948">
        <ele>600.9</ele>
        <time>2017-12-30T22:29:36Z</time>
      </trkpt>
      <trkpt lat="45.43122" lon="5.47958">
        <ele>601.3</ele>
        <time>2017-12-30T22:29:41Z</time>
      </trkpt>
      <trkpt lat="45.43127" lon="5.47968">
        <ele>601.8</ele>
        <time>2017-12-30T22:29:46Z</time>
      </trkpt>
      <trkpt lat="45.43132" lon="5.47978">
        <ele>602.3</ele>
        <time>2017-12-30T22:29:51Z</time>
      </trkpt>
      <trkpt lat="45.43137" lon="5.47987">
        <ele>602.9</ele>
        <time>2017-12-30T22:29:56Z</time>
      </trkpt>
      <trkpt lat="45.4314" lon="5.47995">
        <ele>603.3</ele>
        <time>2017-12-30T22:29:59Z</time>
      </trkpt>
      <trkpt lat="45.43144" lon="5.48003">
        <ele>603.6</ele>
        <time>2017-12-30T22:30:03Z</time>
      </trkpt>
      <trkpt lat="45.43147" lon="5.4801">
        <ele>603.6</ele>
        <time>2017-12-30T22:30:07Z</time>
      </trkpt>
      <trkpt lat="45.43152" lon="5.48017">
        <ele>603.8</ele>
        <time>2017-12-30T22:30:11Z</time>
      </trkpt>
      <trkpt lat="45.43156" lon="5.48023">
        <ele>604</ele>
        <time>2017-12-30T22:30:14Z</time>
      </trkpt>
      <trkpt lat="45.43164" lon="5.48026">
        <ele>604.5</ele>
        <time>2017-12-30T22:30:19Z</time>
      </trkpt>
      <trkpt lat="45.43167" lon="5.48026">
        <ele>604.7</ele>
        <time>2017-12-30T22:30:20Z</time>
      </trkpt>
      <trkpt lat="45.43177" lon="5.48026">
        <ele>605.2</ele>
        <time>2017-12-30T22:30:26Z</time>
      </trkpt>
      <trkpt lat="45.43184" lon="5.48026">
        <ele>605.5</ele>
        <time>2017-12-30T22:30:30Z</time>
      </trkpt>
      <trkpt lat="45.43193" lon="5.48026">
        <ele>605.9</ele>
        <time>2017-12-30T22:30:35Z</time>
      </trkpt>
      <trkpt lat="45.43198" lon="5.48025">
        <ele>606.1</ele>
        <time>2017-12-30T22:30:38Z</time>
      </trkpt>
      <trkpt lat="45.43205" lon="5.48024">
        <ele>606.4</ele>
        <time>2017-12-30T22:30:42Z</time>
      </trkpt>
      <trkpt lat="45.43212" lon="5.48025">
        <ele>606.7</ele>
        <time>2017-12-30T22:30:46Z</time>
      </trkpt>
      <trkpt lat="45.43219" lon="5.48026">
        <ele>607</ele>
        <time>2017-12-30T22:30:50Z</time>
      </trkpt>
      <trkpt lat="45.43225" lon="5.48026">
        <ele>607.3</ele>
        <time>2017-12-30T22:30:54Z</time>
      </trkpt>
      <trkpt lat="45.43232" lon="5.48026">
        <ele>607.6</ele>
        <time>2017-12-30T22:30:58Z</time>
      </trkpt>
      <trkpt lat="45.43239" lon="5.48026">
        <ele>607.9</ele>
        <time>2017-12-30T22:31:02Z</time>
      </trkpt>
      <trkpt lat="45.43246" lon="5.48026">
        <ele>608.2</ele>
        <time>2017-12-30T22:31:06Z</time>
      </trkpt>
      <trkpt lat="45.43252" lon="5.48026">
        <ele>608.5</ele>
        <time>2017-12-30T22:31:09Z</time>
      </trkpt>
      <trkpt lat="45.43259" lon="5.48026">
        <ele>608.8</ele>
        <time>2017-12-30T22:31:13Z</time>
      </trkpt>
      <trkpt lat="45.43265" lon="5.48026">
        <ele>609.1</ele>
        <time>2017-12-30T22:31:17Z</time>
      </trkpt>
      <trkpt lat="45.43271" lon="5.48026">
        <ele>609.4</ele>
        <time>2017-12-30T22:31:20Z</time>
      </trkpt>
      <trkpt lat="45.43278" lon="5.48027">
        <ele>609.7</ele>
        <time>2017-12-30T22:31:24Z</time>
      </trkpt>
      <trkpt lat="45.43284" lon="5.48028">
        <ele>610</ele>
        <time>2017-12-30T22:31:27Z</time>
      </trkpt>
      <trkpt lat="45.4329" lon="5.48028">
        <ele>610.3</ele>
        <time>2017-12-30T22:31:31Z</time>
      </trkpt>
      <trkpt lat="45.43299" lon="5.48029">
        <ele>610.7</ele>
        <time>2017-12-30T22:31:36Z</time>
      </trkpt>
      <trkpt lat="45.43306" lon="5.4803">
        <ele>611</ele>
        <time>2017-12-30T22:31:40Z</time>
      </trkpt>
      <trkpt lat="45.43312" lon="5.48031">
        <ele>611.3</ele>
        <time>2017-12-30T22:31:44Z</time>
      </trkpt>
      <trkpt lat="45.43319" lon="5.48033">
        <ele>611.7</ele>
        <time>2017-12-30T22:31:48Z</time>
      </trkpt>
      <trkpt lat="45.43326" lon="5.48034">
        <ele>612</ele>
        <time>2017-12-30T22:31:52Z</time>
      </trkpt>
      <trkpt lat="45.43333" lon="5.48035">
        <ele>612.4</ele>
        <time>2017-12-30T22:31:56Z</time>
      </trkpt>
      <trkpt lat="45.4334" lon="5.4804">
        <ele>612.7</ele>
        <time>2017-12-30T22:32:00Z</time>
      </trkpt>
      <trkpt lat="45.4334" lon="5.48052">
        <ele>612.8</ele>
        <time>2017-12-30T22:32:05Z</time>
      </trkpt>
      <trkpt lat="45.4334" lon="5.48053">
        <ele>612.8</ele>
        <time>2017-12-30T22:32:05Z</time>
      </trkpt>
      <trkpt lat="45.43334" lon="5.48069">
        <ele>612.8</ele>
        <time>2017-12-30T22:32:13Z</time>
      </trkpt>
      <trkpt lat="45.43332" lon="5.48075">
        <ele>612.8</ele>
        <time>2017-12-30T22:32:15Z</time>
      </trkpt>
      <trkpt lat="45.4333" lon="5.48081">
        <ele>612.7</ele>
        <time>2017-12-30T22:32:18Z</time>
      </trkpt>
      <trkpt lat="45.43328" lon="5.48087">
        <ele>612.6</ele>
        <time>2017-12-30T22:32:21Z</time>
      </trkpt>
      <trkpt lat="45.43325" lon="5.48094">
        <ele>612.4</ele>
        <time>2017-12-30T22:32:24Z</time>
      </trkpt>
      <trkpt lat="45.43323" lon="5.48101">
        <ele>612.3</ele>
        <time>2017-12-30T22:32:27Z</time>
      </trkpt>
      <trkpt lat="45.4332" lon="5.48108">
        <ele>612.1</ele>
        <time>2017-12-30T22:32:30Z</time>
      </trkpt>
      <trkpt lat="45.43317" lon="5.48115">
        <ele>611.9</ele>
        <time>2017-12-30T22:32:34Z</time>
      </trkpt>
      <trkpt lat="45.43315" lon="5.48122">
        <ele>611.8</ele>
        <time>2017-12-30T22:32:37Z</time>
      </trkpt>
      <trkpt lat="45.43313" lon="5.48129">
        <ele>611.7</ele>
        <time>2017-12-30T22:32:40Z</time>
      </trkpt>
      <trkpt lat="45.4331" lon="5.48136">
        <ele>611.5</ele>
        <time>2017-12-30T22:32:43Z</time>
      </trkpt>
      <trkpt lat="45.43307" lon="5.48143">
        <ele>611.3</ele>
        <time>2017-12-30T22:32:46Z</time>
      </trkpt>
      <trkpt lat="45.43305" lon="5.4815">
        <ele>611.2</ele>
        <time>2017-12-30T22:32:49Z</time>
      </trkpt>
      <trkpt lat="45.43302" lon="5.48157">
        <ele>611.1</ele>
        <time>2017-12-30T22:32:52Z</time>
      </trkpt>
      <trkpt lat="45.43299" lon="5.48165">
        <ele>610.9</ele>
        <time>2017-12-30T22:32:56Z</time>
      </trkpt>
      <trkpt lat="45.43296" lon="5.48173">
        <ele>610.7</ele>
        <time>2017-12-30T22:33:00Z</time>
      </trkpt>
      <trkpt lat="45.43294" lon="5.48181">
        <ele>610.6</ele>
        <time>2017-12-30T22:33:03Z</time>
      </trkpt>
      <trkpt lat="45.43291" lon="5.48189">
        <ele>610.3</ele>
        <time>2017-12-30T22:33:07Z</time>
      </trkpt>
      <trkpt lat="45.43291" lon="5.48197">
        <ele>610.3</ele>
        <time>2017-12-30T22:33:10Z</time>
      </trkpt>
      <trkpt lat="45.43292" lon="5.48203">
        <ele>610.3</ele>
        <time>2017-12-30T22:33:12Z</time>
      </trkpt>
      <trkpt lat="45.43298" lon="5.48212">
        <ele>610.7</ele>
        <time>2017-12-30T22:33:17Z</time>
      </trkpt>
      <trkpt lat="45.43304" lon="5.48216">
        <ele>611</ele>
        <time>2017-12-30T22:33:21Z</time>
      </trkpt>
      <trkpt lat="45.43311" lon="5.48218">
        <ele>611.5</ele>
        <time>2017-12-30T22:33:25Z</time>
      </trkpt>
      <trkpt lat="45.43318" lon="5.48221">
        <ele>612</ele>
        <time>2017-12-30T22:33:30Z</time>
      </trkpt>
      <trkpt lat="45.43325" lon="5.48224">
        <ele>612.4</ele>
        <time>2017-12-30T22:33:34Z</time>
      </trkpt>
      <trkpt lat="45.43333" lon="5.48228">
        <ele>613</ele>
        <time>2017-12-30T22:33:39Z</time>
      </trkpt>
      <trkpt lat="45.4334" lon="5.48232">
        <ele>613.5</ele>
        <time>2017-12-30T22:33:43Z</time>
      </trkpt>
      <trkpt lat="45.43345" lon="5.48239">
        <ele>613.8</ele>
        <time>2017-12-30T22:33:47Z</time>
      </trkpt>
      <trkpt lat="45.4335" lon="5.48247">
        <ele>614.2</ele>
        <time>2017-12-30T22:33:51Z</time>
      </trkpt>
      <trkpt lat="45.43354" lon="5.48257">
        <ele>614.4</ele>
        <time>2017-12-30T22:33:56Z</time>
      </trkpt>
      <trkpt lat="45.43359" lon="5.48265">
        <ele>614.6</ele>
        <time>2017-12-30T22:34:00Z</time>
      </trkpt>
      <trkpt lat="45.43364" lon="5.48267">
        <ele>614.9</ele>
        <time>2017-12-30T22:34:03Z</time>
      </trkpt>
      <trkpt lat="45.43369" lon="5.48269">
        <ele>615.2</ele>
        <time>2017-12-30T22:34:06Z</time>
      </trkpt>
      <trkpt lat="45.43374" lon="5.4827">
        <ele>615.6</ele>
        <time>2017-12-30T22:34:09Z</time>
      </trkpt>
      <trkpt lat="45.4338" lon="5.48272">
        <ele>616</ele>
        <time>2017-12-30T22:34:12Z</time>
      </trkpt>
      <trkpt lat="45.43385" lon="5.48274">
        <ele>616.3</ele>
        <time>2017-12-30T22:34:15Z</time>
      </trkpt>
      <trkpt lat="45.4339" lon="5.48277">
        <ele>616.7</ele>
        <time>2017-12-30T22:34:19Z</time>
      </trkpt>
      <trkpt lat="45.43394" lon="5.48281">
        <ele>616.9</ele>
        <time>2017-12-30T22:34:21Z</time>
      </trkpt>
      <trkpt lat="45.43398" lon="5.48291">
        <ele>617.1</ele>
        <time>2017-12-30T22:34:26Z</time>
      </trkpt>
      <trkpt lat="45.43398" lon="5.48302">
        <ele>616.9</ele>
        <time>2017-12-30T22:34:30Z</time>
      </trkpt>
      <trkpt lat="45.43395" lon="5.48313">
        <ele>616.5</ele>
        <time>2017-12-30T22:34:35Z</time>
      </trkpt>
      <trkpt lat="45.43393" lon="5.4832">
        <ele>616.2</ele>
        <time>2017-12-30T22:34:38Z</time>
      </trkpt>
      <trkpt lat="45.4339" lon="5.48325">
        <ele>615.9</ele>
        <time>2017-12-30T22:34:41Z</time>
      </trkpt>
      <trkpt lat="45.43388" lon="5.48332">
        <ele>615.6</ele>
        <time>2017-12-30T22:34:44Z</time>
      </trkpt>
      <trkpt lat="45.43384" lon="5.48343">
        <ele>614.4</ele>
        <time>2017-12-30T22:34:49Z</time>
      </trkpt>
      <trkpt lat="45.4338" lon="5.48353">
        <ele>613.1</ele>
        <time>2017-12-30T22:34:53Z</time>
      </trkpt>
      <trkpt lat="45.43377" lon="5.48359">
        <ele>612.4</ele>
        <time>2017-12-30T22:34:56Z</time>
      </trkpt>
      <trkpt lat="45.43374" lon="5.48366">
        <ele>611.5</ele>
        <time>2017-12-30T22:35:00Z</time>
      </trkpt>
      <trkpt lat="45.4337" lon="5.48373">
        <ele>610.7</ele>
        <time>2017-12-30T22:35:03Z</time>
      </trkpt>
      <trkpt lat="45.43366" lon="5.48381">
        <ele>609.8</ele>
        <time>2017-12-30T22:35:07Z</time>
      </trkpt>
      <trkpt lat="45.43362" lon="5.48389">
        <ele>609</ele>
        <time>2017-12-30T22:35:11Z</time>
      </trkpt>
      <trkpt lat="45.43362" lon="5.48397">
        <ele>608.3</ele>
        <time>2017-12-30T22:35:14Z</time>
      </trkpt>
      <trkpt lat="45.43365" lon="5.48405">
        <ele>607.8</ele>
        <time>2017-12-30T22:35:18Z</time>
      </trkpt>
      <trkpt lat="45.43369" lon="5.48412">
        <ele>607.3</ele>
        <time>2017-12-30T22:35:22Z</time>
      </trkpt>
      <trkpt lat="45.43374" lon="5.48417">
        <ele>607</ele>
        <time>2017-12-30T22:35:25Z</time>
      </trkpt>
      <trkpt lat="45.4338" lon="5.48421">
        <ele>606.7</ele>
        <time>2017-12-30T22:35:29Z</time>
      </trkpt>
      <trkpt lat="45.43386" lon="5.48425">
        <ele>606.4</ele>
        <time>2017-12-30T22:35:33Z</time>
      </trkpt>
      <trkpt lat="45.43392" lon="5.48429">
        <ele>606</ele>
        <time>2017-12-30T22:35:36Z</time>
      </trkpt>
      <trkpt lat="45.43398" lon="5.48433">
        <ele>605.7</ele>
        <time>2017-12-30T22:35:40Z</time>
      </trkpt>
      <trkpt lat="45.43404" lon="5.48437">
        <ele>605.4</ele>
        <time>2017-12-30T22:35:44Z</time>
      </trkpt>
      <trkpt lat="45.4341" lon="5.4844">
        <ele>605.1</ele>
        <time>2017-12-30T22:35:48Z</time>
      </trkpt>
      <trkpt lat="45.43416" lon="5.48445">
        <ele>604.6</ele>
        <time>2017-12-30T22:35:52Z</time>
      </trkpt>
      <trkpt lat="45.43422" lon="5.48449">
        <ele>604.1</ele>
        <time>2017-12-30T22:35:55Z</time>
      </trkpt>
      <trkpt lat="45.43428" lon="5.48454">
        <ele>603.5</ele>
        <time>2017-12-30T22:35:59Z</time>
      </trkpt>
      <trkpt lat="45.43435" lon="5.48458">
        <ele>602.9</ele>
        <time>2017-12-30T22:36:04Z</time>
      </trkpt>
      <trkpt lat="45.43442" lon="5.48462">
        <ele>602.3</ele>
        <time>2017-12-30T22:36:08Z</time>
      </trkpt>
      <trkpt lat="45.43448" lon="5.48467">
        <ele>601.6</ele>
        <time>2017-12-30T22:36:12Z</time>
      </trkpt>
      <trkpt lat="45.43454" lon="5.48473">
        <ele>600.7</ele>
        <time>2017-12-30T22:36:16Z</time>
      </trkpt>
      <trkpt lat="45.4346" lon="5.48479">
        <ele>599.8</ele>
        <time>2017-12-30T22:36:20Z</time>
      </trkpt>
      <trkpt lat="45.43466" lon="5.48486">
        <ele>598.8</ele>
        <time>2017-12-30T22:36:25Z</time>
      </trkpt>
      <trkpt lat="45.43473" lon="5.48493">
        <ele>597.7</ele>
        <time>2017-12-30T22:36:30Z</time>
      </trkpt>
      <trkpt lat="45.4348" lon="5.48499">
        <ele>596.7</ele>
        <time>2017-12-30T22:36:34Z</time>
      </trkpt>
      <trkpt lat="45.43488" lon="5.48506">
        <ele>595.2</ele>
        <time>2017-12-30T22:36:40Z</time>
      </trkpt>
      <trkpt lat="45.43497" lon="5.48513">
        <ele>593.7</ele>
        <time>2017-12-30T22:36:46Z</time>
      </trkpt>
      <trkpt lat="45.43505" lon="5.4852">
        <ele>592.4</ele>
        <time>2017-12-30T22:36:51Z</time>
      </trkpt>
      <trkpt lat="45.43514" lon="5.48526">
        <ele>591.5</ele>
        <time>2017-12-30T22:36:57Z</time>
      </trkpt>
      <trkpt lat="45.43524" lon="5.48533">
        <ele>590.4</ele>
        <time>2017-12-30T22:37:03Z</time>
      </trkpt>
      <trkpt lat="45.43533" lon="5.48539">
        <ele>589.4</ele>
        <time>2017-12-30T22:37:09Z</time>
      </trkpt>
      <trkpt lat="45.43541" lon="5.48545">
        <ele>588.4</ele>
        <time>2017-12-30T22:37:14Z</time>
      </trkpt>
      <trkpt lat="45.43551" lon="5.48551">
        <ele>587.4</ele>
        <time>2017-12-30T22:37:20Z</time>
      </trkpt>
      <trkpt lat="45.43559" lon="5.48557">
        <ele>586.3</ele>
        <time>2017-12-30T22:37:25Z</time>
      </trkpt>
      <trkpt lat="45.43567" lon="5.48564">
        <ele>585</ele>
        <time>2017-12-30T22:37:31Z</time>
      </trkpt>
      <trkpt lat="45.43576" lon="5.48572">
        <ele>583.4</ele>
        <time>2017-12-30T22:37:37Z</time>
      </trkpt>
      <trkpt lat="45.43585" lon="5.48581">
        <ele>581.6</ele>
        <time>2017-12-30T22:37:43Z</time>
      </trkpt>
      <trkpt lat="45.43594" lon="5.48591">
        <ele>580.5</ele>
        <time>2017-12-30T22:37:49Z</time>
      </trkpt>
      <trkpt lat="45.43602" lon="5.48601">
        <ele>579.5</ele>
        <time>2017-12-30T22:37:56Z</time>
      </trkpt>
      <trkpt lat="45.4361" lon="5.48609">
        <ele>578.8</ele>
        <time>2017-12-30T22:38:01Z</time>
      </trkpt>
      <trkpt lat="45.43619" lon="5.48617">
        <ele>578.1</ele>
        <time>2017-12-30T22:38:07Z</time>
      </trkpt>
      <trkpt lat="45.43628" lon="5.48623">
        <ele>577.6</ele>
        <time>2017-12-30T22:38:13Z</time>
      </trkpt>
      <trkpt lat="45.43636" lon="5.48628">
        <ele>577.2</ele>
        <time>2017-12-30T22:38:18Z</time>
      </trkpt>
      <trkpt lat="45.43644" lon="5.48632">
        <ele>576.8</ele>
        <time>2017-12-30T22:38:23Z</time>
      </trkpt>
      <trkpt lat="45.43651" lon="5.48634">
        <ele>576.7</ele>
        <time>2017-12-30T22:38:27Z</time>
      </trkpt>
      <trkpt lat="45.43656" lon="5.48637">
        <ele>576.4</ele>
        <time>2017-12-30T22:38:30Z</time>
      </trkpt>
      <trkpt lat="45.43662" lon="5.48638">
        <ele>576.4</ele>
        <time>2017-12-30T22:38:33Z</time>
      </trkpt>
      <trkpt lat="45.43667" lon="5.4864">
        <ele>576.3</ele>
        <time>2017-12-30T22:38:36Z</time>
      </trkpt>
      <trkpt lat="45.43672" lon="5.48643">
        <ele>576</ele>
        <time>2017-12-30T22:38:39Z</time>
      </trkpt>
      <trkpt lat="45.43677" lon="5.48645">
        <ele>575.8</ele>
        <time>2017-12-30T22:38:42Z</time>
      </trkpt>
      <trkpt lat="45.43682" lon="5.48646">
        <ele>575.8</ele>
        <time>2017-12-30T22:38:45Z</time>
      </trkpt>
      <trkpt lat="45.43687" lon="5.48648">
        <ele>575.6</ele>
        <time>2017-12-30T22:38:48Z</time>
      </trkpt>
      <trkpt lat="45.43693" lon="5.48654">
        <ele>575.1</ele>
        <time>2017-12-30T22:38:52Z</time>
      </trkpt>
      <trkpt lat="45.4369" lon="5.48661">
        <ele>574.2</ele>
        <time>2017-12-30T22:38:56Z</time>
      </trkpt>
      <trkpt lat="45.43687" lon="5.48664">
        <ele>573.8</ele>
        <time>2017-12-30T22:38:58Z</time>
      </trkpt>
      <trkpt lat="45.4368" lon="5.48669">
        <ele>573.3</ele>
        <time>2017-12-30T22:39:02Z</time>
      </trkpt>
      <trkpt lat="45.43675" lon="5.48671">
        <ele>573.2</ele>
        <time>2017-12-30T22:39:05Z</time>
      </trkpt>
      <trkpt lat="45.43671" lon="5.48674">
        <ele>573.2</ele>
        <time>2017-12-30T22:39:08Z</time>
      </trkpt>
      <trkpt lat="45.43666" lon="5.48677">
        <ele>573.1</ele>
        <time>2017-12-30T22:39:11Z</time>
      </trkpt>
      <trkpt lat="45.43662" lon="5.48681">
        <ele>573.1</ele>
        <time>2017-12-30T22:39:14Z</time>
      </trkpt>
      <trkpt lat="45.43657" lon="5.48684">
        <ele>573.1</ele>
        <time>2017-12-30T22:39:17Z</time>
      </trkpt>
      <trkpt lat="45.43653" lon="5.48688">
        <ele>573</ele>
        <time>2017-12-30T22:39:20Z</time>
      </trkpt>
      <trkpt lat="45.43649" lon="5.48691">
        <ele>573</ele>
        <time>2017-12-30T22:39:22Z</time>
      </trkpt>
      <trkpt lat="45.43644" lon="5.48696">
        <ele>573</ele>
        <time>2017-12-30T22:39:26Z</time>
      </trkpt>
      <trkpt lat="45.43644" lon="5.48696">
        <ele>573</ele>
        <time>2017-12-30T22:39:26Z</time>
      </trkpt>
      <trkpt lat="45.4364" lon="5.487">
        <ele>572.9</ele>
        <time>2017-12-30T22:39:29Z</time>
      </trkpt>
      <trkpt lat="45.43636" lon="5.48704">
        <ele>572.9</ele>
        <time>2017-12-30T22:39:31Z</time>
      </trkpt>
      <trkpt lat="45.43631" lon="5.48707">
        <ele>572.8</ele>
        <time>2017-12-30T22:39:34Z</time>
      </trkpt>
      <trkpt lat="45.43627" lon="5.48711">
        <ele>572.8</ele>
        <time>2017-12-30T22:39:37Z</time>
      </trkpt>
      <trkpt lat="45.43622" lon="5.48715">
        <ele>572.7</ele>
        <time>2017-12-30T22:39:41Z</time>
      </trkpt>
      <trkpt lat="45.43618" lon="5.48718">
        <ele>572.7</ele>
        <time>2017-12-30T22:39:43Z</time>
      </trkpt>
      <trkpt lat="45.43613" lon="5.48722">
        <ele>572.6</ele>
        <time>2017-12-30T22:39:46Z</time>
      </trkpt>
      <trkpt lat="45.43609" lon="5.48726">
        <ele>572.5</ele>
        <time>2017-12-30T22:39:49Z</time>
      </trkpt>
      <trkpt lat="45.43604" lon="5.4873">
        <ele>572.4</ele>
        <time>2017-12-30T22:39:52Z</time>
      </trkpt>
      <trkpt lat="45.436" lon="5.48735">
        <ele>572.4</ele>
        <time>2017-12-30T22:39:55Z</time>
      </trkpt>
      <trkpt lat="45.43595" lon="5.48739">
        <ele>572.3</ele>
        <time>2017-12-30T22:39:59Z</time>
      </trkpt>
      <trkpt lat="45.43591" lon="5.48743">
        <ele>572.2</ele>
        <time>2017-12-30T22:40:02Z</time>
      </trkpt>
      <trkpt lat="45.43586" lon="5.48748">
        <ele>572.1</ele>
        <time>2017-12-30T22:40:05Z</time>
      </trkpt>
      <trkpt lat="45.43582" lon="5.48753">
        <ele>572</ele>
        <time>2017-12-30T22:40:08Z</time>
      </trkpt>
      <trkpt lat="45.43577" lon="5.48757">
        <ele>571.9</ele>
        <time>2017-12-30T22:40:11Z</time>
      </trkpt>
      <trkpt lat="45.43573" lon="5.48761">
        <ele>571.9</ele>
        <time>2017-12-30T22:40:14Z</time>
      </trkpt>
      <trkpt lat="45.43568" lon="5.48765">
        <ele>571.8</ele>
        <time>2017-12-30T22:40:17Z</time>
      </trkpt>
      <trkpt lat="45.43563" lon="5.48768">
        <ele>571.8</ele>
        <time>2017-12-30T22:40:21Z</time>
      </trkpt>
      <trkpt lat="45.43559" lon="5.48772">
        <ele>571.8</ele>
        <time>2017-12-30T22:40:23Z</time>
      </trkpt>
      <trkpt lat="45.43555" lon="5.48777">
        <ele>571.8</ele>
        <time>2017-12-30T22:40:26Z</time>
      </trkpt>
      <trkpt lat="45.4355" lon="5.48781">
        <ele>571.7</ele>
        <time>2017-12-30T22:40:30Z</time>
      </trkpt>
      <trkpt lat="45.43546" lon="5.48785">
        <ele>571.7</ele>
        <time>2017-12-30T22:40:32Z</time>
      </trkpt>
      <trkpt lat="45.43541" lon="5.48789">
        <ele>571.7</ele>
        <time>2017-12-30T22:40:36Z</time>
      </trkpt>
      <trkpt lat="45.43537" lon="5.48793">
        <ele>571.7</ele>
        <time>2017-12-30T22:40:39Z</time>
      </trkpt>
      <trkpt lat="45.43532" lon="5.48797">
        <ele>571.7</ele>
        <time>2017-12-30T22:40:42Z</time>
      </trkpt>
      <trkpt lat="45.43528" lon="5.48801">
        <ele>571.7</ele>
        <time>2017-12-30T22:40:45Z</time>
      </trkpt>
      <trkpt lat="45.43523" lon="5.48805">
        <ele>571.8</ele>
        <time>2017-12-30T22:40:48Z</time>
      </trkpt>
      <trkpt lat="45.43519" lon="5.48809">
        <ele>571.8</ele>
        <time>2017-12-30T22:40:51Z</time>
      </trkpt>
      <trkpt lat="45.43514" lon="5.48813">
        <ele>571.8</ele>
        <time>2017-12-30T22:40:54Z</time>
      </trkpt>
      <trkpt lat="45.43509" lon="5.48818">
        <ele>571.8</ele>
        <time>2017-12-30T22:40:57Z</time>
      </trkpt>
      <trkpt lat="45.43504" lon="5.48822">
        <ele>571.9</ele>
        <time>2017-12-30T22:41:01Z</time>
      </trkpt>
      <trkpt lat="45.435" lon="5.48827">
        <ele>571.9</ele>
        <time>2017-12-30T22:41:04Z</time>
      </trkpt>
      <trkpt lat="45.43495" lon="5.48831">
        <ele>571.8</ele>
        <time>2017-12-30T22:41:07Z</time>
      </trkpt>
      <trkpt lat="45.4349" lon="5.48835">
        <ele>571.6</ele>
        <time>2017-12-30T22:41:10Z</time>
      </trkpt>
      <trkpt lat="45.43485" lon="5.48839">
        <ele>571.4</ele>
        <time>2017-12-30T22:41:14Z</time>
      </trkpt>
      <trkpt lat="45.43481" lon="5.48844">
        <ele>571.3</ele>
        <time>2017-12-30T22:41:17Z</time>
      </trkpt>
      <trkpt lat="45.43476" lon="5.48849">
        <ele>571.1</ele>
        <time>2017-12-30T22:41:20Z</time>
      </trkpt>
      <trkpt lat="45.43472" lon="5.48853">
        <ele>571</ele>
        <time>2017-12-30T22:41:23Z</time>
      </trkpt>
      <trkpt lat="45.43467" lon="5.48859">
        <ele>570.9</ele>
        <time>2017-12-30T22:41:27Z</time>
      </trkpt>
      <trkpt lat="45.43463" lon="5.48864">
        <ele>570.8</ele>
        <time>2017-12-30T22:41:30Z</time>
      </trkpt>
      <trkpt lat="45.43458" lon="5.48869">
        <ele>570.7</ele>
        <time>2017-12-30T22:41:33Z</time>
      </trkpt>
      <trkpt lat="45.43453" lon="5.48873">
        <ele>570.6</ele>
        <time>2017-12-30T22:41:36Z</time>
      </trkpt>
      <trkpt lat="45.43447" lon="5.48877">
        <ele>570.6</ele>
        <time>2017-12-30T22:41:40Z</time>
      </trkpt>
      <trkpt lat="45.43441" lon="5.4888">
        <ele>570.5</ele>
        <time>2017-12-30T22:41:44Z</time>
      </trkpt>
      <trkpt lat="45.43436" lon="5.48884">
        <ele>570.5</ele>
        <time>2017-12-30T22:41:47Z</time>
      </trkpt>
      <trkpt lat="45.4343" lon="5.48888">
        <ele>570.5</ele>
        <time>2017-12-30T22:41:51Z</time>
      </trkpt>
      <trkpt lat="45.43425" lon="5.48892">
        <ele>570.5</ele>
        <time>2017-12-30T22:41:54Z</time>
      </trkpt>
      <trkpt lat="45.43419" lon="5.48897">
        <ele>570.5</ele>
        <time>2017-12-30T22:41:58Z</time>
      </trkpt>
      <trkpt lat="45.43414" lon="5.48902">
        <ele>570.6</ele>
        <time>2017-12-30T22:42:02Z</time>
      </trkpt>
      <trkpt lat="45.43409" lon="5.48907">
        <ele>570.6</ele>
        <time>2017-12-30T22:42:05Z</time>
      </trkpt>
      <trkpt lat="45.43403" lon="5.48911">
        <ele>570.5</ele>
        <time>2017-12-30T22:42:09Z</time>
      </trkpt>
      <trkpt lat="45.43398" lon="5.48916">
        <ele>570.5</ele>
        <time>2017-12-30T22:42:12Z</time>
      </trkpt>
      <trkpt lat="45.43393" lon="5.48921">
        <ele>570.5</ele>
        <time>2017-12-30T22:42:16Z</time>
      </trkpt>
      <trkpt lat="45.43388" lon="5.48926">
        <ele>570.5</ele>
        <time>2017-12-30T22:42:19Z</time>
      </trkpt>
      <trkpt lat="45.43382" lon="5.48931">
        <ele>570.5</ele>
        <time>2017-12-30T22:42:23Z</time>
      </trkpt>
      <trkpt lat="45.43377" lon="5.48936">
        <ele>570.5</ele>
        <time>2017-12-30T22:42:27Z</time>
      </trkpt>
      <trkpt lat="45.43372" lon="5.4894">
        <ele>570.5</ele>
        <time>2017-12-30T22:42:30Z</time>
      </trkpt>
      <trkpt lat="45.43367" lon="5.48945">
        <ele>570.5</ele>
        <time>2017-12-30T22:42:34Z</time>
      </trkpt>
      <trkpt lat="45.43362" lon="5.4895">
        <ele>570.6</ele>
        <time>2017-12-30T22:42:37Z</time>
      </trkpt>
      <trkpt lat="45.43357" lon="5.48955">
        <ele>570.7</ele>
        <time>2017-12-30T22:42:41Z</time>
      </trkpt>
      <trkpt lat="45.43352" lon="5.4896">
        <ele>570.8</ele>
        <time>2017-12-30T22:42:44Z</time>
      </trkpt>
      <trkpt lat="45.43347" lon="5.48965">
        <ele>570.9</ele>
        <time>2017-12-30T22:42:48Z</time>
      </trkpt>
      <trkpt lat="45.43342" lon="5.48969">
        <ele>570.9</ele>
        <time>2017-12-30T22:42:51Z</time>
      </trkpt>
      <trkpt lat="45.43337" lon="5.48974">
        <ele>571.1</ele>
        <time>2017-12-30T22:42:54Z</time>
      </trkpt>
      <trkpt lat="45.43332" lon="5.48979">
        <ele>571.2</ele>
        <time>2017-12-30T22:42:58Z</time>
      </trkpt>
      <trkpt lat="45.43328" lon="5.48985">
        <ele>571.4</ele>
        <time>2017-12-30T22:43:01Z</time>
      </trkpt>
      <trkpt lat="45.43323" lon="5.4899">
        <ele>571.5</ele>
        <time>2017-12-30T22:43:05Z</time>
      </trkpt>
      <trkpt lat="45.43318" lon="5.48995">
        <ele>571.6</ele>
        <time>2017-12-30T22:43:08Z</time>
      </trkpt>
      <trkpt lat="45.43313" lon="5.49">
        <ele>571.7</ele>
        <time>2017-12-30T22:43:12Z</time>
      </trkpt>
      <trkpt lat="45.43308" lon="5.49005">
        <ele>571.8</ele>
        <time>2017-12-30T22:43:15Z</time>
      </trkpt>
      <trkpt lat="45.43303" lon="5.4901">
        <ele>571.8</ele>
        <time>2017-12-30T22:43:19Z</time>
      </trkpt>
      <trkpt lat="45.43298" lon="5.49014">
        <ele>571.7</ele>
        <time>2017-12-30T22:43:22Z</time>
      </trkpt>
      <trkpt lat="45.43293" lon="5.49019">
        <ele>571.7</ele>
        <time>2017-12-30T22:43:25Z</time>
      </trkpt>
      <trkpt lat="45.43288" lon="5.49023">
        <ele>571.7</ele>
        <time>2017-12-30T22:43:29Z</time>
      </trkpt>
      <trkpt lat="45.43283" lon="5.49028">
        <ele>571.7</ele>
        <time>2017-12-30T22:43:32Z</time>
      </trkpt>
      <trkpt lat="45.43278" lon="5.49033">
        <ele>571.7</ele>
        <time>2017-12-30T22:43:36Z</time>
      </trkpt>
      <trkpt lat="45.43273" lon="5.49038">
        <ele>571.7</ele>
        <time>2017-12-30T22:43:39Z</time>
      </trkpt>
      <trkpt lat="45.43268" lon="5.49042">
        <ele>571.7</ele>
        <time>2017-12-30T22:43:43Z</time>
      </trkpt>
      <trkpt lat="45.43263" lon="5.49047">
        <ele>571.7</ele>
        <time>2017-12-30T22:43:46Z</time>
      </trkpt>
      <trkpt lat="45.43258" lon="5.49052">
        <ele>571.7</ele>
        <time>2017-12-30T22:43:50Z</time>
      </trkpt>
      <trkpt lat="45.43253" lon="5.49056">
        <ele>571.7</ele>
        <time>2017-12-30T22:43:53Z</time>
      </trkpt>
      <trkpt lat="45.43248" lon="5.49061">
        <ele>571.6</ele>
        <time>2017-12-30T22:43:56Z</time>
      </trkpt>
      <trkpt lat="45.43243" lon="5.49065">
        <ele>571.5</ele>
        <time>2017-12-30T22:44:00Z</time>
      </trkpt>
      <trkpt lat="45.43237" lon="5.49069">
        <ele>571.3</ele>
        <time>2017-12-30T22:44:03Z</time>
      </trkpt>
      <trkpt lat="45.43232" lon="5.49072">
        <ele>571.1</ele>
        <time>2017-12-30T22:44:06Z</time>
      </trkpt>
      <trkpt lat="45.43227" lon="5.49077">
        <ele>570.9</ele>
        <time>2017-12-30T22:44:10Z</time>
      </trkpt>
      <trkpt lat="45.43222" lon="5.49082">
        <ele>570.7</ele>
        <time>2017-12-30T22:44:13Z</time>
      </trkpt>
      <trkpt lat="45.43218" lon="5.49087">
        <ele>570.5</ele>
        <time>2017-12-30T22:44:16Z</time>
      </trkpt>
      <trkpt lat="45.43213" lon="5.49092">
        <ele>570.3</ele>
        <time>2017-12-30T22:44:20Z</time>
      </trkpt>
      <trkpt lat="45.43208" lon="5.49098">
        <ele>570.1</ele>
        <time>2017-12-30T22:44:24Z</time>
      </trkpt>
      <trkpt lat="45.43204" lon="5.49104">
        <ele>569.9</ele>
        <time>2017-12-30T22:44:27Z</time>
      </trkpt>
      <trkpt lat="45.43199" lon="5.4911">
        <ele>569.7</ele>
        <time>2017-12-30T22:44:31Z</time>
      </trkpt>
      <trkpt lat="45.43194" lon="5.49117">
        <ele>569.6</ele>
        <time>2017-12-30T22:44:35Z</time>
      </trkpt>
      <trkpt lat="45.4319" lon="5.49123">
        <ele>569.5</ele>
        <time>2017-12-30T22:44:38Z</time>
      </trkpt>
      <trkpt lat="45.43185" lon="5.49129">
        <ele>569.3</ele>
        <time>2017-12-30T22:44:42Z</time>
      </trkpt>
      <trkpt lat="45.4318" lon="5.49135">
        <ele>569.2</ele>
        <time>2017-12-30T22:44:46Z</time>
      </trkpt>
      <trkpt lat="45.43175" lon="5.4914">
        <ele>569</ele>
        <time>2017-12-30T22:44:49Z</time>
      </trkpt>
      <trkpt lat="45.4317" lon="5.49146">
        <ele>568.9</ele>
        <time>2017-12-30T22:44:53Z</time>
      </trkpt>
      <trkpt lat="45.43166" lon="5.49152">
        <ele>568.8</ele>
        <time>2017-12-30T22:44:56Z</time>
      </trkpt>
      <trkpt lat="45.43161" lon="5.49157">
        <ele>568.9</ele>
        <time>2017-12-30T22:45:00Z</time>
      </trkpt>
      <trkpt lat="45.43156" lon="5.49162">
        <ele>568.9</ele>
        <time>2017-12-30T22:45:03Z</time>
      </trkpt>
      <trkpt lat="45.43151" lon="5.49168">
        <ele>569</ele>
        <time>2017-12-30T22:45:07Z</time>
      </trkpt>
      <trkpt lat="45.43147" lon="5.49173">
        <ele>569.1</ele>
        <time>2017-12-30T22:45:10Z</time>
      </trkpt>
      <trkpt lat="45.43142" lon="5.49178">
        <ele>569.2</ele>
        <time>2017-12-30T22:45:13Z</time>
      </trkpt>
      <trkpt lat="45.43137" lon="5.49182">
        <ele>569.3</ele>
        <time>2017-12-30T22:45:17Z</time>
      </trkpt>
      <trkpt lat="45.43133" lon="5.49186">
        <ele>569.4</ele>
        <time>2017-12-30T22:45:19Z</time>
      </trkpt>
      <trkpt lat="45.43129" lon="5.4919">
        <ele>569.4</ele>
        <time>2017-12-30T22:45:22Z</time>
      </trkpt>
      <trkpt lat="45.43122" lon="5.49198">
        <ele>569.5</ele>
        <time>2017-12-30T22:45:27Z</time>
      </trkpt>
      <trkpt lat="45.43115" lon="5.49205">
        <ele>569.6</ele>
        <time>2017-12-30T22:45:32Z</time>
      </trkpt>
      <trkpt lat="45.43112" lon="5.49209">
        <ele>569.7</ele>
        <time>2017-12-30T22:45:35Z</time>
      </trkpt>
      <trkpt lat="45.43108" lon="5.49214">
        <ele>569.7</ele>
        <time>2017-12-30T22:45:38Z</time>
      </trkpt>
      <trkpt lat="45.43103" lon="5.49218">
        <ele>569.8</ele>
        <time>2017-12-30T22:45:41Z</time>
      </trkpt>
      <trkpt lat="45.43099" lon="5.49223">
        <ele>569.8</ele>
        <time>2017-12-30T22:45:44Z</time>
      </trkpt>
      <trkpt lat="45.43094" lon="5.49228">
        <ele>569.8</ele>
        <time>2017-12-30T22:45:47Z</time>
      </trkpt>
      <trkpt lat="45.4309" lon="5.49232">
        <ele>569.8</ele>
        <time>2017-12-30T22:45:50Z</time>
      </trkpt>
      <trkpt lat="45.43087" lon="5.49237">
        <ele>569.9</ele>
        <time>2017-12-30T22:45:53Z</time>
      </trkpt>
      <trkpt lat="45.43083" lon="5.49241">
        <ele>569.9</ele>
        <time>2017-12-30T22:45:56Z</time>
      </trkpt>
      <trkpt lat="45.43079" lon="5.49245">
        <ele>569.9</ele>
        <time>2017-12-30T22:45:58Z</time>
      </trkpt>
      <trkpt lat="45.43076" lon="5.4925">
        <ele>570</ele>
        <time>2017-12-30T22:46:01Z</time>
      </trkpt>
      <trkpt lat="45.43072" lon="5.49254">
        <ele>570.1</ele>
        <time>2017-12-30T22:46:04Z</time>
      </trkpt>
      <trkpt lat="45.43068" lon="5.49259">
        <ele>570.3</ele>
        <time>2017-12-30T22:46:07Z</time>
      </trkpt>
      <trkpt lat="45.43064" lon="5.49263">
        <ele>570.5</ele>
        <time>2017-12-30T22:46:10Z</time>
      </trkpt>
      <trkpt lat="45.4306" lon="5.49268">
        <ele>570.6</ele>
        <time>2017-12-30T22:46:13Z</time>
      </trkpt>
      <trkpt lat="45.43056" lon="5.49273">
        <ele>570.8</ele>
        <time>2017-12-30T22:46:16Z</time>
      </trkpt>
      <trkpt lat="45.43052" lon="5.49278">
        <ele>571</ele>
        <time>2017-12-30T22:46:19Z</time>
      </trkpt>
      <trkpt lat="45.43048" lon="5.49282">
        <ele>571.1</ele>
        <time>2017-12-30T22:46:22Z</time>
      </trkpt>
      <trkpt lat="45.43044" lon="5.49287">
        <ele>571.3</ele>
        <time>2017-12-30T22:46:25Z</time>
      </trkpt>
      <trkpt lat="45.4304" lon="5.49291">
        <ele>571.5</ele>
        <time>2017-12-30T22:46:28Z</time>
      </trkpt>
      <trkpt lat="45.43036" lon="5.49296">
        <ele>571.6</ele>
        <time>2017-12-30T22:46:31Z</time>
      </trkpt>
      <trkpt lat="45.43032" lon="5.49301">
        <ele>571.8</ele>
        <time>2017-12-30T22:46:34Z</time>
      </trkpt>
      <trkpt lat="45.43027" lon="5.49305">
        <ele>572</ele>
        <time>2017-12-30T22:46:37Z</time>
      </trkpt>
      <trkpt lat="45.43023" lon="5.49309">
        <ele>572.1</ele>
        <time>2017-12-30T22:46:40Z</time>
      </trkpt>
      <trkpt lat="45.43019" lon="5.49313">
        <ele>572.2</ele>
        <time>2017-12-30T22:46:42Z</time>
      </trkpt>
      <trkpt lat="45.43015" lon="5.49318">
        <ele>572.4</ele>
        <time>2017-12-30T22:46:46Z</time>
      </trkpt>
      <trkpt lat="45.43011" lon="5.49322">
        <ele>572.6</ele>
        <time>2017-12-30T22:46:48Z</time>
      </trkpt>
      <trkpt lat="45.43007" lon="5.49327">
        <ele>572.8</ele>
        <time>2017-12-30T22:46:51Z</time>
      </trkpt>
      <trkpt lat="45.43002" lon="5.49331">
        <ele>572.9</ele>
        <time>2017-12-30T22:46:55Z</time>
      </trkpt>
      <trkpt lat="45.42998" lon="5.49335">
        <ele>573</ele>
        <time>2017-12-30T22:46:57Z</time>
      </trkpt>
      <trkpt lat="45.42993" lon="5.49339">
        <ele>572.9</ele>
        <time>2017-12-30T22:47:01Z</time>
      </trkpt>
      <trkpt lat="45.42988" lon="5.49342">
        <ele>572.8</ele>
        <time>2017-12-30T22:47:04Z</time>
      </trkpt>
      <trkpt lat="45.42983" lon="5.49345">
        <ele>572.7</ele>
        <time>2017-12-30T22:47:07Z</time>
      </trkpt>
      <trkpt lat="45.42978" lon="5.49348">
        <ele>572.6</ele>
        <time>2017-12-30T22:47:10Z</time>
      </trkpt>
      <trkpt lat="45.42974" lon="5.49351">
        <ele>572.6</ele>
        <time>2017-12-30T22:47:13Z</time>
      </trkpt>
      <trkpt lat="45.42969" lon="5.49354">
        <ele>572.5</ele>
        <time>2017-12-30T22:47:16Z</time>
      </trkpt>
      <trkpt lat="45.42964" lon="5.49357">
        <ele>572.4</ele>
        <time>2017-12-30T22:47:19Z</time>
      </trkpt>
      <trkpt lat="45.42959" lon="5.4936">
        <ele>572.3</ele>
        <time>2017-12-30T22:47:22Z</time>
      </trkpt>
      <trkpt lat="45.42954" lon="5.49363">
        <ele>572.2</ele>
        <time>2017-12-30T22:47:25Z</time>
      </trkpt>
      <trkpt lat="45.42949" lon="5.49367">
        <ele>572.2</ele>
        <time>2017-12-30T22:47:28Z</time>
      </trkpt>
      <trkpt lat="45.42944" lon="5.4937">
        <ele>572.1</ele>
        <time>2017-12-30T22:47:31Z</time>
      </trkpt>
      <trkpt lat="45.4294" lon="5.49373">
        <ele>572</ele>
        <time>2017-12-30T22:47:34Z</time>
      </trkpt>
      <trkpt lat="45.42935" lon="5.49377">
        <ele>572</ele>
        <time>2017-12-30T22:47:37Z</time>
      </trkpt>
      <trkpt lat="45.4293" lon="5.4938">
        <ele>571.9</ele>
        <time>2017-12-30T22:47:40Z</time>
      </trkpt>
      <trkpt lat="45.42925" lon="5.49383">
        <ele>571.8</ele>
        <time>2017-12-30T22:47:43Z</time>
      </trkpt>
      <trkpt lat="45.4292" lon="5.49386">
        <ele>571.7</ele>
        <time>2017-12-30T22:47:47Z</time>
      </trkpt>
      <trkpt lat="45.42915" lon="5.49389">
        <ele>571.7</ele>
        <time>2017-12-30T22:47:50Z</time>
      </trkpt>
      <trkpt lat="45.4291" lon="5.49392">
        <ele>571.8</ele>
        <time>2017-12-30T22:47:53Z</time>
      </trkpt>
      <trkpt lat="45.42906" lon="5.49395">
        <ele>571.9</ele>
        <time>2017-12-30T22:47:55Z</time>
      </trkpt>
      <trkpt lat="45.42901" lon="5.49398">
        <ele>572</ele>
        <time>2017-12-30T22:47:58Z</time>
      </trkpt>
      <trkpt lat="45.42896" lon="5.49401">
        <ele>572.1</ele>
        <time>2017-12-30T22:48:02Z</time>
      </trkpt>
      <trkpt lat="45.42892" lon="5.49403">
        <ele>572.1</ele>
        <time>2017-12-30T22:48:04Z</time>
      </trkpt>
      <trkpt lat="45.42887" lon="5.49405">
        <ele>572.2</ele>
        <time>2017-12-30T22:48:07Z</time>
      </trkpt>
      <trkpt lat="45.42883" lon="5.49408">
        <ele>572.3</ele>
        <time>2017-12-30T22:48:10Z</time>
      </trkpt>
      <trkpt lat="45.42875" lon="5.49413">
        <ele>572.4</ele>
        <time>2017-12-30T22:48:15Z</time>
      </trkpt>
      <trkpt lat="45.42869" lon="5.49418">
        <ele>572.6</ele>
        <time>2017-12-30T22:48:18Z</time>
      </trkpt>
      <trkpt lat="45.42864" lon="5.49421">
        <ele>572.7</ele>
        <time>2017-12-30T22:48:22Z</time>
      </trkpt>
      <trkpt lat="45.42858" lon="5.49425">
        <ele>572.8</ele>
        <time>2017-12-30T22:48:25Z</time>
      </trkpt>
      <trkpt lat="45.42856" lon="5.49427">
        <ele>572.8</ele>
        <time>2017-12-30T22:48:27Z</time>
      </trkpt>
      <trkpt lat="45.42846" lon="5.49434">
        <ele>572.9</ele>
        <time>2017-12-30T22:48:33Z</time>
      </trkpt>
      <trkpt lat="45.4284" lon="5.49438">
        <ele>573</ele>
        <time>2017-12-30T22:48:37Z</time>
      </trkpt>
      <trkpt lat="45.42832" lon="5.49443">
        <ele>573.1</ele>
        <time>2017-12-30T22:48:42Z</time>
      </trkpt>
      <trkpt lat="45.42825" lon="5.49447">
        <ele>573.5</ele>
        <time>2017-12-30T22:48:46Z</time>
      </trkpt>
      <trkpt lat="45.4282" lon="5.49455">
        <ele>573.8</ele>
        <time>2017-12-30T22:48:51Z</time>
      </trkpt>
      <trkpt lat="45.42821" lon="5.49465">
        <ele>573.8</ele>
        <time>2017-12-30T22:48:55Z</time>
      </trkpt>
      <trkpt lat="45.42827" lon="5.49469">
        <ele>573.4</ele>
        <time>2017-12-30T22:48:58Z</time>
      </trkpt>
      <trkpt lat="45.42833" lon="5.49472">
        <ele>573</ele>
        <time>2017-12-30T22:49:02Z</time>
      </trkpt>
      <trkpt lat="45.42841" lon="5.49475">
        <ele>573</ele>
        <time>2017-12-30T22:49:07Z</time>
      </trkpt>
      <trkpt lat="45.42849" lon="5.49479">
        <ele>573.1</ele>
        <time>2017-12-30T22:49:12Z</time>
      </trkpt>
      <trkpt lat="45.42857" lon="5.49482">
        <ele>573.2</ele>
        <time>2017-12-30T22:49:16Z</time>
      </trkpt>
      <trkpt lat="45.42865" lon="5.49485">
        <ele>573.2</ele>
        <time>2017-12-30T22:49:21Z</time>
      </trkpt>
      <trkpt lat="45.42874" lon="5.49489">
        <ele>573.4</ele>
        <time>2017-12-30T22:49:26Z</time>
      </trkpt>
      <trkpt lat="45.42878" lon="5.4949">
        <ele>573.4</ele>
        <time>2017-12-30T22:49:29Z</time>
      </trkpt>
      <trkpt lat="45.42883" lon="5.49493">
        <ele>573.5</ele>
        <time>2017-12-30T22:49:32Z</time>
      </trkpt>
      <trkpt lat="45.42887" lon="5.49495">
        <ele>573.6</ele>
        <time>2017-12-30T22:49:34Z</time>
      </trkpt>
      <trkpt lat="45.42892" lon="5.49498">
        <ele>573.7</ele>
        <time>2017-12-30T22:49:37Z</time>
      </trkpt>
      <trkpt lat="45.42897" lon="5.49502">
        <ele>573.8</ele>
        <time>2017-12-30T22:49:41Z</time>
      </trkpt>
      <trkpt lat="45.42901" lon="5.49505">
        <ele>573.9</ele>
        <time>2017-12-30T22:49:43Z</time>
      </trkpt>
      <trkpt lat="45.42906" lon="5.49509">
        <ele>574.1</ele>
        <time>2017-12-30T22:49:47Z</time>
      </trkpt>
      <trkpt lat="45.42911" lon="5.49514">
        <ele>574.3</ele>
        <time>2017-12-30T22:49:50Z</time>
      </trkpt>
      <trkpt lat="45.42915" lon="5.49518">
        <ele>574.4</ele>
        <time>2017-12-30T22:49:53Z</time>
      </trkpt>
      <trkpt lat="45.42919" lon="5.49523">
        <ele>574.6</ele>
        <time>2017-12-30T22:49:56Z</time>
      </trkpt>
      <trkpt lat="45.42924" lon="5.49528">
        <ele>574.8</ele>
        <time>2017-12-30T22:49:59Z</time>
      </trkpt>
      <trkpt lat="45.42927" lon="5.49534">
        <ele>574.9</ele>
        <time>2017-12-30T22:50:02Z</time>
      </trkpt>
      <trkpt lat="45.4293" lon="5.4954">
        <ele>575.1</ele>
        <time>2017-12-30T22:50:05Z</time>
      </trkpt>
      <trkpt lat="45.42933" lon="5.49547">
        <ele>575.3</ele>
        <time>2017-12-30T22:50:09Z</time>
      </trkpt>
      <trkpt lat="45.42935" lon="5.49554">
        <ele>575.5</ele>
        <time>2017-12-30T22:50:12Z</time>
      </trkpt>
      <trkpt lat="45.42937" lon="5.49561">
        <ele>575.7</ele>
        <time>2017-12-30T22:50:15Z</time>
      </trkpt>
      <trkpt lat="45.42939" lon="5.49568">
        <ele>575.9</ele>
        <time>2017-12-30T22:50:18Z</time>
      </trkpt>
      <trkpt lat="45.42941" lon="5.49575">
        <ele>576.1</ele>
        <time>2017-12-30T22:50:21Z</time>
      </trkpt>
      <trkpt lat="45.42943" lon="5.49581">
        <ele>576.3</ele>
        <time>2017-12-30T22:50:23Z</time>
      </trkpt>
      <trkpt lat="45.42945" lon="5.49587">
        <ele>576.4</ele>
        <time>2017-12-30T22:50:26Z</time>
      </trkpt>
      <trkpt lat="45.42947" lon="5.49593">
        <ele>576.5</ele>
        <time>2017-12-30T22:50:29Z</time>
      </trkpt>
      <trkpt lat="45.42951" lon="5.49604">
        <ele>576.7</ele>
        <time>2017-12-30T22:50:34Z</time>
      </trkpt>
      <trkpt lat="45.42954" lon="5.49614">
        <ele>576.8</ele>
        <time>2017-12-30T22:50:38Z</time>
      </trkpt>
      <trkpt lat="45.42959" lon="5.49623">
        <ele>577</ele>
        <time>2017-12-30T22:50:43Z</time>
      </trkpt>
      <trkpt lat="45.42964" lon="5.49632">
        <ele>577.1</ele>
        <time>2017-12-30T22:50:47Z</time>
      </trkpt>
      <trkpt lat="45.42967" lon="5.49636">
        <ele>577.1</ele>
        <time>2017-12-30T22:50:50Z</time>
      </trkpt>
      <trkpt lat="45.42975" lon="5.49644">
        <ele>577.1</ele>
        <time>2017-12-30T22:50:55Z</time>
      </trkpt>
      <trkpt lat="45.42981" lon="5.49653">
        <ele>577.1</ele>
        <time>2017-12-30T22:51:00Z</time>
      </trkpt>
      <trkpt lat="45.42987" lon="5.49662">
        <ele>577.1</ele>
        <time>2017-12-30T22:51:05Z</time>
      </trkpt>
      <trkpt lat="45.42992" lon="5.49668">
        <ele>577.1</ele>
        <time>2017-12-30T22:51:09Z</time>
      </trkpt>
      <trkpt lat="45.42998" lon="5.49676">
        <ele>577</ele>
        <time>2017-12-30T22:51:14Z</time>
      </trkpt>
      <trkpt lat="45.43003" lon="5.49682">
        <ele>577.1</ele>
        <time>2017-12-30T22:51:17Z</time>
      </trkpt>
      <trkpt lat="45.43009" lon="5.49688">
        <ele>577.4</ele>
        <time>2017-12-30T22:51:22Z</time>
      </trkpt>
      <trkpt lat="45.43015" lon="5.49695">
        <ele>577.6</ele>
        <time>2017-12-30T22:51:26Z</time>
      </trkpt>
      <trkpt lat="45.43021" lon="5.49702">
        <ele>577.9</ele>
        <time>2017-12-30T22:51:30Z</time>
      </trkpt>
      <trkpt lat="45.43027" lon="5.4971">
        <ele>578.1</ele>
        <time>2017-12-30T22:51:35Z</time>
      </trkpt>
      <trkpt lat="45.43034" lon="5.49717">
        <ele>578.5</ele>
        <time>2017-12-30T22:51:40Z</time>
      </trkpt>
      <trkpt lat="45.4304" lon="5.49725">
        <ele>578.8</ele>
        <time>2017-12-30T22:51:45Z</time>
      </trkpt>
      <trkpt lat="45.43046" lon="5.49731">
        <ele>579.1</ele>
        <time>2017-12-30T22:51:49Z</time>
      </trkpt>
      <trkpt lat="45.43051" lon="5.49737">
        <ele>579.4</ele>
        <time>2017-12-30T22:51:53Z</time>
      </trkpt>
      <trkpt lat="45.43058" lon="5.49745">
        <ele>579.7</ele>
        <time>2017-12-30T22:51:58Z</time>
      </trkpt>
      <trkpt lat="45.43061" lon="5.4975">
        <ele>579.9</ele>
        <time>2017-12-30T22:52:00Z</time>
      </trkpt>
      <trkpt lat="45.43065" lon="5.49755">
        <ele>580.2</ele>
        <time>2017-12-30T22:52:03Z</time>
      </trkpt>
      <trkpt lat="45.43069" lon="5.4976">
        <ele>580.4</ele>
        <time>2017-12-30T22:52:06Z</time>
      </trkpt>
      <trkpt lat="45.43073" lon="5.49766">
        <ele>580.7</ele>
        <time>2017-12-30T22:52:10Z</time>
      </trkpt>
      <trkpt lat="45.43077" lon="5.49771">
        <ele>580.9</ele>
        <time>2017-12-30T22:52:13Z</time>
      </trkpt>
      <trkpt lat="45.43081" lon="5.49776">
        <ele>581.2</ele>
        <time>2017-12-30T22:52:16Z</time>
      </trkpt>
      <trkpt lat="45.43085" lon="5.49781">
        <ele>581.3</ele>
        <time>2017-12-30T22:52:19Z</time>
      </trkpt>
      <trkpt lat="45.43088" lon="5.49786">
        <ele>581.3</ele>
        <time>2017-12-30T22:52:22Z</time>
      </trkpt>
      <trkpt lat="45.43088" lon="5.49786">
        <ele>581.3</ele>
        <time>2017-12-30T22:52:22Z</time>
      </trkpt>
      <trkpt lat="45.43091" lon="5.49792">
        <ele>581.4</ele>
        <time>2017-12-30T22:52:24Z</time>
      </trkpt>
      <trkpt lat="45.43094" lon="5.49797">
        <ele>581.4</ele>
        <time>2017-12-30T22:52:27Z</time>
      </trkpt>
      <trkpt lat="45.43097" lon="5.49808">
        <ele>581.5</ele>
        <time>2017-12-30T22:52:32Z</time>
      </trkpt>
      <trkpt lat="45.43099" lon="5.49819">
        <ele>581.6</ele>
        <time>2017-12-30T22:52:36Z</time>
      </trkpt>
      <trkpt lat="45.43101" lon="5.49829">
        <ele>581.7</ele>
        <time>2017-12-30T22:52:41Z</time>
      </trkpt>
      <trkpt lat="45.43104" lon="5.49838">
        <ele>581.5</ele>
        <time>2017-12-30T22:52:45Z</time>
      </trkpt>
      <trkpt lat="45.43105" lon="5.49843">
        <ele>581.3</ele>
        <time>2017-12-30T22:52:47Z</time>
      </trkpt>
      <trkpt lat="45.4311" lon="5.49857">
        <ele>580.6</ele>
        <time>2017-12-30T22:52:53Z</time>
      </trkpt>
      <trkpt lat="45.43115" lon="5.49864">
        <ele>580.2</ele>
        <time>2017-12-30T22:52:57Z</time>
      </trkpt>
      <trkpt lat="45.43121" lon="5.49868">
        <ele>580.1</ele>
        <time>2017-12-30T22:53:01Z</time>
      </trkpt>
      <trkpt lat="45.43128" lon="5.49869">
        <ele>580</ele>
        <time>2017-12-30T22:53:05Z</time>
      </trkpt>
      <trkpt lat="45.43134" lon="5.49868">
        <ele>580.1</ele>
        <time>2017-12-30T22:53:08Z</time>
      </trkpt>
      <trkpt lat="45.4314" lon="5.49866">
        <ele>580.2</ele>
        <time>2017-12-30T22:53:12Z</time>
      </trkpt>
      <trkpt lat="45.43147" lon="5.49866">
        <ele>580.2</ele>
        <time>2017-12-30T22:53:16Z</time>
      </trkpt>
      <trkpt lat="45.43154" lon="5.49865">
        <ele>580.2</ele>
        <time>2017-12-30T22:53:20Z</time>
      </trkpt>
      <trkpt lat="45.43161" lon="5.49866">
        <ele>580.2</ele>
        <time>2017-12-30T22:53:24Z</time>
      </trkpt>
      <trkpt lat="45.43169" lon="5.49865">
        <ele>580.1</ele>
        <time>2017-12-30T22:53:28Z</time>
      </trkpt>
      <trkpt lat="45.43177" lon="5.49861">
        <ele>579.6</ele>
        <time>2017-12-30T22:53:33Z</time>
      </trkpt>
      <trkpt lat="45.43184" lon="5.49856">
        <ele>579.2</ele>
        <time>2017-12-30T22:53:38Z</time>
      </trkpt>
      <trkpt lat="45.43193" lon="5.49854">
        <ele>578.6</ele>
        <time>2017-12-30T22:53:43Z</time>
      </trkpt>
      <trkpt lat="45.43198" lon="5.49864">
        <ele>578.2</ele>
        <time>2017-12-30T22:53:48Z</time>
      </trkpt>
      <trkpt lat="45.43201" lon="5.49873">
        <ele>577.9</ele>
        <time>2017-12-30T22:53:52Z</time>
      </trkpt>
      <trkpt lat="45.43202" lon="5.49879">
        <ele>577.9</ele>
        <time>2017-12-30T22:53:54Z</time>
      </trkpt>
      <trkpt lat="45.43204" lon="5.49886">
        <ele>577.7</ele>
        <time>2017-12-30T22:53:57Z</time>
      </trkpt>
      <trkpt lat="45.43204" lon="5.49894">
        <ele>577.7</ele>
        <time>2017-12-30T22:54:01Z</time>
      </trkpt>
      <trkpt lat="45.43205" lon="5.49902">
        <ele>577.6</ele>
        <time>2017-12-30T22:54:04Z</time>
      </trkpt>
      <trkpt lat="45.43205" lon="5.49911">
        <ele>577.6</ele>
        <time>2017-12-30T22:54:07Z</time>
      </trkpt>
      <trkpt lat="45.43206" lon="5.49921">
        <ele>577.4</ele>
        <time>2017-12-30T22:54:12Z</time>
      </trkpt>
      <trkpt lat="45.43206" lon="5.49931">
        <ele>577.1</ele>
        <time>2017-12-30T22:54:16Z</time>
      </trkpt>
      <trkpt lat="45.43207" lon="5.49941">
        <ele>576.7</ele>
        <time>2017-12-30T22:54:20Z</time>
      </trkpt>
      <trkpt lat="45.43208" lon="5.49952">
        <ele>576.2</ele>
        <time>2017-12-30T22:54:24Z</time>
      </trkpt>
      <trkpt lat="45.43208" lon="5.49962">
        <ele>575.9</ele>
        <time>2017-12-30T22:54:28Z</time>
      </trkpt>
      <trkpt lat="45.43209" lon="5.49972">
        <ele>575.5</ele>
        <time>2017-12-30T22:54:32Z</time>
      </trkpt>
      <trkpt lat="45.4321" lon="5.49982">
        <ele>575.1</ele>
        <time>2017-12-30T22:54:36Z</time>
      </trkpt>
      <trkpt lat="45.43211" lon="5.49993">
        <ele>574.7</ele>
        <time>2017-12-30T22:54:41Z</time>
      </trkpt>
      <trkpt lat="45.43212" lon="5.50005">
        <ele>574.2</ele>
        <time>2017-12-30T22:54:45Z</time>
      </trkpt>
      <trkpt lat="45.43213" lon="5.50016">
        <ele>573.7</ele>
        <time>2017-12-30T22:54:50Z</time>
      </trkpt>
      <trkpt lat="45.43214" lon="5.50028">
        <ele>573.2</ele>
        <time>2017-12-30T22:54:55Z</time>
      </trkpt>
      <trkpt lat="45.43216" lon="5.50039">
        <ele>572.7</ele>
        <time>2017-12-30T22:54:59Z</time>
      </trkpt>
      <trkpt lat="45.43218" lon="5.50051">
        <ele>572.2</ele>
        <time>2017-12-30T22:55:04Z</time>
      </trkpt>
      <trkpt lat="45.4322" lon="5.50063">
        <ele>571.8</ele>
        <time>2017-12-30T22:55:09Z</time>
      </trkpt>
      <trkpt lat="45.43222" lon="5.50076">
        <ele>571.3</ele>
        <time>2017-12-30T22:55:15Z</time>
      </trkpt>
      <trkpt lat="45.43223" lon="5.50088">
        <ele>570.5</ele>
        <time>2017-12-30T22:55:19Z</time>
      </trkpt>
      <trkpt lat="45.43224" lon="5.50099">
        <ele>569.1</ele>
        <time>2017-12-30T22:55:24Z</time>
      </trkpt>
      <trkpt lat="45.43225" lon="5.5011">
        <ele>567.7</ele>
        <time>2017-12-30T22:55:28Z</time>
      </trkpt>
      <trkpt lat="45.43226" lon="5.5012">
        <ele>566.4</ele>
        <time>2017-12-30T22:55:32Z</time>
      </trkpt>
      <trkpt lat="45.43227" lon="5.5013">
        <ele>565.1</ele>
        <time>2017-12-30T22:55:36Z</time>
      </trkpt>
      <trkpt lat="45.43228" lon="5.50139">
        <ele>564</ele>
        <time>2017-12-30T22:55:40Z</time>
      </trkpt>
      <trkpt lat="45.43228" lon="5.50146">
        <ele>563</ele>
        <time>2017-12-30T22:55:43Z</time>
      </trkpt>
      <trkpt lat="45.43225" lon="5.50157">
        <ele>561.6</ele>
        <time>2017-12-30T22:55:48Z</time>
      </trkpt>
      <trkpt lat="45.4322" lon="5.50161">
        <ele>561.1</ele>
        <time>2017-12-30T22:55:51Z</time>
      </trkpt>
      <trkpt lat="45.43214" lon="5.50162">
        <ele>561.1</ele>
        <time>2017-12-30T22:55:54Z</time>
      </trkpt>
      <trkpt lat="45.43209" lon="5.50164">
        <ele>560.9</ele>
        <time>2017-12-30T22:55:57Z</time>
      </trkpt>
      <trkpt lat="45.43204" lon="5.50168">
        <ele>560.4</ele>
        <time>2017-12-30T22:56:01Z</time>
      </trkpt>
      <trkpt lat="45.43201" lon="5.50175">
        <ele>559.6</ele>
        <time>2017-12-30T22:56:04Z</time>
      </trkpt>
      <trkpt lat="45.43199" lon="5.50181">
        <ele>558.9</ele>
        <time>2017-12-30T22:56:07Z</time>
      </trkpt>
      <trkpt lat="45.43198" lon="5.50189">
        <ele>557.9</ele>
        <time>2017-12-30T22:56:10Z</time>
      </trkpt>
      <trkpt lat="45.43196" lon="5.50198">
        <ele>556.8</ele>
        <time>2017-12-30T22:56:14Z</time>
      </trkpt>
      <trkpt lat="45.43194" lon="5.50207">
        <ele>555.7</ele>
        <time>2017-12-30T22:56:17Z</time>
      </trkpt>
      <trkpt lat="45.43191" lon="5.50215">
        <ele>554.7</ele>
        <time>2017-12-30T22:56:21Z</time>
      </trkpt>
      <trkpt lat="45.43187" lon="5.50224">
        <ele>553.6</ele>
        <time>2017-12-30T22:56:25Z</time>
      </trkpt>
      <trkpt lat="45.43183" lon="5.50235">
        <ele>552.2</ele>
        <time>2017-12-30T22:56:30Z</time>
      </trkpt>
      <trkpt lat="45.43179" lon="5.50246">
        <ele>550.7</ele>
        <time>2017-12-30T22:56:35Z</time>
      </trkpt>
      <trkpt lat="45.43175" lon="5.50257">
        <ele>549.8</ele>
        <time>2017-12-30T22:56:40Z</time>
      </trkpt>
      <trkpt lat="45.43172" lon="5.50268">
        <ele>549.2</ele>
        <time>2017-12-30T22:56:45Z</time>
      </trkpt>
      <trkpt lat="45.43169" lon="5.50279">
        <ele>548.7</ele>
        <time>2017-12-30T22:56:50Z</time>
      </trkpt>
      <trkpt lat="45.43167" lon="5.50291">
        <ele>548.1</ele>
        <time>2017-12-30T22:56:55Z</time>
      </trkpt>
      <trkpt lat="45.43165" lon="5.50302">
        <ele>547.7</ele>
        <time>2017-12-30T22:56:59Z</time>
      </trkpt>
      <trkpt lat="45.43165" lon="5.50314">
        <ele>547.1</ele>
        <time>2017-12-30T22:57:04Z</time>
      </trkpt>
      <trkpt lat="45.4317" lon="5.50322">
        <ele>546.6</ele>
        <time>2017-12-30T22:57:08Z</time>
      </trkpt>
      <trkpt lat="45.43175" lon="5.50328">
        <ele>546.4</ele>
        <time>2017-12-30T22:57:12Z</time>
      </trkpt>
      <trkpt lat="45.43183" lon="5.50333">
        <ele>546.2</ele>
        <time>2017-12-30T22:57:17Z</time>
      </trkpt>
      <trkpt lat="45.43189" lon="5.50338">
        <ele>546.8</ele>
        <time>2017-12-30T22:57:21Z</time>
      </trkpt>
      <trkpt lat="45.43196" lon="5.50345">
        <ele>547.7</ele>
        <time>2017-12-30T22:57:26Z</time>
      </trkpt>
      <trkpt lat="45.43203" lon="5.50352">
        <ele>548.5</ele>
        <time>2017-12-30T22:57:31Z</time>
      </trkpt>
      <trkpt lat="45.43204" lon="5.50353">
        <ele>548.6</ele>
        <time>2017-12-30T22:57:31Z</time>
      </trkpt>
      <trkpt lat="45.4321" lon="5.50359">
        <ele>549.2</ele>
        <time>2017-12-30T22:57:36Z</time>
      </trkpt>
      <trkpt lat="45.43218" lon="5.50363">
        <ele>549.5</ele>
        <time>2017-12-30T22:57:41Z</time>
      </trkpt>
      <trkpt lat="45.43226" lon="5.50369">
        <ele>550</ele>
        <time>2017-12-30T22:57:46Z</time>
      </trkpt>
      <trkpt lat="45.43233" lon="5.50374">
        <ele>550.3</ele>
        <time>2017-12-30T22:57:50Z</time>
      </trkpt>
      <trkpt lat="45.43241" lon="5.50381">
        <ele>550.7</ele>
        <time>2017-12-30T22:57:56Z</time>
      </trkpt>
      <trkpt lat="45.43247" lon="5.50388">
        <ele>551</ele>
        <time>2017-12-30T22:58:00Z</time>
      </trkpt>
      <trkpt lat="45.43253" lon="5.50396">
        <ele>551.5</ele>
        <time>2017-12-30T22:58:05Z</time>
      </trkpt>
      <trkpt lat="45.43258" lon="5.50406">
        <ele>552.2</ele>
        <time>2017-12-30T22:58:10Z</time>
      </trkpt>
      <trkpt lat="45.4326" lon="5.50416">
        <ele>552.9</ele>
        <time>2017-12-30T22:58:14Z</time>
      </trkpt>
      <trkpt lat="45.43261" lon="5.50428">
        <ele>553.7</ele>
        <time>2017-12-30T22:58:19Z</time>
      </trkpt>
      <trkpt lat="45.43262" lon="5.50441">
        <ele>554.6</ele>
        <time>2017-12-30T22:58:24Z</time>
      </trkpt>
      <trkpt lat="45.43261" lon="5.50444">
        <ele>554.8</ele>
        <time>2017-12-30T22:58:25Z</time>
      </trkpt>
      <trkpt lat="45.43261" lon="5.50462">
        <ele>556</ele>
        <time>2017-12-30T22:58:32Z</time>
      </trkpt>
      <trkpt lat="45.43259" lon="5.50472">
        <ele>556.7</ele>
        <time>2017-12-30T22:58:37Z</time>
      </trkpt>
      <trkpt lat="45.43253" lon="5.50481">
        <ele>557.5</ele>
        <time>2017-12-30T22:58:42Z</time>
      </trkpt>
      <trkpt lat="45.43248" lon="5.50489">
        <ele>558.3</ele>
        <time>2017-12-30T22:58:46Z</time>
      </trkpt>
      <trkpt lat="45.43243" lon="5.50497">
        <ele>559.2</ele>
        <time>2017-12-30T22:58:50Z</time>
      </trkpt>
      <trkpt lat="45.43239" lon="5.50508">
        <ele>560</ele>
        <time>2017-12-30T22:58:55Z</time>
      </trkpt>
      <trkpt lat="45.43235" lon="5.50519">
        <ele>560.5</ele>
        <time>2017-12-30T22:59:00Z</time>
      </trkpt>
      <trkpt lat="45.43231" lon="5.50531">
        <ele>561</ele>
        <time>2017-12-30T22:59:05Z</time>
      </trkpt>
      <trkpt lat="45.43227" lon="5.50542">
        <ele>561.5</ele>
        <time>2017-12-30T22:59:10Z</time>
      </trkpt>
      <trkpt lat="45.43224" lon="5.50551">
        <ele>561.9</ele>
        <time>2017-12-30T22:59:14Z</time>
      </trkpt>
      <trkpt lat="45.43222" lon="5.50564">
        <ele>562.3</ele>
        <time>2017-12-30T22:59:20Z</time>
      </trkpt>
      <trkpt lat="45.43221" lon="5.50574">
        <ele>562.5</ele>
        <time>2017-12-30T22:59:24Z</time>
      </trkpt>
      <trkpt lat="45.43221" lon="5.50578">
        <ele>562.6</ele>
        <time>2017-12-30T22:59:25Z</time>
      </trkpt>
      <trkpt lat="45.43225" lon="5.50598">
        <ele>562.2</ele>
        <time>2017-12-30T22:59:34Z</time>
      </trkpt>
      <trkpt lat="45.43227" lon="5.5061">
        <ele>561.8</ele>
        <time>2017-12-30T22:59:39Z</time>
      </trkpt>
      <trkpt lat="45.43227" lon="5.50618">
        <ele>561.7</ele>
        <time>2017-12-30T22:59:42Z</time>
      </trkpt>
      <trkpt lat="45.43226" lon="5.50628">
        <ele>561.5</ele>
        <time>2017-12-30T22:59:46Z</time>
      </trkpt>
      <trkpt lat="45.43223" lon="5.50637">
        <ele>561.5</ele>
        <time>2017-12-30T22:59:50Z</time>
      </trkpt>
      <trkpt lat="45.4322" lon="5.50647">
        <ele>561.5</ele>
        <time>2017-12-30T22:59:54Z</time>
      </trkpt>
      <trkpt lat="45.43217" lon="5.50657">
        <ele>561.6</ele>
        <time>2017-12-30T22:59:59Z</time>
      </trkpt>
      <trkpt lat="45.43214" lon="5.50665">
        <ele>561.6</ele>
        <time>2017-12-30T23:00:02Z</time>
      </trkpt>
      <trkpt lat="45.43213" lon="5.50674">
        <ele>561.3</ele>
        <time>2017-12-30T23:00:06Z</time>
      </trkpt>
      <trkpt lat="45.43215" lon="5.50686">
        <ele>560.7</ele>
        <time>2017-12-30T23:00:11Z</time>
      </trkpt>
      <trkpt lat="45.43217" lon="5.50695">
        <ele>560.2</ele>
        <time>2017-12-30T23:00:15Z</time>
      </trkpt>
      <trkpt lat="45.43221" lon="5.50706">
        <ele>559.5</ele>
        <time>2017-12-30T23:00:20Z</time>
      </trkpt>
      <trkpt lat="45.43223" lon="5.50712">
        <ele>559.2</ele>
        <time>2017-12-30T23:00:22Z</time>
      </trkpt>
      <trkpt lat="45.43226" lon="5.50718">
        <ele>558.8</ele>
        <time>2017-12-30T23:00:25Z</time>
      </trkpt>
      <trkpt lat="45.43228" lon="5.50725">
        <ele>558.5</ele>
        <time>2017-12-30T23:00:28Z</time>
      </trkpt>
      <trkpt lat="45.43231" lon="5.50732">
        <ele>558.1</ele>
        <time>2017-12-30T23:00:32Z</time>
      </trkpt>
      <trkpt lat="45.43234" lon="5.50739">
        <ele>557.8</ele>
        <time>2017-12-30T23:00:35Z</time>
      </trkpt>
      <trkpt lat="45.43236" lon="5.50748">
        <ele>557.4</ele>
        <time>2017-12-30T23:00:39Z</time>
      </trkpt>
      <trkpt lat="45.43239" lon="5.50757">
        <ele>557</ele>
        <time>2017-12-30T23:00:43Z</time>
      </trkpt>
      <trkpt lat="45.43242" lon="5.50766">
        <ele>556.6</ele>
        <time>2017-12-30T23:00:47Z</time>
      </trkpt>
      <trkpt lat="45.43245" lon="5.50775">
        <ele>556.2</ele>
        <time>2017-12-30T23:00:51Z</time>
      </trkpt>
      <trkpt lat="45.43248" lon="5.50785">
        <ele>555.8</ele>
        <time>2017-12-30T23:00:55Z</time>
      </trkpt>
      <trkpt lat="45.43251" lon="5.50794">
        <ele>555.3</ele>
        <time>2017-12-30T23:00:59Z</time>
      </trkpt>
      <trkpt lat="45.43255" lon="5.50803">
        <ele>554.5</ele>
        <time>2017-12-30T23:01:03Z</time>
      </trkpt>
      <trkpt lat="45.43258" lon="5.50813">
        <ele>553.7</ele>
        <time>2017-12-30T23:01:08Z</time>
      </trkpt>
      <trkpt lat="45.43261" lon="5.50822">
        <ele>552.9</ele>
        <time>2017-12-30T23:01:12Z</time>
      </trkpt>
      <trkpt lat="45.43264" lon="5.50831">
        <ele>552.1</ele>
        <time>2017-12-30T23:01:16Z</time>
      </trkpt>
      <trkpt lat="45.43267" lon="5.5084">
        <ele>551</ele>
        <time>2017-12-30T23:01:20Z</time>
      </trkpt>
      <trkpt lat="45.4327" lon="5.50849">
        <ele>549.8</ele>
        <time>2017-12-30T23:01:24Z</time>
      </trkpt>
      <trkpt lat="45.43272" lon="5.50858">
        <ele>548.8</ele>
        <time>2017-12-30T23:01:28Z</time>
      </trkpt>
      <trkpt lat="45.43274" lon="5.50865">
        <ele>547.8</ele>
        <time>2017-12-30T23:01:31Z</time>
      </trkpt>
      <trkpt lat="45.43277" lon="5.50871">
        <ele>546.8</ele>
        <time>2017-12-30T23:01:33Z</time>
      </trkpt>
      <trkpt lat="45.43281" lon="5.50874">
        <ele>545.9</ele>
        <time>2017-12-30T23:01:36Z</time>
      </trkpt>
      <trkpt lat="45.43286" lon="5.50874">
        <ele>545.1</ele>
        <time>2017-12-30T23:01:39Z</time>
      </trkpt>
      <trkpt lat="45.43294" lon="5.50869">
        <ele>544.2</ele>
        <time>2017-12-30T23:01:44Z</time>
      </trkpt>
      <trkpt lat="45.43298" lon="5.50865">
        <ele>544</ele>
        <time>2017-12-30T23:01:47Z</time>
      </trkpt>
      <trkpt lat="45.43302" lon="5.50862">
        <ele>543.6</ele>
        <time>2017-12-30T23:01:49Z</time>
      </trkpt>
      <trkpt lat="45.43306" lon="5.50858">
        <ele>543.4</ele>
        <time>2017-12-30T23:01:52Z</time>
      </trkpt>
      <trkpt lat="45.43313" lon="5.5085">
        <ele>543.2</ele>
        <time>2017-12-30T23:01:57Z</time>
      </trkpt>
      <trkpt lat="45.43319" lon="5.50842">
        <ele>543.1</ele>
        <time>2017-12-30T23:02:02Z</time>
      </trkpt>
      <trkpt lat="45.43322" lon="5.50839">
        <ele>543</ele>
        <time>2017-12-30T23:02:04Z</time>
      </trkpt>
      <trkpt lat="45.43332" lon="5.50829">
        <ele>542.7</ele>
        <time>2017-12-30T23:02:11Z</time>
      </trkpt>
      <trkpt lat="45.4334" lon="5.50831">
        <ele>541.4</ele>
        <time>2017-12-30T23:02:16Z</time>
      </trkpt>
      <trkpt lat="45.43342" lon="5.50842">
        <ele>540.1</ele>
        <time>2017-12-30T23:02:20Z</time>
      </trkpt>
      <trkpt lat="45.43343" lon="5.50849">
        <ele>539.3</ele>
        <time>2017-12-30T23:02:23Z</time>
      </trkpt>
      <trkpt lat="45.43344" lon="5.50856">
        <ele>538.6</ele>
        <time>2017-12-30T23:02:26Z</time>
      </trkpt>
      <trkpt lat="45.43345" lon="5.50865">
        <ele>537.8</ele>
        <time>2017-12-30T23:02:30Z</time>
      </trkpt>
      <trkpt lat="45.43346" lon="5.50873">
        <ele>537.1</ele>
        <time>2017-12-30T23:02:33Z</time>
      </trkpt>
      <trkpt lat="45.43346" lon="5.50882">
        <ele>536.3</ele>
        <time>2017-12-30T23:02:36Z</time>
      </trkpt>
      <trkpt lat="45.43347" lon="5.50891">
        <ele>535.6</ele>
        <time>2017-12-30T23:02:40Z</time>
      </trkpt>
      <trkpt lat="45.43347" lon="5.50902">
        <ele>534.7</ele>
        <time>2017-12-30T23:02:45Z</time>
      </trkpt>
      <trkpt lat="45.43347" lon="5.50914">
        <ele>533.7</ele>
        <time>2017-12-30T23:02:49Z</time>
      </trkpt>
      <trkpt lat="45.43347" lon="5.50925">
        <ele>533.1</ele>
        <time>2017-12-30T23:02:54Z</time>
      </trkpt>
      <trkpt lat="45.43347" lon="5.50938">
        <ele>532.5</ele>
        <time>2017-12-30T23:02:59Z</time>
      </trkpt>
      <trkpt lat="45.43346" lon="5.50949">
        <ele>531.8</ele>
        <time>2017-12-30T23:03:03Z</time>
      </trkpt>
      <trkpt lat="45.43346" lon="5.5096">
        <ele>531.3</ele>
        <time>2017-12-30T23:03:08Z</time>
      </trkpt>
      <trkpt lat="45.43347" lon="5.5097">
        <ele>530.9</ele>
        <time>2017-12-30T23:03:12Z</time>
      </trkpt>
      <trkpt lat="45.43347" lon="5.50979">
        <ele>530.5</ele>
        <time>2017-12-30T23:03:16Z</time>
      </trkpt>
      <trkpt lat="45.43346" lon="5.50986">
        <ele>530</ele>
        <time>2017-12-30T23:03:18Z</time>
      </trkpt>
      <trkpt lat="45.43347" lon="5.50992">
        <ele>529.9</ele>
        <time>2017-12-30T23:03:21Z</time>
      </trkpt>
      <trkpt lat="45.43355" lon="5.50999">
        <ele>531</ele>
        <time>2017-12-30T23:03:26Z</time>
      </trkpt>
      <trkpt lat="45.4336" lon="5.50995">
        <ele>532</ele>
        <time>2017-12-30T23:03:30Z</time>
      </trkpt>
      <trkpt lat="45.43363" lon="5.50988">
        <ele>532.8</ele>
        <time>2017-12-30T23:03:33Z</time>
      </trkpt>
      <trkpt lat="45.43365" lon="5.50979">
        <ele>533.4</ele>
        <time>2017-12-30T23:03:37Z</time>
      </trkpt>
      <trkpt lat="45.43366" lon="5.50971">
        <ele>533.8</ele>
        <time>2017-12-30T23:03:40Z</time>
      </trkpt>
      <trkpt lat="45.4337" lon="5.5096">
        <ele>534.8</ele>
        <time>2017-12-30T23:03:45Z</time>
      </trkpt>
      <trkpt lat="45.43378" lon="5.50963">
        <ele>535.9</ele>
        <time>2017-12-30T23:03:50Z</time>
      </trkpt>
      <trkpt lat="45.43376" lon="5.50976">
        <ele>535.3</ele>
        <time>2017-12-30T23:03:55Z</time>
      </trkpt>
      <trkpt lat="45.43375" lon="5.50983">
        <ele>534.9</ele>
        <time>2017-12-30T23:03:58Z</time>
      </trkpt>
      <trkpt lat="45.43375" lon="5.50991">
        <ele>534.7</ele>
        <time>2017-12-30T23:04:01Z</time>
      </trkpt>
      <trkpt lat="45.43374" lon="5.50999">
        <ele>534.4</ele>
        <time>2017-12-30T23:04:04Z</time>
      </trkpt>
      <trkpt lat="45.43373" lon="5.51009">
        <ele>534</ele>
        <time>2017-12-30T23:04:08Z</time>
      </trkpt>
      <trkpt lat="45.43372" lon="5.51019">
        <ele>533.6</ele>
        <time>2017-12-30T23:04:12Z</time>
      </trkpt>
      <trkpt lat="45.4337" lon="5.51029">
        <ele>533</ele>
        <time>2017-12-30T23:04:17Z</time>
      </trkpt>
      <trkpt lat="45.43367" lon="5.51039">
        <ele>532.1</ele>
        <time>2017-12-30T23:04:21Z</time>
      </trkpt>
      <trkpt lat="45.43365" lon="5.5105">
        <ele>531.3</ele>
        <time>2017-12-30T23:04:25Z</time>
      </trkpt>
      <trkpt lat="45.43363" lon="5.51062">
        <ele>530.5</ele>
        <time>2017-12-30T23:04:30Z</time>
      </trkpt>
      <trkpt lat="45.43362" lon="5.51074">
        <ele>529.9</ele>
        <time>2017-12-30T23:04:35Z</time>
      </trkpt>
      <trkpt lat="45.43361" lon="5.51087">
        <ele>529.2</ele>
        <time>2017-12-30T23:04:40Z</time>
      </trkpt>
      <trkpt lat="45.43361" lon="5.51099">
        <ele>528.7</ele>
        <time>2017-12-30T23:04:45Z</time>
      </trkpt>
      <trkpt lat="45.43359" lon="5.51113">
        <ele>527.7</ele>
        <time>2017-12-30T23:04:51Z</time>
      </trkpt>
      <trkpt lat="45.43357" lon="5.51126">
        <ele>526.7</ele>
        <time>2017-12-30T23:04:56Z</time>
      </trkpt>
      <trkpt lat="45.43355" lon="5.51139">
        <ele>525.7</ele>
        <time>2017-12-30T23:05:02Z</time>
      </trkpt>
      <trkpt lat="45.43354" lon="5.51151">
        <ele>525.1</ele>
        <time>2017-12-30T23:05:07Z</time>
      </trkpt>
      <trkpt lat="45.43352" lon="5.51163">
        <ele>524.2</ele>
        <time>2017-12-30T23:05:11Z</time>
      </trkpt>
      <trkpt lat="45.4335" lon="5.51176">
        <ele>522.6</ele>
        <time>2017-12-30T23:05:17Z</time>
      </trkpt>
      <trkpt lat="45.43348" lon="5.51187">
        <ele>520.9</ele>
        <time>2017-12-30T23:05:21Z</time>
      </trkpt>
      <trkpt lat="45.43348" lon="5.51197">
        <ele>519.7</ele>
        <time>2017-12-30T23:05:25Z</time>
      </trkpt>
      <trkpt lat="45.43347" lon="5.51206">
        <ele>518.5</ele>
        <time>2017-12-30T23:05:29Z</time>
      </trkpt>
      <trkpt lat="45.43345" lon="5.51213">
        <ele>517.4</ele>
        <time>2017-12-30T23:05:32Z</time>
      </trkpt>
      <trkpt lat="45.4334" lon="5.5122">
        <ele>515.9</ele>
        <time>2017-12-30T23:05:36Z</time>
      </trkpt>
      <trkpt lat="45.43335" lon="5.51227">
        <ele>514.5</ele>
        <time>2017-12-30T23:05:40Z</time>
      </trkpt>
      <trkpt lat="45.43332" lon="5.51236">
        <ele>513.3</ele>
        <time>2017-12-30T23:05:44Z</time>
      </trkpt>
      <trkpt lat="45.4333" lon="5.51246">
        <ele>512.3</ele>
        <time>2017-12-30T23:05:48Z</time>
      </trkpt>
      <trkpt lat="45.4333" lon="5.51257">
        <ele>511.1</ele>
        <time>2017-12-30T23:05:53Z</time>
      </trkpt>
      <trkpt lat="45.4333" lon="5.51269">
        <ele>509.9</ele>
        <time>2017-12-30T23:05:58Z</time>
      </trkpt>
      <trkpt lat="45.43329" lon="5.51281">
        <ele>508.6</ele>
        <time>2017-12-30T23:06:02Z</time>
      </trkpt>
      <trkpt lat="45.43328" lon="5.51294">
        <ele>507.1</ele>
        <time>2017-12-30T23:06:08Z</time>
      </trkpt>
      <trkpt lat="45.43328" lon="5.51304">
        <ele>506.1</ele>
        <time>2017-12-30T23:06:12Z</time>
      </trkpt>
      <trkpt lat="45.43327" lon="5.51314">
        <ele>505</ele>
        <time>2017-12-30T23:06:16Z</time>
      </trkpt>
      <trkpt lat="45.43326" lon="5.51326">
        <ele>503.7</ele>
        <time>2017-12-30T23:06:21Z</time>
      </trkpt>
      <trkpt lat="45.43325" lon="5.51335">
        <ele>502.8</ele>
        <time>2017-12-30T23:06:24Z</time>
      </trkpt>
      <trkpt lat="45.43326" lon="5.51347">
        <ele>502.3</ele>
        <time>2017-12-30T23:06:29Z</time>
      </trkpt>
      <trkpt lat="45.43326" lon="5.51354">
        <ele>502</ele>
        <time>2017-12-30T23:06:32Z</time>
      </trkpt>
      <trkpt lat="45.43327" lon="5.5136">
        <ele>501.7</ele>
        <time>2017-12-30T23:06:34Z</time>
      </trkpt>
      <trkpt lat="45.43326" lon="5.51368">
        <ele>501.3</ele>
        <time>2017-12-30T23:06:38Z</time>
      </trkpt>
      <trkpt lat="45.43326" lon="5.51375">
        <ele>501</ele>
        <time>2017-12-30T23:06:40Z</time>
      </trkpt>
      <trkpt lat="45.43326" lon="5.51382">
        <ele>500.7</ele>
        <time>2017-12-30T23:06:43Z</time>
      </trkpt>
      <trkpt lat="45.43325" lon="5.51389">
        <ele>500.4</ele>
        <time>2017-12-30T23:06:46Z</time>
      </trkpt>
      <trkpt lat="45.43324" lon="5.51398">
        <ele>500</ele>
        <time>2017-12-30T23:06:50Z</time>
      </trkpt>
      <trkpt lat="45.43324" lon="5.51406">
        <ele>499.6</ele>
        <time>2017-12-30T23:06:53Z</time>
      </trkpt>
      <trkpt lat="45.43323" lon="5.51415">
        <ele>499.2</ele>
        <time>2017-12-30T23:06:57Z</time>
      </trkpt>
      <trkpt lat="45.43323" lon="5.51424">
        <ele>499</ele>
        <time>2017-12-30T23:07:00Z</time>
      </trkpt>
      <trkpt lat="45.43322" lon="5.51433">
        <ele>498.9</ele>
        <time>2017-12-30T23:07:04Z</time>
      </trkpt>
      <trkpt lat="45.43321" lon="5.51442">
        <ele>498.8</ele>
        <time>2017-12-30T23:07:08Z</time>
      </trkpt>
      <trkpt lat="45.4332" lon="5.5145">
        <ele>498.8</ele>
        <time>2017-12-30T23:07:11Z</time>
      </trkpt>
      <trkpt lat="45.43319" lon="5.51459">
        <ele>498.7</ele>
        <time>2017-12-30T23:07:14Z</time>
      </trkpt>
      <trkpt lat="45.43318" lon="5.51468">
        <ele>498.6</ele>
        <time>2017-12-30T23:07:18Z</time>
      </trkpt>
      <trkpt lat="45.43317" lon="5.51477">
        <ele>498.5</ele>
        <time>2017-12-30T23:07:22Z</time>
      </trkpt>
      <trkpt lat="45.43316" lon="5.51486">
        <ele>498.4</ele>
        <time>2017-12-30T23:07:25Z</time>
      </trkpt>
      <trkpt lat="45.43316" lon="5.51494">
        <ele>498.3</ele>
        <time>2017-12-30T23:07:29Z</time>
      </trkpt>
      <trkpt lat="45.43315" lon="5.51503">
        <ele>498.2</ele>
        <time>2017-12-30T23:07:32Z</time>
      </trkpt>
      <trkpt lat="45.43315" lon="5.51512">
        <ele>497.9</ele>
        <time>2017-12-30T23:07:36Z</time>
      </trkpt>
      <trkpt lat="45.43315" lon="5.51521">
        <ele>497.7</ele>
        <time>2017-12-30T23:07:39Z</time>
      </trkpt>
      <trkpt lat="45.43315" lon="5.51529">
        <ele>497.5</ele>
        <time>2017-12-30T23:07:43Z</time>
      </trkpt>
      <trkpt lat="45.43315" lon="5.51538">
        <ele>497.3</ele>
        <time>2017-12-30T23:07:46Z</time>
      </trkpt>
      <trkpt lat="45.43314" lon="5.51547">
        <ele>497.1</ele>
        <time>2017-12-30T23:07:50Z</time>
      </trkpt>
      <trkpt lat="45.43315" lon="5.51556">
        <ele>496.9</ele>
        <time>2017-12-30T23:07:54Z</time>
      </trkpt>
      <trkpt lat="45.43315" lon="5.51556">
        <ele>496.9</ele>
        <time>2017-12-30T23:07:54Z</time>
      </trkpt>
      <trkpt lat="45.43315" lon="5.51617">
        <ele>495.9</ele>
        <time>2017-12-30T23:08:18Z</time>
      </trkpt>
    </trkseg>
  </trk>
</gpx>